# Wetter Temperatur Luftdruck Luftfeuchtigkeit Sichtweite Windgeschwindigkeit Windrichtung Zeit
1 Clouds -7 1034 18 10000 2.12 35 14:21 01.02.2023
2 Clouds -7 1034 18 10000 2.12 35 14:21 01.02.2023
3 Clouds -5 1034 15 10000 1.51 341 13:19 01.02.2023
4 Clouds -4 1033 14 10000 2.25 18 12:26 01.02.2023
5 Clouds -3 1033 14 10000 2.25 18 11:35 01.02.2023
6 Clouds 3 1032 12 10000 4.3 342 08:41 01.02.2023
7 Clouds -3 1031 18 10000 5.91 337 22:59 31.01.2023
8 Clouds -1 1029 20 10000 6.06 346 21:20 31.01.2023
9 Clouds 0 1029 25 10000 6.25 346 19:24 31.01.2023
10 Clouds 0 1029 25 10000 6.25 346 19:24 31.01.2023
11 Clouds 2 1028 26 10000 6.37 344 17:41 31.01.2023
12 Clear 5 1026 29 10000 7.15 329 15:36 31.01.2023
13 Clear 5 1024 24 10000 5.95 324 15:18 31.01.2023
14 Clear 7 1022 21 10000 6.75 324 13:34 31.01.2023
15 Clear 11 1017 16 10000 7.9 316 11:28 31.01.2023
16 Clear 12 1016 16 10000 6.55 312 10:25 31.01.2023
17 Clear 12 1016 16 10000 6.55 312 09:44 31.01.2023
18 Clear 13 1015 15 10000 5.16 305 08:36 31.01.2023
19 Clear 13 1015 14 10000 4.46 296 07:36 31.01.2023
20 Clear 2 1017 18 10000 2 334 03:34 31.01.2023
21 Clear -8 1015 30 10000 2.02 357 23:29 30.01.2023
22 Clear -9 1015 30 10000 2.02 357 22:50 30.01.2023
23 Clear -8 1015 30 10000 1.86 3 21:48 30.01.2023
24 Clear -9 1015 31 10000 1.9 357 20:44 30.01.2023
25 Clear -7 1016 33 10000 0.4 280 18:26 30.01.2023
26 Clear -7 1016 33 10000 0.78 344 17:25 30.01.2023
27 Clear -5 1017 34 10000 1.42 346 14:47 30.01.2023
28 Clear -4 1016 33 10000 1.55 354 13:55 30.01.2023
29 Clear -1 1017 33 10000 0.64 274 12:18 30.01.2023
30 Clear -1 1017 33 10000 0.64 274 12:18 30.01.2023
31 Clear 7 1017 30 10000 0.41 48 10:21 30.01.2023
32 Clear 8 1017 30 10000 0.41 48 09:53 30.01.2023
33 Clear 8 1017 28 10000 0.3 90 08:30 30.01.2023
34 Clear 7 1020 28 10000 1.13 59 06:23 30.01.2023
35 Clear -9 1023 38 10000 1.5 28 00:50 30.01.2023
36 Clear -10 1023 37 10000 1.68 30 23:31 29.01.2023
37 Clear -9 1023 36 10000 1.78 28 22:36 29.01.2023
38 Clear -9 1023 34 10000 1.61 25 20:54 29.01.2023
39 Clear -8 1024 33 10000 1.59 31 20:19 29.01.2023
40 Clear -7 1024 32 10000 1.48 32 19:32 29.01.2023
41 Clear -6 1024 31 10000 1 13 17:56 29.01.2023
42 Clear -6 1024 31 10000 1 13 17:56 29.01.2023
43 Clear -5 1024 30 10000 0.86 356 16:43 29.01.2023
44 Clear -5 1024 30 10000 0.72 329 16:19 29.01.2023
45 Clear -2 1024 26 10000 1.23 302 14:20 29.01.2023
46 Clear 2 1023 27 10000 1.75 238 13:18 29.01.2023
47 Clear 6 1023 27 10000 1.75 238 12:37 29.01.2023
48 Clear 6 1023 26 10000 1.5 252 12:19 29.01.2023
49 Clear 7 1023 26 10000 1.5 252 11:37 29.01.2023
50 Clear 8 1023 24 10000 1.88 287 10:47 29.01.2023
51 Clear 9 1022 20 10000 3.27 312 08:32 29.01.2023
52 Clear 7 1023 23 10000 4.07 319 04:44 29.01.2023
53 Clear -2 1020 26 10000 5.06 320 23:51 28.01.2023
54 Clear 2 1018 22 10000 4.27 297 20:59 28.01.2023
55 Clear -7 1018 22 10000 3.14 298 19:57 28.01.2023
56 Clear -8 1019 20 10000 2.3 317 19:24 28.01.2023
57 Clear -5 1019 22 10000 1.75 296 17:44 28.01.2023
58 Clear -4 1019 22 10000 1.62 277 16:45 28.01.2023
59 Clear -3 1020 23 10000 1.73 246 16:19 28.01.2023
60 Clear -2 1020 23 10000 1.73 246 15:37 28.01.2023
61 Clear -1 1021 22 10000 2.07 220 13:50 28.01.2023
62 Clear 0 1021 19 10000 2.44 214 12:31 28.01.2023
63 Clear 4 1022 18 10000 2.35 206 10:35 28.01.2023
64 Clear 5 1022 17 10000 2.11 213 09:49 28.01.2023
65 Clear 4 1025 15 10000 2.01 278 05:50 28.01.2023
66 Clear -5 1029 22 10000 1.66 305 01:31 28.01.2023
67 Clear -3 1027 23 10000 2.96 305 00:19 28.01.2023
68 Clear -2 1026 20 10000 5.8 313 20:25 27.01.2023
69 Clear 0 1027 19 10000 4.6 298 17:58 27.01.2023
70 Clear 0 1028 18 10000 4.06 305 17:21 27.01.2023
71 Clear 0 1028 18 10000 4.06 305 16:58 27.01.2023
72 Clear 0 1028 18 10000 3.35 298 16:21 27.01.2023
73 Clear -4 1028 17 10000 1.83 246 14:28 27.01.2023
74 Clear 0 1028 17 10000 1.83 246 13:44 27.01.2023
75 Clouds 0 1029 16 10000 2.91 262 11:51 27.01.2023
76 Clear 1 1031 13 10000 5.24 296 08:35 27.01.2023
77 Clear -4 1036 21 10000 4.06 313 02:36 27.01.2023
78 Clear -6 1034 26 10000 4.59 313 22:48 26.01.2023
79 Clear -6 1034 27 10000 4.9 312 21:21 26.01.2023
80 Clear -5 1034 27 10000 4.9 312 20:34 26.01.2023
81 Clear -5 1034 28 10000 4.43 313 18:20 26.01.2023
82 Clear -4 1034 28 10000 4.43 313 17:40 26.01.2023
83 Clear -5 1034 27 10000 4.45 317 16:26 26.01.2023
84 Clear -4 1034 27 10000 4.45 317 15:48 26.01.2023
85 Clear -4 1033 25 10000 4.2 322 15:28 26.01.2023
86 Clear -4 1033 23 10000 4.31 323 13:58 26.01.2023
87 Clear -3 1032 23 10000 4.23 317 12:44 26.01.2023
88 Clear -2 1031 21 10000 4.22 310 11:26 26.01.2023
89 Clear -1 1030 19 10000 4.68 320 10:28 26.01.2023
90 Clear 0 1030 19 10000 4.68 320 09:44 26.01.2023
91 Clear 1 1029 18 10000 5.5 338 08:25 26.01.2023
92 Clear 1 1029 18 10000 5.5 338 08:25 26.01.2023
93 Clouds -11 1027 29 10000 4.33 340 23:59 25.01.2023
94 Clouds -11 1027 29 10000 4.33 340 23:38 25.01.2023
95 Clouds -13 1025 25 10000 4.19 317 21:57 25.01.2023
96 Clouds -13 1024 25 10000 3.83 324 21:21 25.01.2023
97 Clear -14 1024 22 10000 1.56 9 18:59 25.01.2023
98 Clear -13 1024 21 10000 1.54 13 18:22 25.01.2023
99 Clear -12 1023 18 10000 1.71 13 15:50 25.01.2023
100 Clear -14 1023 14 10000 1.78 15 12:59 25.01.2023
101 Clear -10 1022 13 10000 0.84 358 11:25 25.01.2023
102 Clear -5 1022 13 10000 0.67 272 09:49 25.01.2023
103 Clouds -6 1022 12 10000 1.78 225 07:45 25.01.2023
104 Clear -20 1030 22 10000 0.54 6 01:37 25.01.2023
105 Clear -20 1030 25 10000 0.25 9 00:25 25.01.2023
106 Clear -19 1031 24 10000 0.18 155 21:35 24.01.2023
107 Clear -17 1032 22 10000 0.25 154 20:39 24.01.2023
108 Clear -18 1033 18 10000 0.56 166 18:50 24.01.2023
109 Clear -18 1034 15 10000 0.82 180 18:29 24.01.2023
110 Clear -17 1035 14 10000 1.12 193 16:53 24.01.2023
111 Clear -17 1035 14 10000 1.12 193 16:53 24.01.2023
112 Clear -15 1036 13 10000 1.45 200 16:29 24.01.2023
113 Clear -8 1036 11 10000 1.61 201 13:50 24.01.2023
114 Clear -8 1037 10 10000 1.39 171 11:46 24.01.2023
115 Clear -7 1038 8 10000 2 276 08:43 24.01.2023
116 Clear -7 1039 9 10000 2.48 284 08:18 24.01.2023
117 Clear -7 1039 9 10000 2.48 284 07:48 24.01.2023
118 Clear -12 1043 12 10000 5.34 318 02:43 24.01.2023
119 Clear -15 1042 15 10000 5.6 318 00:40 24.01.2023
120 Clear -15 1042 16 10000 6.7 315 22:32 23.01.2023
121 Clear -16 1043 17 10000 6.53 315 20:43 23.01.2023
122 Clear -16 1044 19 10000 6.61 321 19:22 23.01.2023
123 Clear -15 1044 19 10000 6.51 326 17:20 23.01.2023
124 Clear -13 1044 19 10000 6.58 322 15:32 23.01.2023
125 Clear -12 1043 16 10000 6.41 326 13:56 23.01.2023
126 Clear -11 1042 16 10000 5.76 336 12:56 23.01.2023
127 Clear -10 1041 14 10000 5.61 341 11:57 23.01.2023
128 Clear -9 1041 13 10000 6.03 328 11:28 23.01.2023
129 Clear -4 1038 14 10000 6.26 319 08:25 23.01.2023
130 Clouds -9 1032 67 10000 1.58 61 00:24 23.01.2023
131 Clouds -6 1031 78 10000 2.9 105 22:19 22.01.2023
132 Snow -6 1031 74 10000 2.58 90 21:19 22.01.2023
133 Clouds -4 1030 65 10000 2.29 101 19:58 22.01.2023
134 Clouds -3 1030 65 10000 2.29 101 19:40 22.01.2023
135 Clouds -3 1029 71 10000 2.65 105 18:48 22.01.2023
136 Clouds -3 1029 78 10000 2.58 114 17:56 22.01.2023
137 Clouds -3 1028 72 10000 3.15 124 17:24 22.01.2023
138 Clouds -2 1028 51 10000 3.09 136 15:30 22.01.2023
139 Clouds -4 1027 35 10000 2.28 159 14:43 22.01.2023
140 Clouds -3 1026 33 10000 1.56 173 13:28 22.01.2023
141 Clouds 0 1026 33 10000 1.56 173 12:34 22.01.2023
142 Clouds 0 1026 32 10000 1.59 177 11:34 22.01.2023
143 Clouds 4 1025 30 10000 1.46 171 09:35 22.01.2023
144 Clouds 2 1026 28 10000 0.92 4 05:51 22.01.2023
145 Clouds -7 1027 34 10000 1.1 2 01:46 22.01.2023
146 Clouds -9 1026 32 10000 1.51 1 23:31 21.01.2023
147 Clouds -9 1026 29 10000 1.16 355 21:40 21.01.2023
148 Clear -12 1026 27 10000 0.88 12 19:46 21.01.2023
149 Clouds -11 1026 24 10000 0.72 32 17:22 21.01.2023
150 Clouds -10 1026 22 10000 0.66 44 14:34 21.01.2023
151 Clouds -8 1025 21 10000 0.78 303 12:57 21.01.2023
152 Clouds -7 1025 21 10000 0.78 303 12:35 21.01.2023
153 Clouds -3 1024 20 10000 0.65 219 11:22 21.01.2023
154 Clear 0 1023 19 10000 0.27 144 09:29 21.01.2023
155 Clear -3 1025 19 10000 1.76 34 04:37 21.01.2023
156 Clear -12 1025 27 10000 1.72 29 22:29 20.01.2023
157 Clear -12 1025 27 10000 1.72 29 22:29 20.01.2023
158 Clear -13 1025 27 10000 1.72 29 21:39 20.01.2023
159 Clear -13 1025 27 10000 1 28 20:58 20.01.2023
160 Clear -10 1026 27 10000 0.37 66 19:52 20.01.2023
161 Clear -12 1028 23 10000 1.48 187 16:47 20.01.2023
162 Clear -9 1029 21 10000 2.43 184 14:47 20.01.2023
163 Clear -7 1029 20 10000 2.58 178 13:51 20.01.2023
164 Clear -3 1030 13 10000 2.81 203 10:25 20.01.2023
165 Clear -1 1030 12 10000 3.15 208 08:57 20.01.2023
166 Clear -2 1032 12 10000 2.81 213 06:38 20.01.2023
167 Clear -6 1037 16 10000 2.68 347 02:31 20.01.2023
168 Clear -8 1034 18 10000 3.21 340 22:36 19.01.2023
169 Clear -8 1034 18 10000 3.82 327 21:31 19.01.2023
170 Clear -6 1034 17 10000 5.55 320 19:29 19.01.2023
171 Clear -6 1032 23 10000 6.7 311 17:20 19.01.2023
172 Clear -3 1030 22 10000 4.49 320 14:25 19.01.2023
173 Clear 0 1026 16 10000 7.19 313 10:19 19.01.2023
174 Clear 2 1025 12 10000 7.82 313 08:55 19.01.2023
175 Clear -7 1020 41 10000 0.56 302 22:40 18.01.2023
176 Clear -10 1021 39 10000 1.58 336 20:21 18.01.2023
177 Clear -9 1021 39 10000 1.58 336 19:45 18.01.2023
178 Clear -8 1021 36 10000 2.27 341 19:27 18.01.2023
179 Clear -7 1022 32 10000 1.54 336 16:22 18.01.2023
180 Clear -5 1021 29 10000 1.18 210 14:20 18.01.2023
181 Clear -3 1021 29 10000 1.19 195 12:25 18.01.2023
182 Clear 3 1021 28 10000 1.13 164 09:37 18.01.2023
183 Clear 3 1022 26 10000 1.68 207 06:44 18.01.2023
184 Clear -12 1027 41 10000 0.23 109 00:59 18.01.2023
185 Clear -11 1028 38 10000 0.48 136 21:53 17.01.2023
186 Clear -10 1029 36 10000 0.21 177 19:43 17.01.2023
187 Clear -10 1030 35 10000 0.34 308 18:53 17.01.2023
188 Clear -8 1030 34 10000 0.96 313 17:41 17.01.2023
189 Clear -1 1030 32 10000 1.53 318 15:27 17.01.2023
190 Clear -1 1030 32 10000 1.53 318 14:49 17.01.2023
191 Clear -1 1030 30 10000 2.07 326 13:33 17.01.2023
192 Clear 1 1029 27 10000 2.9 326 11:47 17.01.2023
193 Clear 2 1029 27 10000 3.63 325 10:33 17.01.2023
194 Clear 3 1028 24 10000 4.44 324 08:55 17.01.2023
195 Clear 3 1028 23 10000 4.84 322 07:33 17.01.2023
196 Clear 0 1029 23 10000 4.66 334 03:49 17.01.2023
197 Clouds -8 1028 28 10000 4.51 321 00:48 17.01.2023
198 Clouds -5 1026 28 10000 4.7 310 22:38 16.01.2023
199 Clouds -3 1026 28 10000 4.7 315 21:44 16.01.2023
200 Clouds -10 1027 28 10000 3.07 329 19:55 16.01.2023
201 Clouds -7 1027 27 10000 2.57 337 19:18 16.01.2023
202 Clouds -9 1027 27 10000 2.57 337 18:48 16.01.2023
203 Clouds -7 1027 26 10000 2.02 324 18:18 16.01.2023
204 Clouds -8 1027 25 10000 0.81 312 17:20 16.01.2023
205 Clouds -1 1027 19 10000 1.38 232 14:19 16.01.2023
206 Clouds -1 1027 19 10000 1.38 232 13:36 16.01.2023
207 Clear -2 1027 18 10000 1.83 195 10:25 16.01.2023
208 Clouds 1 1027 17 10000 2.04 201 08:32 16.01.2023
209 Clear -15 1031 29 10000 0.61 3 22:49 15.01.2023
210 Clear -14 1031 27 10000 0.92 355 21:24 15.01.2023
211 Clear -11 1031 27 10000 0.92 355 20:31 15.01.2023
212 Clear -13 1031 26 10000 1.05 4 19:34 15.01.2023
213 Clear -12 1031 22 10000 2.05 333 17:25 15.01.2023
214 Clear -7 1031 21 10000 2.9 323 14:59 15.01.2023
215 Clear -4 1030 19 10000 4.29 312 12:25 15.01.2023
216 Clear -2 1030 18 10000 4.58 311 11:29 15.01.2023
217 Clear -2 1029 17 10000 5.13 312 10:27 15.01.2023
218 Clear -1 1029 16 10000 6.34 309 08:29 15.01.2023
219 Clouds -13 1033 24 10000 2.92 300 00:35 15.01.2023
220 Clouds -15 1033 21 10000 2.93 318 22:44 14.01.2023
221 Clouds -12 1033 19 10000 3.22 325 21:54 14.01.2023
222 Clouds -11 1033 19 10000 3.22 325 21:36 14.01.2023
223 Clouds -11 1034 18 10000 3.58 326 21:18 14.01.2023
224 Clouds -11 1034 18 10000 3.58 326 21:18 14.01.2023
225 Clouds -11 1035 17 10000 4.18 324 20:28 14.01.2023
226 Clouds -10 1035 15 10000 3.78 339 18:18 14.01.2023
227 Clouds -7 1036 15 10000 3.77 347 15:43 14.01.2023
228 Clouds -7 1036 14 10000 4.19 350 15:24 14.01.2023
229 Clouds -6 1036 14 10000 4 351 14:22 14.01.2023
230 Clear -6 1035 13 10000 4.53 353 13:25 14.01.2023
231 Clouds -4 1034 13 10000 4.52 344 10:50 14.01.2023
232 Clouds -2 1033 12 10000 5.61 340 09:23 14.01.2023
233 Clouds -5 1036 19 10000 5.46 350 02:39 14.01.2023
234 Clouds -5 1032 25 10000 5.57 349 23:20 13.01.2023
235 Clouds -5 1032 25 10000 5.57 349 22:41 13.01.2023
236 Clouds -5 1032 26 10000 5.76 350 21:58 13.01.2023
237 Clouds -5 1031 28 10000 5.8 349 20:49 13.01.2023
238 Clouds -4 1031 37 10000 5.39 343 19:28 13.01.2023
239 Clouds -2 1031 37 10000 5.62 341 17:42 13.01.2023
240 Clouds -1 1029 43 10000 5.03 346 15:20 13.01.2023
241 Clouds 2 1027 47 10000 4.38 4 12:33 13.01.2023
242 Clouds 3 1026 49 10000 4.16 12 11:57 13.01.2023
243 Rain 4 1023 46 10000 3.92 15 10:23 13.01.2023
244 Rain 4 1023 46 10000 3.92 15 09:44 13.01.2023
245 Clouds 5 1021 41 10000 2.93 31 08:52 13.01.2023
246 Clouds 5 1019 42 10000 2.14 84 06:57 13.01.2023
247 Clouds 5 1019 42 10000 2.14 84 06:30 13.01.2023
248 Clouds 4 1019 60 10000 2.2 10 03:21 13.01.2023
249 Clouds 1 1015 76 10000 2.19 357 22:57 12.01.2023
250 Clouds 0 1015 78 10000 1.9 332 22:00 12.01.2023
251 Clouds 2 1014 81 10000 1.56 335 20:55 12.01.2023
252 Clouds 2 1015 85 10000 1.89 338 18:52 12.01.2023
253 Clouds 2 1014 88 10000 1.93 345 17:33 12.01.2023
254 Clouds 1 1015 85 10000 1.98 5 15:45 12.01.2023
255 Clouds 1 1015 79 10000 1.89 9 14:43 12.01.2023
256 Clouds 1 1015 67 10000 2.09 22 14:20 12.01.2023
257 Clouds 1 1015 68 10000 2.26 7 12:44 12.01.2023
258 Clouds 2 1014 52 10000 2 354 10:30 12.01.2023
259 Clouds 3 1014 48 10000 2.11 9 07:44 12.01.2023
260 Clouds 1 1017 46 10000 1.44 21 01:40 12.01.2023
261 Snow 1 1017 46 10000 1.81 15 23:59 11.01.2023
262 Snow 1 1017 46 10000 1.81 15 23:39 11.01.2023
263 Clouds 1 1017 45 10000 1.79 17 23:20 11.01.2023
264 Clouds 1 1017 45 10000 1.69 21 21:41 11.01.2023
265 Clouds 1 1018 44 10000 1.49 16 19:40 11.01.2023
266 Clear 1 1018 43 10000 1.57 10 18:26 11.01.2023
267 Clear 1 1019 43 10000 1.5 7 16:34 11.01.2023
268 Clear 1 1020 41 10000 1.66 5 14:40 11.01.2023
269 Clouds 1 1020 38 10000 1.64 3 12:34 11.01.2023
270 Clouds 3 1020 37 10000 1.65 357 11:54 11.01.2023
271 Clouds 3 1019 35 10000 1.35 346 09:49 11.01.2023
272 Clouds 3 1019 31 10000 0.19 324 07:37 11.01.2023
273 Clouds 3 1020 32 10000 0.23 245 07:19 11.01.2023
274 Clouds -8 1023 43 10000 0.31 75 23:55 10.01.2023
275 Clouds -8 1023 43 10000 0.66 50 22:36 10.01.2023
276 Clouds -8 1023 43 10000 0.54 42 21:30 10.01.2023
277 Clouds -8 1024 42 10000 0.68 23 19:57 10.01.2023
278 Clouds -8 1024 44 10000 0.83 25 19:34 10.01.2023
279 Clouds -8 1024 45 10000 0.54 25 18:47 10.01.2023
280 Clouds -7 1024 44 10000 0.85 3 17:54 10.01.2023
281 Clouds -6 1025 43 10000 0.42 2 15:48 10.01.2023
282 Clear -6 1025 43 10000 1 55 15:23 10.01.2023
283 Clear -5 1026 42 10000 1 11 14:21 10.01.2023
284 Clear -2 1026 41 10000 1.11 358 11:49 10.01.2023
285 Clear 6 1026 33 10000 0.8 255 08:58 10.01.2023
286 Clear 6 1026 31 10000 1.55 244 08:25 10.01.2023
287 Clear 5 1027 34 10000 0.97 245 07:26 10.01.2023
288 Clear 2 1029 37 10000 1.06 245 04:51 10.01.2023
289 Clear -4 1031 47 10000 0.79 204 22:51 09.01.2023
290 Clear -6 1031 47 10000 0.96 198 21:47 09.01.2023
291 Clear -5 1032 47 10000 1.05 197 20:41 09.01.2023
292 Clear -1 1033 48 10000 1.2 192 18:42 09.01.2023
293 Clear -1 1033 47 10000 1.37 197 17:53 09.01.2023
294 Clear 1 1034 46 10000 1.53 192 16:58 09.01.2023
295 Clear 0 1034 46 10000 1.51 183 16:30 09.01.2023
296 Clouds -1 1034 44 10000 1.31 183 15:22 09.01.2023
297 Clear 2 1034 41 10000 1.55 180 14:43 09.01.2023
298 Clouds 2 1033 37 10000 1.06 177 12:54 09.01.2023
299 Clouds 3 1033 36 10000 0.94 179 12:22 09.01.2023
300 Clouds 1 1033 35 10000 0.73 185 11:20 09.01.2023
301 Clear 9 1032 27 10000 1.43 204 08:28 09.01.2023
302 Clear 8 1032 27 10000 1.37 203 06:31 09.01.2023
303 Clear 4 1034 37 10000 0.19 299 02:53 09.01.2023
304 Clear 1 1032 41 10000 0.58 47 22:43 08.01.2023
305 Clouds 3 1031 40 10000 1.08 67 21:23 08.01.2023
306 Clouds 3 1031 40 10000 1.08 67 20:57 08.01.2023
307 Clouds 5 1030 38 10000 1.28 42 19:19 08.01.2023
308 Clouds 5 1030 38 10000 1.52 38 17:39 08.01.2023
309 Clouds 5 1029 36 10000 1.96 37 17:18 08.01.2023
310 Clouds 7 1029 35 10000 2.41 31 15:38 08.01.2023
311 Clouds 7 1029 39 10000 1.83 34 15:38 08.01.2023
312 Clouds 7 1027 37 10000 2.43 25 14:18 08.01.2023
313 Clouds 8 1027 37 10000 2.43 25 13:32 08.01.2023
314 Clouds 8 1026 36 10000 2.82 26 12:59 08.01.2023
315 Clouds 2 1025 34 10000 3.12 32 11:23 08.01.2023
316 Clouds 11 1024 32 10000 3.27 32 09:37 08.01.2023
317 Clear 11 1022 25 10000 3.46 25 08:27 08.01.2023
318 Clear -1 1022 31 10000 1.89 12 02:25 08.01.2023
319 Clouds -6 1020 30 10000 1.63 2 22:55 07.01.2023
320 Clouds -7 1020 30 10000 1.63 2 22:34 07.01.2023
321 Clouds -6 1020 30 10000 1.59 358 21:51 07.01.2023
322 Clouds -7 1020 29 10000 1.62 359 20:58 07.01.2023
323 Clouds -7 1020 29 10000 1.44 13 20:25 07.01.2023
324 Clouds -7 1021 28 10000 1.66 18 19:19 07.01.2023
325 Clouds -6 1021 27 10000 1.38 20 18:18 07.01.2023
326 Clouds -6 1021 27 10000 1.38 20 17:39 07.01.2023
327 Clouds -6 1021 26 10000 1.16 26 16:39 07.01.2023
328 Clouds -6 1021 25 10000 1.02 22 15:52 07.01.2023
329 Clouds -6 1021 25 10000 1.02 22 15:31 07.01.2023
330 Clouds -5 1021 24 10000 0.78 33 14:50 07.01.2023
331 Clouds -4 1021 24 10000 0.6 20 13:58 07.01.2023
332 Clouds -3 1021 24 10000 0.6 20 13:39 07.01.2023
333 Clouds -2 1021 24 10000 0.64 322 12:35 07.01.2023
334 Clouds -2 1021 24 10000 0.63 309 11:58 07.01.2023
335 Clouds 4 1020 23 10000 0.37 297 10:26 07.01.2023
336 Clouds 7 1020 21 10000 0.6 97 08:48 07.01.2023
337 Clouds 6 1021 20 10000 0.6 20 07:47 07.01.2023
338 Clouds 6 1021 20 10000 0.11 123 07:20 07.01.2023
339 Clouds 2 1023 21 10000 0.18 38 04:59 07.01.2023
340 Clear -8 1022 28 10000 0.91 343 22:57 06.01.2023
341 Clear -10 1022 28 10000 0.98 337 22:20 06.01.2023
342 Clear -9 1022 28 10000 0.98 337 21:44 06.01.2023
343 Clear -8 1022 28 10000 1.43 334 20:32 06.01.2023
344 Clear -8 1022 28 10000 1.73 350 19:41 06.01.2023
345 Clear -8 1023 27 10000 1.81 341 19:23 06.01.2023
346 Clear -8 1023 27 10000 1.81 341 18:54 06.01.2023
347 Clear -7 1023 25 10000 2.04 333 17:41 06.01.2023
348 Clear -7 1023 24 10000 3.1 329 16:51 06.01.2023
349 Clear -5 1023 23 10000 3.81 328 16:20 06.01.2023
350 Clear -4 1023 23 10000 3.81 328 15:50 06.01.2023
351 Clear -3 1023 25 10000 3.59 328 15:22 06.01.2023
352 Clear 2 1021 27 10000 3.3 328 12:55 06.01.2023
353 Clear 4 1021 26 10000 3.91 319 10:59 06.01.2023
354 Clear 8 1020 24 10000 4.18 313 09:32 06.01.2023
355 Clear 9 1019 20 10000 4.76 304 07:57 06.01.2023
356 Clear 0 1023 23 10000 2.9 302 03:40 06.01.2023
357 Clouds -7 1022 41 10000 1.5 351 22:55 05.01.2023
358 Clouds -6 1023 42 10000 1.49 359 21:55 05.01.2023
359 Clouds -5 1024 42 10000 1.34 26 19:49 05.01.2023
360 Clouds -4 1026 42 10000 0.29 89 17:28 05.01.2023
361 Clouds -5 1027 42 10000 0.27 207 16:30 05.01.2023
362 Clouds -6 1027 42 10000 0.27 207 15:47 05.01.2023
363 Clouds -7 1027 41 10000 0.87 138 14:53 05.01.2023
364 Clear -4 1027 38 10000 0.19 203 12:49 05.01.2023
365 Clear -6 1027 38 10000 0.8 284 12:27 05.01.2023
366 Clear 2 1027 37 10000 0.56 231 09:55 05.01.2023
367 Clear 4 1028 33 10000 0.72 232 08:41 05.01.2023
368 Clear 4 1028 31 10000 0.19 243 07:21 05.01.2023
369 Clear 3 1028 31 10000 0.19 243 06:36 05.01.2023
370 Clear -10 1030 51 10000 0.92 27 00:25 05.01.2023
371 Clear -10 1030 49 10000 0.96 11 21:33 04.01.2023
372 Clear -11 1031 48 10000 0.8 346 20:58 04.01.2023
373 Clear -10 1031 47 10000 0.39 306 19:57 04.01.2023
374 Clear -9 1031 45 10000 0.41 318 19:33 04.01.2023
375 Clear -9 1031 44 10000 0.31 243 18:37 04.01.2023
376 Clear -8 1031 42 10000 0.66 229 16:32 04.01.2023
377 Clear -8 1031 41 10000 0.63 236 15:55 04.01.2023
378 Clear -7 1031 39 10000 0.65 242 14:47 04.01.2023
379 Clear 0 1031 38 10000 1.04 249 11:43 04.01.2023
380 Clear 0 1030 37 10000 1.13 235 11:21 04.01.2023
381 Clear 1 1030 37 10000 1.13 235 10:43 04.01.2023
382 Clear 1 1030 35 10000 1.25 228 10:23 04.01.2023
383 Clear 5 1029 32 10000 1.32 211 08:52 04.01.2023
384 Clear 2 1031 30 10000 1 258 05:35 04.01.2023
385 Clear -10 1032 40 10000 1.19 5 00:32 04.01.2023
386 Clear -10 1032 39 10000 1.36 8 23:35 03.01.2023
387 Clear -10 1031 38 10000 1.43 17 22:54 03.01.2023
388 Clear -11 1031 37 10000 1.39 18 20:53 03.01.2023
389 Clear -11 1031 33 10000 1.25 23 19:26 03.01.2023
390 Clear -10 1031 32 10000 1.09 13 17:38 03.01.2023
391 Clear -9 1031 32 10000 0.94 11 16:39 03.01.2023
392 Clear -8 1031 31 10000 0.8 8 13:56 03.01.2023
393 -273 0 0 0 0 0 13:31 03.01.2023
394 Clouds -8 1031 31 10000 0.5 351 12:58 03.01.2023
395 Clouds -6 1031 31 10000 0.5 351 12:30 03.01.2023
396 Clouds -4 1030 30 10000 0.44 9 11:32 03.01.2023
397 Clouds 2 1030 26 10000 0.52 183 07:50 03.01.2023
398 Clear 0 1034 28 10000 0.69 348 04:22 03.01.2023
399 Clear -2 1034 28 10000 0.69 348 03:44 03.01.2023
400 Clear -6 1034 33 10000 0.95 360 01:56 03.01.2023
401 Clear -10 1034 34 10000 1.47 14 22:42 02.01.2023
402 Clear -10 1034 33 10000 1.43 15 22:19 02.01.2023
403 Clear -10 1034 31 10000 1.44 17 20:40 02.01.2023
404 Clear -11 1034 30 10000 1.56 15 19:53 02.01.2023
405 Clear -8 1035 27 10000 1.4 11 17:53 02.01.2023
406 Clear -9 1036 26 10000 1.01 347 15:23 02.01.2023
407 Clouds -7 1036 26 10000 0.69 356 13:25 02.01.2023
408 Clouds -3 1036 27 10000 0.29 9 11:59 02.01.2023
409 Clouds -5 1036 27 10000 0.22 124 10:52 02.01.2023
410 Clouds 1 1036 25 10000 1.09 26 07:34 02.01.2023
411 Clouds -4 1039 42 10000 2.17 14 00:58 02.01.2023
412 Clouds -3 1038 42 10000 2.69 20 22:32 01.01.2023
413 Clouds -3 1038 41 10000 2.58 19 21:30 01.01.2023
414 Clouds -3 1038 40 10000 2.54 18 20:47 01.01.2023
415 Clouds -2 1039 39 10000 2.41 18 19:44 01.01.2023
416 Clouds -1 1039 36 10000 2.13 16 17:59 01.01.2023
417 Clouds -2 1039 36 10000 2.02 15 17:21 01.01.2023
418 Clouds -3 1039 36 10000 2.02 15 16:33 01.01.2023
419 Clouds -6 1039 35 10000 1.72 5 14:59 01.01.2023
420 Clouds -6 1038 32 10000 1.55 354 13:40 01.01.2023
421 Clouds -5 1038 32 10000 1.51 344 12:40 01.01.2023
422 Clouds -3 1037 32 10000 1.29 331 11:37 01.01.2023
423 Clouds 0 1037 32 10000 1 329 10:36 01.01.2023
424 Clouds 4 1036 29 10000 0.47 19 08:51 01.01.2023
425 Clouds 5 1035 28 10000 0.63 33 08:20 01.01.2023
426 Clouds 4 1035 28 10000 0.85 26 07:18 01.01.2023
427 Clear -7 1037 39 10000 1.47 24 01:45 01.01.2023
428 Clear -11 1036 40 10000 1.62 22 23:43 31.12.2022
429 Clear -9 1036 38 10000 1.5 26 22:33 31.12.2022
430 Clear -10 1035 37 10000 1.43 29 21:36 31.12.2022
431 Clear -10 1035 35 10000 1.54 26 21:18 31.12.2022
432 Clear -7 1036 33 10000 1.36 36 19:41 31.12.2022
433 Clear -8 1035 31 10000 1.39 37 18:44 31.12.2022
434 Clear -8 1035 30 10000 1.34 28 18:19 31.12.2022
435 Clear -8 1035 30 10000 1.34 28 17:47 31.12.2022
436 Clear -10 1035 29 10000 1.32 21 16:50 31.12.2022
437 Clear -9 1035 28 10000 1.48 16 16:22 31.12.2022
438 Clear -6 1034 27 10000 1.77 20 14:39 31.12.2022
439 Clear -5 1034 26 10000 1.87 17 13:38 31.12.2022
440 Clear -5 1033 26 10000 1.86 2 12:40 31.12.2022
441 Clear -5 1032 25 10000 1.79 345 12:19 31.12.2022
442 Clear -4 1032 25 10000 1.79 345 11:50 31.12.2022
443 Clear 2 1032 24 10000 1.66 325 10:36 31.12.2022
444 Clear 4 1031 22 10000 1.74 325 09:54 31.12.2022
445 Clear 5 1031 22 10000 1.74 325 09:35 31.12.2022
446 Clear 6 1031 18 10000 2.82 340 07:48 31.12.2022
447 Clear -11 1032 28 10000 1.34 330 00:35 31.12.2022
448 Clear -11 1032 28 10000 1.34 330 00:35 31.12.2022
449 Clear -11 1031 28 10000 1.37 345 23:45 30.12.2022
450 Clear -11 1031 27 10000 1.36 355 22:49 30.12.2022
451 Clear -12 1031 27 10000 1.42 359 21:44 30.12.2022
452 Clear -12 1031 27 10000 1.39 360 21:26 30.12.2022
453 Clear -11 1031 26 10000 1.37 353 18:59 30.12.2022
454 Clear -11 1031 26 10000 1.13 340 17:45 30.12.2022
455 Clear -11 1031 25 10000 1.08 329 17:26 30.12.2022
456 Clear -10 1032 24 10000 1.15 327 15:57 30.12.2022
457 Clear -8 1031 24 10000 0.95 307 14:38 30.12.2022
458 Clear 2 1031 20 10000 1.13 216 10:25 30.12.2022
459 Clear 4 1031 18 10000 1.06 212 08:19 30.12.2022
460 Clear -3 1035 25 10000 1.38 345 02:59 30.12.2022
461 Clear -8 1035 28 10000 1.29 348 01:53 30.12.2022
462 Clear -11 1034 30 10000 1.39 6 22:54 29.12.2022
463 Clear -13 1034 29 10000 1.68 3 21:31 29.12.2022
464 Clear -14 1035 28 10000 1.42 1 20:54 29.12.2022
465 Clear -13 1035 27 10000 1.12 1 20:25 29.12.2022
466 Clear -13 1035 26 10000 1.14 357 18:26 29.12.2022
467 Clear -11 1036 25 10000 1.06 345 17:29 29.12.2022
468 Clear -10 1036 25 10000 1.06 345 16:55 29.12.2022
469 Clear -12 1036 24 10000 0.9 326 16:21 29.12.2022
470 Clear -10 1036 24 10000 0.89 314 15:29 29.12.2022
471 Clear -9 1035 25 10000 0.76 306 13:33 29.12.2022
472 Clear -6 1035 22 10000 1 300 11:29 29.12.2022
473 Clear 2 1033 17 10000 2.41 345 07:45 29.12.2022
474 Clear -4 1035 24 10000 3.6 337 00:18 29.12.2022
475 Clear -4 1034 23 10000 3.96 330 23:27 28.12.2022
476 Clear -4 1034 22 10000 4.56 323 21:21 28.12.2022
477 Clear -4 1034 22 10000 4.63 321 20:25 28.12.2022
478 Clear -7 1034 22 10000 4.48 321 19:23 28.12.2022
479 Clear -8 1034 22 10000 3.42 313 16:56 28.12.2022
480 Clear -6 1034 23 10000 1.85 282 14:42 28.12.2022
481 Clouds -3 1033 22 10000 1.68 243 12:55 28.12.2022
482 Clouds 1 1033 22 10000 1.5 230 11:53 28.12.2022
483 Clouds 2 1032 21 10000 1.06 233 10:39 28.12.2022
484 Clouds 3 1032 19 10000 1.22 227 08:42 28.12.2022
485 Clear 2 1032 17 10000 1.06 255 06:50 28.12.2022
486 Clear -1 1035 20 10000 1.48 320 03:45 28.12.2022
487 Clear -14 1033 25 10000 2.68 310 23:23 27.12.2022
488 Clear -11 1034 25 10000 3.39 304 19:58 27.12.2022
489 Clear -11 1033 25 10000 3.37 300 19:27 27.12.2022
490 Clear -11 1034 25 10000 3.66 292 17:20 27.12.2022
491 Clear -11 1034 25 10000 3.66 292 16:39 27.12.2022
492 Clear -10 1034 24 10000 3.48 287 15:25 27.12.2022
493 Clear -4 1033 23 10000 3.6 300 12:29 27.12.2022
494 Clear -1 1033 22 10000 4.05 305 11:24 27.12.2022
495 Clear 0 1033 22 10000 4.69 310 09:46 27.12.2022
496 Clear 0 1033 21 10000 5.24 312 09:22 27.12.2022
497 Clear 0 1032 20 10000 5.85 313 06:49 27.12.2022
498 Clear -2 1035 22 10000 6.32 314 04:29 27.12.2022
499 Clear -4 1032 24 10000 6.05 326 22:20 26.12.2022
500 Clear -12 1032 24 10000 4.83 331 20:46 26.12.2022
501 Clear -12 1032 24 10000 3.52 332 20:24 26.12.2022
502 Clear -7 1031 27 10000 1.86 340 18:43 26.12.2022
503 Clear -10 1031 28 10000 1.21 313 17:26 26.12.2022
504 Clear -10 1031 27 10000 0.97 279 15:46 26.12.2022
505 Clear -1 1030 24 10000 0.88 216 13:20 26.12.2022
506 Clear 0 1030 23 10000 0.92 219 11:46 26.12.2022
507 Clear 3 1030 18 10000 0.8 303 06:42 26.12.2022
508 Clear -10 1031 29 10000 2.58 353 23:46 25.12.2022
509 Clear -12 1031 29 10000 2.72 355 22:57 25.12.2022
510 Clear -10 1031 29 10000 2.97 352 22:26 25.12.2022
511 Clear -10 1031 29 10000 2.96 349 20:41 25.12.2022
512 Clouds -9 1030 26 10000 2.42 347 18:32 25.12.2022
513 Clouds -8 1030 22 10000 1.95 344 17:51 25.12.2022
514 Clouds -6 1030 22 10000 1.95 344 17:33 25.12.2022
515 Clouds -8 1031 19 10000 0.88 316 14:47 25.12.2022
516 Clouds -6 1030 21 10000 0.4 277 11:49 25.12.2022
517 Clouds 0 1030 19 10000 0.12 19 06:20 25.12.2022
518 Clouds -2 1031 27 10000 1.46 6 23:25 24.12.2022
519 Clouds -7 1031 27 10000 1.56 355 21:18 24.12.2022
520 Clear -3 1031 24 10000 1.3 1 17:56 24.12.2022
521 Clear -8 1032 22 10000 1.3 323 16:27 24.12.2022
522 Clear -10 1031 22 10000 1.39 339 14:48 24.12.2022
523 Clear -7 1030 20 10000 1.69 351 12:42 24.12.2022
524 Clear -2 1030 18 10000 1.37 335 10:31 24.12.2022
525 Clear 1 1030 17 10000 1.04 334 09:55 24.12.2022
526 Clear 2 1030 17 10000 1.04 334 09:36 24.12.2022
527 Clear 1 1031 15 10000 2.27 341 05:46 24.12.2022
528 Clear 1 1031 15 10000 2.27 341 05:46 24.12.2022
529 Clear -9 1032 23 10000 2.35 359 00:52 24.12.2022
530 Clear -7 1032 23 10000 2.42 1 23:35 23.12.2022
531 Clear -6 1032 22 10000 2.26 359 21:58 23.12.2022
532 Clear -6 1031 22 10000 2.4 350 20:31 23.12.2022
533 Clear -6 1032 22 10000 2.51 348 19:39 23.12.2022
534 Clear -6 1032 22 10000 2.58 354 19:21 23.12.2022
535 Clear -5 1032 22 10000 2.58 354 18:38 23.12.2022
536 Clear -5 1032 22 10000 2.51 359 18:19 23.12.2022
537 Clear -8 1032 21 10000 2.57 349 16:32 23.12.2022
538 Clear -8 1031 19 10000 2.57 14 14:51 23.12.2022
539 Clear -6 1029 15 10000 2.7 345 11:42 23.12.2022
540 Clear 0 1028 13 10000 2.71 348 09:37 23.12.2022
541 Clear -1 1027 12 10000 3.27 351 07:52 23.12.2022
542 Clear -2 1027 13 10000 2.96 349 06:51 23.12.2022
543 Clear -3 1028 17 10000 2.67 349 05:27 23.12.2022
544 Clear -9 1027 27 10000 2.37 19 23:21 22.12.2022
545 Clear -10 1027 27 10000 2.37 19 22:35 22.12.2022
546 Clear -10 1026 25 10000 2.35 11 20:27 22.12.2022
547 Clear -9 1026 24 10000 2.5 6 19:24 22.12.2022
548 Clear -9 1027 24 10000 2.96 8 18:38 22.12.2022
549 Clear -8 1026 23 10000 3.08 358 17:23 22.12.2022
550 Clear -8 1026 23 10000 3.08 358 16:38 22.12.2022
551 Clear -6 1026 22 10000 3.32 349 15:33 22.12.2022
552 Clear -6 1026 21 10000 3.8 346 14:46 22.12.2022
553 Clear -5 1026 20 10000 4.46 342 13:32 22.12.2022
554 Clear -5 1026 20 10000 5.06 337 12:46 22.12.2022
555 Clear -4 1025 19 10000 5.14 332 10:35 22.12.2022
556 Clear -3 1024 18 10000 4.95 329 09:59 22.12.2022
557 Clear -3 1024 17 10000 5.05 325 09:20 22.12.2022
558 Clear -2 1024 16 10000 5.09 323 08:22 22.12.2022
559 Clear -3 1026 18 10000 5.69 333 05:18 22.12.2022
560 Clear -4 1027 20 10000 5.81 332 04:18 22.12.2022
561 Clear -7 1025 27 10000 5.84 322 22:57 21.12.2022
562 Clear -6 1024 27 10000 6.04 321 21:54 21.12.2022
563 Clear -6 1024 28 10000 5.81 320 21:21 21.12.2022
564 Clear -6 1024 28 10000 5.81 320 20:48 21.12.2022
565 Clear -5 1024 29 10000 5.13 323 19:59 21.12.2022
566 Clear -5 1024 29 10000 5.13 323 19:40 21.12.2022
567 Clouds -5 1024 29 10000 4.67 324 19:21 21.12.2022
568 Clouds -5 1024 29 10000 4.42 323 18:44 21.12.2022
569 Clouds -4 1023 31 10000 4.09 321 17:35 21.12.2022
570 Clouds -7 1022 32 10000 2.59 1 14:32 21.12.2022
571 Clouds -3 1020 26 10000 3.73 22 12:49 21.12.2022
572 Clouds -2 1019 28 10000 3.26 42 11:41 21.12.2022
573 Clouds -2 1018 29 10000 2.04 59 11:19 21.12.2022
574 Clouds -1 1017 25 10000 0.68 170 08:52 21.12.2022
575 Clouds -1 1016 23 10000 0.21 231 06:59 21.12.2022
576 Clouds -7 1019 30 10000 2.1 18 00:48 21.12.2022
577 Clear -7 1019 29 10000 2.83 334 22:41 20.12.2022
578 Clear -5 1019 27 10000 4.58 318 21:19 20.12.2022
579 Clear -3 1019 26 10000 4.81 318 20:19 20.12.2022
580 Clear -3 1019 26 10000 5.26 313 18:49 20.12.2022
581 Clear -3 1019 26 10000 5.66 307 18:26 20.12.2022
582 Clear -3 1019 26 10000 5.66 307 18:26 20.12.2022
583 Clear -2 1019 26 10000 5.66 307 17:51 20.12.2022
584 Clear -2 1019 25 10000 6.03 304 17:28 20.12.2022
585 Clear -1 1019 25 10000 6.03 304 16:32 20.12.2022
586 Clear 0 1020 25 10000 6.6 307 14:57 20.12.2022
587 Clear 0 1020 25 10000 6.6 307 14:36 20.12.2022
588 Clear 0 1020 25 10000 6.6 307 14:36 20.12.2022
589 Clouds -3 1020 24 10000 6.91 310 13:52 20.12.2022
590 Clouds -7 1019 27 10000 5.04 316 12:40 20.12.2022
591 Clouds -3 1019 33 10000 1.88 282 11:56 20.12.2022
592 Clear -3 1018 34 10000 1.14 221 10:47 20.12.2022
593 Clear 1 1018 30 10000 2.07 201 07:41 20.12.2022
594 Clouds -10 1024 41 10000 1.41 27 00:23 20.12.2022
595 Clouds -12 1024 41 10000 1.54 34 22:36 19.12.2022
596 Clouds -12 1024 40 10000 1.44 45 21:33 19.12.2022
597 Clouds -11 1025 40 10000 1.06 39 19:50 19.12.2022
598 Clouds -10 1025 40 10000 1.06 39 19:31 19.12.2022
599 Clouds -10 1026 37 10000 0.66 55 18:23 19.12.2022
600 Clouds -10 1026 36 10000 0.71 80 16:31 19.12.2022
601 Clear -8 1026 33 10000 1.13 139 13:22 19.12.2022
602 Clear -5 1026 28 10000 1.21 142 11:55 19.12.2022
603 Clear 2 1025 22 10000 1.15 180 08:47 19.12.2022
604 Clear 3 1025 22 10000 1.26 203 07:25 19.12.2022
605 Clear -6 1027 36 10000 0.39 0 02:22 19.12.2022
606 Clear -11 1025 36 10000 1.2 15 21:51 18.12.2022
607 Clear -11 1025 36 10000 1.2 15 21:31 18.12.2022
608 Clear -12 1025 33 10000 0.85 24 20:58 18.12.2022
609 Clear -12 1025 32 10000 0.95 28 19:45 18.12.2022
610 Clear -12 1024 31 10000 1.17 33 19:24 18.12.2022
611 Clear -14 1024 30 10000 1.14 40 17:52 18.12.2022
612 Clear -11 1024 29 10000 1.39 38 16:26 18.12.2022
613 Clear -10 1024 29 10000 1.39 38 15:39 18.12.2022
614 Clear -9 1024 28 10000 1.4 35 15:18 18.12.2022
615 Clear -10 1023 26 10000 1.35 32 13:35 18.12.2022
616 Clear -9 1023 25 10000 1.09 35 12:51 18.12.2022
617 Clear -6 1023 24 10000 0.78 57 11:54 18.12.2022
618 Clear -3 1023 22 10000 0.91 146 10:19 18.12.2022
619 Clear -1 1023 21 10000 1.04 157 08:47 18.12.2022
620 Clear -2 1024 21 10000 0.23 219 07:20 18.12.2022
621 Clear -3 1025 22 10000 0.59 262 06:19 18.12.2022
622 Clouds -11 1028 30 10000 0.87 209 01:59 18.12.2022
623 Clouds -15 1027 32 10000 1.04 194 23:39 17.12.2022
624 Clouds -14 1028 29 10000 1.32 188 21:40 17.12.2022
625 Clear -11 1030 26 10000 2.57 335 18:54 17.12.2022
626 Clear -7 1031 25 10000 3.95 327 16:39 17.12.2022
627 Clear -7 1032 21 10000 4.15 332 13:57 17.12.2022
628 Clouds -7 1030 21 10000 4.93 334 11:24 17.12.2022
629 Clouds -6 1030 21 10000 4.93 334 10:44 17.12.2022
630 Clouds -4 1030 22 10000 5.02 323 09:41 17.12.2022
631 Clouds -4 1030 22 10000 5.02 323 09:41 17.12.2022
632 Clear -4 1031 16 10000 4.76 313 07:26 17.12.2022
633 Clear -4 1031 16 10000 4.76 313 06:45 17.12.2022
634 Clear -12 1038 18 10000 5.56 323 23:39 16.12.2022
635 Clear -11 1039 17 10000 6.16 321 20:55 16.12.2022
636 Clear -10 1039 17 10000 6.29 321 19:36 16.12.2022
637 Clouds -6 1038 22 10000 6.41 322 15:43 16.12.2022
638 Clouds -6 1038 21 10000 5.94 316 14:47 16.12.2022
639 Clouds -5 1036 22 10000 5.97 313 13:44 16.12.2022
640 Clouds -3 1035 18 10000 3.47 280 11:58 16.12.2022
641 Clear -2 1034 14 10000 2.96 337 09:53 16.12.2022
642 Clear -2 1035 14 10000 4.12 338 09:24 16.12.2022
643 Clear -2 1035 18 10000 4.99 323 07:55 16.12.2022
644 Clear -2 1035 18 10000 4.99 323 07:31 16.12.2022
645 Clouds -11 1037 35 10000 2.4 9 23:30 15.12.2022
646 Clouds -10 1037 35 10000 2.14 8 22:20 15.12.2022
647 Clouds -9 1037 35 10000 2.07 15 20:33 15.12.2022
648 Clouds -9 1037 34 10000 2.32 12 19:36 15.12.2022
649 Clouds -8 1036 33 10000 2.83 18 17:59 15.12.2022
650 Clouds -8 1037 33 10000 2.67 15 17:20 15.12.2022
651 Clouds -8 1036 31 10000 2.88 13 14:58 15.12.2022
652 Clouds -7 1034 30 10000 3.14 27 13:18 15.12.2022
653 Clouds -8 1034 29 10000 3.51 27 12:25 15.12.2022
654 Clouds -4 1033 27 10000 3.87 23 09:36 15.12.2022
655 Clouds -3 1033 24 10000 4.08 11 08:53 15.12.2022
656 Clouds -3 1032 15 10000 4.82 2 05:50 15.12.2022
657 Clouds -2 1033 16 10000 5 6 04:37 15.12.2022
658 Clear -8 1025 25 10000 3.78 341 21:25 14.12.2022
659 Clear -7 1025 25 10000 3.78 341 20:59 14.12.2022
660 Clear -10 1025 23 10000 3.52 344 20:23 14.12.2022
661 Clouds -10 1023 14 10000 1.98 16 18:25 14.12.2022
662 Clouds -8 1023 14 10000 1.95 17 16:57 14.12.2022
663 Clouds -6 1023 14 10000 1.78 18 15:39 14.12.2022
664 Clouds -4 1023 13 10000 1 12 13:41 14.12.2022
665 Clouds -3 1023 12 10000 0.78 205 11:21 14.12.2022
666 Clouds -1 1023 12 10000 0.78 205 10:33 14.12.2022
667 Clouds -1 1023 11 10000 1.93 210 08:51 14.12.2022
668 Clear -16 1032 17 10000 2.41 222 22:49 13.12.2022
669 Clear -15 1032 15 10000 2.25 249 21:48 13.12.2022
670 Clear -14 1032 13 10000 2.68 290 20:48 13.12.2022
671 Clear -13 1032 13 10000 3.7 296 19:59 13.12.2022
672 Clear -6 1033 15 10000 5.37 310 17:40 13.12.2022
673 Clear -5 1033 15 10000 5.5 312 15:44 13.12.2022
674 Clear -4 1033 15 10000 5.71 312 14:44 13.12.2022
675 Clear -6 1031 15 10000 6.38 310 11:18 13.12.2022
676 Clear -4 1031 15 10000 6.38 310 10:36 13.12.2022
677 Clear -4 1031 13 10000 7.16 309 09:23 13.12.2022
678 Clear -5 1031 13 10000 7.78 311 04:35 13.12.2022
679 Clear -3 1024 22 10000 6.42 307 22:22 12.12.2022
680 Clear -2 1024 24 10000 5.36 299 21:22 12.12.2022
681 Clear 0 1023 24 10000 4.82 313 18:33 12.12.2022
682 Clear 1 1023 22 10000 4.77 317 17:19 12.12.2022
683 Clear 1 1022 18 10000 3.12 319 15:22 12.12.2022
684 Clear 2 1022 17 10000 2.63 294 11:51 12.12.2022
685 Clear 3 1021 16 10000 4.55 312 09:19 12.12.2022
686 Clear 3 1022 17 10000 6.98 306 04:54 12.12.2022
687 Clear 1 1023 18 10000 5.89 299 01:53 12.12.2022
688 Clear 2 1021 16 10000 5.81 309 22:53 11.12.2022
689 Clear -4 1021 23 10000 4.15 294 20:42 11.12.2022
690 Clear -3 1022 27 10000 1.91 276 19:42 11.12.2022
691 Clouds -3 1022 29 10000 0.83 249 19:22 11.12.2022
692 Clouds -3 1022 28 10000 0.88 216 18:18 11.12.2022
693 Clouds -2 1023 28 10000 0.96 230 17:29 11.12.2022
694 Clouds -1 1023 28 10000 0.96 230 16:52 11.12.2022
695 Clouds 0 1024 27 10000 1.42 213 15:46 11.12.2022
696 Clouds 0 1024 27 10000 1.42 213 15:46 11.12.2022
697 Clouds -2 1025 26 10000 1.04 219 14:26 11.12.2022
698 Clouds -1 1025 23 10000 2.57 183 12:44 11.12.2022
699 Clouds -2 1025 22 10000 2.07 169 11:53 11.12.2022
700 Clouds 3 1027 18 10000 1.75 216 08:25 11.12.2022
701 Clear -6 1033 27 10000 1.75 330 00:34 11.12.2022
702 Clear -5 1032 27 10000 2.05 2 22:54 10.12.2022
703 Clear -4 1032 27 10000 2.05 2 22:33 10.12.2022
704 Clear -4 1032 26 10000 2.38 1 21:19 10.12.2022
705 Clear -4 1032 26 10000 2.38 1 20:35 10.12.2022
706 Clear -6 1033 24 10000 2.33 356 18:49 10.12.2022
707 Clear -4 1033 24 10000 2.39 350 16:51 10.12.2022
708 Clear -2 1033 24 10000 2.39 350 16:32 10.12.2022
709 Clear 0 1033 23 10000 2.63 343 15:38 10.12.2022
710 Clear 0 1033 21 10000 3.34 334 14:22 10.12.2022
711 Clear 1 1032 21 10000 3.34 333 12:53 10.12.2022
712 Clear 1 1032 21 10000 3.44 332 11:35 10.12.2022
713 Clear 2 1031 21 10000 3.6 335 10:34 10.12.2022
714 Clear 3 1030 19 10000 4.57 331 08:58 10.12.2022
715 Clear 3 1031 19 10000 5.58 338 07:19 10.12.2022
716 Clear -1 1031 21 10000 6.11 337 00:40 10.12.2022
717 Clouds -1 1029 24 10000 6.17 337 23:18 09.12.2022
718 Clouds 0 1029 24 10000 6.17 337 22:37 09.12.2022
719 Clouds 0 1027 30 10000 6.78 331 21:24 09.12.2022
720 Clouds 2 1027 30 10000 6.59 334 20:42 09.12.2022
721 Clouds 4 1026 34 10000 6.01 328 18:52 09.12.2022
722 Clouds 1 1025 34 10000 4.96 327 17:53 09.12.2022
723 Clouds 1 1025 34 10000 3.39 328 16:32 09.12.2022
724 Clouds -2 1024 33 10000 2.37 339 15:42 09.12.2022
725 Clouds -2 1023 32 10000 1.61 348 15:18 09.12.2022
726 Clouds 2 1023 31 10000 0.23 323 11:32 09.12.2022
727 Clouds 5 1022 30 10000 0.39 200 10:35 09.12.2022
728 Clouds 7 1022 26 10000 1.33 193 08:42 09.12.2022
729 Clear 3 1027 32 10000 0.97 5 03:19 09.12.2022
730 Clouds -9 1026 38 10000 1.53 5 00:25 09.12.2022
731 Clouds -6 1026 38 10000 1.41 0 21:54 08.12.2022
732 Clouds -6 1026 38 10000 1.43 352 20:21 08.12.2022
733 Clouds -5 1026 35 10000 1.35 342 17:32 08.12.2022
734 Clouds -3 1027 34 10000 1.2 332 15:36 08.12.2022
735 Clouds -5 1027 32 10000 0.99 311 14:25 08.12.2022
736 Clouds -1 1026 29 10000 0.94 254 11:19 08.12.2022
737 Clouds 7 1026 29 10000 0.8 229 09:51 08.12.2022
738 Clouds 8 1025 27 10000 0.24 243 09:21 08.12.2022
739 Clouds -1 1027 24 10000 1.73 349 23:56 07.12.2022
740 Clouds -1 1026 23 10000 1.53 358 22:19 07.12.2022
741 Clouds -1 1026 23 10000 1.53 358 21:48 07.12.2022
742 Clouds -3 1026 23 10000 1.51 355 20:36 07.12.2022
743 Clouds -4 1026 22 10000 1.4 13 19:24 07.12.2022
744 Clouds -6 1027 20 10000 1.4 3 16:21 07.12.2022
745 Clouds -5 1027 19 10000 1.16 6 14:40 07.12.2022
746 Clouds -1 1026 18 10000 0.79 281 11:38 07.12.2022
747 Clouds 3 1026 17 10000 0.73 283 10:39 07.12.2022
748 Clouds 7 1025 16 10000 0.76 238 09:41 07.12.2022
749 Clouds 7 1025 15 10000 0.61 222 08:46 07.12.2022
750 Clouds 8 1025 13 10000 0.27 287 06:46 07.12.2022
751 Clouds 5 1027 14 10000 0.78 332 04:35 07.12.2022
752 Clear -9 1025 18 10000 2.21 349 22:39 06.12.2022
753 Clear -8 1025 15 10000 2.57 338 20:24 06.12.2022
754 Clear -9 1026 14 10000 3.52 322 17:52 06.12.2022
755 Clear -6 1026 15 10000 3.27 311 16:41 06.12.2022
756 Clear -8 1026 16 10000 3.12 291 15:49 06.12.2022
757 Clear -7 1026 16 10000 3.24 293 15:20 06.12.2022
758 Clear -6 1026 16 10000 3.44 284 14:25 06.12.2022
759 Clear -3 1026 18 10000 3 270 12:54 06.12.2022
760 Clear -3 1026 18 10000 3 270 12:36 06.12.2022
761 Clear 7 1024 13 10000 2.7 288 07:59 06.12.2022
762 Clear 5 1026 13 10000 2.54 294 05:56 06.12.2022
763 Clear -11 1028 22 10000 0.64 311 01:25 06.12.2022
764 Clear -12 1027 22 10000 0.97 337 22:34 05.12.2022
765 Clear -12 1027 23 10000 0.9 351 20:55 05.12.2022
766 Clear -12 1028 23 10000 0.72 330 20:26 05.12.2022
767 Clear -12 1028 23 10000 0.72 330 19:44 05.12.2022
768 Clear -10 1029 24 10000 0.89 290 17:49 05.12.2022
769 Clear -8 1029 24 10000 0.96 267 16:42 05.12.2022
770 Clear -8 1030 27 10000 1.52 234 15:22 05.12.2022
771 Clear -4 1030 25 10000 2.03 220 12:59 05.12.2022
772 Clear 1 1030 25 10000 2.03 220 12:40 05.12.2022
773 Clear 0 1030 23 10000 2.06 214 11:51 05.12.2022
774 Clear 2 1030 20 10000 1.74 216 10:58 05.12.2022
775 Clear -11 1034 21 10000 1.38 10 00:20 05.12.2022
776 Clear -10 1034 22 10000 1.34 17 22:45 04.12.2022
777 Clear -9 1034 23 10000 1.21 17 22:20 04.12.2022
778 Clear -9 1034 23 10000 1.21 17 22:20 04.12.2022
779 Clear -12 1034 23 10000 1.21 17 21:59 04.12.2022
780 Clear -10 1035 24 10000 0.86 24 20:49 04.12.2022
781 Clear -12 1035 24 10000 0.62 347 19:28 04.12.2022
782 Clear -10 1035 24 10000 0.62 347 18:59 04.12.2022
783 Clear -11 1036 24 10000 0.26 286 17:23 04.12.2022
784 Clear -10 1036 24 10000 0.26 286 16:54 04.12.2022
785 Clear -10 1036 24 10000 0.26 286 16:36 04.12.2022
786 Clear -10 1036 24 10000 0.09 275 16:18 04.12.2022
787 Clear -8 1036 24 10000 0.35 331 14:43 04.12.2022
788 Clear -8 1036 24 10000 0.53 308 13:30 04.12.2022
789 Clear -7 1036 25 10000 0.88 239 12:43 04.12.2022
790 Clear -4 1036 24 10000 1.22 228 11:51 04.12.2022
791 Clear 1 1035 20 10000 1.51 200 09:20 04.12.2022
792 Clouds 3 1035 17 10000 1.88 196 07:31 04.12.2022
793 Clear -13 1038 18 10000 1.73 16 00:55 04.12.2022
794 Clear -14 1038 18 10000 1.56 20 23:43 03.12.2022
795 Clear -13 1037 19 10000 1.74 14 22:19 03.12.2022
796 Clear -12 1037 19 10000 1.59 7 21:21 03.12.2022
797 Clear -10 1037 19 10000 1.33 349 20:23 03.12.2022
798 Clear -9 1037 20 10000 1.15 348 18:39 03.12.2022
799 Clear -10 1037 19 10000 1.41 327 16:45 03.12.2022
800 Clear -5 1036 16 10000 2.54 298 14:27 03.12.2022
801 Clear -6 1035 15 10000 2.91 294 12:54 03.12.2022
802 Clear -5 1034 14 10000 3.9 306 12:23 03.12.2022
803 Clear 0 1032 13 10000 4.98 316 10:21 03.12.2022
804 Clear 1 1031 13 10000 5.39 320 07:39 03.12.2022
805 Clouds -5 1033 19 10000 5.2 346 01:30 03.12.2022
806 Clouds -6 1030 17 10000 4.48 333 22:50 02.12.2022
807 Clear -9 1028 16 10000 4.69 338 20:54 02.12.2022
808 Clear -9 1028 16 10000 4.69 338 20:54 02.12.2022
809 Clear -9 1028 16 10000 4.69 338 20:54 02.12.2022
810 Clouds -9 1026 14 10000 5.46 324 19:26 02.12.2022
811 Clouds -11 1026 16 10000 1.35 355 15:59 02.12.2022
812 Clouds -9 1025 16 10000 1.19 337 14:43 02.12.2022
813 Clouds -9 1025 17 10000 1.37 358 14:25 02.12.2022
814 Clouds -8 1024 18 10000 1.41 352 13:26 02.12.2022
815 Clouds -6 1024 19 10000 1.43 344 11:41 02.12.2022
816 Clouds 0 1022 20 10000 0.98 269 08:48 02.12.2022
817 Clouds -2 1024 20 10000 2.23 217 07:24 02.12.2022
818 Clouds -12 1029 18 10000 0.41 99 23:54 01.12.2022
819 Clouds -12 1029 18 10000 0.43 166 21:59 01.12.2022
820 Clouds -10 1029 18 10000 0.43 166 21:37 01.12.2022
821 Clouds -10 1031 18 10000 0.54 167 20:18 01.12.2022
822 Clear -11 1032 16 10000 1.29 226 18:23 01.12.2022
823 Clear -6 1032 15 10000 1.94 217 16:20 01.12.2022
824 Clear -2 1033 15 10000 3.19 209 12:35 01.12.2022
825 Clear -1 1033 13 10000 2.87 196 10:28 01.12.2022
826 Clear 0 1033 13 10000 2.87 196 09:54 01.12.2022
827 Clear 1 1033 13 10000 2.87 196 09:36 01.12.2022
828 Clear -2 1037 11 10000 3.17 273 03:33 01.12.2022
829 Clear -13 1037 15 10000 4.35 313 22:39 30.11.2022
830 Clear -13 1037 15 10000 5.04 313 21:19 30.11.2022
831 Clear -12 1037 15 10000 5.04 313 20:47 30.11.2022
832 Clear -12 1037 15 10000 5.12 314 20:23 30.11.2022
833 Clear -13 1038 15 10000 4.89 311 18:34 30.11.2022
834 Clear -11 1038 14 10000 4.62 307 17:36 30.11.2022
835 Clear -11 1038 14 10000 4.14 289 16:19 30.11.2022
836 Clear -5 1039 14 10000 4.04 283 14:39 30.11.2022
837 Clear -5 1039 13 10000 3.98 280 14:20 30.11.2022
838 Clear -3 1038 12 10000 3.54 277 11:34 30.11.2022
839 Clear -2 1037 9 10000 4.16 285 08:40 30.11.2022
840 Clear -2 1037 9 10000 4.16 285 08:40 30.11.2022
841 Clear -2 1038 9 10000 4.94 298 07:57 30.11.2022
842 Clear -9 1042 14 10000 5.08 294 23:42 29.11.2022
843 Clear -9 1042 13 10000 5.38 294 23:21 29.11.2022
844 Clear -10 1042 13 10000 5.76 299 21:39 29.11.2022
845 Clear -10 1042 13 10000 6.18 306 20:37 29.11.2022
846 Clear -9 1043 15 10000 6.43 315 19:18 29.11.2022
847 Clouds -10 1044 16 10000 6.51 313 17:36 29.11.2022
848 Clouds -9 1044 14 10000 6.4 315 16:26 29.11.2022
849 Clouds -9 1044 14 10000 6.26 314 14:50 29.11.2022
850 Clouds -9 1043 13 10000 6.45 314 13:35 29.11.2022
851 Clouds -9 1042 12 10000 6.47 313 11:57 29.11.2022
852 Clouds -8 1041 11 10000 6.63 315 11:24 29.11.2022
853 Clouds -7 1040 10 10000 7 314 10:22 29.11.2022
854 Clouds -5 1039 9 10000 7.53 312 08:42 29.11.2022
855 Clouds -6 1038 9 10000 7.22 311 01:30 29.11.2022
856 Clear -6 1034 15 10000 6.87 317 23:35 28.11.2022
857 Clear -5 1033 16 10000 7.09 318 22:57 28.11.2022
858 Clear -5 1032 17 10000 7.56 322 21:54 28.11.2022
859 Clear -5 1032 17 10000 7.56 322 21:36 28.11.2022
860 Clear -3 1032 17 10000 7.42 329 19:41 28.11.2022
861 Clouds -3 1030 17 10000 7.43 332 18:30 28.11.2022
862 Clouds -2 1030 14 10000 7.74 329 17:51 28.11.2022
863 Clouds -1 1029 14 10000 8.47 327 16:35 28.11.2022
864 Clear 2 1027 14 10000 8.81 326 14:28 28.11.2022
865 Clear 3 1027 14 10000 8.81 326 13:52 28.11.2022
866 Clouds 5 1025 11 10000 9.25 329 12:42 28.11.2022
867 Clouds 10 1020 8 10000 9.5 319 10:22 28.11.2022
868 Clouds 12 1017 21 10000 6.07 321 07:52 28.11.2022
869 Clouds 11 1016 26 10000 4.44 328 04:44 28.11.2022
870 Clouds 10 1017 30 10000 2.79 342 03:59 28.11.2022
871 Clouds 10 1017 35 10000 1.96 345 03:18 28.11.2022
872 Clouds 5 1015 36 10000 1.35 336 22:47 27.11.2022
873 Clouds 6 1013 34 10000 2.14 13 21:42 27.11.2022
874 Clouds 5 1015 31 10000 1.45 9 20:34 27.11.2022
875 Clouds 6 1015 30 10000 1.27 10 17:56 27.11.2022
876 Clouds 5 1015 27 10000 1.01 3 15:28 27.11.2022
877 Clouds 5 1015 27 10000 1.38 5 13:33 27.11.2022
878 Clouds 6 1014 27 10000 1.32 27 10:57 27.11.2022
879 Clouds 7 1013 24 10000 1.97 28 08:35 27.11.2022
880 Clouds 6 1016 21 10000 2.18 18 04:22 27.11.2022
881 Clouds -1 1016 21 10000 2.47 18 22:31 26.11.2022
882 Clouds 1 1016 25 10000 1.86 35 20:51 26.11.2022
883 Clouds 1 1017 30 10000 1.62 122 19:27 26.11.2022
884 Clouds 1 1019 30 10000 0.38 167 17:54 26.11.2022
885 Clouds 0 1019 26 10000 3.09 149 15:52 26.11.2022
886 Clouds 0 1020 21 10000 3.42 147 13:34 26.11.2022
887 Clouds 1 1020 20 10000 2.98 153 11:37 26.11.2022
888 Clear 2 1021 19 10000 3.35 177 10:22 26.11.2022
889 Clear 3 1021 19 10000 3.35 177 09:31 26.11.2022
890 Clouds 4 1022 15 10000 3.75 176 06:30 26.11.2022
891 Clear -3 1025 15 10000 5.14 348 21:46 25.11.2022
892 Clear -1 1025 14 10000 5.48 344 21:22 25.11.2022
893 Clear -3 1025 14 10000 5.74 341 19:57 25.11.2022
894 Clear 3 1026 11 10000 6.4 326 16:49 25.11.2022
895 Clear 4 1023 11 10000 7.39 328 14:22 25.11.2022
896 Clouds 12 1016 16 10000 6.16 321 09:22 25.11.2022
897 Clouds 13 1016 16 10000 6.16 321 08:41 25.11.2022
898 Clouds 13 1015 16 10000 5.47 313 06:54 25.11.2022
899 Clouds 13 1015 16 10000 5.48 315 06:24 25.11.2022
900 Clear 1 1014 24 10000 4.32 307 23:55 24.11.2022
901 Clear 3 1013 36 10000 3.09 290 22:51 24.11.2022
902 Clear 6 1012 51 10000 1.65 290 21:58 24.11.2022
903 Clear 7 1012 66 10000 1.2 317 20:32 24.11.2022
904 Clouds 7 1013 65 10000 0.77 353 18:54 24.11.2022
905 Clouds 6 1012 64 10000 0.88 144 17:43 24.11.2022
906 Clouds 6 1012 65 10000 1.4 107 17:20 24.11.2022
907 Clouds 6 1013 62 10000 1.1 11 15:18 24.11.2022
908 Clouds 6 1013 62 10000 1.1 11 15:18 24.11.2022
909 Clouds 8 1014 62 10000 1.3 12 13:49 24.11.2022
910 Clear 8 1012 57 10000 0.91 37 11:55 24.11.2022
911 Clear 9 1012 55 10000 0.68 77 10:36 24.11.2022
912 Clear 9 1012 50 10000 0.69 186 07:53 24.11.2022
913 Clouds 7 1016 61 10000 0.92 40 03:22 24.11.2022
914 Clouds 6 1016 66 10000 1.49 25 23:46 23.11.2022
915 Clear 5 1016 64 10000 1.81 35 21:57 23.11.2022
916 Clear 5 1016 62 10000 1.76 24 21:24 23.11.2022
917 Clear 5 1016 62 10000 1.62 36 20:21 23.11.2022
918 Clear 4 1017 61 10000 1.59 27 19:27 23.11.2022
919 Clear 2 1018 60 10000 1.52 32 18:41 23.11.2022
920 Clear 2 1018 57 10000 1.34 49 16:33 23.11.2022
921 Clear 3 1019 53 10000 1.21 77 13:39 23.11.2022
922 Clouds 3 1018 56 10000 1.19 84 13:19 23.11.2022
923 Clouds 4 1019 54 10000 0.98 122 11:59 23.11.2022
924 Clouds 4 1019 54 10000 0.98 122 11:41 23.11.2022
925 Clouds 8 1018 51 10000 1.01 139 10:42 23.11.2022
926 Clouds 12 1018 48 10000 1.04 145 09:42 23.11.2022
927 Clouds 12 1018 44 10000 1.06 155 09:24 23.11.2022
928 Clouds 13 1018 44 10000 1.06 155 08:36 23.11.2022
929 Clouds 11 1020 46 10000 0.36 239 05:22 23.11.2022
930 Clouds 10 1021 50 10000 0.11 326 04:23 23.11.2022
931 Clear 0 1020 73 10000 1.13 18 22:59 22.11.2022
932 Clear 0 1020 73 10000 1.13 18 22:33 22.11.2022
933 Clear 1 1020 73 10000 1.21 12 21:34 22.11.2022
934 Clear 0 1020 73 10000 1.18 1 20:45 22.11.2022
935 Clear 0 1020 73 10000 1.18 1 20:45 22.11.2022
936 Clear 1 1020 72 10000 0.85 344 19:53 22.11.2022
937 Clear 2 1021 67 10000 0.71 298 17:56 22.11.2022
938 Clear 2 1021 65 10000 0.62 248 17:21 22.11.2022
939 Clear 2 1021 65 10000 0.62 248 17:21 22.11.2022
940 Clear 2 1021 65 10000 0.62 248 17:21 22.11.2022
941 Clear 3 1021 64 10000 1.05 236 15:51 22.11.2022
942 Clouds 8 1021 61 10000 1.5 192 13:42 22.11.2022
943 Clouds 10 1021 56 10000 1.87 185 11:40 22.11.2022
944 Clouds 11 1021 50 10000 2.67 200 09:20 22.11.2022
945 Clouds 11 1022 46 10000 2.36 203 07:20 22.11.2022
946 Clouds 6 1026 61 10000 1.25 171 01:46 22.11.2022
947 Clouds 4 1025 63 10000 0.94 156 23:40 21.11.2022
948 Clouds 3 1025 60 10000 0.96 159 22:40 21.11.2022
949 Clouds 2 1025 57 10000 1.03 141 21:58 21.11.2022
950 Clouds 4 1025 54 10000 0.7 146 20:52 21.11.2022
951 Clouds 4 1026 52 10000 0.82 139 19:41 21.11.2022
952 Clouds 2 1027 49 10000 0.91 156 18:54 21.11.2022
953 Clouds 3 1027 45 10000 1.26 156 17:58 21.11.2022
954 Clouds 2 1028 35 10000 0.83 138 16:55 21.11.2022
955 Clouds 3 1028 35 10000 0.83 138 16:37 21.11.2022
956 Clouds 3 1028 31 10000 1.12 132 15:37 21.11.2022
957 Clouds 3 1027 26 10000 1.08 79 14:28 21.11.2022
958 Clouds 3 1027 26 10000 1.08 79 13:43 21.11.2022
959 Clouds 6 1026 25 10000 1.28 74 10:48 21.11.2022
960 Clouds 12 1025 23 10000 2.04 60 09:18 21.11.2022
961 Clouds 13 1025 22 10000 1.82 56 07:39 21.11.2022
962 Clouds 4 1024 69 10000 2.07 11 22:34 20.11.2022
963 Clouds 4 1024 72 10000 2.1 6 21:34 20.11.2022
964 Clouds 5 1023 69 10000 1.35 36 20:24 20.11.2022
965 Clouds 6 1023 66 10000 1.8 39 18:25 20.11.2022
966 Clouds 8 1022 60 10000 1.89 28 16:24 20.11.2022
967 Clouds 8 1021 56 10000 1.91 25 15:29 20.11.2022
968 Clouds 8 1021 56 10000 1.91 25 14:41 20.11.2022
969 Rain 7 1021 56 10000 1.58 29 13:32 20.11.2022
970 Clouds 8 1021 55 10000 1.59 20 12:38 20.11.2022
971 Clouds 8 1020 57 10000 2.08 353 11:25 20.11.2022
972 Clouds 9 1021 50 10000 2.23 0 10:30 20.11.2022
973 Clouds 9 1020 51 10000 2.45 360 09:23 20.11.2022
974 Clouds 9 1020 51 10000 2.45 360 08:35 20.11.2022
975 Clouds 9 1020 55 10000 1.99 11 07:29 20.11.2022
976 Clouds 7 1022 51 10000 2.02 47 02:19 20.11.2022
977 Clouds 6 1021 52 10000 1.87 41 01:20 20.11.2022
978 Clouds 5 1021 52 10000 1.87 41 00:41 20.11.2022
979 Clouds 5 1021 55 10000 1.72 39 00:22 20.11.2022
980 Clouds 5 1021 55 10000 1.72 39 23:49 19.11.2022
981 Clouds 5 1021 59 10000 1.67 29 23:23 19.11.2022
982 Clouds 4 1021 59 10000 1.67 29 22:38 19.11.2022
983 Clouds 4 1020 61 10000 1.61 23 21:32 19.11.2022
984 Clouds 3 1020 60 10000 1.62 26 20:57 19.11.2022
985 Clouds 3 1020 60 10000 1.62 26 20:33 19.11.2022
986 Clouds 2 1020 62 10000 1.46 31 18:57 19.11.2022
987 Clouds 4 1021 63 10000 1.28 27 17:41 19.11.2022
988 Clouds 4 1021 62 10000 0.99 35 17:19 19.11.2022
989 Clouds 4 1021 61 10000 0.79 36 15:41 19.11.2022
990 Clouds 5 1021 59 10000 0.39 65 14:38 19.11.2022
991 Clear 6 1019 57 10000 1.44 189 12:18 19.11.2022
992 Clear 10 1019 55 10000 1.75 182 10:56 19.11.2022
993 Clear 15 1018 46 10000 2.02 174 08:40 19.11.2022
994 Clear 13 1020 49 10000 0.37 173 04:55 19.11.2022
995 Clear 11 1021 59 10000 0.55 329 02:51 19.11.2022
996 Clouds 8 1021 72 10000 0.33 5 23:45 18.11.2022
997 Clouds 9 1021 71 10000 0.81 0 22:38 18.11.2022
998 Clouds 8 1021 70 10000 0.79 57 21:37 18.11.2022
999 Clouds 8 1022 68 10000 1.09 43 20:59 18.11.2022
1000 Clouds 8 1022 68 10000 1.09 43 20:34 18.11.2022
1001 Clouds 8 1022 67 10000 0.94 47 19:46 18.11.2022
1002 Clouds 8 1023 67 10000 0.92 90 18:38 18.11.2022
1003 Clouds 9 1023 66 10000 0.96 107 17:44 18.11.2022
1004 Clouds 8 1025 60 10000 1.71 120 14:32 18.11.2022
1005 Clouds 8 1026 56 10000 1.75 96 11:31 18.11.2022
1006 Clouds 11 1025 52 10000 2.28 95 08:46 18.11.2022
1007 Clouds 12 1025 50 10000 2.26 97 07:51 18.11.2022
1008 Clouds 11 1027 45 10000 2.32 86 05:24 18.11.2022
1009 Clouds 2 1027 45 10000 1.42 40 00:51 18.11.2022
1010 Clouds 1 1025 45 10000 1.8 35 22:20 17.11.2022
1011 Clouds 2 1025 45 10000 1.61 18 20:46 17.11.2022
1012 Clouds 1 1025 43 10000 1.57 16 19:51 17.11.2022
1013 Clouds 1 1025 41 10000 1.93 25 18:47 17.11.2022
1014 Clouds 2 1025 40 10000 1.72 22 17:33 17.11.2022
1015 Clouds 1 1025 39 10000 1.23 4 16:53 17.11.2022
1016 Clouds 2 1024 37 10000 0.75 25 14:57 17.11.2022
1017 Clear 6 1021 31 10000 0.64 102 11:22 17.11.2022
1018 Clear 6 1021 31 10000 0.64 102 11:22 17.11.2022
1019 Clear 15 1020 26 10000 1.19 166 08:39 17.11.2022
1020 Clear 15 1019 26 10000 0.33 66 05:47 17.11.2022
1021 Clear 0 1019 45 10000 1.37 6 00:22 17.11.2022
1022 Clear 0 1018 45 10000 1.56 8 22:30 16.11.2022
1023 Clear -1 1018 45 10000 1.77 17 20:54 16.11.2022
1024 Clear 0 1018 44 10000 1.76 20 19:54 16.11.2022
1025 Clear 0 1018 43 10000 1.67 20 18:45 16.11.2022
1026 Clear 1 1018 42 10000 1.64 18 17:34 16.11.2022
1027 Clear 2 1018 38 10000 1.03 27 14:19 16.11.2022
1028 Clear 13 1017 31 10000 0.57 157 09:56 16.11.2022
1029 Clouds 13 1017 25 10000 1.21 173 06:38 16.11.2022
1030 Clouds 2 1021 37 10000 0.82 14 01:29 16.11.2022
1031 Clear -2 1020 37 10000 1.52 20 22:38 15.11.2022
1032 Clear 0 1019 35 10000 1.31 13 20:45 15.11.2022
1033 Clear 1 1020 33 10000 1.3 2 19:34 15.11.2022
1034 Clear 0 1020 31 10000 1.58 12 18:48 15.11.2022
1035 Clear 2 1020 29 10000 1.24 338 17:22 15.11.2022
1036 Clear 1 1020 27 10000 1.39 312 16:19 15.11.2022
1037 Clear 3 1020 25 10000 1.88 314 14:54 15.11.2022
1038 Clear 7 1019 25 10000 2.39 302 13:38 15.11.2022
1039 Clear 12 1019 23 10000 2.43 296 11:47 15.11.2022
1040 Clear 13 1018 21 10000 2.52 297 11:18 15.11.2022
1041 Clear 16 1017 19 10000 3.18 309 08:52 15.11.2022
1042 Clear -2 1019 32 10000 2.88 322 00:37 15.11.2022
1043 Clear -2 1018 35 10000 2.72 324 00:18 15.11.2022
1044 Clear -1 1017 35 10000 2.5 327 21:35 14.11.2022
1045 Clear -1 1017 36 10000 2.29 326 20:40 14.11.2022
1046 Clear 0 1017 39 10000 1.73 335 18:52 14.11.2022
1047 Clear 1 1018 43 10000 1.31 321 15:54 14.11.2022
1048 Clear 3 1017 42 10000 1.68 217 12:55 14.11.2022
1049 Clear 7 1017 40 10000 2.08 205 11:42 14.11.2022
1050 Clear 12 1017 34 10000 1.98 179 09:32 14.11.2022
1051 Clear 12 1018 28 10000 2.7 190 07:54 14.11.2022
1052 Clear 11 1018 28 10000 2.16 195 06:40 14.11.2022
1053 Clouds -3 1022 51 10000 0.18 325 00:19 14.11.2022
1054 Clouds -2 1022 50 10000 0.23 207 21:55 13.11.2022
1055 Clouds -2 1022 50 10000 0.23 207 21:36 13.11.2022
1056 Clouds -1 1023 49 10000 0.46 248 19:45 13.11.2022
1057 Clouds 0 1025 49 10000 1.58 221 18:24 13.11.2022
1058 Clouds 0 1025 49 10000 1.58 221 17:44 13.11.2022
1059 Clouds 0 1026 46 10000 2.49 207 14:58 13.11.2022
1060 Clear 1 1026 44 10000 2.63 205 14:23 13.11.2022
1061 Clouds 1 1026 40 10000 2.75 206 12:38 13.11.2022
1062 Clear 4 1026 35 10000 2.81 197 11:20 13.11.2022
1063 Clear 9 1026 28 10000 3 199 08:56 13.11.2022
1064 Clear 4 1031 30 10000 1.59 360 02:24 13.11.2022
1065 Clouds -1 1030 34 10000 2.56 8 22:57 12.11.2022
1066 Clouds 1 1029 32 10000 3 360 21:24 12.11.2022
1067 Clouds 1 1030 31 10000 3.16 359 20:22 12.11.2022
1068 Clouds 2 1030 30 10000 3.5 6 18:27 12.11.2022
1069 Clouds 3 1030 28 10000 3.64 6 16:27 12.11.2022
1070 Clouds 4 1029 27 10000 3.6 11 15:24 12.11.2022
1071 Clouds 5 1027 25 10000 3.87 8 12:38 12.11.2022
1072 Clouds 11 1023 21 10000 5.45 355 09:29 12.11.2022
1073 Clouds 12 1023 22 10000 6.03 351 07:47 12.11.2022
1074 Clouds 11 1016 53 10000 6.37 331 22:51 11.11.2022
1075 Rain 11 1015 68 10000 5.35 323 20:52 11.11.2022
1076 Rain 12 1015 73 10000 3.89 332 19:50 11.11.2022
1077 Rain 12 1015 91 10000 2.07 323 19:23 11.11.2022
1078 Rain 13 1015 93 10000 1.18 304 17:57 11.11.2022
1079 Rain 12 1016 94 10000 0.83 275 16:33 11.11.2022
1080 Rain 13 1017 92 10000 1.11 223 14:28 11.11.2022
1081 Clouds 13 1017 92 10000 1.11 223 13:31 11.11.2022
1082 Rain 13 1018 91 10000 0.64 130 10:32 11.11.2022
1083 Rain 12 1019 87 10000 0.98 144 08:28 11.11.2022
1084 Rain 12 1019 87 10000 0.98 144 07:38 11.11.2022
1085 Clouds 12 1023 85 10000 0.89 41 23:58 10.11.2022
1086 Clouds 12 1023 85 10000 0.99 29 22:49 10.11.2022
1087 Clouds 12 1023 85 10000 0.91 39 21:39 10.11.2022
1088 Clouds 12 1023 84 10000 0.81 51 21:20 10.11.2022
1089 Clouds 13 1024 84 10000 0.9 46 20:23 10.11.2022
1090 Clouds 13 1024 84 10000 0.9 46 19:55 10.11.2022
1091 Clouds 13 1024 84 10000 1.21 51 18:44 10.11.2022
1092 Clear 12 1024 82 10000 1.23 110 16:27 10.11.2022
1093 Clear 12 1024 78 10000 1.56 124 15:24 10.11.2022
1094 Clear 11 1024 73 10000 1.8 130 13:34 10.11.2022
1095 Clear 17 1022 45 10000 1.21 112 09:19 10.11.2022
1096 Clear 18 1022 43 10000 1.36 59 07:21 10.11.2022
1097 Clouds 6 1023 59 10000 1.33 30 00:57 10.11.2022
1098 Clouds 6 1022 60 10000 1.39 17 22:47 09.11.2022
1099 Clouds 6 1022 60 10000 1.39 17 22:47 09.11.2022
1100 Clouds 6 1022 60 10000 1.57 21 21:32 09.11.2022
1101 Clouds 9 1021 59 10000 1.75 27 20:41 09.11.2022
1102 Clouds 9 1021 57 10000 2.06 30 20:22 09.11.2022
1103 Clouds 9 1021 54 10000 2.13 32 19:25 09.11.2022
1104 Clouds 9 1022 43 10000 1.23 39 17:45 09.11.2022
1105 Clouds 10 1022 40 10000 1.12 27 14:57 09.11.2022
1106 Clouds 10 1021 39 10000 0.71 356 14:28 09.11.2022
1107 Clouds 9 1021 39 10000 0.71 356 13:58 09.11.2022
1108 Clouds 10 1021 39 10000 0.45 338 12:53 09.11.2022
1109 Clouds 13 1020 35 10000 1.57 193 09:29 09.11.2022
1110 Clouds 14 1019 33 10000 1.41 192 07:47 09.11.2022
1111 Clouds 14 1020 30 10000 1.83 192 06:55 09.11.2022
1112 Clouds 0 1022 37 10000 1.31 27 22:44 08.11.2022
1113 Clouds 1 1022 36 10000 1.17 27 21:43 08.11.2022
1114 Clouds 1 1022 36 10000 1.17 27 21:43 08.11.2022
1115 Clouds 1 1022 36 10000 1.22 25 21:21 08.11.2022
1116 Clouds 1 1022 35 10000 1.29 12 20:30 08.11.2022
1117 Clouds 1 1022 34 10000 1.04 354 19:28 08.11.2022
1118 Clouds 2 1022 33 10000 0.7 3 17:37 08.11.2022
1119 Clouds 3 1022 32 10000 0.56 329 15:38 08.11.2022
1120 Clouds 3 1022 31 10000 0.54 308 14:51 08.11.2022
1121 Clouds 4 1022 30 10000 0.6 249 13:34 08.11.2022
1122 Clouds 5 1022 29 10000 0.51 137 11:54 08.11.2022
1123 Clouds 15 1021 25 10000 2.17 223 07:45 08.11.2022
1124 Clear 14 1023 23 10000 1.85 222 06:29 08.11.2022
1125 Clear -2 1025 22 10000 0.65 34 23:52 07.11.2022
1126 Clear -1 1025 21 10000 0.98 29 22:21 07.11.2022
1127 Clear -1 1025 20 10000 1.08 31 20:59 07.11.2022
1128 Clear -1 1025 20 10000 1.05 32 19:57 07.11.2022
1129 Clear 0 1025 18 10000 0.88 359 17:44 07.11.2022
1130 Clear 2 1026 17 10000 1.04 330 15:55 07.11.2022
1131 Clear 1 1026 17 10000 1.04 330 15:32 07.11.2022
1132 Clear 3 1025 16 10000 1.14 326 13:54 07.11.2022
1133 Clear 5 1025 15 10000 1.02 346 12:32 07.11.2022
1134 Clear 8 1024 14 10000 1.25 14 10:46 07.11.2022
1135 Clear 18 1023 11 10000 2.24 355 09:19 07.11.2022
1136 Clear 18 1023 11 10000 3.55 352 06:55 07.11.2022
1137 Clear 12 1025 25 10000 4.01 348 02:20 07.11.2022
1138 Clear 1 1024 33 10000 3.42 347 00:36 07.11.2022
1139 Clear 4 1022 61 10000 2.94 347 21:52 06.11.2022
1140 Clear 3 1022 65 10000 2.74 349 21:18 06.11.2022
1141 Clear 3 1021 60 10000 2.63 353 19:58 06.11.2022
1142 Clear 4 1021 57 10000 2.19 357 19:28 06.11.2022
1143 Clear 3 1021 52 10000 2.14 1 18:21 06.11.2022
1144 Clear 3 1021 52 10000 2.14 1 17:46 06.11.2022
1145 Clear 3 1021 49 10000 1.85 1 17:19 06.11.2022
1146 Clear 4 1021 45 10000 1.63 349 16:20 06.11.2022
1147 Clear 4 1020 44 10000 1.53 339 15:26 06.11.2022
1148 Clouds 5 1019 44 10000 1.05 284 12:48 06.11.2022
1149 Clouds 8 1019 44 10000 1.13 240 11:41 06.11.2022
1150 Clouds 10 1019 43 10000 1.18 206 10:34 06.11.2022
1151 Clouds 13 1018 35 10000 0.58 233 07:44 06.11.2022
1152 Clouds 2 1021 39 10000 1.49 40 23:26 05.11.2022
1153 Clouds 2 1021 39 10000 1.49 40 22:35 05.11.2022
1154 Clouds 4 1022 33 10000 1.06 31 19:18 05.11.2022
1155 Clouds 4 1023 31 10000 0.4 17 16:57 05.11.2022
1156 Clear 2 1023 27 10000 0.31 236 15:20 05.11.2022
1157 Clear 3 1023 25 10000 0.86 214 13:51 05.11.2022
1158 Clear 6 1023 21 10000 1.63 201 11:52 05.11.2022
1159 Clear 16 1022 15 10000 2.22 190 09:33 05.11.2022
1160 Clear 17 1023 13 10000 1.68 195 07:23 05.11.2022
1161 Clear 16 1023 13 10000 1.68 195 06:56 05.11.2022
1162 Clear 2 1027 19 10000 0.95 344 00:45 05.11.2022
1163 Clear -4 1027 21 10000 1.11 344 23:29 04.11.2022
1164 Clear -2 1027 21 10000 1.17 339 21:37 04.11.2022
1165 Clear -2 1027 26 10000 1.19 339 19:39 04.11.2022
1166 Clear -1 1027 33 10000 1.16 309 17:44 04.11.2022
1167 Clear 4 1028 39 10000 1.65 251 14:38 04.11.2022
1168 Clear 10 1027 33 10000 2.28 223 13:19 04.11.2022
1169 Clear 9 1027 24 10000 2.18 219 11:58 04.11.2022
1170 Clear 15 1027 16 10000 1.41 218 09:31 04.11.2022
1171 Clear 15 1027 13 10000 1.01 215 08:20 04.11.2022
1172 Clear 14 1027 14 10000 1.54 210 06:40 04.11.2022
1173 Clear 0 1031 21 10000 1.9 1 00:56 04.11.2022
1174 Clear -2 1031 21 10000 1.36 12 21:48 03.11.2022
1175 Clear -2 1030 21 10000 1.76 20 20:46 03.11.2022
1176 Clear 1 1030 20 10000 2.06 25 19:41 03.11.2022
1177 Clear -1 1030 18 10000 1.83 28 18:27 03.11.2022
1178 Clear -1 1030 18 10000 1.83 28 17:37 03.11.2022
1179 Clear 1 1030 19 10000 1.85 28 15:24 03.11.2022
1180 Clear 7 1029 17 10000 2.22 8 13:33 03.11.2022
1181 Clouds 10 1029 17 10000 2.48 355 12:35 03.11.2022
1182 Clouds 11 1028 19 10000 2.37 341 11:36 03.11.2022
1183 Clouds 14 1026 17 10000 2.11 278 07:48 03.11.2022
1184 Rain 7 1027 62 10000 2.13 99 22:29 02.11.2022
1185 Clouds 9 1026 68 10000 2.14 107 20:56 02.11.2022
1186 Clouds 10 1026 70 10000 2.34 114 20:25 02.11.2022
1187 Clouds 12 1026 72 10000 2.88 114 18:42 02.11.2022
1188 Clouds 10 1024 71 10000 4.07 122 16:28 02.11.2022
1189 Clouds 10 1024 71 10000 4.07 122 15:30 02.11.2022
1190 Rain 10 1021 29 10000 1.66 19 12:58 02.11.2022
1191 Clouds 9 1020 29 10000 1.72 22 12:23 02.11.2022
1192 Clouds 15 1019 30 10000 1.27 27 09:51 02.11.2022
1193 Clouds 17 1019 28 10000 1.51 33 08:33 02.11.2022
1194 Clouds 12 1023 35 10000 1.85 27 02:28 02.11.2022
1195 Clouds 4 1021 45 10000 1.99 32 22:21 01.11.2022
1196 Clouds 3 1021 45 10000 1.99 32 21:54 01.11.2022
1197 Clouds 5 1022 42 10000 1.49 44 20:28 01.11.2022
1198 Clouds 5 1022 42 10000 1.49 44 19:59 01.11.2022
1199 Clouds 6 1023 53 10000 1.54 48 19:41 01.11.2022
1200 Clouds 9 1023 42 10000 1.04 79 18:23 01.11.2022
1201 Clear 9 1024 29 10000 1.35 148 16:28 01.11.2022
1202 Clear 10 1024 24 10000 2.07 161 14:39 01.11.2022
1203 Clear 11 1023 20 10000 2.53 157 12:38 01.11.2022
1204 Clear 10 1023 20 10000 2.44 153 11:40 01.11.2022
1205 Clear 10 1023 19 10000 2.29 162 11:20 01.11.2022
1206 Clouds 15 1023 15 10000 3.91 192 08:58 01.11.2022
1207 Clouds 16 1023 13 10000 3.81 192 07:51 01.11.2022
1208 Clear 16 1024 13 10000 3.45 191 07:28 01.11.2022
1209 Clear 15 1024 13 10000 3.37 192 06:45 01.11.2022
1210 Clear 14 1027 14 10000 1.76 173 05:19 01.11.2022
1211 Clear 1 1028 21 10000 1.23 44 22:43 31.10.2022
1212 Clear 0 1027 21 10000 1.09 42 21:33 31.10.2022
1213 Clear 5 1027 19 10000 2.07 25 19:57 31.10.2022
1214 Clouds 4 1028 18 10000 2.64 23 18:36 31.10.2022
1215 Clouds 5 1028 16 10000 3.18 9 16:44 31.10.2022
1216 Clouds 8 1028 15 10000 3.27 6 15:34 31.10.2022
1217 Clear 14 1026 12 10000 3.86 329 12:22 31.10.2022
1218 Clear 17 1024 11 10000 4.95 310 09:35 31.10.2022
1219 Clear 17 1023 11 10000 5.62 310 07:35 31.10.2022
1220 Clear 15 1026 14 10000 6.7 320 02:46 31.10.2022
1221 Clear 14 1026 14 10000 6.94 317 01:47 31.10.2022
1222 Clear 5 1023 28 10000 4.9 322 22:19 30.10.2022
1223 Clear 9 1023 56 10000 2.75 330 20:38 30.10.2022
1224 Clear 10 1023 69 10000 1.9 4 19:34 30.10.2022
1225 Clouds 13 1022 65 10000 0.61 166 16:29 30.10.2022
1226 Clouds 13 1022 63 10000 1.12 161 14:34 30.10.2022
1227 Clouds 13 1022 64 10000 1.47 162 13:50 30.10.2022
1228 Clouds 13 1022 61 10000 1.43 164 12:21 30.10.2022
1229 Clear 14 1022 56 10000 1.7 187 10:25 30.10.2022
1230 Clouds 15 1022 53 10000 2.26 202 09:24 30.10.2022
1231 Clear 15 1021 49 10000 2.29 209 07:55 30.10.2022
1232 Clouds 11 1025 67 10000 1.36 181 00:29 30.10.2022
1233 Clouds 11 1025 67 10000 1.36 181 23:47 29.10.2022
1234 Clouds 11 1025 64 10000 1.47 177 21:57 29.10.2022
1235 Clouds 12 1026 60 10000 1.72 181 19:22 29.10.2022
1236 Clouds 11 1027 56 10000 2.12 191 17:23 29.10.2022
1237 Clouds 12 1027 56 10000 2.21 192 15:39 29.10.2022
1238 Clouds 12 1026 55 10000 2.38 190 14:54 29.10.2022
1239 Clouds 13 1026 53 10000 2.61 190 13:45 29.10.2022
1240 Clouds 13 1026 52 10000 2.72 186 12:32 29.10.2022
1241 Clouds 14 1026 49 10000 2.59 189 09:32 29.10.2022
1242 Clouds 14 1028 52 10000 1.95 203 06:50 29.10.2022
1243 Rain 13 1029 55 10000 1.85 195 05:54 29.10.2022
1244 Clouds 10 1029 66 10000 0.87 128 23:44 28.10.2022
1245 Clouds 10 1029 65 10000 0.92 135 21:37 28.10.2022
1246 Clouds 10 1030 63 10000 1.12 153 19:59 28.10.2022
1247 Clouds 10 1030 62 10000 1.28 162 18:33 28.10.2022
1248 Clouds 10 1030 62 10000 1.54 156 17:52 28.10.2022
1249 Clouds 11 1029 58 10000 1.51 118 15:18 28.10.2022
1250 Clouds 11 1028 53 10000 1.37 153 13:43 28.10.2022
1251 Clear 12 1028 48 10000 1.57 162 11:55 28.10.2022
1252 Clear 12 1028 48 10000 1.57 162 11:32 28.10.2022
1253 Clear 12 1027 44 10000 2.04 188 10:45 28.10.2022
1254 Clear 12 1027 41 10000 2.19 198 09:37 28.10.2022
1255 Clear 12 1029 39 10000 1.78 216 07:19 28.10.2022
1256 Clouds 10 1032 33 10000 0.27 180 02:30 28.10.2022
1257 Clouds 10 1031 34 10000 0.21 180 23:47 27.10.2022
1258 Clouds 9 1031 33 10000 0.24 224 22:37 27.10.2022
1259 Clouds 9 1032 28 10000 0.56 209 20:59 27.10.2022
1260 Clouds 10 1033 26 10000 1.3 181 18:33 27.10.2022
1261 Clouds 10 1033 25 10000 1.4 167 17:22 27.10.2022
1262 Clouds 10 1033 22 10000 1.56 149 13:32 27.10.2022
1263 Clouds 12 1031 21 10000 2.46 151 08:31 27.10.2022
1264 Clouds 11 1034 26 10000 1.58 87 02:56 27.10.2022
1265 Clouds 11 1032 29 10000 1.87 58 23:54 26.10.2022
1266 Clouds 11 1031 31 10000 2.03 64 22:44 26.10.2022
1267 Clouds 11 1031 33 10000 2.12 67 21:49 26.10.2022
1268 Clouds 12 1030 39 10000 1.93 64 18:38 26.10.2022
1269 Clouds 14 1030 41 10000 2.81 70 16:31 26.10.2022
1270 Clouds 16 1027 46 10000 2.36 44 13:34 26.10.2022
1271 Clouds 16 1026 46 10000 2.23 44 12:36 26.10.2022
1272 Clouds 17 1024 41 10000 2.96 32 09:31 26.10.2022
1273 Clouds 17 1023 39 10000 2.91 31 08:53 26.10.2022
1274 Clouds 18 1023 38 10000 2.6 28 07:57 26.10.2022
1275 Clouds 9 1021 44 10000 1.14 12 00:42 26.10.2022
1276 Clouds 9 1021 45 10000 0.63 11 00:20 26.10.2022
1277 Clouds 9 1021 45 10000 0.22 300 21:47 25.10.2022
1278 Clouds 10 1021 45 10000 0.24 270 20:50 25.10.2022
1279 Clouds 11 1021 44 10000 0.68 206 18:59 25.10.2022
1280 Clear 10 1021 43 10000 0.95 221 17:51 25.10.2022
1281 Clear 10 1020 37 10000 1.74 186 13:57 25.10.2022
1282 Clear 16 1019 33 10000 1.46 206 11:38 25.10.2022
1283 Clear 19 1019 30 10000 2.1 213 10:37 25.10.2022
1284 Clear 19 1019 31 10000 2.61 208 08:44 25.10.2022
1285 Clouds 19 1019 33 10000 2.03 205 08:18 25.10.2022
1286 Clouds 19 1020 31 10000 1.86 203 07:54 25.10.2022
1287 Clouds 18 1021 33 10000 1.29 196 06:55 25.10.2022
1288 Clouds 13 1023 45 10000 1.71 57 03:41 25.10.2022
1289 Clear 6 1023 54 10000 1.65 36 00:34 25.10.2022
1290 Clear 6 1022 47 10000 1.88 42 23:21 24.10.2022
1291 Clear 4 1022 42 10000 1.74 42 22:18 24.10.2022
1292 Clear 5 1022 42 10000 1.74 42 21:32 24.10.2022
1293 Clear 6 1023 38 10000 1.52 45 20:41 24.10.2022
1294 Clear 6 1023 32 10000 1.23 45 18:52 24.10.2022
1295 Clear 6 1023 29 10000 0.57 55 17:22 24.10.2022
1296 Clear 7 1023 27 10000 0.3 68 16:20 24.10.2022
1297 Clear 8 1022 25 10000 0.74 149 14:21 24.10.2022
1298 Clear 10 1022 24 10000 1 152 12:59 24.10.2022
1299 Clear 19 1021 22 10000 1.8 199 10:27 24.10.2022
1300 Clear 19 1022 21 10000 1.75 208 07:56 24.10.2022
1301 Clear 3 1026 48 10000 1.38 65 23:46 23.10.2022
1302 Clear 5 1026 22 10000 1.56 75 20:42 23.10.2022
1303 Clear 9 1026 21 10000 1.47 74 19:34 23.10.2022
1304 Clear 5 1025 21 10000 0.78 88 17:30 23.10.2022
1305 Clear 5 1025 21 10000 0.78 88 17:30 23.10.2022
1306 Clear 5 1025 20 10000 0.54 126 16:41 23.10.2022
1307 Clear 6 1025 18 10000 1.11 143 15:19 23.10.2022
1308 Clear 11 1024 14 10000 1.13 24 12:31 23.10.2022
1309 Clear 20 1023 12 10000 1.82 323 10:58 23.10.2022
1310 Clear 21 1025 12 10000 3.7 337 06:59 23.10.2022
1311 Clear 2 1025 30 10000 1.42 358 23:35 22.10.2022
1312 Clear 2 1025 31 10000 1.1 350 22:30 22.10.2022
1313 Clear 3 1025 32 10000 0.72 333 21:41 22.10.2022
1314 Clear 4 1026 32 10000 0.55 221 20:29 22.10.2022
1315 Clear 4 1026 29 10000 0.63 203 19:31 22.10.2022
1316 Clear 7 1026 27 10000 1.05 201 18:23 22.10.2022
1317 Clear 6 1027 25 10000 1.34 191 16:51 22.10.2022
1318 Clear 7 1026 23 10000 1.69 73 15:21 22.10.2022
1319 Clear 8 1026 23 10000 1.69 73 14:34 22.10.2022
1320 Clear 12 1025 17 10000 1.39 18 12:35 22.10.2022
1321 Clear 21 1024 14 10000 3.06 313 09:46 22.10.2022
1322 Clear 21 1024 15 10000 3.94 324 08:37 22.10.2022
1323 Clear 21 1026 19 10000 5.8 330 06:27 22.10.2022
1324 Clear 15 1024 24 10000 5.42 325 01:25 22.10.2022
1325 Clear 7 1023 18 10000 5.82 322 22:53 21.10.2022
1326 Clear 9 1022 15 10000 6.15 320 21:34 21.10.2022
1327 Clear 9 1022 16 10000 5.57 320 20:39 21.10.2022
1328 Clear 9 1021 19 10000 5.53 321 18:30 21.10.2022
1329 Clouds 11 1019 33 10000 2.06 218 14:47 21.10.2022
1330 Clouds 12 1019 31 10000 2.53 205 13:40 21.10.2022
1331 Clear 15 1018 28 10000 2.26 190 11:54 21.10.2022
1332 Clear 21 1018 23 10000 2.5 194 10:24 21.10.2022
1333 Clouds 22 1018 23 10000 2.06 196 08:51 21.10.2022
1334 Clouds 22 1018 23 10000 1.7 197 08:26 21.10.2022
1335 Clouds 17 1022 26 10000 0.26 67 04:50 21.10.2022
1336 Clear 5 1021 39 10000 0.85 14 23:53 20.10.2022
1337 Clouds 7 1020 36 10000 0.74 259 21:21 20.10.2022
1338 Clouds 7 1021 36 10000 0.85 222 19:44 20.10.2022
1339 Clouds 9 1021 35 10000 1.19 221 18:50 20.10.2022
1340 Clouds 10 1021 33 10000 1.55 212 17:44 20.10.2022
1341 Clouds 13 1021 30 10000 1.97 183 15:24 20.10.2022
1342 Clouds 13 1021 28 10000 1.62 194 12:33 20.10.2022
1343 Clouds 16 1020 27 10000 2.24 192 11:36 20.10.2022
1344 Rain 16 1020 25 10000 2.98 202 10:53 20.10.2022
1345 Clouds 17 1020 24 10000 3.85 204 09:34 20.10.2022
1346 Clouds 17 1021 22 10000 3.68 203 07:23 20.10.2022
1347 Clouds 11 1024 34 10000 0.46 132 02:23 20.10.2022
1348 Clouds 7 1023 37 10000 0.32 108 23:46 19.10.2022
1349 Clouds 7 1023 36 10000 0.44 167 22:30 19.10.2022
1350 Clouds 6 1022 37 10000 0.71 170 21:31 19.10.2022
1351 Clouds 6 1022 34 10000 1.33 196 20:23 19.10.2022
1352 Clear 8 1022 34 10000 1.95 200 17:52 19.10.2022
1353 Clear 7 1022 32 10000 2.76 203 16:28 19.10.2022
1354 Clear 8 1022 30 10000 2.91 200 14:34 19.10.2022
1355 Clear 11 1020 22 10000 3.93 195 12:21 19.10.2022
1356 Clear 20 1020 15 10000 4.21 212 08:58 19.10.2022
1357 Clear 18 1022 12 10000 2.2 209 07:24 19.10.2022
1358 Clear 7 1025 16 10000 1.15 30 02:30 19.10.2022
1359 Clear 0 1024 20 10000 1.14 21 23:45 18.10.2022
1360 Clear 0 1023 20 10000 1.1 10 21:49 18.10.2022
1361 Clear 1 1023 20 10000 1.1 10 21:31 18.10.2022
1362 Clear 1 1023 20 10000 0.81 353 20:31 18.10.2022
1363 Clear 2 1023 18 10000 0.63 286 18:59 18.10.2022
1364 Clear 3 1023 17 10000 1.54 235 16:58 18.10.2022
1365 Clear 5 1023 16 10000 1.98 221 15:36 18.10.2022
1366 Clear 7 1023 13 10000 2.6 203 13:43 18.10.2022
1367 Clear 14 1022 11 10000 2.35 189 11:47 18.10.2022
1368 Clear 19 1022 10 10000 2.47 190 10:36 18.10.2022
1369 Clear 19 1022 9 10000 2.23 196 09:26 18.10.2022
1370 Clear 17 1024 10 10000 1.97 197 06:56 18.10.2022
1371 Clear -1 1027 17 10000 1.5 10 23:40 17.10.2022
1372 Clear 1 1027 16 10000 1.57 10 21:35 17.10.2022
1373 Clear 2 1028 16 10000 1.1 7 20:49 17.10.2022
1374 Clear 1 1028 15 10000 0.96 359 20:29 17.10.2022
1375 Clear 2 1028 15 10000 0.96 359 19:42 17.10.2022
1376 Clear 5 1028 14 10000 1.36 338 17:53 17.10.2022
1377 Clear 4 1028 13 10000 1.71 328 16:22 17.10.2022
1378 Clear 4 1028 12 10000 2.03 320 15:27 17.10.2022
1379 Clear 14 1027 12 10000 2.35 310 13:35 17.10.2022
1380 Clear 18 1027 9 10000 4 310 09:28 17.10.2022
1381 Clear 11 1032 14 10000 5.85 328 02:37 17.10.2022
1382 Clear 9 1032 14 10000 3.61 323 22:59 16.10.2022
1383 Clear 10 1031 14 10000 3.51 338 21:46 16.10.2022
1384 Clear 9 1032 13 10000 3.73 342 19:56 16.10.2022
1385 Clear 8 1032 13 10000 3.73 342 19:38 16.10.2022
1386 Clear 11 1031 12 10000 4.46 349 17:47 16.10.2022
1387 Clear 12 1031 12 10000 4.88 349 16:32 16.10.2022
1388 Clear 10 1031 12 10000 5.11 350 15:56 16.10.2022
1389 Clear 13 1028 8 10000 4.21 340 12:49 16.10.2022
1390 Clear 18 1027 8 10000 4.85 332 11:41 16.10.2022
1391 Clear 19 1026 6 10000 5.38 326 10:26 16.10.2022
1392 Clear 19 1026 8 10000 5.2 334 07:39 16.10.2022
1393 Clouds 15 1025 20 10000 4.37 26 23:47 15.10.2022
1394 Clouds 17 1023 21 10000 4.42 12 21:58 15.10.2022
1395 Clouds 17 1022 21 10000 4.83 10 21:20 15.10.2022
1396 Clouds 18 1023 21 10000 5.3 358 19:55 15.10.2022
1397 Clouds 15 1021 22 10000 4.41 6 17:26 15.10.2022
1398 Clouds 13 1020 27 10000 2.98 340 15:45 15.10.2022
1399 Clouds 21 1018 29 10000 1.54 222 13:42 15.10.2022
1400 Clouds 18 1017 25 10000 2.27 193 11:51 15.10.2022
1401 Clouds 23 1016 19 10000 2.27 184 10:26 15.10.2022
1402 Clouds 24 1017 18 10000 2.33 175 08:20 15.10.2022
1403 Clouds 8 1020 38 10000 1.2 23 00:41 15.10.2022
1404 Clouds 8 1019 38 10000 1.63 28 23:25 14.10.2022
1405 Clouds 8 1019 37 10000 1.75 14 22:22 14.10.2022
1406 Clouds 8 1019 37 10000 1.75 14 22:22 14.10.2022
1407 Clouds 9 1019 37 10000 1.83 11 21:27 14.10.2022
1408 Clouds 9 1019 37 10000 1.83 11 21:27 14.10.2022
1409 Clouds 8 1019 37 10000 1.1 347 19:25 14.10.2022
1410 Clouds 9 1019 33 10000 0.95 233 16:23 14.10.2022
1411 Clear 12 1018 27 10000 2.59 207 13:26 14.10.2022
1412 Clear 26 1017 30 10000 2.58 203 11:39 14.10.2022
1413 Clear 27 1017 28 10000 2.01 193 08:59 14.10.2022
1414 Clouds 20 1019 22 10000 1.49 214 06:54 14.10.2022
1415 Clouds 20 1020 23 10000 1.3 231 06:18 14.10.2022
1416 Clouds 18 1020 23 10000 1.3 231 05:42 14.10.2022
1417 Clouds 14 1022 27 10000 0.25 25 03:43 14.10.2022
1418 Clouds 11 1021 35 10000 0.48 163 23:49 13.10.2022
1419 Clouds 11 1021 33 10000 0.33 49 22:21 13.10.2022
1420 Rain 11 1021 33 10000 0.19 192 21:25 13.10.2022
1421 Rain 11 1021 33 10000 0.95 152 19:43 13.10.2022
1422 Rain 11 1022 35 10000 0.81 211 19:18 13.10.2022
1423 Clouds 11 1022 35 10000 0.81 211 18:41 13.10.2022
1424 Clouds 11 1022 33 10000 1.45 192 16:31 13.10.2022
1425 Clouds 11 1022 33 10000 1.58 187 15:43 13.10.2022
1426 Clouds 12 1022 30 10000 2.2 197 14:18 13.10.2022
1427 Clouds 12 1022 31 10000 2.47 197 12:45 13.10.2022
1428 Clouds 17 1021 31 10000 2.7 198 11:35 13.10.2022
1429 Clouds 19 1021 27 10000 2.42 199 09:37 13.10.2022
1430 Clouds 19 1022 25 10000 1.47 200 07:39 13.10.2022
1431 Clouds 18 1024 27 10000 0.28 109 06:29 13.10.2022
1432 Clouds 9 1025 40 10000 1.07 37 01:47 13.10.2022
1433 Clouds 7 1024 44 10000 0.79 40 00:45 13.10.2022
1434 Clouds 8 1024 43 10000 1.13 14 22:46 12.10.2022
1435 Clouds 7 1024 43 10000 0.62 353 21:51 12.10.2022
1436 Clouds 6 1024 43 10000 0.8 230 21:20 12.10.2022
1437 Clouds 7 1024 43 10000 0.8 230 20:46 12.10.2022
1438 Clouds 7 1024 42 10000 0.94 203 19:26 12.10.2022
1439 Clouds 7 1024 40 10000 1.19 209 18:19 12.10.2022
1440 Clouds 8 1024 40 10000 1.19 209 17:45 12.10.2022
1441 Clouds 10 1024 35 10000 1.78 195 14:52 12.10.2022
1442 Clouds 10 1023 35 10000 2.01 191 13:54 12.10.2022
1443 Clouds 13 1023 33 10000 2.16 189 12:31 12.10.2022
1444 Clouds 20 1022 25 10000 3.77 199 09:37 12.10.2022
1445 Clouds 18 1023 23 10000 3.5 206 07:42 12.10.2022
1446 Clouds 18 1023 24 10000 2.84 209 06:44 12.10.2022
1447 Clouds 17 1024 25 10000 2.33 209 06:22 12.10.2022
1448 Clear 2 1025 39 10000 0.81 346 00:55 12.10.2022
1449 Clear 3 1023 39 10000 0.14 340 21:43 11.10.2022
1450 Clear 4 1023 37 10000 0.39 262 20:36 11.10.2022
1451 Clear 5 1023 31 10000 1.07 205 18:28 11.10.2022
1452 Clear 5 1023 29 10000 1.28 197 16:33 11.10.2022
1453 Clear 7 1023 21 10000 1.84 189 14:34 11.10.2022
1454 Clear 15 1022 15 10000 2.1 191 11:52 11.10.2022
1455 Clear 20 1021 11 10000 2.63 205 10:28 11.10.2022
1456 Clear 21 1022 11 10000 2.43 203 09:26 11.10.2022
1457 Clear 16 1025 11 10000 1 187 05:36 11.10.2022
1458 Clear 10 1026 18 10000 1.49 16 02:19 11.10.2022
1459 Clear 2 1025 21 10000 1.35 14 00:27 11.10.2022
1460 Clear 1 1025 19 10000 1.35 359 21:24 10.10.2022
1461 Clear 1 1025 19 10000 1.2 346 19:46 10.10.2022
1462 Clear 1 1025 19 10000 1.2 346 19:46 10.10.2022
1463 Clear 1 1025 19 10000 1.23 350 19:46 10.10.2022
1464 Clear 2 1025 18 10000 1.09 311 18:25 10.10.2022
1465 Clear 4 1025 17 10000 1.2 289 16:48 10.10.2022
1466 Clear 5 1023 16 10000 1.63 269 15:20 10.10.2022
1467 Clear 9 1022 13 10000 2.02 279 12:43 10.10.2022
1468 Clear 19 1021 11 10000 3.5 303 11:26 10.10.2022
1469 Clear 18 1022 11 10000 5.07 308 08:33 10.10.2022
1470 Clear 16 1025 15 10000 5.72 322 05:41 10.10.2022
1471 Clear 12 1026 21 10000 5.4 325 02:53 10.10.2022
1472 Clear 9 1026 26 10000 4.99 320 00:29 10.10.2022
1473 Clear 9 1026 25 10000 5.06 321 22:27 09.10.2022
1474 Clear 9 1026 25 10000 5.06 321 21:58 09.10.2022
1475 Clear 9 1026 24 10000 4.9 319 21:19 09.10.2022
1476 Clear 10 1026 22 10000 4.69 318 19:59 09.10.2022
1477 Clear 10 1026 22 10000 4.69 318 19:34 09.10.2022
1478 Clear 10 1026 21 10000 4.69 320 18:39 09.10.2022
1479 Clear 10 1027 22 10000 4.94 322 16:56 09.10.2022
1480 Clear 10 1027 22 10000 4.94 322 16:33 09.10.2022
1481 Clear 10 1027 23 10000 5 325 15:37 09.10.2022
1482 Clear 11 1025 23 10000 5.12 331 14:31 09.10.2022
1483 Clouds 12 1025 21 10000 5.72 334 12:59 09.10.2022
1484 Clouds 13 1024 19 10000 5.79 337 12:22 09.10.2022
1485 Clouds 15 1023 18 10000 6.38 344 10:48 09.10.2022
1486 Clouds 16 1022 18 10000 7.85 340 08:30 09.10.2022
1487 Clouds 16 1022 18 10000 7.85 340 08:30 09.10.2022
1488 Clear 13 1022 23 10000 8.8 327 03:38 09.10.2022
1489 Clear 12 1022 26 10000 8.8 323 02:49 09.10.2022
1490 Clouds 10 1020 32 10000 8.65 315 00:34 09.10.2022
1491 Clouds 10 1019 34 10000 8.24 312 22:53 08.10.2022
1492 Clouds 10 1019 34 10000 7.43 305 21:50 08.10.2022
1493 Clouds 10 1019 35 10000 5.91 308 20:27 08.10.2022
1494 Clouds 11 1018 37 10000 5.99 311 18:53 08.10.2022
1495 Clouds 13 1018 28 10000 7.78 302 16:38 08.10.2022
1496 Clouds 12 1018 30 10000 7.36 305 14:54 08.10.2022
1497 Clouds 12 1016 58 10000 1.87 289 13:30 08.10.2022
1498 Clouds 12 1015 53 10000 1.52 208 10:40 08.10.2022
1499 Clouds 12 1015 52 10000 1.72 205 10:21 08.10.2022
1500 Clouds 12 1016 53 10000 1.29 214 08:48 08.10.2022
1501 Clouds 12 1019 72 10000 1.38 171 03:59 08.10.2022
1502 Clouds 11 1018 82 10000 2.36 166 00:43 08.10.2022
1503 Clear 11 1018 80 10000 2.57 166 23:27 07.10.2022
1504 Clear 11 1018 80 10000 2.57 166 22:50 07.10.2022
1505 Clear 11 1018 78 10000 2.7 170 21:38 07.10.2022
1506 Clear 10 1019 70 10000 3.04 186 19:42 07.10.2022
1507 Clouds 10 1020 62 10000 3.72 194 17:48 07.10.2022
1508 Clear 12 1020 58 10000 3.91 195 16:42 07.10.2022
1509 Clear 11 1020 50 10000 4 191 15:21 07.10.2022
1510 Clear 12 1020 39 10000 4.48 191 13:26 07.10.2022
1511 Clear 18 1018 28 10000 4.58 196 11:19 07.10.2022
1512 Clear 19 1019 22 10000 4.43 207 09:25 07.10.2022
1513 Clear 19 1020 24 10000 3.66 207 08:20 07.10.2022
1514 Clear 9 1025 49 10000 0.65 26 02:29 07.10.2022
1515 Clear 3 1024 57 10000 0.73 53 22:53 06.10.2022
1516 Clear 4 1023 56 10000 0.76 39 21:52 06.10.2022
1517 Clear 3 1023 56 10000 0.76 39 21:30 06.10.2022
1518 Clear 4 1024 54 10000 0.36 11 20:38 06.10.2022
1519 Clear 7 1024 48 10000 0.96 223 18:56 06.10.2022
1520 Clear 7 1024 48 10000 0.96 223 18:31 06.10.2022
1521 Clear 10 1024 46 10000 3.14 209 15:36 06.10.2022
1522 Clear 10 1022 36 10000 3.98 195 12:49 06.10.2022
1523 Clear 18 1022 21 10000 2.28 189 08:51 06.10.2022
1524 Clouds 14 1026 21 10000 0.82 162 04:37 06.10.2022
1525 Clouds 2 1027 33 10000 0.2 32 00:50 06.10.2022
1526 Clouds 3 1026 32 10000 0.81 13 21:53 05.10.2022
1527 Clouds 4 1027 35 10000 0.72 284 19:41 05.10.2022
1528 Clouds 5 1028 37 10000 1.56 241 17:37 05.10.2022
1529 Clouds 6 1028 30 10000 2.16 216 16:24 05.10.2022
1530 Clouds 8 1028 26 10000 2.4 215 14:55 05.10.2022
1531 Clouds 7 1028 24 10000 2.55 209 14:20 05.10.2022
1532 Clouds 9 1027 23 10000 2.63 196 12:43 05.10.2022
1533 Clouds 15 1026 17 10000 2.37 180 10:48 05.10.2022
1534 Clouds 16 1027 13 10000 0.34 98 08:19 05.10.2022
1535 Clouds 16 1028 13 10000 0.63 49 06:36 05.10.2022
1536 Clouds 14 1029 14 10000 1.49 46 05:31 05.10.2022
1537 Clouds 9 1031 23 10000 2.17 27 02:29 05.10.2022
1538 Clouds 1 1030 26 10000 2.04 28 00:28 05.10.2022
1539 Clear 3 1030 26 10000 2.02 32 22:54 04.10.2022
1540 Clouds 2 1029 26 10000 1.45 9 21:22 04.10.2022
1541 Clear 3 1030 27 10000 0.94 22 19:49 04.10.2022
1542 Clear 3 1030 27 10000 0.93 331 18:51 04.10.2022
1543 Clear 4 1030 27 10000 0.74 302 17:53 04.10.2022
1544 Clear 4 1030 27 10000 1.22 237 16:51 04.10.2022
1545 Clear 6 1029 21 10000 2.73 193 13:59 04.10.2022
1546 Clear 17 1027 10 10000 2.06 351 09:57 04.10.2022
1547 Clear 16 1029 10 10000 3.3 350 07:48 04.10.2022
1548 Clouds 14 1032 13 10000 5.16 1 04:42 04.10.2022
1549 Clear 8 1032 23 10000 4.23 1 23:49 03.10.2022
1550 Clear 9 1032 22 10000 4.9 2 22:28 03.10.2022
1551 Clouds 7 1031 21 10000 4.74 10 21:27 03.10.2022
1552 Clear 7 1031 23 10000 5.17 1 21:27 03.10.2022
1553 Clouds 5 1031 21 10000 4.74 10 20:35 03.10.2022
1554 Clouds 7 1030 22 10000 5.39 11 18:52 03.10.2022
1555 Clouds 7 1030 24 10000 5.82 11 17:32 03.10.2022
1556 Clouds 11 1028 28 10000 6.29 14 15:55 03.10.2022
1557 Clouds 12 1026 37 10000 5.57 16 14:26 03.10.2022
1558 Clouds 13 1025 46 10000 4.94 18 12:36 03.10.2022
1559 Clouds 14 1023 60 10000 4.34 16 10:59 03.10.2022
1560 Rain 14 1021 67 10000 4.83 20 09:52 03.10.2022
1561 Clouds 15 1021 75 10000 5.83 9 08:45 03.10.2022
1562 Rain 19 1019 79 8466 5.73 5 04:41 03.10.2022
1563 Clouds 18 1013 83 10000 1.64 74 22:56 02.10.2022
1564 Clouds 19 1013 83 10000 1.41 65 21:38 02.10.2022
1565 Clouds 19 1013 84 10000 1.63 93 19:50 02.10.2022
1566 Rain 19 1013 83 10000 1.35 106 17:55 02.10.2022
1567 Clouds 20 1013 82 10000 1.63 113 16:53 02.10.2022
1568 Rain 20 1013 82 10000 1.63 113 16:32 02.10.2022
1569 Clouds 20 1013 79 10000 1.28 145 15:25 02.10.2022
1570 Clouds 20 1012 78 10000 1.47 135 13:46 02.10.2022
1571 Clouds 20 1012 78 10000 1.28 114 12:39 02.10.2022
1572 Clouds 21 1012 78 10000 0.88 157 11:48 02.10.2022
1573 Clouds 21 1012 78 10000 0.88 157 11:30 02.10.2022
1574 Clouds 21 1011 75 10000 1.25 95 10:19 02.10.2022
1575 Clouds 21 1011 75 10000 1.41 47 08:28 02.10.2022
1576 Clouds 19 1012 74 10000 0.18 314 05:19 02.10.2022
1577 Clouds 17 1012 80 10000 2 49 00:58 02.10.2022
1578 Clouds 18 1012 80 10000 2 49 00:38 02.10.2022
1579 Clouds 18 1012 81 10000 1.92 64 23:28 01.10.2022
1580 Clouds 17 1012 82 10000 2 61 21:39 01.10.2022
1581 Clouds 21 1013 71 10000 2.78 99 18:54 01.10.2022
1582 Rain 22 1013 73 10000 3.62 90 17:46 01.10.2022
1583 Rain 23 1014 68 10000 1.25 187 15:28 01.10.2022
1584 Rain 22 1013 57 10000 2.36 188 13:52 01.10.2022
1585 Clouds 23 1013 59 10000 3.11 209 12:34 01.10.2022
1586 Rain 24 1012 60 10000 4.89 212 11:22 01.10.2022
1587 Clouds 25 1012 60 10000 4.89 212 10:51 01.10.2022
1588 Rain 25 1012 54 10000 5.64 199 10:29 01.10.2022
1589 Rain 25 1012 46 10000 4.78 187 09:25 01.10.2022
1590 Clouds 26 1012 43 10000 4.48 169 08:27 01.10.2022
1591 Clouds 22 1014 50 10000 1.53 122 03:47 01.10.2022
1592 Clouds 22 1014 50 10000 1.59 76 03:18 01.10.2022
1593 Clouds 18 1012 52 10000 1.01 88 23:21 30.09.2022
1594 Clouds 18 1012 51 10000 0.96 116 22:18 30.09.2022
1595 Clouds 19 1012 48 10000 0.61 146 20:57 30.09.2022
1596 Clouds 18 1012 46 10000 1.19 169 20:20 30.09.2022
1597 Clouds 21 1012 43 10000 1.73 184 18:32 30.09.2022
1598 Clouds 19 1011 39 10000 2.44 198 16:55 30.09.2022
1599 Clear 19 1010 36 10000 2.79 199 14:49 30.09.2022
1600 Clear 22 1008 29 10000 3.85 182 12:51 30.09.2022
1601 Clear 30 1007 40 10000 3.67 182 11:56 30.09.2022
1602 Clear 29 1007 18 10000 4.17 213 09:25 30.09.2022
1603 Clear 28 1008 21 10000 3.25 214 07:58 30.09.2022
1604 Clear 22 1011 34 10000 1.01 188 03:35 30.09.2022
1605 Clear 18 1011 43 10000 0.65 59 01:45 30.09.2022
1606 Clear 18 1010 47 10000 0.51 79 21:53 29.09.2022
1607 Clear 17 1010 46 10000 0.63 97 21:24 29.09.2022
1608 Clear 17 1010 43 10000 0.61 113 19:58 29.09.2022
1609 Clear 19 1010 41 10000 0.7 178 18:30 29.09.2022
1610 Clear 21 1010 38 10000 2.23 205 16:29 29.09.2022
1611 Clear 20 1010 38 10000 2.23 205 15:37 29.09.2022
1612 Clear 20 1010 36 10000 2.75 201 14:59 29.09.2022
1613 Clear 21 1008 27 10000 3.04 194 12:45 29.09.2022
1614 Clear 29 1008 22 10000 2.87 213 08:47 29.09.2022
1615 Clear 24 1011 29 10000 0.75 143 04:46 29.09.2022
1616 Clear 19 1012 36 10000 1.11 46 02:36 29.09.2022
1617 Clear 14 1011 46 10000 1.33 39 23:26 28.09.2022
1618 Clear 15 1010 46 10000 1.37 51 22:22 28.09.2022
1619 Clear 16 1010 45 10000 1.07 40 21:25 28.09.2022
1620 Clear 17 1010 46 10000 0.38 43 19:57 28.09.2022
1621 Clear 20 1010 40 10000 0.87 161 16:52 28.09.2022
1622 Clear 19 1010 36 10000 2.28 193 14:35 28.09.2022
1623 Clear 24 1007 26 10000 3.07 191 11:49 28.09.2022
1624 Clear 29 1007 20 10000 3.59 204 10:22 28.09.2022
1625 Clouds 27 1008 21 10000 2.7 210 07:53 28.09.2022
1626 Clouds 26 1010 24 10000 1.91 213 06:27 28.09.2022
1627 Clouds 16 1011 38 10000 0.74 48 01:47 28.09.2022
1628 Clouds 14 1011 42 10000 0.83 38 01:25 28.09.2022
1629 Clouds 13 1011 43 10000 0.73 11 22:49 27.09.2022
1630 Clouds 14 1011 41 10000 0.24 67 21:20 27.09.2022
1631 Clouds 16 1011 41 10000 0.24 67 20:35 27.09.2022
1632 Clouds 16 1011 37 10000 0.67 126 19:45 27.09.2022
1633 Clouds 15 1012 34 10000 1.67 189 17:54 27.09.2022
1634 Clouds 15 1012 34 10000 1.67 189 17:32 27.09.2022
1635 Clouds 17 1012 29 10000 3.09 203 15:23 27.09.2022
1636 Clouds 18 1012 27 10000 3.29 197 14:24 27.09.2022
1637 Clouds 23 1011 21 10000 2.91 182 12:39 27.09.2022
1638 Clouds 23 1011 21 10000 2.91 182 12:39 27.09.2022
1639 Clouds 29 1011 16 10000 3.26 194 10:49 27.09.2022
1640 Clouds 28 1011 17 10000 3.6 204 08:42 27.09.2022
1641 Clouds 24 1015 22 10000 1.76 205 05:48 27.09.2022
1642 Clear 14 1016 36 10000 1.54 29 01:43 27.09.2022
1643 Clear 13 1016 41 10000 0.98 32 00:32 27.09.2022
1644 Clear 13 1016 41 10000 0.74 61 23:25 26.09.2022
1645 Clear 14 1016 39 10000 0.66 33 21:44 26.09.2022
1646 Clear 15 1015 35 10000 0.53 60 20:27 26.09.2022
1647 Clear 15 1015 33 10000 0.35 98 19:24 26.09.2022
1648 Clear 17 1015 33 10000 0.35 98 18:30 26.09.2022
1649 Clear 17 1015 28 10000 1.47 190 15:49 26.09.2022
1650 Clear 19 1013 25 10000 3.21 181 13:25 26.09.2022
1651 Clear 27 1013 19 10000 3.15 194 11:28 26.09.2022
1652 Clear 28 1013 19 10000 3.15 194 10:36 26.09.2022
1653 Clear 28 1012 18 10000 3.45 199 10:18 26.09.2022
1654 Clear 28 1012 18 10000 3.45 199 09:52 26.09.2022
1655 Clear 28 1013 18 10000 3.07 200 09:22 26.09.2022
1656 Clear 26 1015 21 10000 2.01 192 06:21 26.09.2022
1657 Clear 17 1016 29 10000 1.08 51 02:41 26.09.2022
1658 Clear 12 1015 40 10000 1.45 36 23:26 25.09.2022
1659 Clear 12 1015 40 10000 1.18 33 21:48 25.09.2022
1660 Clear 12 1014 39 10000 0.72 40 21:25 25.09.2022
1661 Clear 12 1014 39 10000 0.72 40 20:38 25.09.2022
1662 Clear 13 1015 37 10000 0.58 59 19:30 25.09.2022
1663 Clear 13 1015 36 10000 0.39 69 18:34 25.09.2022
1664 Clear 13 1014 34 10000 0.15 186 17:41 25.09.2022
1665 Clear 14 1014 30 10000 1.28 190 16:21 25.09.2022
1666 Clear 15 1013 28 10000 1.68 190 14:55 25.09.2022
1667 Clear 16 1013 24 10000 2.19 187 14:20 25.09.2022
1668 Clear 23 1011 17 10000 2.02 189 11:53 25.09.2022
1669 Clear 26 1010 13 10000 2.06 197 09:48 25.09.2022
1670 Clear 25 1011 14 10000 2.26 194 07:47 25.09.2022
1671 Clear 22 1014 18 10000 1.21 179 05:29 25.09.2022
1672 Clear 9 1014 33 10000 1.09 25 23:37 24.09.2022
1673 Clear 10 1013 33 10000 1.02 11 22:34 24.09.2022
1674 Clear 12 1013 31 10000 0.16 279 20:36 24.09.2022
1675 Clouds 14 1013 28 10000 1.58 206 19:20 24.09.2022
1676 Clouds 15 1013 25 10000 2.72 198 16:59 24.09.2022
1677 Clouds 15 1014 24 10000 2.99 209 16:23 24.09.2022
1678 Clouds 16 1013 22 10000 3.62 206 15:19 24.09.2022
1679 Clouds 19 1012 18 10000 3.9 195 13:23 24.09.2022
1680 Clouds 20 1012 18 10000 3.9 195 12:40 24.09.2022
1681 Clouds 27 1012 11 10000 4.27 212 10:19 24.09.2022
1682 Clouds 28 1013 11 10000 4.11 213 09:23 24.09.2022
1683 Clouds 28 1013 11 10000 4.11 213 08:43 24.09.2022
1684 Clouds 24 1017 12 10000 1.69 190 05:55 24.09.2022
1685 Clouds 21 1018 13 10000 0.57 173 04:34 24.09.2022
1686 Clear 7 1018 23 10000 0.61 349 23:48 23.09.2022
1687 Clear 7 1018 23 10000 1.21 359 22:21 23.09.2022
1688 Clear 8 1018 22 10000 0.98 339 21:25 23.09.2022
1689 Clear 8 1018 22 10000 0.98 339 20:54 23.09.2022
1690 Clear 9 1018 21 10000 0.92 306 19:44 23.09.2022
1691 Clear 12 1018 19 10000 1.4 274 17:55 23.09.2022
1692 Clear 22 1017 15 10000 2.85 254 13:41 23.09.2022
1693 Clear 26 1015 10 10000 5.85 290 10:25 23.09.2022
1694 Clear 25 1016 10 10000 5.91 293 08:56 23.09.2022
1695 Clear 21 1019 16 10000 6.74 313 04:42 23.09.2022
1696 Clear 13 1018 25 10000 6.43 314 23:30 22.09.2022
1697 Clear 14 1017 24 10000 5.42 315 22:28 22.09.2022
1698 Clear 14 1017 24 10000 5.42 315 21:40 22.09.2022
1699 Clear 14 1016 24 10000 5.79 309 20:31 22.09.2022
1700 Clear 13 1016 22 10000 6.05 324 19:20 22.09.2022
1701 Clear 14 1016 16 10000 7.68 316 16:23 22.09.2022
1702 Clouds 26 1008 10 10000 8.84 316 10:56 22.09.2022
1703 Clouds 27 1007 12 10000 8.13 314 10:20 22.09.2022
1704 Clear 28 1006 13 10000 7.06 301 08:22 22.09.2022
1705 Clear 26 1007 18 10000 6.62 302 06:21 22.09.2022
1706 Clouds 19 1008 57 10000 1.76 63 02:28 22.09.2022
1707 Rain 17 1007 63 10000 1.18 107 22:29 21.09.2022
1708 Rain 16 1007 60 10000 1.3 158 21:26 21.09.2022
1709 Clouds 17 1008 57 10000 1.92 161 19:30 21.09.2022
1710 Clouds 17 1008 57 10000 1.92 161 19:30 21.09.2022
1711 Clouds 20 1009 54 10000 2.53 178 17:45 21.09.2022
1712 Clouds 20 1009 43 10000 4.29 196 16:22 21.09.2022
1713 Clouds 20 1009 39 10000 4.95 191 13:57 21.09.2022
1714 Clouds 25 1008 29 10000 4.45 189 12:19 21.09.2022
1715 Clouds 26 1008 26 10000 4.91 199 11:28 21.09.2022
1716 Clouds 27 1008 25 10000 5.11 205 09:44 21.09.2022
1717 Clear 27 1009 24 10000 4.73 211 08:53 21.09.2022
1718 Clouds 24 1013 25 10000 2.5 207 06:20 21.09.2022
1719 Clouds 17 1016 25 10000 1.21 41 02:44 21.09.2022
1720 Clear 17 1016 29 10000 1.29 34 02:20 21.09.2022
1721 Clear 9 1016 34 10000 1.41 40 00:26 21.09.2022
1722 Clear 9 1016 33 10000 1.57 35 22:30 20.09.2022
1723 Clear 10 1016 32 10000 1.24 29 20:37 20.09.2022
1724 Clear 12 1016 29 10000 0.77 342 19:30 20.09.2022
1725 Clear 13 1016 24 10000 2.57 209 16:18 20.09.2022
1726 Clear 16 1016 23 10000 3.08 205 14:35 20.09.2022
1727 Clear 21 1015 20 10000 2.65 217 12:45 20.09.2022
1728 Clear 26 1016 13 10000 2.86 314 09:19 20.09.2022
1729 Clear 26 1016 13 10000 2.61 330 08:26 20.09.2022
1730 Clear 23 1020 16 10000 2.51 347 04:46 20.09.2022
1731 Clear 21 1021 19 10000 2.74 356 03:38 20.09.2022
1732 Clear 12 1020 27 10000 2.38 9 22:51 19.09.2022
1733 Clear 13 1020 26 10000 2.22 11 21:40 19.09.2022
1734 Clear 16 1019 26 10000 2.18 19 20:47 19.09.2022
1735 Clouds 15 1019 22 10000 1.61 4 20:24 19.09.2022
1736 Clouds 19 1020 19 10000 2.47 353 17:44 19.09.2022
1737 Clouds 19 1019 16 10000 3.45 13 14:54 19.09.2022
1738 Clouds 19 1018 15 10000 3.51 32 13:18 19.09.2022
1739 Clouds 24 1016 14 10000 2.29 351 10:48 19.09.2022
1740 Clouds 26 1016 14 10000 1.67 100 08:51 19.09.2022
1741 Clouds 26 1018 15 10000 1.97 29 05:53 19.09.2022
1742 Clouds 20 1019 24 10000 2.1 32 01:54 19.09.2022
1743 Clouds 19 1018 38 10000 2.03 29 23:22 18.09.2022
1744 Clouds 13 1017 39 10000 2.13 28 21:43 18.09.2022
1745 Clouds 14 1017 33 10000 2.67 56 20:24 18.09.2022
1746 Clouds 16 1016 22 10000 2.78 28 18:18 18.09.2022
1747 Clouds 15 1016 22 10000 2.78 28 17:37 18.09.2022
1748 Clear 17 1015 22 10000 1.96 44 15:44 18.09.2022
1749 Clear 21 1013 21 10000 1.93 186 13:50 18.09.2022
1750 Clear 28 1012 18 10000 1.87 172 12:35 18.09.2022
1751 Clear 30 1011 14 10000 1.68 119 11:24 18.09.2022
1752 Clear 27 1015 17 10000 4.41 30 04:26 18.09.2022
1753 Clear 23 1013 23 10000 3.63 20 01:25 18.09.2022
1754 Clear 23 1012 24 10000 3.59 17 00:23 18.09.2022
1755 Clear 24 1011 23 10000 3.66 15 21:44 17.09.2022
1756 Clear 21 1010 25 10000 3.91 21 19:44 17.09.2022
1757 Clear 21 1010 35 10000 3.38 16 18:59 17.09.2022
1758 Clear 21 1008 49 10000 0.97 271 16:22 17.09.2022
1759 Clouds 24 1007 42 10000 2.08 216 13:56 17.09.2022
1760 Clouds 30 1006 33 10000 2.56 201 11:31 17.09.2022
1761 Clouds 31 1005 27 10000 2.32 191 09:37 17.09.2022
1762 Clouds 28 1008 33 10000 0.66 176 06:25 17.09.2022
1763 Clouds 21 1008 58 10000 1.3 26 01:51 17.09.2022
1764 Clouds 20 1007 66 10000 0.42 64 22:54 16.09.2022
1765 Clouds 21 1006 62 10000 0.59 115 21:23 16.09.2022
1766 Clouds 21 1005 59 10000 0.99 171 19:51 16.09.2022
1767 Clouds 23 1005 55 10000 2.12 193 17:50 16.09.2022
1768 Clouds 26 1005 47 10000 3.21 199 15:34 16.09.2022
1769 Clouds 25 1004 40 10000 3.44 198 13:57 16.09.2022
1770 Clouds 31 1003 34 10000 2.82 195 11:43 16.09.2022
1771 Clear 31 1003 29 10000 1.94 185 08:53 16.09.2022
1772 Clear 30 1004 27 10000 0.82 236 07:19 16.09.2022
1773 Clear 30 1004 27 10000 0.82 236 06:47 16.09.2022
1774 Clear 25 1006 50 10000 1.32 317 02:52 16.09.2022
1775 Clear 18 1007 83 10000 0.88 30 22:56 15.09.2022
1776 Clear 18 1008 82 10000 0.68 28 21:18 15.09.2022
1777 Clear 19 1008 80 10000 0.77 95 19:49 15.09.2022
1778 Clear 20 1009 79 10000 2.35 124 18:30 15.09.2022
1779 Clear 22 1009 79 10000 2.35 124 17:32 15.09.2022
1780 Clear 23 1009 74 10000 3.04 124 16:43 15.09.2022
1781 Clear 25 1009 63 10000 3.3 132 14:36 15.09.2022
1782 Clear 27 1007 40 10000 2.88 118 12:21 15.09.2022
1783 Clear 31 1007 33 10000 2.38 118 10:21 15.09.2022
1784 Clear 30 1009 35 10000 1.94 128 07:51 15.09.2022
1785 Clear 26 1013 54 10000 1.05 331 03:56 15.09.2022
1786 Clear 20 1014 80 10000 0.89 15 01:20 15.09.2022
1787 Clear 19 1014 83 10000 1.01 56 21:39 14.09.2022
1788 Clear 21 1016 80 10000 1.2 61 19:55 14.09.2022
1789 Clear 21 1016 80 10000 1.24 64 19:20 14.09.2022
1790 Clear 23 1017 77 10000 1.69 105 16:57 14.09.2022
1791 Clear 24 1017 71 10000 2.29 115 15:49 14.09.2022
1792 Clear 25 1017 59 10000 3.06 123 14:33 14.09.2022
1793 Clear 29 1015 41 10000 4.2 126 11:39 14.09.2022
1794 Clear 30 1014 33 10000 4.21 114 09:48 14.09.2022
1795 Clear 30 1016 30 10000 4.1 111 07:38 14.09.2022
1796 Clear 31 1016 31 10000 3.45 105 06:46 14.09.2022
1797 Clear 27 1018 40 10000 2.52 70 04:33 14.09.2022
1798 Clear 23 1019 61 10000 1.95 18 01:47 14.09.2022
1799 Clear 21 1020 70 10000 1.87 12 01:27 14.09.2022
1800 Clear 20 1020 70 10000 1.87 12 00:48 14.09.2022
1801 Clear 19 1020 74 10000 1.69 13 23:54 13.09.2022
1802 Clear 19 1020 74 10000 1.69 13 23:36 13.09.2022
1803 Clear 19 1019 73 10000 1.54 2 23:18 13.09.2022
1804 Clear 20 1019 72 10000 1.07 357 21:50 13.09.2022
1805 Clear 20 1020 70 10000 0.35 225 19:45 13.09.2022
1806 Clear 22 1020 67 10000 1.26 149 17:44 13.09.2022
1807 Clear 25 1020 58 10000 1.5 143 15:55 13.09.2022
1808 Clear 22 1019 58 10000 1.51 161 14:36 13.09.2022
1809 Clear 27 1018 47 10000 1.82 116 12:40 13.09.2022
1810 Clear 30 1017 34 10000 3.81 97 08:50 13.09.2022
1811 Clear 29 1018 41 10000 2.37 89 05:45 13.09.2022
1812 Clear 19 1017 73 10000 1.22 46 00:19 13.09.2022
1813 Clear 20 1017 72 10000 1.45 49 22:50 12.09.2022
1814 Clear 21 1016 70 10000 1.85 46 21:37 12.09.2022
1815 Clear 21 1016 67 10000 1.22 55 20:25 12.09.2022
1816 Clear 21 1016 65 10000 1.14 86 18:44 12.09.2022
1817 Clear 23 1015 60 10000 1.2 107 16:38 12.09.2022
1818 Clear 24 1013 53 10000 1.34 154 14:36 12.09.2022
1819 Clear 29 1011 43 10000 2.07 195 11:30 12.09.2022
1820 Clear 30 1010 34 10000 2.2 186 09:56 12.09.2022
1821 Clear 27 1013 45 10000 0.46 198 04:51 12.09.2022
1822 Clear 26 1013 51 10000 0.52 67 04:24 12.09.2022
1823 Clear 21 1013 75 10000 0.92 71 23:39 11.09.2022
1824 Clear 21 1013 71 10000 0.64 72 22:28 11.09.2022
1825 Clear 21 1013 70 10000 0.66 132 20:50 11.09.2022
1826 Clear 21 1013 69 10000 1.21 121 20:18 11.09.2022
1827 Clear 21 1013 67 10000 1.31 140 19:25 11.09.2022
1828 Clear 22 1013 67 10000 1.31 140 18:36 11.09.2022
1829 Clear 24 1013 61 10000 1.89 154 16:47 11.09.2022
1830 Clear 24 1012 56 10000 1.44 168 14:53 11.09.2022
1831 Clouds 26 1010 48 10000 1.77 177 12:50 11.09.2022
1832 Clouds 29 1011 36 10000 2.58 179 09:28 11.09.2022
1833 Clouds 28 1013 38 10000 2.18 166 07:21 11.09.2022
1834 Clear 20 1016 75 10000 1.26 78 01:18 11.09.2022
1835 Clear 17 1015 80 10000 1.06 77 23:20 10.09.2022
1836 Clear 20 1015 80 10000 1.38 69 21:33 10.09.2022
1837 Clouds 20 1016 83 10000 1.25 103 19:49 10.09.2022
1838 Clouds 20 1016 82 10000 1.23 97 19:29 10.09.2022
1839 Clouds 20 1016 82 10000 1.23 97 18:55 10.09.2022
1840 Clouds 21 1017 81 10000 1.25 57 16:57 10.09.2022
1841 Clear 26 1016 75 10000 2.04 101 14:45 10.09.2022
1842 Clear 27 1014 53 10000 4.32 139 12:53 10.09.2022
1843 Clear 30 1013 42 10000 3.83 136 11:35 10.09.2022
1844 Clear 31 1013 32 10000 3.36 134 10:24 10.09.2022
1845 Clear 31 1014 31 10000 2.97 138 08:37 10.09.2022
1846 Clouds 31 1014 31 10000 2.87 138 07:49 10.09.2022
1847 Clouds 25 1017 44 10000 1.13 66 02:47 10.09.2022
1848 Clouds 19 1017 61 10000 1.56 27 23:34 09.09.2022
1849 Clouds 19 1017 60 10000 1.19 40 22:20 09.09.2022
1850 Clouds 19 1017 59 10000 1.05 44 20:48 09.09.2022
1851 Clouds 19 1017 54 10000 0.63 48 19:25 09.09.2022
1852 Clouds 19 1017 54 10000 0.63 48 18:53 09.09.2022
1853 Clouds 20 1017 49 10000 0.66 123 16:33 09.09.2022
1854 Clouds 25 1016 43 10000 2.31 209 13:51 09.09.2022
1855 Clouds 28 1015 38 10000 2.31 199 12:56 09.09.2022
1856 Clouds 31 1014 24 10000 2.69 158 10:22 09.09.2022
1857 Clouds 31 1016 26 10000 1.48 145 06:46 09.09.2022
1858 Clouds 26 1018 40 10000 1.45 43 03:24 09.09.2022
1859 Clouds 17 1017 57 10000 0.6 61 22:19 08.09.2022
1860 Clouds 17 1017 57 10000 0.6 61 21:43 08.09.2022
1861 Clouds 18 1016 56 10000 1.06 21 20:38 08.09.2022
1862 Clouds 18 1017 58 10000 0.43 357 20:19 08.09.2022
1863 Clouds 19 1017 57 10000 0.44 248 18:34 08.09.2022
1864 Clouds 20 1017 53 10000 0.92 164 16:38 08.09.2022
1865 Clouds 23 1016 47 10000 2.33 195 14:41 08.09.2022
1866 Clouds 26 1014 38 10000 3.29 200 13:27 08.09.2022
1867 Clouds 28 1014 38 10000 3.29 200 12:33 08.09.2022
1868 Clouds 32 1014 29 10000 3.73 208 10:58 08.09.2022
1869 Clouds 32 1014 22 10000 3.14 205 08:59 08.09.2022
1870 Clear 30 1016 22 10000 1.73 199 06:43 08.09.2022
1871 Clear 22 1018 31 10000 1.4 6 02:37 08.09.2022
1872 Clear 22 1018 37 10000 1.72 7 02:19 08.09.2022
1873 Clear 18 1018 37 10000 1.72 7 01:38 08.09.2022
1874 Clear 15 1018 46 10000 1.62 6 22:55 07.09.2022
1875 Clear 15 1018 46 10000 1.13 5 21:43 07.09.2022
1876 Clear 15 1017 46 10000 0.95 2 20:56 07.09.2022
1877 Clear 16 1018 46 10000 0.62 355 19:53 07.09.2022
1878 Clear 17 1018 44 10000 0.4 314 18:37 07.09.2022
1879 Clear 20 1017 37 10000 2.63 221 14:56 07.09.2022
1880 Clear 31 1015 21 10000 2.7 197 10:50 07.09.2022
1881 Clear 33 1015 17 10000 2.36 201 09:52 07.09.2022
1882 Clear 32 1016 15 10000 1.25 222 07:35 07.09.2022
1883 Clear 25 1018 21 10000 2.45 347 03:34 07.09.2022
1884 Clear 13 1016 40 10000 2.15 351 00:25 07.09.2022
1885 Clear 13 1015 41 10000 1.87 337 21:45 06.09.2022
1886 Clear 14 1014 41 10000 1.85 331 21:24 06.09.2022
1887 Clear 15 1014 40 10000 1.69 319 18:53 06.09.2022
1888 Clear 15 1014 40 10000 1.68 306 18:23 06.09.2022
1889 Clear 17 1013 39 10000 1.73 293 17:23 06.09.2022
1890 Clear 17 1013 39 10000 1.73 293 16:38 06.09.2022
1891 Clear 18 1012 35 10000 1.82 278 15:23 06.09.2022
1892 Clear 26 1011 31 10000 2.17 261 13:45 06.09.2022
1893 Clear 27 1009 30 10000 2.18 264 13:25 06.09.2022
1894 Clear 29 1009 30 10000 2.18 264 12:31 06.09.2022
1895 Clear 30 1008 22 10000 4.54 289 10:46 06.09.2022
1896 Clear 29 1008 21 10000 6.41 302 08:53 06.09.2022
1897 Clear 29 1008 21 10000 6.49 300 07:49 06.09.2022
1898 Clear 25 1010 20 10000 6.02 322 03:41 06.09.2022
1899 Clear 11 1007 26 10000 1.97 312 23:28 05.09.2022
1900 Clear 12 1007 30 10000 2.14 311 22:29 05.09.2022
1901 Clear 13 1007 30 10000 2.07 312 20:52 05.09.2022
1902 Clear 13 1007 33 10000 2.3 312 19:50 05.09.2022
1903 Clear 14 1007 41 10000 2.41 304 18:49 05.09.2022
1904 Clear 15 1007 52 10000 1.94 258 18:22 05.09.2022
1905 Clear 16 1007 53 10000 2.79 230 16:53 05.09.2022
1906 Clear 18 1007 50 10000 3.39 229 15:50 05.09.2022
1907 Clear 22 1006 37 10000 3.68 186 13:27 05.09.2022
1908 Clear 28 1006 31 10000 3.3 169 12:28 05.09.2022
1909 Clear 30 1006 18 10000 0.64 249 10:24 05.09.2022
1910 Clear 27 1008 18 10000 4.93 336 07:36 05.09.2022
1911 Clear 23 1010 27 10000 5.94 348 02:49 05.09.2022
1912 Clear 16 1009 38 10000 4.62 5 23:28 04.09.2022
1913 Clear 17 1009 36 10000 5.32 354 22:28 04.09.2022
1914 Clear 17 1009 36 10000 5.32 354 21:34 04.09.2022
1915 Clouds 17 1007 40 10000 5.74 352 19:38 04.09.2022
1916 Clouds 18 1006 77 10000 1.69 339 18:20 04.09.2022
1917 Clouds 18 1005 76 10000 1.09 218 17:19 04.09.2022
1918 Clear 20 1005 70 10000 3.56 210 14:36 04.09.2022
1919 Clear 18 1004 63 10000 4.53 202 13:52 04.09.2022
1920 Clear 27 1003 53 10000 4.33 191 12:18 04.09.2022
1921 Clear 28 1004 46 10000 4.65 197 10:47 04.09.2022
1922 Clear 27 1005 41 10000 3.13 193 08:21 04.09.2022
1923 Clouds 25 1006 48 10000 2.05 193 05:36 04.09.2022
1924 Clouds 20 1010 83 10000 0.6 357 00:53 04.09.2022
1925 Clouds 20 1010 86 10000 0.76 213 22:26 03.09.2022
1926 Clouds 21 1010 85 10000 1.2 193 21:23 03.09.2022
1927 Clouds 21 1011 91 10000 0.66 166 19:56 03.09.2022
1928 Clouds 21 1011 83 10000 1.81 176 17:29 03.09.2022
1929 Clouds 21 1011 83 10000 1.81 176 16:33 03.09.2022
1930 Clouds 21 1012 74 10000 2.78 218 14:47 03.09.2022
1931 Rain 21 1011 62 10000 3.25 198 14:26 03.09.2022
1932 Clouds 22 1010 59 10000 3.08 195 13:21 03.09.2022
1933 Clouds 26 1010 49 10000 3.33 202 10:55 03.09.2022
1934 Rain 27 1011 42 10000 4.07 192 08:41 03.09.2022
1935 Clouds 27 1012 41 10000 3.32 175 06:59 03.09.2022
1936 Clouds 25 1014 47 10000 1.94 152 04:40 03.09.2022
1937 Rain 16 1015 63 10000 1.29 34 00:41 03.09.2022
1938 Clouds 17 1015 67 10000 1.13 72 23:28 02.09.2022
1939 Clouds 17 1015 66 10000 1.1 66 21:33 02.09.2022
1940 Clouds 17 1015 65 10000 1.12 74 20:39 02.09.2022
1941 Clouds 18 1015 63 10000 1.01 134 19:35 02.09.2022
1942 Clouds 19 1016 60 10000 1.15 151 18:43 02.09.2022
1943 Clouds 19 1015 58 10000 1.58 136 18:24 02.09.2022
1944 Clouds 18 1015 56 10000 1.04 122 16:50 02.09.2022
1945 Clouds 20 1015 56 10000 1.33 165 15:40 02.09.2022
1946 Clouds 24 1014 51 10000 2.47 178 12:49 02.09.2022
1947 Clouds 29 1014 32 10000 3.41 183 10:25 02.09.2022
1948 Clouds 29 1014 32 10000 3.41 183 10:25 02.09.2022
1949 Clouds 29 1014 32 10000 3.41 183 09:41 02.09.2022
1950 Clear 29 1015 32 10000 3.7 192 08:35 02.09.2022
1951 Clear 27 1016 30 10000 2.88 187 06:42 02.09.2022
1952 Clear 24 1019 43 10000 1.02 210 03:53 02.09.2022
1953 Clear 15 1019 67 10000 0.71 32 22:54 01.09.2022
1954 Clear 15 1019 66 10000 0.32 60 21:45 01.09.2022
1955 Clear 16 1019 65 10000 0.4 120 21:25 01.09.2022
1956 Clear 16 1020 65 10000 0.46 160 20:48 01.09.2022
1957 Clear 16 1019 63 10000 1.14 181 19:23 01.09.2022
1958 Clear 20 1020 62 10000 1.6 183 17:48 01.09.2022
1959 Clear 21 1020 59 10000 2.47 194 16:29 01.09.2022
1960 Clear 23 1018 48 10000 2.52 166 14:34 01.09.2022
1961 Clear 25 1017 43 10000 2.07 160 12:59 01.09.2022
1962 Clear 27 1017 39 10000 2.75 164 11:55 01.09.2022
1963 Clear 28 1017 39 10000 2.75 164 11:36 01.09.2022
1964 Clear 28 1017 33 10000 3.32 167 10:45 01.09.2022
1965 Clear 29 1018 29 10000 3.35 155 08:31 01.09.2022
1966 Clear 28 1019 31 10000 3.27 140 06:23 01.09.2022
1967 Clear 23 1019 39 10000 2.04 80 01:45 01.09.2022
1968 Clear 15 1017 44 10000 2.07 45 00:19 01.09.2022
1969 Clear 18 1015 42 10000 2.79 1 21:45 31.08.2022
1970 Clear 18 1014 38 10000 2.39 346 19:59 31.08.2022
1971 Clear 17 1013 37 10000 1.72 330 18:19 31.08.2022
1972 Clear 19 1013 39 10000 1.45 304 16:31 31.08.2022
1973 Clear 28 1012 38 10000 1.38 264 14:36 31.08.2022
1974 Clear 31 1010 26 10000 3.55 276 12:24 31.08.2022
1975 Clear 32 1010 26 10000 3.55 276 11:30 31.08.2022
1976 Clear 31 1010 23 10000 4.9 310 09:20 31.08.2022
1977 Clear 31 1011 30 10000 2.94 343 06:18 31.08.2022
1978 Clear 16 1012 64 10000 1.82 336 23:21 30.08.2022
1979 Clear 16 1011 65 10000 2.06 342 21:49 30.08.2022
1980 Clear 17 1011 66 10000 2 345 20:58 30.08.2022
1981 Clouds 17 1011 73 10000 1.29 11 18:49 30.08.2022
1982 Clouds 21 1012 67 10000 1.56 348 15:29 30.08.2022
1983 Clear 26 1010 58 10000 2.65 217 13:25 30.08.2022
1984 Clear 28 1009 46 10000 3.87 187 11:22 30.08.2022
1985 Clear 29 1009 46 10000 3.87 187 10:57 30.08.2022
1986 Clouds 29 1010 37 10000 1.49 166 07:50 30.08.2022
1987 Clouds 22 1014 65 10000 1.02 21 02:55 30.08.2022
1988 Clouds 16 1013 83 10000 0.83 24 23:28 29.08.2022
1989 Clouds 16 1013 83 10000 0.83 24 22:32 29.08.2022
1990 Clouds 16 1013 79 10000 0.35 49 21:27 29.08.2022
1991 Clouds 17 1014 80 10000 0.77 116 20:19 29.08.2022
1992 Clouds 17 1014 77 10000 1.04 152 17:58 29.08.2022
1993 Clouds 17 1014 78 10000 1.65 170 17:25 29.08.2022
1994 Clouds 18 1013 78 10000 1.78 164 16:40 29.08.2022
1995 Clouds 19 1013 74 10000 2.25 175 15:18 29.08.2022
1996 Clouds 20 1012 68 10000 2.92 186 13:23 29.08.2022
1997 Clouds 23 1012 64 10000 3.55 193 11:30 29.08.2022
1998 Clouds 24 1012 50 10000 3.58 190 10:21 29.08.2022
1999 Clouds 25 1012 48 10000 2.6 185 08:38 29.08.2022
2000 Clouds 22 1013 53 10000 0.61 186 05:52 29.08.2022
2001 Clouds 18 1014 86 10000 0.97 223 01:24 29.08.2022
2002 Clouds 16 1013 91 10000 1.16 190 22:47 28.08.2022
2003 Clouds 16 1013 90 10000 1.41 186 21:44 28.08.2022
2004 Clouds 16 1013 88 10000 1.72 197 20:55 28.08.2022
2005 Clouds 16 1013 84 10000 2.66 202 19:29 28.08.2022
2006 Clouds 16 1013 83 10000 2.87 203 18:21 28.08.2022
2007 Clouds 16 1014 85 10000 3.11 211 17:25 28.08.2022
2008 Clouds 16 1014 87 10000 3.39 210 16:28 28.08.2022
2009 Clouds 17 1014 95 10000 2.86 191 14:42 28.08.2022
2010 Clouds 17 1014 95 10000 1.89 156 12:48 28.08.2022
2011 Clouds 18 1013 92 10000 1.76 125 10:51 28.08.2022
2012 Clouds 21 1014 90 10000 1.56 68 09:54 28.08.2022
2013 Clouds 21 1014 85 9973 0.65 211 08:37 28.08.2022
2014 Clouds 21 1014 71 10000 1.09 239 07:43 28.08.2022
2015 Clouds 19 1015 50 10000 1.19 143 02:59 28.08.2022
2016 Clouds 14 1015 55 10000 0.64 149 00:29 28.08.2022
2017 Clouds 13 1014 54 10000 1.12 157 22:37 27.08.2022
2018 Clouds 14 1015 53 10000 0.74 132 21:36 27.08.2022
2019 Clouds 15 1014 51 10000 0.7 130 19:57 27.08.2022
2020 Clouds 16 1015 49 10000 1.37 196 18:27 27.08.2022
2021 Clouds 17 1015 44 10000 1.9 209 15:53 27.08.2022
2022 Clouds 18 1014 43 10000 2.56 212 15:25 27.08.2022
2023 Clouds 22 1013 36 10000 3.05 204 12:30 27.08.2022
2024 Clouds 24 1013 35 10000 3.07 194 11:32 27.08.2022
2025 Clouds 26 1013 26 10000 3.33 178 09:50 27.08.2022
2026 Clouds 27 1014 19 10000 1.13 154 08:22 27.08.2022
2027 Clear 22 1017 26 10000 2.84 3 03:40 27.08.2022
2028 Clear 12 1016 38 10000 2.54 357 23:58 26.08.2022
2029 Clear 11 1015 36 10000 2.72 353 22:50 26.08.2022
2030 Clear 12 1015 35 10000 2.81 344 21:39 26.08.2022
2031 Clouds 12 1015 32 10000 2.66 322 19:24 26.08.2022
2032 Clouds 15 1015 31 10000 2.71 333 17:25 26.08.2022
2033 Clouds 18 1014 31 10000 2.52 337 15:35 26.08.2022
2034 Clouds 23 1013 28 10000 2.83 343 14:42 26.08.2022
2035 Clouds 26 1011 22 10000 3.75 327 12:53 26.08.2022
2036 Clouds 28 1010 21 10000 4.32 320 11:35 26.08.2022
2037 Clouds 28 1010 20 10000 4.57 329 10:46 26.08.2022
2038 Clouds 26 1009 22 10000 5.53 336 07:31 26.08.2022
2039 Clouds 19 1007 40 10000 3.34 328 02:31 26.08.2022
2040 Clouds 16 1005 54 10000 0.53 277 23:44 25.08.2022
2041 Clouds 16 1006 54 10000 1.54 310 21:37 25.08.2022
2042 Clouds 16 1005 54 10000 0.89 254 20:50 25.08.2022
2043 Clouds 18 1006 57 10000 1.5 256 19:20 25.08.2022
2044 Clouds 17 1007 55 10000 1.86 246 17:59 25.08.2022
2045 Clouds 18 1007 55 10000 1.86 246 17:31 25.08.2022
2046 Clouds 21 1007 55 10000 3.11 239 15:54 25.08.2022
2047 Clouds 20 1007 53 10000 3.58 226 15:27 25.08.2022
2048 Clear 31 1007 43 10000 3.25 229 12:40 25.08.2022
2049 Clear 32 1007 28 10000 3.73 271 10:48 25.08.2022
2050 Clear 32 1007 23 10000 5.17 297 09:20 25.08.2022
2051 Clouds 29 1009 26 10000 4.57 331 05:39 25.08.2022
2052 Clouds 22 1009 51 10000 3.79 347 01:42 25.08.2022
2053 Clouds 18 1008 78 10000 1.94 5 23:26 24.08.2022
2054 Clouds 18 1008 78 10000 1.54 2 22:23 24.08.2022
2055 Clouds 18 1008 78 10000 1.54 2 21:36 24.08.2022
2056 Clouds 19 1008 79 10000 1.22 336 20:55 24.08.2022
2057 Clouds 20 1008 81 10000 0.86 250 19:19 24.08.2022
2058 Clouds 20 1008 79 10000 1.65 215 16:47 24.08.2022
2059 Clouds 21 1009 77 10000 2.38 211 15:52 24.08.2022
2060 Clouds 25 1008 74 10000 3 204 13:40 24.08.2022
2061 Clouds 27 1008 63 10000 3.63 191 11:50 24.08.2022
2062 Clouds 28 1008 50 10000 3.54 182 10:34 24.08.2022
2063 Clouds 28 1009 46 10000 2.62 197 08:25 24.08.2022
2064 Clouds 23 1013 51 10000 1.22 242 02:57 24.08.2022
2065 Clouds 21 1012 52 10000 0.47 71 23:34 23.08.2022
2066 Clouds 18 1012 51 10000 0.65 42 22:33 23.08.2022
2067 Clouds 19 1012 50 10000 1.09 23 21:35 23.08.2022
2068 Clouds 19 1012 52 10000 0.52 314 20:30 23.08.2022
2069 Clouds 22 1013 51 10000 0.97 274 18:50 23.08.2022
2070 Clouds 22 1013 49 10000 1.23 227 17:50 23.08.2022
2071 Clouds 22 1014 48 10000 1.05 220 17:18 23.08.2022
2072 Clouds 23 1014 47 10000 1.21 225 15:39 23.08.2022
2073 Clouds 23 1014 45 10000 2.17 209 13:36 23.08.2022
2074 Clouds 27 1014 46 10000 2.58 196 11:33 23.08.2022
2075 Clouds 27 1014 39 10000 2.11 162 10:51 23.08.2022
2076 Rain 27 1013 36 10000 2.33 129 10:26 23.08.2022
2077 Clouds 27 1014 29 10000 2.15 94 08:53 23.08.2022
2078 Clouds 27 1014 27 10000 2.32 61 08:21 23.08.2022
2079 Clouds 26 1014 27 10000 2.32 61 07:43 23.08.2022
2080 Clouds 26 1014 28 10000 2.91 44 06:34 23.08.2022
2081 Clouds 25 1015 28 10000 3.22 33 05:38 23.08.2022
2082 Clouds 19 1015 56 10000 2.38 359 00:52 23.08.2022
2083 Clouds 16 1014 51 10000 2.4 1 00:24 23.08.2022
2084 Clouds 16 1014 49 10000 2.46 358 22:52 22.08.2022
2085 Clear 16 1013 50 10000 2.44 350 21:51 22.08.2022
2086 Clear 17 1012 46 10000 2.96 345 19:49 22.08.2022
2087 Clear 18 1012 44 10000 3.15 338 19:21 22.08.2022
2088 Clear 22 1012 44 10000 3.19 336 17:55 22.08.2022
2089 Clear 22 1011 47 10000 2.69 345 15:40 22.08.2022
2090 Clear 22 1010 45 10000 2.18 1 14:32 22.08.2022
2091 Clouds 33 1005 41 10000 2.92 6 11:19 22.08.2022
2092 Clouds 33 1003 36 10000 4.81 330 08:22 22.08.2022
2093 Clouds 29 1003 44 10000 5.55 343 04:42 22.08.2022
2094 Clouds 23 1000 94 10000 2.08 3 00:53 22.08.2022
2095 Clouds 23 1000 94 10000 2.08 3 00:34 22.08.2022
2096 Clouds 23 999 95 10000 2.41 3 22:54 21.08.2022
2097 Clouds 23 999 97 10000 2.68 0 21:36 21.08.2022
2098 Clouds 23 998 95 10000 2.74 348 20:58 21.08.2022
2099 Rain 23 999 96 10000 2.69 357 19:28 21.08.2022
2100 Rain 23 999 99 2148 4.2 14 18:22 21.08.2022
2101 Rain 24 999 98 3885 4.13 71 16:29 21.08.2022
2102 Rain 25 999 98 3885 4.13 71 15:46 21.08.2022
2103 Rain 26 999 95 2991 3.12 72 14:35 21.08.2022
2104 Clouds 27 1000 91 10000 2.03 48 13:43 21.08.2022
2105 Rain 28 1000 86 10000 1.02 57 12:47 21.08.2022
2106 Clouds 30 1000 59 10000 2.66 179 09:56 21.08.2022
2107 Clouds 30 1000 57 10000 2.96 183 08:56 21.08.2022
2108 Clouds 30 1001 73 10000 2.15 180 08:38 21.08.2022
2109 Clouds 29 1002 59 10000 2.17 199 07:28 21.08.2022
2110 Clouds 25 1004 83 10000 1.17 184 04:28 21.08.2022
2111 Clouds 24 1004 81 10000 0.57 294 00:53 21.08.2022
2112 Clouds 24 1004 80 10000 0.84 228 22:59 20.08.2022
2113 Clouds 24 1004 80 10000 1.45 215 21:45 20.08.2022
2114 Clouds 24 1004 79 10000 1.72 200 20:48 20.08.2022
2115 Clouds 24 1004 78 10000 2.74 193 19:42 20.08.2022
2116 Clouds 25 1005 77 10000 2.64 204 18:44 20.08.2022
2117 Clouds 25 1005 75 10000 3.41 197 18:25 20.08.2022
2118 Clouds 25 1006 74 10000 3.46 200 17:19 20.08.2022
2119 Clouds 25 1006 73 10000 3.47 202 15:52 20.08.2022
2120 Clouds 27 1006 68 10000 3.96 198 13:39 20.08.2022
2121 Clouds 30 1005 59 10000 3.98 200 11:53 20.08.2022
2122 Clouds 30 1005 55 10000 4.63 204 10:39 20.08.2022
2123 Clouds 30 1006 51 10000 5.24 205 09:20 20.08.2022
2124 Clouds 29 1008 57 10000 3.65 197 06:40 20.08.2022
2125 Clouds 27 1010 67 10000 2.06 181 04:40 20.08.2022
2126 Clouds 20 1010 67 10000 1.02 72 00:53 20.08.2022
2127 Clouds 20 1009 64 10000 1.17 69 23:25 19.08.2022
2128 Clouds 20 1009 64 10000 1.17 69 22:36 19.08.2022
2129 Clear 19 1008 66 10000 1.48 32 20:41 19.08.2022
2130 Clear 20 1008 68 10000 1.09 44 18:53 19.08.2022
2131 Clear 24 1007 59 10000 1.49 76 15:55 19.08.2022
2132 Clear 24 1007 59 10000 1.49 76 15:55 19.08.2022
2133 Clear 24 1007 59 10000 1.49 76 15:55 19.08.2022
2134 Clouds 25 1005 49 10000 0.7 137 13:41 19.08.2022
2135 Clouds 30 1003 51 10000 1.59 95 11:40 19.08.2022
2136 Clouds 32 1003 43 10000 2.28 63 10:31 19.08.2022
2137 Clouds 30 1003 35 10000 4.49 336 07:39 19.08.2022
2138 Clear 28 1001 55 10000 4.62 340 03:19 19.08.2022
2139 Clear 23 1000 89 10000 2.62 334 00:38 19.08.2022
2140 Clouds 23 999 94 10000 1.92 330 23:56 18.08.2022
2141 Clouds 23 998 95 10000 1.73 332 22:54 18.08.2022
2142 Clouds 23 998 96 10000 1.8 334 22:22 18.08.2022
2143 Clouds 23 998 96 10000 1.8 334 21:45 18.08.2022
2144 Clouds 24 997 97 10000 1.88 337 20:42 18.08.2022
2145 Clouds 24 997 97 10000 1.66 330 19:32 18.08.2022
2146 Clouds 24 998 97 10000 0.99 287 18:34 18.08.2022
2147 Clouds 24 998 98 10000 0.83 309 17:32 18.08.2022
2148 Clouds 24 998 98 10000 1.56 293 15:50 18.08.2022
2149 Clouds 24 998 98 10000 1.08 230 14:21 18.08.2022
2150 Clouds 24 998 98 10000 1.08 230 13:42 18.08.2022
2151 Clouds 24 998 98 10000 2.81 203 12:27 18.08.2022
2152 Rain 24 998 98 6398 4.09 187 10:52 18.08.2022
2153 Rain 23 999 98 5712 3.67 176 09:42 18.08.2022
2154 Rain 23 1002 96 10000 2.87 156 07:27 18.08.2022
2155 Rain 23 1002 97 10000 3.1 140 05:33 18.08.2022
2156 Rain 24 1004 97 9568 1.95 164 00:45 18.08.2022
2157 Clouds 25 1004 93 10000 2.36 182 22:28 17.08.2022
2158 Clouds 25 1004 79 10000 1.77 176 20:21 17.08.2022
2159 Clouds 25 1004 79 10000 1.77 176 19:34 17.08.2022
2160 Clouds 25 1004 78 10000 2.13 182 18:32 17.08.2022
2161 Clouds 26 1004 76 10000 2.48 174 16:50 17.08.2022
2162 Clouds 27 1005 73 10000 2.34 182 15:41 17.08.2022
2163 Clouds 27 1004 74 10000 1.96 177 14:29 17.08.2022
2164 Clouds 30 1004 65 10000 2.98 176 12:21 17.08.2022
2165 Clouds 30 1004 62 10000 3.46 184 10:25 17.08.2022
2166 Clouds 30 1004 62 10000 3.46 184 10:25 17.08.2022
2167 Clouds 29 1005 59 10000 3.65 193 08:25 17.08.2022
2168 Clouds 28 1007 61 10000 2.56 186 05:22 17.08.2022
2169 Clouds 23 1008 73 10000 0.41 78 00:49 17.08.2022
2170 Clear 22 1007 76 10000 0.48 110 22:59 16.08.2022
2171 Clear 24 1007 72 10000 0.87 163 20:59 16.08.2022
2172 Clear 23 1007 70 10000 1.13 156 19:55 16.08.2022
2173 Clear 24 1007 69 10000 1.13 159 19:22 16.08.2022
2174 Clear 24 1007 68 10000 1.45 161 17:55 16.08.2022
2175 Clear 25 1007 66 10000 1.46 163 16:46 16.08.2022
2176 Clear 25 1007 64 10000 1.91 167 15:45 16.08.2022
2177 Clear 26 1007 63 10000 1.85 164 14:54 16.08.2022
2178 Clear 27 1006 53 10000 1.99 166 14:36 16.08.2022
2179 Clear 30 1005 41 10000 2.52 179 11:40 16.08.2022
2180 Clear 31 1005 32 10000 2.28 158 10:20 16.08.2022
2181 Clear 31 1005 32 10000 1.9 146 08:49 16.08.2022
2182 Clouds 30 1006 32 10000 1.96 168 08:20 16.08.2022
2183 Clouds 29 1007 35 10000 0.85 89 05:55 16.08.2022
2184 Clear 19 1008 59 10000 1.23 36 23:37 15.08.2022
2185 Clear 19 1007 53 10000 1.8 29 22:21 15.08.2022
2186 Clear 20 1007 53 10000 1.8 29 21:48 15.08.2022
2187 Clear 20 1006 50 10000 2.26 32 20:32 15.08.2022
2188 Clear 21 1006 49 10000 2.51 37 19:19 15.08.2022
2189 Clear 24 1006 48 10000 2.18 19 17:59 15.08.2022
2190 Clear 28 1004 42 10000 3.07 10 16:25 15.08.2022
2191 Clear 28 1003 44 10000 3.77 14 15:27 15.08.2022
2192 Clear 30 1002 45 10000 3.05 357 13:45 15.08.2022
2193 Clear 35 999 33 10000 3.97 307 10:38 15.08.2022
2194 Clear 36 999 30 10000 4.68 314 09:40 15.08.2022
2195 Clouds 32 1000 33 10000 5.51 309 06:51 15.08.2022
2196 Clouds 31 1001 42 10000 4.87 319 04:34 15.08.2022
2197 Clouds 24 998 94 10000 1.56 333 00:22 15.08.2022
2198 Clouds 24 997 96 10000 1.59 346 22:29 14.08.2022
2199 Clouds 24 997 96 10000 1.59 346 21:35 14.08.2022
2200 Clouds 24 998 98 10000 1.5 355 19:46 14.08.2022
2201 Clouds 23 998 98 10000 1.32 356 18:42 14.08.2022
2202 Clouds 23 998 98 10000 1.12 350 17:48 14.08.2022
2203 Clouds 24 998 98 10000 1.16 347 16:32 14.08.2022
2204 Clouds 24 998 98 10000 1.3 355 15:48 14.08.2022
2205 Clouds 24 998 98 10000 1.09 329 14:19 14.08.2022
2206 Clouds 24 998 98 10000 1.09 329 13:49 14.08.2022
2207 Clouds 24 998 98 10000 0.55 296 12:55 14.08.2022
2208 Clouds 24 998 98 10000 0.49 265 11:31 14.08.2022
2209 Clouds 24 999 98 10000 0.57 210 10:27 14.08.2022
2210 Clouds 24 999 99 10000 1.26 133 08:45 14.08.2022
2211 Clouds 23 1002 96 10000 0.65 138 06:21 14.08.2022
2212 Rain 23 1003 95 10000 1.47 107 02:46 14.08.2022
2213 Clouds 25 1004 92 10000 1.47 98 23:36 13.08.2022
2214 Clouds 26 1004 90 10000 1.23 82 22:28 13.08.2022
2215 Clouds 26 1004 88 10000 1.16 87 20:58 13.08.2022
2216 Rain 26 1004 85 10000 1.23 116 20:19 13.08.2022
2217 Clouds 27 1005 81 10000 2.15 114 19:20 13.08.2022
2218 Rain 28 1005 80 10000 2.14 145 17:36 13.08.2022
2219 Clouds 28 1005 76 10000 3.04 155 15:23 13.08.2022
2220 Clouds 29 1004 71 10000 1.85 152 14:24 13.08.2022
2221 Clouds 30 1004 71 10000 2.29 153 13:38 13.08.2022
2222 Clouds 31 1003 60 10000 2.63 159 11:51 13.08.2022
2223 Clouds 31 1003 54 10000 3.05 144 09:50 13.08.2022
2224 Clouds 32 1003 53 10000 2.93 149 07:51 13.08.2022
2225 Clouds 27 1004 73 10000 0.92 93 02:56 13.08.2022
2226 Clouds 25 1004 90 10000 1.6 81 23:46 12.08.2022
2227 Clouds 24 1003 94 10000 1.87 84 21:41 12.08.2022
2228 Clouds 26 1003 95 10000 2.02 97 20:40 12.08.2022
2229 Clouds 25 1004 90 10000 2.05 94 19:36 12.08.2022
2230 Rain 25 1004 89 10000 2.02 85 18:38 12.08.2022
2231 Clouds 28 1004 81 10000 1.91 150 16:28 12.08.2022
2232 Clouds 27 1004 81 10000 1.91 150 15:31 12.08.2022
2233 Clouds 27 1003 75 10000 1.28 156 14:27 12.08.2022
2234 Clouds 30 1001 67 10000 1.19 165 12:51 12.08.2022
2235 Clouds 31 1001 53 10000 2.29 152 09:51 12.08.2022
2236 Clouds 31 1003 58 10000 0.69 171 07:47 12.08.2022
2237 Clouds 30 1003 61 10000 0.28 176 06:31 12.08.2022
2238 Clouds 26 1005 87 10000 1.29 122 02:22 12.08.2022
2239 Clouds 25 1004 91 10000 1.29 131 00:23 12.08.2022
2240 Clouds 24 1004 91 10000 1.29 131 23:34 11.08.2022
2241 Clouds 24 1004 92 10000 1.44 139 22:24 11.08.2022
2242 Clouds 25 1004 92 10000 1.44 139 21:39 11.08.2022
2243 Clouds 25 1004 90 10000 1.49 150 20:32 11.08.2022
2244 Clouds 26 1004 87 10000 1.07 129 19:57 11.08.2022
2245 Clouds 26 1004 87 10000 1.07 129 19:32 11.08.2022
2246 Clouds 26 1003 82 10000 1.53 160 17:47 11.08.2022
2247 Clouds 26 1002 78 10000 1.93 156 16:32 11.08.2022
2248 Clear 27 1002 71 10000 1.6 164 15:21 11.08.2022
2249 Clear 31 1001 70 10000 2.66 188 12:41 11.08.2022
2250 Clear 32 1001 51 10000 3.7 193 09:54 11.08.2022
2251 Clouds 30 1003 50 10000 1.85 189 06:59 11.08.2022
2252 Clouds 27 1004 67 10000 0.44 197 03:45 11.08.2022
2253 Clear 21 1004 88 10000 0.62 191 00:35 11.08.2022
2254 Clear 21 1003 92 10000 0.97 181 22:22 10.08.2022
2255 Clear 21 1004 91 10000 0.71 212 21:24 10.08.2022
2256 Clear 21 1004 91 10000 0.71 212 20:47 10.08.2022
2257 Clear 23 1004 89 10000 1.35 208 19:24 10.08.2022
2258 Clear 23 1004 87 10000 1.39 209 17:55 10.08.2022
2259 Clear 25 1004 86 10000 1.81 208 16:35 10.08.2022
2260 Clear 28 1004 78 10000 2.51 192 13:35 10.08.2022
2261 Clear 29 1004 70 10000 2.55 185 12:35 10.08.2022
2262 Clear 31 1004 46 10000 3.35 191 09:24 10.08.2022
2263 Clear 31 1004 46 10000 3.35 191 08:32 10.08.2022
2264 Clear 28 1006 54 10000 2.37 188 06:23 10.08.2022
2265 Clear 25 1008 74 10000 1.51 202 03:24 10.08.2022
2266 Clear 18 1008 92 10000 0.29 299 23:34 09.08.2022
2267 Clear 18 1007 93 10000 0.38 282 22:56 09.08.2022
2268 Clear 18 1008 93 10000 0.23 238 21:35 09.08.2022
2269 Clear 19 1009 92 10000 0.58 238 19:35 09.08.2022
2270 Clear 19 1009 91 10000 1.21 205 18:29 09.08.2022
2271 Clear 19 1009 91 10000 1.76 196 17:27 09.08.2022
2272 Clear 20 1009 91 10000 1.76 196 16:40 09.08.2022
2273 Clear 20 1009 91 10000 1.76 196 16:40 09.08.2022
2274 Clear 21 1009 90 10000 2.01 199 15:46 09.08.2022
2275 Clouds 25 1009 85 10000 2.86 199 12:48 09.08.2022
2276 Clouds 26 1010 85 10000 2.51 199 09:30 09.08.2022
2277 Clouds 26 1010 85 10000 2.51 199 08:33 09.08.2022
2278 Clouds 24 1011 92 10000 2.24 194 07:20 09.08.2022
2279 Clouds 22 1012 96 10000 1.53 104 03:34 09.08.2022
2280 Rain 21 1010 94 5625 1.36 307 23:27 08.08.2022
2281 Clouds 22 1010 94 5625 1.36 307 22:54 08.08.2022
2282 Clouds 21 1010 91 10000 1.42 307 21:49 08.08.2022
2283 Clouds 22 1010 86 10000 0.93 233 20:55 08.08.2022
2284 Rain 23 1010 70 10000 2.9 230 19:50 08.08.2022
2285 Clouds 23 1009 62 10000 3.02 210 18:38 08.08.2022
2286 Clouds 23 1009 50 10000 1.13 191 16:37 08.08.2022
2287 Clouds 24 1009 50 10000 0.76 190 15:39 08.08.2022
2288 Clouds 25 1008 53 10000 0.89 288 12:51 08.08.2022
2289 Clouds 25 1008 54 10000 0.68 311 11:53 08.08.2022
2290 Clouds 28 1008 56 10000 0.83 231 09:43 08.08.2022
2291 Clouds 28 1008 58 10000 2.11 148 05:43 08.08.2022
2292 Clouds 27 1007 76 10000 1.49 87 02:27 08.08.2022
2293 Clouds 27 1004 91 10000 2.72 22 22:25 07.08.2022
2294 Clouds 25 1004 91 10000 2.72 22 21:38 07.08.2022
2295 Clouds 25 1003 94 10000 1.96 41 20:25 07.08.2022
2296 Clouds 25 1003 94 10000 1.96 41 19:54 07.08.2022
2297 Clouds 25 1003 94 10000 1.96 41 19:33 07.08.2022
2298 Clouds 29 1002 81 10000 1.09 49 18:22 07.08.2022
2299 Clouds 28 1001 77 10000 0.51 24 16:54 07.08.2022
2300 Clouds 28 1001 76 10000 0.54 165 16:28 07.08.2022
2301 Clear 29 1000 76 10000 1.03 141 15:19 07.08.2022
2302 Clouds 30 999 71 10000 2.28 185 13:22 07.08.2022
2303 Rain 32 998 58 10000 3.58 184 10:59 07.08.2022
2304 Clouds 32 998 58 10000 3.58 184 10:33 07.08.2022
2305 Clouds 30 999 89 10000 0.89 12 05:48 07.08.2022
2306 Clouds 27 1000 94 10000 0.85 42 03:19 07.08.2022
2307 Clouds 27 1000 96 9852 1.44 34 23:44 06.08.2022
2308 Clouds 27 1000 95 10000 0.98 71 22:20 06.08.2022
2309 Clouds 27 1000 94 10000 0.51 13 20:26 06.08.2022
2310 Clouds 27 1000 95 10000 1.01 358 19:41 06.08.2022
2311 Clouds 27 1000 95 10000 1.01 358 19:41 06.08.2022
2312 Clouds 27 1001 95 10000 2.75 9 18:25 06.08.2022
2313 Clouds 28 1001 94 10000 2.44 10 17:28 06.08.2022
2314 Rain 27 1000 88 10000 1.73 51 14:35 06.08.2022
2315 Rain 28 1000 85 10000 1.41 40 13:44 06.08.2022
2316 Clouds 30 998 58 10000 3.21 112 11:24 06.08.2022
2317 Clouds 31 999 45 10000 3.08 127 09:51 06.08.2022
2318 Clouds 31 999 43 10000 2.24 178 08:32 06.08.2022
2319 Clouds 30 1002 41 10000 1.93 78 03:51 06.08.2022
2320 Clouds 26 1002 57 10000 1.32 29 23:36 05.08.2022
2321 Clear 26 1001 53 10000 1.88 30 22:23 05.08.2022
2322 Clear 28 1001 55 10000 1.3 31 19:33 05.08.2022
2323 Clear 27 1001 47 10000 1.18 88 18:44 05.08.2022
2324 Clear 28 1001 43 10000 1.36 92 17:54 05.08.2022
2325 Clear 28 1001 42 10000 0.59 119 16:49 05.08.2022
2326 Clear 28 1001 42 10000 0.59 119 16:49 05.08.2022
2327 Clear 29 1001 33 10000 1.69 174 15:22 05.08.2022
2328 Clear 30 1000 30 10000 1.79 175 14:19 05.08.2022
2329 Clear 33 999 30 10000 2.32 159 13:23 05.08.2022
2330 Clear 35 999 26 10000 3.2 158 12:28 05.08.2022
2331 Clear 37 999 21 10000 3.52 158 10:49 05.08.2022
2332 Clear 36 1000 19 10000 1.99 130 08:27 05.08.2022
2333 Clear 34 1000 25 10000 1.5 110 06:41 05.08.2022
2334 Clear 25 1003 76 10000 2.15 12 00:34 05.08.2022
2335 Clear 25 1002 86 10000 2.11 7 22:31 04.08.2022
2336 Clear 25 1002 85 10000 1.62 11 21:27 04.08.2022
2337 Clear 25 1002 85 10000 1.62 11 20:43 04.08.2022
2338 Clouds 24 1002 76 10000 1.02 335 19:46 04.08.2022
2339 Clouds 24 1002 72 10000 0.07 53 18:37 04.08.2022
2340 Clouds 24 1002 68 10000 0.99 141 18:18 04.08.2022
2341 Clear 25 1000 61 10000 3.89 198 14:23 04.08.2022
2342 Clear 33 999 48 10000 4.04 210 12:57 04.08.2022
2343 Clear 35 1000 39 10000 4.77 209 11:20 04.08.2022
2344 Clouds 35 1002 37 10000 4.7 213 07:54 04.08.2022
2345 Clouds 34 1002 39 10000 4.59 205 06:40 04.08.2022
2346 Clouds 30 1005 56 10000 1.1 187 02:33 04.08.2022
2347 Clouds 28 1005 70 10000 0.25 344 23:45 03.08.2022
2348 Clouds 28 1005 70 10000 0.08 254 22:55 03.08.2022
2349 Clouds 28 1005 66 10000 0.58 172 20:50 03.08.2022
2350 Clouds 28 1005 66 10000 1.29 194 19:46 03.08.2022
2351 Clouds 28 1005 63 10000 1.87 200 18:37 03.08.2022
2352 Clouds 29 1005 56 10000 2.82 197 16:26 03.08.2022
2353 Clouds 29 1005 56 10000 2.82 197 15:45 03.08.2022
2354 Clouds 34 1004 54 10000 3.22 199 12:44 03.08.2022
2355 Clouds 36 1004 41 10000 4.27 198 09:46 03.08.2022
2356 Clouds 34 1005 44 10000 4.07 195 06:29 03.08.2022
2357 Clouds 32 1006 56 10000 1.97 208 04:21 03.08.2022
2358 Clouds 30 1007 71 10000 0.62 209 02:25 03.08.2022
2359 Clouds 27 1006 80 10000 0.38 194 23:54 02.08.2022
2360 Clouds 28 1006 78 10000 1.04 190 21:59 02.08.2022
2361 Clouds 28 1006 78 10000 1.04 190 21:40 02.08.2022
2362 Clouds 28 1006 73 10000 1.65 187 20:20 02.08.2022
2363 Clear 30 1006 70 10000 2.4 188 16:49 02.08.2022
2364 Clear 31 1004 59 10000 3.05 205 13:54 02.08.2022
2365 Clear 35 1003 41 10000 4.76 205 10:34 02.08.2022
2366 Clear 34 1004 39 10000 3.96 192 08:29 02.08.2022
2367 Clear 34 1004 39 10000 3.96 192 07:50 02.08.2022
2368 Clear 32 1006 51 10000 2.33 168 04:56 02.08.2022
2369 Clear 29 1007 67 10000 1.46 76 02:20 02.08.2022
2370 Clear 26 1006 76 10000 1.4 74 23:23 01.08.2022
2371 Clear 27 1006 74 10000 0.93 61 21:42 01.08.2022
2372 Clear 27 1006 71 10000 0.89 177 20:19 01.08.2022
2373 Clear 28 1006 67 10000 1.56 171 18:55 01.08.2022
2374 Clear 28 1005 64 10000 1.7 163 16:58 01.08.2022
2375 Clear 27 1005 64 10000 1.7 163 16:39 01.08.2022
2376 Clear 28 1005 62 10000 1.52 172 15:44 01.08.2022
2377 Clear 29 1005 61 10000 1.61 175 14:57 01.08.2022
2378 Clear 32 1004 55 10000 2.12 201 13:32 01.08.2022
2379 Clear 34 1002 40 10000 3.67 191 11:18 01.08.2022
2380 Clear 34 1003 37 10000 3.34 188 08:55 01.08.2022
2381 Clear 33 1004 40 10000 2.57 194 07:23 01.08.2022
2382 Clear 31 1005 48 10000 0.96 197 04:37 01.08.2022
2383 Clear 27 1006 68 10000 1.04 26 01:33 01.08.2022
2384 Clear 25 1005 80 10000 0.57 347 22:47 31.07.2022
2385 Clear 25 1005 78 10000 0.45 120 22:29 31.07.2022
2386 Clear 26 1005 77 10000 0.61 128 20:44 31.07.2022
2387 Clear 27 1005 74 10000 1.55 160 18:42 31.07.2022
2388 Clear 28 1005 70 10000 1.51 156 17:29 31.07.2022
2389 Clear 29 1004 65 10000 2.05 177 14:43 31.07.2022
2390 Clear 31 1003 57 10000 2.87 174 12:59 31.07.2022
2391 Clear 32 1003 51 10000 3.51 172 11:44 31.07.2022
2392 Clear 32 1003 43 10000 2.37 181 08:47 31.07.2022
2393 Clouds 30 1005 54 10000 1.25 176 05:38 31.07.2022
2394 Clear 27 1007 81 10000 1.62 49 02:29 31.07.2022
2395 Clouds 25 1006 94 10000 1.6 40 22:49 30.07.2022
2396 Clouds 25 1006 94 10000 1.63 48 21:52 30.07.2022
2397 Clouds 25 1006 94 10000 1.63 48 21:33 30.07.2022
2398 Clear 25 1006 93 10000 1.82 55 20:38 30.07.2022
2399 Clear 25 1006 93 10000 1.82 55 20:38 30.07.2022
2400 Clear 26 1007 91 10000 1.5 61 19:50 30.07.2022
2401 Clear 26 1007 87 10000 1.84 127 18:20 30.07.2022
2402 Clear 27 1007 85 10000 2.1 148 16:40 30.07.2022
2403 Clear 28 1007 82 10000 2.29 159 15:33 30.07.2022
2404 Clouds 28 1006 70 10000 1.99 150 14:23 30.07.2022
2405 Clouds 30 1006 68 10000 2.71 147 12:32 30.07.2022
2406 Clouds 30 1005 62 10000 3.3 150 11:53 30.07.2022
2407 Clouds 31 1006 53 10000 3.72 141 10:20 30.07.2022
2408 Clouds 32 1006 53 10000 3.72 141 09:32 30.07.2022
2409 Clouds 31 1006 51 10000 3.12 137 07:44 30.07.2022
2410 Clouds 26 1010 70 10000 2.05 86 02:34 30.07.2022
2411 Clouds 24 1010 77 10000 1.61 86 00:32 30.07.2022
2412 Clouds 24 1009 77 10000 1.63 84 21:39 29.07.2022
2413 Clouds 25 1009 78 10000 1.47 97 20:51 29.07.2022
2414 Clear 25 1009 80 10000 1.18 121 19:48 29.07.2022
2415 Clear 26 1009 78 10000 1.75 154 17:39 29.07.2022
2416 Clear 26 1008 73 10000 1.94 131 14:51 29.07.2022
2417 Clouds 30 1006 61 10000 1.64 164 12:55 29.07.2022
2418 Clouds 32 1006 47 10000 3.27 169 09:34 29.07.2022
2419 Clouds 31 1006 46 10000 2.58 172 08:41 29.07.2022
2420 Clouds 31 1006 46 10000 1.77 145 07:30 29.07.2022
2421 Clear 26 1009 77 10000 1.45 32 01:46 29.07.2022
2422 Clear 22 1008 93 10000 0.91 312 21:54 28.07.2022
2423 Clear 22 1008 93 10000 0.57 298 20:54 28.07.2022
2424 Clear 21 1008 91 10000 0.58 207 20:21 28.07.2022
2425 Clear 22 1008 91 10000 0.58 207 19:40 28.07.2022
2426 Clear 22 1008 90 10000 0.87 179 18:26 28.07.2022
2427 Clear 23 1008 90 10000 0.87 179 17:42 28.07.2022
2428 Clear 23 1008 89 10000 1.12 151 16:41 28.07.2022
2429 Clear 24 1007 87 10000 1.36 137 14:50 28.07.2022
2430 Clouds 28 1006 81 10000 1.05 137 12:41 28.07.2022
2431 Clouds 30 1006 81 10000 1.79 88 09:34 28.07.2022
2432 Clouds 25 1008 71 10000 2.93 24 06:21 28.07.2022
2433 Rain 23 1008 79 10000 2.63 25 05:26 28.07.2022
2434 Clouds 21 1008 95 10000 1.92 0 00:44 28.07.2022
2435 Clouds 20 1007 96 7398 2.22 7 22:26 27.07.2022
2436 Rain 21 1007 96 6673 2.42 357 20:20 27.07.2022
2437 Rain 21 1007 96 10000 2.86 347 19:34 27.07.2022
2438 Rain 22 1008 93 9502 3.31 319 16:54 27.07.2022
2439 Clouds 21 1008 91 10000 2.86 329 15:51 27.07.2022
2440 Rain 21 1008 90 10000 2.78 341 14:46 27.07.2022
2441 Rain 22 1008 91 10000 2.67 318 14:27 27.07.2022
2442 Rain 23 1006 93 10000 2.79 329 12:19 27.07.2022
2443 Rain 27 1006 82 4352 2.23 304 07:53 27.07.2022
2444 Rain 26 1007 66 10000 0.85 49 05:33 27.07.2022
2445 Clouds 23 1007 88 10000 2.09 75 00:28 27.07.2022
2446 Clouds 23 1007 91 10000 1.92 68 22:24 26.07.2022
2447 Clouds 23 1007 92 10000 2.01 69 21:19 26.07.2022
2448 Rain 26 1007 90 10000 2.27 87 19:40 26.07.2022
2449 Clouds 27 1007 89 10000 2.59 94 18:41 26.07.2022
2450 Clouds 27 1007 89 10000 2.9 107 17:57 26.07.2022
2451 Clouds 28 1006 84 10000 3.15 118 15:47 26.07.2022
2452 Clouds 28 1006 77 10000 3.02 128 14:44 26.07.2022
2453 Clouds 29 1003 49 10000 3.91 157 12:41 26.07.2022
2454 Clouds 30 1003 41 10000 3.85 171 10:57 26.07.2022
2455 Clouds 31 1003 41 10000 5.13 170 08:31 26.07.2022
2456 Clouds 30 1006 43 10000 4.05 183 03:58 26.07.2022
2457 Clouds 25 1005 70 10000 2.22 207 00:24 26.07.2022
2458 Clouds 23 1005 71 10000 2.94 196 22:43 25.07.2022
2459 Clouds 23 1005 73 10000 3.1 188 22:21 25.07.2022
2460 Clouds 24 1005 73 10000 3.1 188 21:38 25.07.2022
2461 Rain 25 1005 74 10000 3.06 161 20:39 25.07.2022
2462 Clouds 27 1005 62 10000 2.76 161 19:26 25.07.2022
2463 Clouds 27 1005 58 10000 2.17 169 18:18 25.07.2022
2464 Clouds 29 1004 56 10000 2.67 184 17:26 25.07.2022
2465 Rain 31 1002 46 10000 4.43 165 14:23 25.07.2022
2466 Clouds 32 1002 39 10000 3.68 166 11:39 25.07.2022
2467 Clouds 33 1004 41 10000 4.22 200 08:22 25.07.2022
2468 Clouds 26 1005 60 10000 1.47 216 01:49 25.07.2022
2469 Rain 24 1004 69 10000 1.26 199 23:49 24.07.2022
2470 Clouds 24 1003 68 10000 1.57 183 22:51 24.07.2022
2471 Clouds 23 1003 65 10000 1.97 195 22:24 24.07.2022
2472 Clouds 23 1003 62 10000 2.31 203 21:18 24.07.2022
2473 Clouds 23 1003 62 10000 2.31 203 20:46 24.07.2022
2474 Clouds 24 1003 57 10000 2.15 194 19:38 24.07.2022
2475 Clouds 25 1003 54 10000 2.63 190 18:30 24.07.2022
2476 Clear 25 1001 43 10000 5.02 200 15:57 24.07.2022
2477 Clear 26 1001 43 10000 5.02 200 15:33 24.07.2022
2478 Clear 31 999 36 10000 4.55 186 13:54 24.07.2022
2479 Clear 32 998 29 10000 5.36 201 12:52 24.07.2022
2480 Clear 34 998 26 10000 6.28 204 11:37 24.07.2022
2481 Clear 34 998 24 10000 6.47 207 10:48 24.07.2022
2482 Clear 32 999 25 10000 5.59 209 08:30 24.07.2022
2483 Clear 32 1000 27 10000 4.7 208 07:46 24.07.2022
2484 Clear 28 1002 48 10000 1.61 195 03:57 24.07.2022
2485 Clear 23 1002 68 10000 0.58 220 23:51 23.07.2022
2486 Clear 25 1001 64 10000 1.83 205 20:59 23.07.2022
2487 Clear 24 1002 59 10000 2.15 181 19:44 23.07.2022
2488 Clear 26 1001 57 10000 2.79 199 18:50 23.07.2022
2489 Clear 26 1002 53 10000 3.09 195 17:28 23.07.2022
2490 Clear 26 1002 53 10000 3.09 195 16:31 23.07.2022
2491 Clear 29 1002 50 10000 3.17 191 15:22 23.07.2022
2492 Clear 28 1002 50 10000 3.17 191 14:56 23.07.2022
2493 Clear 28 1001 49 10000 3.58 195 14:24 23.07.2022
2494 Clear 32 999 37 10000 3.45 188 12:44 23.07.2022
2495 Clear 34 999 28 10000 4.28 183 10:45 23.07.2022
2496 Clear 33 1000 25 10000 3.11 178 09:54 23.07.2022
2497 Clear 33 1000 26 10000 1.91 170 08:30 23.07.2022
2498 Clear 28 1004 51 10000 1.51 256 03:38 23.07.2022
2499 Clouds 23 1005 73 10000 0.88 253 00:41 23.07.2022
2500 Clouds 22 1005 83 10000 1.91 337 22:19 22.07.2022
2501 Clouds 22 1005 84 10000 2.73 346 20:39 22.07.2022
2502 Clouds 22 1006 73 10000 2.91 313 19:32 22.07.2022
2503 Clouds 24 1006 77 10000 3.98 341 18:23 22.07.2022
2504 Clouds 23 1007 73 10000 2.8 344 16:47 22.07.2022
2505 Rain 28 1006 62 10000 1.33 212 14:40 22.07.2022
2506 Clouds 31 1004 39 10000 4.46 186 10:59 22.07.2022
2507 Clouds 31 1005 40 10000 4.63 174 09:25 22.07.2022
2508 Clouds 31 1005 38 10000 4.1 167 08:27 22.07.2022
2509 Clouds 30 1008 47 10000 2.11 177 04:48 22.07.2022
2510 Clouds 24 1008 66 10000 0.78 62 23:45 21.07.2022
2511 Clouds 23 1007 65 10000 0.5 49 22:25 21.07.2022
2512 Clouds 25 1007 62 10000 0.83 63 20:48 21.07.2022
2513 Clouds 26 1008 57 10000 1.37 154 19:23 21.07.2022
2514 Clouds 27 1008 57 10000 2.13 161 17:39 21.07.2022
2515 Clouds 27 1008 56 10000 2.42 147 17:19 21.07.2022
2516 Clouds 30 1006 51 10000 2.51 156 14:55 21.07.2022
2517 Clear 30 1005 47 10000 2.65 175 14:29 21.07.2022
2518 Clear 33 1003 33 10000 3.34 159 12:27 21.07.2022
2519 Clear 34 1003 30 10000 3.22 147 10:48 21.07.2022
2520 Clear 33 1004 30 10000 1.89 162 09:18 21.07.2022
2521 Clear 33 1004 30 10000 1.89 162 08:45 21.07.2022
2522 Clouds 32 1005 34 10000 1.64 161 07:32 21.07.2022
2523 Clouds 28 1006 51 10000 0.08 197 03:55 21.07.2022
2524 Clear 23 1006 75 10000 0.43 135 00:24 21.07.2022
2525 Clear 22 1005 75 10000 1.08 145 22:21 20.07.2022
2526 Clear 23 1004 73 10000 1.66 162 20:51 20.07.2022
2527 Clear 24 1004 71 10000 2.36 178 19:50 20.07.2022
2528 Clear 25 1005 66 10000 1.91 164 19:20 20.07.2022
2529 Clear 25 1005 66 10000 1.91 164 18:33 20.07.2022
2530 Clear 26 1004 63 10000 2.78 185 17:54 20.07.2022
2531 Clear 27 1005 61 10000 2.98 184 16:42 20.07.2022
2532 Clear 28 1004 57 10000 3.56 147 15:31 20.07.2022
2533 Clear 28 1002 44 10000 3.36 154 14:18 20.07.2022
2534 Clear 32 1001 33 10000 4.89 177 11:33 20.07.2022
2535 Clear 33 1002 30 10000 4.98 180 08:46 20.07.2022
2536 Clear 28 1004 40 10000 2.48 186 03:47 20.07.2022
2537 Clouds 26 1004 59 10000 0.3 314 00:49 20.07.2022
2538 Clouds 25 1004 64 10000 0.72 197 23:41 19.07.2022
2539 Clouds 26 1003 65 10000 1.06 147 22:33 19.07.2022
2540 Clouds 26 1003 62 10000 0.61 175 21:31 19.07.2022
2541 Clouds 26 1003 60 10000 2.08 201 20:28 19.07.2022
2542 Clouds 27 1002 60 10000 3.35 196 18:44 19.07.2022
2543 Clouds 27 1002 59 10000 3.33 186 17:58 19.07.2022
2544 Clouds 26 1002 56 10000 2.86 185 16:37 19.07.2022
2545 Clouds 26 1002 50 10000 2.9 186 14:53 19.07.2022
2546 Clouds 32 999 33 10000 3.53 199 11:43 19.07.2022
2547 Clouds 33 999 29 10000 3.81 184 10:52 19.07.2022
2548 Clouds 32 1000 22 10000 4.05 192 09:25 19.07.2022
2549 Clouds 32 1000 22 10000 4.05 192 08:39 19.07.2022
2550 Clouds 32 1001 20 10000 1.55 197 07:19 19.07.2022
2551 Clouds 31 1001 22 10000 0.57 134 05:30 19.07.2022
2552 Clouds 32 1002 24 10000 0.73 52 04:55 19.07.2022
2553 Clouds 26 1002 42 10000 2.23 28 01:19 19.07.2022
2554 Clouds 22 1001 49 10000 2.34 27 23:47 18.07.2022
2555 Clouds 21 1001 50 10000 2.4 22 23:18 18.07.2022
2556 Clouds 22 1001 49 10000 2.16 15 21:58 18.07.2022
2557 Clouds 22 1001 50 10000 1.48 5 20:51 18.07.2022
2558 Clouds 24 1001 45 10000 0.54 351 19:33 18.07.2022
2559 Clouds 24 1001 38 10000 0.88 146 17:38 18.07.2022
2560 Clouds 28 1000 34 10000 1.12 185 15:55 18.07.2022
2561 Clouds 30 999 34 10000 2.52 199 14:51 18.07.2022
2562 Clouds 33 997 28 10000 2.69 163 13:23 18.07.2022
2563 Clouds 35 997 19 10000 0.92 193 11:31 18.07.2022
2564 Clouds 35 998 14 10000 2.85 298 09:28 18.07.2022
2565 Clouds 35 999 16 10000 3.02 301 07:43 18.07.2022
2566 Clouds 28 1002 36 10000 2.66 9 01:44 18.07.2022
2567 Clouds 23 1001 68 10000 2.08 38 22:51 17.07.2022
2568 Clouds 23 1001 69 10000 1.86 51 22:23 17.07.2022
2569 Clear 24 1001 65 10000 2.33 62 21:24 17.07.2022
2570 Clear 24 1001 65 10000 2.33 62 20:44 17.07.2022
2571 Clouds 27 1000 38 10000 2.29 18 19:34 17.07.2022
2572 Clouds 26 1000 36 10000 2.53 1 18:56 17.07.2022
2573 Clouds 29 1000 36 10000 2.84 349 17:39 17.07.2022
2574 Clouds 25 999 36 10000 2.48 353 16:51 17.07.2022
2575 Clouds 30 998 36 10000 2.21 17 16:27 17.07.2022
2576 Clouds 28 998 33 10000 3.22 14 14:58 17.07.2022
2577 Clouds 36 996 29 10000 4.5 33 13:34 17.07.2022
2578 Clouds 37 994 21 10000 1.66 337 12:22 17.07.2022
2579 Clouds 37 994 18 10000 1.65 296 09:30 17.07.2022
2580 Clouds 35 997 20 10000 1.35 326 06:37 17.07.2022
2581 Clouds 29 999 37 10000 2.4 316 02:33 17.07.2022
2582 Clouds 23 999 70 10000 0.52 241 23:22 16.07.2022
2583 Clouds 24 999 68 10000 0.6 264 21:57 16.07.2022
2584 Clouds 24 999 66 10000 0.73 229 20:26 16.07.2022
2585 Clouds 26 999 65 10000 0.55 118 18:41 16.07.2022
2586 Clouds 26 999 62 10000 2.16 193 17:20 16.07.2022
2587 Clouds 28 998 59 10000 3.04 181 15:23 16.07.2022
2588 Clouds 31 997 44 10000 4.81 177 11:54 16.07.2022
2589 Clouds 33 997 37 10000 3.85 186 09:37 16.07.2022
2590 Clouds 33 998 38 10000 3.44 174 08:48 16.07.2022
2591 Clouds 33 998 42 10000 2.87 167 08:29 16.07.2022
2592 Clouds 31 1000 40 10000 2.54 91 04:28 16.07.2022
2593 Clouds 30 1000 42 10000 2.12 79 03:29 16.07.2022
2594 Clouds 23 999 54 10000 2.37 44 23:51 15.07.2022
2595 Clouds 23 999 53 10000 2.23 56 22:43 15.07.2022
2596 Clouds 24 998 45 10000 2.04 64 21:29 15.07.2022
2597 Clouds 24 998 45 10000 2.04 64 20:31 15.07.2022
2598 Clouds 27 998 41 10000 0.91 280 18:44 15.07.2022
2599 Clouds 26 998 40 10000 0.98 260 17:48 15.07.2022
2600 Clouds 33 999 33 10000 2.6 216 14:57 15.07.2022
2601 Clouds 34 997 26 10000 3.69 215 13:20 15.07.2022
2602 Clouds 35 997 23 10000 3.99 210 11:48 15.07.2022
2603 Clouds 37 997 19 10000 3.9 196 10:42 15.07.2022
2604 Clouds 36 999 16 10000 1.72 146 07:42 15.07.2022
2605 Clouds 29 1003 31 10000 2.26 3 02:24 15.07.2022
2606 Clouds 24 1002 37 10000 1.92 359 00:37 15.07.2022
2607 Clouds 23 1002 44 10000 1.39 359 22:53 14.07.2022
2608 Clouds 22 1002 46 10000 1.56 5 21:56 14.07.2022
2609 Clouds 22 1002 46 10000 1.56 5 21:30 14.07.2022
2610 Clouds 23 1002 46 10000 1.66 11 20:45 14.07.2022
2611 Clouds 25 1002 45 10000 1.31 14 20:26 14.07.2022
2612 Clouds 24 1002 50 10000 0.3 8 19:58 14.07.2022
2613 Clouds 25 1002 40 10000 1.46 166 16:23 14.07.2022
2614 Clouds 26 1002 40 10000 1.46 166 15:54 14.07.2022
2615 Clouds 27 1001 38 10000 1.86 182 14:44 14.07.2022
2616 Clouds 32 1000 40 10000 3.29 188 13:32 14.07.2022
2617 Clouds 34 1000 30 10000 3.84 178 12:18 14.07.2022
2618 Clouds 35 1000 27 10000 4.48 175 11:25 14.07.2022
2619 Clouds 36 1000 27 10000 4.48 175 10:39 14.07.2022
2620 Clouds 35 1001 21 10000 2.59 98 08:22 14.07.2022
2621 Clouds 31 1002 25 10000 2.98 11 03:36 14.07.2022
2622 Clear 26 1002 39 10000 2.98 348 00:54 14.07.2022
2623 Clear 23 1002 42 10000 2.81 348 23:38 13.07.2022
2624 Clear 23 1001 41 10000 2.32 351 22:26 13.07.2022
2625 Clear 24 1001 41 10000 2.32 351 21:30 13.07.2022
2626 Clouds 24 1001 49 10000 2.37 346 20:26 13.07.2022
2627 Clouds 26 1000 56 10000 2.16 346 17:56 13.07.2022
2628 Clouds 27 1000 58 10000 1.93 314 16:59 13.07.2022
2629 Clouds 28 1000 62 10000 2.08 269 15:51 13.07.2022
2630 Clouds 33 998 60 10000 3.67 220 13:45 13.07.2022
2631 Clear 35 997 44 10000 5.21 202 10:47 13.07.2022
2632 Clear 35 998 40 10000 4.39 196 10:28 13.07.2022
2633 Clear 34 998 39 10000 3.42 192 09:28 13.07.2022
2634 Clear 33 998 40 10000 2.91 192 07:53 13.07.2022
2635 Clear 29 1001 47 10000 1.76 218 04:36 13.07.2022
2636 Clear 22 1001 75 10000 1.07 332 00:25 13.07.2022
2637 Clouds 22 1001 77 10000 1.22 293 22:28 12.07.2022
2638 Clouds 22 1001 77 10000 1.22 293 21:45 12.07.2022
2639 Clouds 23 1001 76 10000 1.55 271 20:44 12.07.2022
2640 Clouds 22 1001 77 10000 1.66 282 19:48 12.07.2022
2641 Clouds 24 1001 76 10000 1.01 278 18:35 12.07.2022
2642 Clouds 25 1002 75 10000 0.7 240 16:24 12.07.2022
2643 Clouds 26 1002 75 10000 0.43 334 14:31 12.07.2022
2644 Clouds 26 1002 81 10000 0.95 321 13:35 12.07.2022
2645 Clouds 27 1002 83 10000 1.53 338 11:54 12.07.2022
2646 Clouds 25 1003 86 10000 2.23 351 10:26 12.07.2022
2647 Clouds 25 1003 86 10000 2.43 2 08:46 12.07.2022
2648 Clouds 25 1004 67 10000 2.79 22 07:48 12.07.2022
2649 Clouds 22 1005 81 10000 2.25 34 05:45 12.07.2022
2650 Clouds 22 1005 82 10000 2.45 14 04:46 12.07.2022
2651 Clouds 21 1006 89 10000 2.66 30 00:54 12.07.2022
2652 Clouds 23 1006 91 9139 3.71 14 22:43 11.07.2022
2653 Clouds 23 1005 91 10000 4.29 10 20:56 11.07.2022
2654 Clouds 23 1005 91 10000 4.29 10 20:32 11.07.2022
2655 Clouds 23 1005 91 10000 4.29 10 20:32 11.07.2022
2656 Clouds 24 1006 83 10000 3.03 338 18:50 11.07.2022
2657 Clouds 24 1007 83 10000 2.52 311 18:28 11.07.2022
2658 Clouds 24 1006 74 10000 0.67 244 16:30 11.07.2022
2659 Clouds 24 1006 65 10000 2.06 153 15:28 11.07.2022
2660 Rain 24 1005 58 10000 2.36 132 13:19 11.07.2022
2661 Rain 25 1005 51 10000 2.09 131 11:23 11.07.2022
2662 Clouds 27 1005 49 10000 1.74 143 09:55 11.07.2022
2663 Clouds 27 1005 46 10000 2.98 171 09:27 11.07.2022
2664 Clouds 27 1005 46 10000 2.98 171 08:31 11.07.2022
2665 Clouds 23 1006 72 10000 0.31 153 00:59 11.07.2022
2666 Clouds 20 1006 77 10000 0.95 42 23:54 10.07.2022
2667 Clouds 20 1005 77 10000 1.13 44 22:45 10.07.2022
2668 Clouds 20 1005 75 10000 0.68 33 20:56 10.07.2022
2669 Clouds 20 1005 75 10000 0.68 33 20:36 10.07.2022
2670 Clouds 20 1005 69 10000 0.58 220 19:30 10.07.2022
2671 Clouds 20 1005 69 10000 0.58 220 19:30 10.07.2022
2672 Clouds 22 1005 66 10000 1.7 196 18:25 10.07.2022
2673 Clouds 21 1005 66 10000 1.7 196 17:33 10.07.2022
2674 Clear 23 1006 63 10000 1.8 200 16:21 10.07.2022
2675 Clear 23 1005 62 10000 2.2 176 14:47 10.07.2022
2676 Clear 26 1004 58 10000 3.21 172 13:31 10.07.2022
2677 Clear 28 1003 50 10000 3.81 187 11:57 10.07.2022
2678 Clouds 28 1003 46 10000 3.25 187 09:46 10.07.2022
2679 Clouds 26 1004 47 10000 3.13 181 08:44 10.07.2022
2680 Clouds 26 1006 55 10000 2.93 161 07:20 10.07.2022
2681 Clouds 21 1004 60 10000 3.69 197 23:58 09.07.2022
2682 Rain 23 1003 54 10000 1.86 205 22:27 09.07.2022
2683 Rain 23 1003 54 10000 1.86 205 21:49 09.07.2022
2684 Rain 26 1004 49 10000 4.54 209 19:57 09.07.2022
2685 Clouds 28 1004 41 10000 2.51 205 18:32 09.07.2022
2686 Clouds 27 1003 41 10000 2.87 208 17:32 09.07.2022
2687 Rain 26 1003 40 10000 3.38 227 16:40 09.07.2022
2688 Clouds 26 1003 38 10000 2.68 248 15:39 09.07.2022
2689 Clouds 31 1002 31 10000 3.36 214 14:27 09.07.2022
2690 Clouds 31 1001 31 10000 3.1 189 13:49 09.07.2022
2691 Clouds 29 1001 30 10000 3.6 187 12:43 09.07.2022
2692 Rain 30 1000 23 10000 4.23 183 11:19 09.07.2022
2693 Clouds 32 1000 19 10000 3.75 182 10:22 09.07.2022
2694 Clouds 34 1000 14 10000 1.43 118 07:45 09.07.2022
2695 Clouds 32 1002 18 10000 3.04 16 04:53 09.07.2022
2696 Clear 25 1002 30 10000 3.33 1 00:59 09.07.2022
2697 Clear 22 1002 42 10000 2.94 1 22:53 08.07.2022
2698 Clear 24 1001 50 10000 2.66 0 21:34 08.07.2022
2699 Clear 24 1001 55 10000 2.3 2 20:40 08.07.2022
2700 Clear 24 1001 56 10000 2.32 0 19:48 08.07.2022
2701 Clear 25 1000 53 10000 1.83 36 18:20 08.07.2022
2702 Clear 26 1000 47 10000 1.5 20 16:40 08.07.2022
2703 Clear 27 999 43 10000 1.13 189 14:51 08.07.2022
2704 Clouds 29 998 39 10000 2.49 221 13:26 08.07.2022
2705 Clouds 32 998 34 10000 2.06 208 11:28 08.07.2022
2706 Clouds 32 998 33 10000 1.37 196 10:27 08.07.2022
2707 Clear 35 999 32 10000 1.98 138 08:26 08.07.2022
2708 Clear 34 1000 31 10000 2.49 121 06:47 08.07.2022
2709 Clear 27 1003 50 10000 2.65 13 01:23 08.07.2022
2710 Clear 25 1001 56 10000 2.32 32 22:57 07.07.2022
2711 Clear 25 1001 54 10000 1.91 42 22:27 07.07.2022
2712 Clouds 26 1000 49 10000 1.2 174 19:53 07.07.2022
2713 Clouds 28 1000 43 10000 2.23 191 18:20 07.07.2022
2714 Clouds 27 1000 43 10000 2.31 194 16:46 07.07.2022
2715 Clear 30 1000 40 10000 2.89 179 14:32 07.07.2022
2716 Clear 34 999 29 10000 3.02 166 12:53 07.07.2022
2717 Clear 35 999 24 10000 3.53 185 12:23 07.07.2022
2718 Clear 36 999 24 10000 3.53 185 11:35 07.07.2022
2719 Clear 36 999 21 10000 3.75 183 10:47 07.07.2022
2720 Clear 36 999 18 10000 3.33 183 10:29 07.07.2022
2721 Clear 36 999 18 10000 3.33 183 09:52 07.07.2022
2722 Clear 33 1000 15 10000 0.71 59 06:40 07.07.2022
2723 Clear 26 1002 58 10000 1.93 350 00:32 07.07.2022
2724 Clear 25 1001 69 10000 1.28 338 23:36 06.07.2022
2725 Clear 22 1001 74 10000 1.34 313 23:18 06.07.2022
2726 Clear 22 1001 74 10000 1.34 313 22:52 06.07.2022
2727 Clear 21 1001 74 10000 1.34 313 22:33 06.07.2022
2728 Clear 23 1000 74 10000 0.98 281 20:30 06.07.2022
2729 Clear 23 1000 74 10000 0.98 281 20:30 06.07.2022
2730 Clear 23 1001 77 10000 1.49 226 19:32 06.07.2022
2731 Clear 24 1001 72 10000 1.14 189 17:22 06.07.2022
2732 Clear 24 1001 71 10000 1.46 196 15:58 06.07.2022
2733 Clear 29 1001 66 10000 3.42 136 13:21 06.07.2022
2734 Clear 30 1000 59 10000 3.9 125 12:28 06.07.2022
2735 Clear 30 1000 59 10000 3.9 125 11:44 06.07.2022
2736 Clear 30 1000 48 10000 3.7 91 09:50 06.07.2022
2737 Clouds 29 1001 47 10000 2.8 79 07:44 06.07.2022
2738 Clouds 28 1001 51 10000 2.48 74 06:49 06.07.2022
2739 Rain 23 1002 89 10000 2.01 350 00:38 06.07.2022
2740 Clouds 23 1002 91 10000 2.32 342 22:43 05.07.2022
2741 Clouds 23 1002 87 10000 2.2 357 20:57 05.07.2022
2742 Rain 24 1002 87 10000 2.2 357 20:33 05.07.2022
2743 Rain 24 1002 86 10000 1.76 294 19:39 05.07.2022
2744 Clouds 24 1002 84 7889 3.18 342 17:55 05.07.2022
2745 Clouds 24 1003 82 10000 3.25 322 17:25 05.07.2022
2746 Clouds 24 1003 82 10000 3.25 322 16:36 05.07.2022
2747 Rain 24 1002 80 4312 1.41 171 14:55 05.07.2022
2748 Rain 26 1001 75 10000 3.43 176 13:36 05.07.2022
2749 Clouds 29 1000 58 10000 3.59 151 12:26 05.07.2022
2750 Clouds 32 999 55 10000 3.76 147 10:46 05.07.2022
2751 Clouds 33 1000 53 10000 3.72 145 09:58 05.07.2022
2752 Clouds 32 1000 50 10000 3.66 142 08:23 05.07.2022
2753 Rain 31 1000 43 10000 2.78 177 07:20 05.07.2022
2754 Clear 28 1002 49 10000 1.47 173 04:39 05.07.2022
2755 Clouds 26 1003 71 10000 1.28 59 01:33 05.07.2022
2756 Clouds 26 1002 84 10000 1.47 95 23:38 04.07.2022
2757 Clouds 26 1002 85 10000 1.6 86 22:57 04.07.2022
2758 Clouds 26 1002 82 10000 1.62 60 22:19 04.07.2022
2759 Clouds 26 1002 80 10000 1.13 60 20:57 04.07.2022
2760 Clouds 26 1002 80 10000 1.13 60 20:36 04.07.2022
2761 Clouds 26 1002 77 10000 1.26 96 19:57 04.07.2022
2762 Clouds 26 1002 77 10000 1.26 96 19:37 04.07.2022
2763 Clouds 26 1001 77 10000 0.86 113 18:52 04.07.2022
2764 Clouds 26 1001 72 10000 1.19 117 16:58 04.07.2022
2765 Clouds 27 1001 70 10000 1.34 141 15:40 04.07.2022
2766 Clouds 27 999 61 10000 2.77 152 14:19 04.07.2022
2767 Clouds 28 999 57 10000 2.88 154 12:55 04.07.2022
2768 Clouds 29 999 51 10000 3.45 166 10:57 04.07.2022
2769 Clouds 29 999 49 10000 2.87 175 10:27 04.07.2022
2770 Clouds 28 1000 49 10000 2.44 181 09:23 04.07.2022
2771 Clouds 27 1002 66 10000 1.07 201 06:28 04.07.2022
2772 Clouds 26 1002 85 10000 0.38 184 02:59 04.07.2022
2773 Clouds 24 1002 88 10000 0.85 82 23:52 03.07.2022
2774 Clouds 24 1003 90 10000 1.09 79 22:36 03.07.2022
2775 Clouds 24 1003 88 10000 0.75 111 20:46 03.07.2022
2776 Clouds 24 1003 87 10000 1.34 149 19:52 03.07.2022
2777 Clouds 24 1003 87 10000 1.27 159 19:24 03.07.2022
2778 Clouds 24 1004 87 10000 1.14 168 18:27 03.07.2022
2779 Clouds 24 1004 87 10000 1.14 168 17:38 03.07.2022
2780 Clouds 23 1005 87 10000 1.4 166 15:27 03.07.2022
2781 Clouds 24 1005 87 10000 1.4 166 14:53 03.07.2022
2782 Clouds 24 1004 82 10000 1.83 147 13:50 03.07.2022
2783 Clouds 24 1004 81 10000 1.82 149 12:47 03.07.2022
2784 Clouds 24 1004 79 10000 1.94 138 12:18 03.07.2022
2785 Rain 25 1004 75 10000 1.39 145 10:54 03.07.2022
2786 Clouds 26 1004 75 10000 1.39 145 10:35 03.07.2022
2787 Clouds 25 1004 78 10000 2.27 188 07:38 03.07.2022
2788 Clouds 24 1005 74 10000 1.7 190 06:35 03.07.2022
2789 Clouds 24 1006 76 10000 1.8 81 00:38 03.07.2022
2790 Rain 24 1005 77 10000 1.74 76 23:37 02.07.2022
2791 Rain 24 1005 79 10000 1.5 69 22:31 02.07.2022
2792 Rain 26 1006 76 10000 1.39 117 20:28 02.07.2022
2793 Rain 27 1005 67 10000 1.48 145 19:49 02.07.2022
2794 Rain 26 1006 65 10000 1.65 157 18:24 02.07.2022
2795 Rain 27 1006 65 10000 1.65 157 17:38 02.07.2022
2796 Clouds 28 1006 61 10000 1.71 152 15:56 02.07.2022
2797 Clouds 29 1005 57 10000 2.64 173 13:40 02.07.2022
2798 Clouds 30 1003 38 10000 4.14 178 11:49 02.07.2022
2799 Clouds 31 1003 35 10000 3.05 179 10:51 02.07.2022
2800 Clouds 31 1004 35 10000 2.77 192 10:21 02.07.2022
2801 Clouds 30 1004 37 10000 3.01 201 08:37 02.07.2022
2802 Clouds 30 1005 39 10000 2.92 199 08:19 02.07.2022
2803 Clear 27 1008 56 10000 0.79 120 02:59 02.07.2022
2804 Clouds 23 1008 73 10000 0.85 54 00:28 02.07.2022
2805 Clouds 23 1008 75 10000 0.69 59 23:21 01.07.2022
2806 Clouds 23 1008 75 10000 0.69 59 22:33 01.07.2022
2807 Clouds 23 1008 74 10000 0.77 54 21:38 01.07.2022
2808 Clouds 23 1007 73 10000 0.66 72 20:58 01.07.2022
2809 Clouds 23 1007 73 10000 0.66 72 20:32 01.07.2022
2810 Clouds 23 1008 73 10000 1.36 61 19:36 01.07.2022
2811 Clouds 24 1008 68 10000 1.18 71 16:42 01.07.2022
2812 Clouds 25 1007 63 10000 0.86 83 14:32 01.07.2022
2813 Clouds 26 1006 59 10000 1 100 13:51 01.07.2022
2814 Clouds 29 1006 53 10000 1.51 119 11:22 01.07.2022
2815 Clouds 29 1007 51 10000 1.5 112 10:19 01.07.2022
2816 Clouds 29 1007 51 10000 1.94 56 07:32 01.07.2022
2817 Rain 23 1009 81 10000 2.56 17 02:43 01.07.2022
2818 Clouds 22 1007 85 10000 1.62 33 23:52 30.06.2022
2819 Rain 23 1007 88 10000 1.7 27 22:51 30.06.2022
2820 Rain 23 1007 88 10000 1.7 27 22:32 30.06.2022
2821 Rain 23 1007 88 10000 1.7 27 22:32 30.06.2022
2822 Rain 23 1007 88 10000 1.91 33 22:32 30.06.2022
2823 Rain 23 1007 88 10000 1.91 33 22:32 30.06.2022
2824 Rain 23 1007 88 10000 1.91 33 21:54 30.06.2022
2825 Clouds 23 1007 87 10000 1.78 36 20:49 30.06.2022
2826 Rain 23 1007 85 10000 1.34 47 20:21 30.06.2022
2827 Clouds 24 1007 85 10000 1.6 28 19:48 30.06.2022
2828 Clouds 24 1006 82 8778 0.74 20 18:56 30.06.2022
2829 Rain 24 1006 79 5411 0.61 142 18:22 30.06.2022
2830 Clouds 25 1006 79 5411 0.61 142 17:34 30.06.2022
2831 Clouds 25 1006 61 10000 1.97 143 16:20 30.06.2022
2832 Clouds 28 1005 52 10000 1.45 179 14:20 30.06.2022
2833 Clouds 29 1004 50 10000 1.91 175 13:29 30.06.2022
2834 Clouds 30 1004 50 10000 1.91 175 12:34 30.06.2022
2835 Clouds 31 1004 45 10000 3.19 150 11:21 30.06.2022
2836 Clouds 31 1004 41 10000 3.17 136 09:51 30.06.2022
2837 Clouds 31 1004 38 10000 2.56 128 09:26 30.06.2022
2838 Rain 31 1004 36 10000 2.6 97 07:41 30.06.2022
2839 Clouds 30 1005 38 10000 1.99 56 05:46 30.06.2022
2840 Clouds 23 1005 74 10000 1.71 12 00:26 30.06.2022
2841 Clouds 21 1005 77 10000 1.79 15 22:53 29.06.2022
2842 Clouds 22 1005 77 10000 1.79 15 22:33 29.06.2022
2843 Clouds 22 1004 77 10000 1.72 359 20:56 29.06.2022
2844 Clouds 22 1004 77 10000 1.72 359 20:32 29.06.2022
2845 Clouds 23 1004 76 10000 2 6 19:33 29.06.2022
2846 Clouds 22 1004 77 10000 1.57 19 17:40 29.06.2022
2847 Clouds 22 1004 77 10000 1.47 35 16:33 29.06.2022
2848 Clouds 25 1003 74 10000 1.55 34 14:19 29.06.2022
2849 Rain 26 1002 67 10000 1.76 26 12:38 29.06.2022
2850 Clouds 26 1001 61 10000 2.95 344 10:20 29.06.2022
2851 Clouds 27 1001 61 10000 2.95 344 09:31 29.06.2022
2852 Clouds 27 1002 73 10000 2.99 328 07:23 29.06.2022
2853 Rain 25 1003 73 10000 2.56 342 04:48 29.06.2022
2854 Rain 22 1002 80 10000 1.74 308 00:55 29.06.2022
2855 Clouds 22 1002 80 10000 1.74 308 00:35 29.06.2022
2856 Clouds 21 1000 78 10000 1.61 340 22:53 28.06.2022
2857 Rain 22 1000 78 10000 1.8 354 22:21 28.06.2022
2858 Rain 21 1000 78 10000 1.8 354 21:50 28.06.2022
2859 Rain 21 1000 78 10000 1.8 354 21:30 28.06.2022
2860 Rain 22 1000 74 10000 1.52 10 20:20 28.06.2022
2861 Rain 23 1000 82 10000 1.68 33 19:32 28.06.2022
2862 Rain 23 1000 82 10000 1.68 33 19:32 28.06.2022
2863 Rain 23 1000 80 10000 1.38 63 18:42 28.06.2022
2864 Clouds 25 1000 78 10000 1.79 79 17:38 28.06.2022
2865 Clouds 24 1000 70 10000 1.58 40 15:56 28.06.2022
2866 Clouds 24 1000 70 10000 1.58 40 15:56 28.06.2022
2867 Clouds 25 999 68 10000 1.54 8 14:59 28.06.2022
2868 Clouds 25 998 65 10000 2.36 343 14:20 28.06.2022
2869 Clouds 25 998 65 10000 2.36 343 13:49 28.06.2022
2870 Clouds 25 997 51 10000 3.13 31 12:48 28.06.2022
2871 Clouds 26 996 44 10000 1.59 333 10:46 28.06.2022
2872 Clouds 25 996 41 10000 1.78 334 09:25 28.06.2022
2873 Clouds 24 996 41 10000 1.78 334 08:43 28.06.2022
2874 Clouds 24 997 49 10000 0.51 62 07:20 28.06.2022
2875 Clouds 22 998 55 10000 1.27 114 04:56 28.06.2022
2876 Clouds 22 998 72 10000 0.54 177 23:59 27.06.2022
2877 Clouds 22 998 83 10000 0.56 129 23:36 27.06.2022
2878 Clouds 22 997 84 10000 0.81 177 22:50 27.06.2022
2879 Rain 23 997 83 10000 0.11 175 21:30 27.06.2022
2880 Rain 26 996 81 5981 0.09 282 20:38 27.06.2022
2881 Rain 24 997 78 10000 0.75 160 18:55 27.06.2022
2882 Clouds 26 997 73 8893 1.22 127 17:45 27.06.2022
2883 Clouds 26 995 55 10000 2.89 113 15:51 27.06.2022
2884 Clouds 26 995 51 10000 3.07 125 14:44 27.06.2022
2885 Clouds 28 993 41 10000 2.51 91 13:24 27.06.2022
2886 Clouds 29 993 41 10000 2.51 91 12:49 27.06.2022
2887 Clouds 28 994 36 10000 2.38 67 10:22 27.06.2022
2888 Clouds 28 994 37 10000 3.17 61 08:43 27.06.2022
2889 Clouds 31 995 39 10000 3.12 55 07:53 27.06.2022
2890 Clouds 29 996 43 10000 3.39 33 06:37 27.06.2022
2891 Rain 24 1000 79 10000 1.93 20 01:54 27.06.2022
2892 Rain 25 1000 78 10000 1.66 61 23:39 26.06.2022
2893 Clouds 26 1000 68 10000 2.65 48 21:51 26.06.2022
2894 Clouds 25 1000 69 10000 2.7 36 20:34 26.06.2022
2895 Rain 25 1002 74 10000 2.82 36 19:22 26.06.2022
2896 Rain 25 1002 73 10000 2.29 74 18:24 26.06.2022
2897 Clouds 25 1003 66 10000 2.73 138 15:53 26.06.2022
2898 Clouds 30 1002 55 10000 4.11 137 14:34 26.06.2022
2899 Clouds 30 999 43 10000 2.72 139 13:29 26.06.2022
2900 Clouds 31 999 43 10000 2.72 139 12:44 26.06.2022
2901 Clouds 32 999 36 10000 3.01 84 10:53 26.06.2022
2902 Clouds 32 999 37 10000 3.29 67 10:23 26.06.2022
2903 Clouds 31 1000 42 10000 3.06 70 08:45 26.06.2022
2904 Clouds 30 1001 38 10000 2.56 93 07:18 26.06.2022
2905 Clouds 29 1000 40 10000 4.27 59 00:45 26.06.2022
2906 Clouds 28 1000 41 10000 3.74 62 00:20 26.06.2022
2907 Clouds 28 1000 41 10000 3.74 62 23:33 25.06.2022
2908 Clouds 28 1000 41 10000 3.74 62 23:33 25.06.2022
2909 Clouds 28 999 42 10000 3.5 55 22:51 25.06.2022
2910 Clouds 29 998 42 10000 3.42 46 22:25 25.06.2022
2911 Clouds 29 997 39 10000 3.14 44 21:22 25.06.2022
2912 Clouds 30 997 39 10000 3.14 44 20:54 25.06.2022
2913 Clouds 29 997 36 10000 2.76 47 20:25 25.06.2022
2914 Clouds 32 995 33 10000 3.08 34 18:42 25.06.2022
2915 Clouds 33 995 29 10000 1.57 40 17:28 25.06.2022
2916 Clouds 33 995 29 10000 1.57 40 16:31 25.06.2022
2917 Clouds 32 994 25 10000 3.8 84 14:47 25.06.2022
2918 Clouds 34 991 15 10000 1.71 350 12:56 25.06.2022
2919 Clouds 36 991 15 10000 1.71 350 12:37 25.06.2022
2920 Clouds 37 989 10 10000 0.76 208 09:40 25.06.2022
2921 Clouds 37 990 10 10000 1.43 227 08:56 25.06.2022
2922 Clouds 36 991 11 10000 1.56 226 08:28 25.06.2022
2923 Clouds 34 992 12 10000 1.64 268 06:46 25.06.2022
2924 Clouds 27 995 23 10000 1.44 20 01:53 25.06.2022
2925 Clouds 21 995 28 10000 1.48 22 00:20 25.06.2022
2926 Clouds 20 995 28 10000 1.09 349 22:31 24.06.2022
2927 Clear 20 994 25 10000 0.99 251 21:29 24.06.2022
2928 Clear 21 995 24 10000 0.95 226 20:25 24.06.2022
2929 Clear 22 995 23 10000 0.29 166 19:43 24.06.2022
2930 Clear 22 996 23 10000 0.07 244 19:18 24.06.2022
2931 Clear 23 996 23 10000 0.07 244 18:47 24.06.2022
2932 Clear 24 996 22 10000 0.43 204 18:29 24.06.2022
2933 Clear 29 996 22 10000 0.91 69 16:52 24.06.2022
2934 Clear 30 995 19 10000 1.57 90 15:27 24.06.2022
2935 Clear 31 994 16 10000 1.49 69 14:25 24.06.2022
2936 Clear 31 994 15 10000 0.95 124 13:46 24.06.2022
2937 Clear 38 994 11 10000 3.4 305 11:42 24.06.2022
2938 Clear 38 994 11 10000 3.94 299 10:43 24.06.2022
2939 Clear 38 994 12 10000 3.63 281 09:42 24.06.2022
2940 Clear 38 995 13 10000 3.62 286 08:58 24.06.2022
2941 Clear 37 995 13 10000 3.62 286 08:40 24.06.2022
2942 Clear 35 997 15 10000 5.41 300 06:47 24.06.2022
2943 Clear 35 998 16 10000 4.49 308 06:27 24.06.2022
2944 Clear 33 998 17 10000 4.32 321 05:21 24.06.2022
2945 Clear 25 999 27 10000 3.02 348 00:47 24.06.2022
2946 Clear 19 999 33 10000 2.77 349 22:44 23.06.2022
2947 Clear 21 998 35 10000 2.88 358 21:43 23.06.2022
2948 Clear 22 997 34 10000 2.23 351 20:43 23.06.2022
2949 Clear 24 997 36 10000 2.71 337 19:57 23.06.2022
2950 Clear 27 997 37 10000 3.01 332 18:43 23.06.2022
2951 Clear 27 997 37 10000 2.35 297 17:37 23.06.2022
2952 Clear 26 997 38 10000 2.02 295 16:32 23.06.2022
2953 Clear 27 997 38 10000 1.86 322 15:27 23.06.2022
2954 Clear 25 997 38 10000 1.86 322 14:51 23.06.2022
2955 Clouds 28 995 23 10000 3.74 264 11:54 23.06.2022
2956 Clear 27 995 20 10000 7.15 304 10:56 23.06.2022
2957 Clear 36 994 14 10000 1.68 224 09:20 23.06.2022
2958 Clear 32 997 18 10000 1.43 359 05:48 23.06.2022
2959 Clear 25 1000 65 10000 3.26 347 01:22 23.06.2022
2960 Clear 22 999 76 10000 2.62 352 00:25 23.06.2022
2961 Clear 22 999 82 10000 2.14 349 23:22 22.06.2022
2962 Clear 23 998 84 10000 2 342 21:44 22.06.2022
2963 Clear 23 998 86 10000 1.84 357 20:52 22.06.2022
2964 Clouds 23 999 87 10000 1.94 360 20:20 22.06.2022
2965 Clouds 23 999 87 10000 1.94 360 19:44 22.06.2022
2966 Clouds 23 1000 84 10000 1.91 359 17:50 22.06.2022
2967 Clouds 24 1000 84 10000 2.15 4 16:50 22.06.2022
2968 Clouds 24 1001 82 10000 2.54 21 15:29 22.06.2022
2969 Clouds 24 1001 82 10000 2.54 21 14:57 22.06.2022
2970 Clouds 24 1001 83 10000 3.07 22 13:49 22.06.2022
2971 Clouds 24 1001 83 10000 3.97 23 13:24 22.06.2022
2972 Clouds 25 1001 83 10000 3.97 23 12:31 22.06.2022
2973 Rain 25 1001 81 10000 4.41 11 11:45 22.06.2022
2974 Clouds 25 1000 80 10000 4.94 16 10:50 22.06.2022
2975 Rain 25 1000 73 10000 3.97 22 09:42 22.06.2022
2976 Clouds 24 1001 63 10000 5.14 359 07:22 22.06.2022
2977 Rain 25 1001 53 10000 2.74 49 02:39 22.06.2022
2978 Clouds 26 1000 54 10000 2.43 81 00:57 22.06.2022
2979 Clouds 26 1000 54 10000 2.47 77 22:57 21.06.2022
2980 Clouds 26 1000 50 10000 2.79 59 21:21 21.06.2022
2981 Clouds 26 1000 53 10000 4.13 79 19:30 21.06.2022
2982 Clouds 27 1000 50 10000 4.32 77 17:56 21.06.2022
2983 Clouds 27 1000 45 10000 3.97 69 16:49 21.06.2022
2984 Clouds 32 995 20 10000 1.84 141 12:23 21.06.2022
2985 Clouds 33 995 17 10000 2.36 170 10:47 21.06.2022
2986 Clouds 33 995 17 10000 2.35 203 09:35 21.06.2022
2987 Clouds 33 996 20 10000 3.98 243 07:56 21.06.2022
2988 Clouds 31 999 31 10000 0.46 69 04:59 21.06.2022
2989 Clouds 26 999 51 10000 2.04 42 00:31 21.06.2022
2990 Clouds 25 999 48 10000 1.61 36 22:22 20.06.2022
2991 Clouds 26 999 48 10000 1.61 36 21:41 20.06.2022
2992 Rain 27 998 47 10000 1.39 42 20:30 20.06.2022
2993 Clouds 28 998 46 10000 2.18 44 19:37 20.06.2022
2994 Clouds 28 998 45 10000 2.06 35 18:43 20.06.2022
2995 Clouds 28 998 44 10000 1.99 36 17:50 20.06.2022
2996 Clouds 29 998 44 10000 1.62 14 16:53 20.06.2022
2997 Rain 29 998 43 10000 1.98 37 15:52 20.06.2022
2998 Clouds 34 997 28 10000 4.21 358 12:37 20.06.2022
2999 Clouds 34 996 28 10000 3.27 285 10:32 20.06.2022
3000 Clouds 33 996 25 10000 3.48 235 08:56 20.06.2022
3001 Clouds 32 998 28 10000 2.07 195 07:53 20.06.2022
3002 Clouds 30 1001 41 10000 1.33 215 05:26 20.06.2022
3003 Clouds 24 1003 61 10000 1.12 143 01:33 20.06.2022
3004 Clear 23 1003 72 10000 1.23 123 00:25 20.06.2022
3005 Clouds 23 1003 75 10000 1.64 110 22:46 19.06.2022
3006 Clouds 24 1003 73 10000 1.89 96 21:51 19.06.2022
3007 Clouds 24 1003 73 10000 1.89 96 21:31 19.06.2022
3008 Clear 25 1003 71 10000 2.19 93 20:38 19.06.2022
3009 Clouds 25 1003 66 10000 2.05 123 19:47 19.06.2022
3010 Clouds 26 1004 64 10000 2.72 125 18:43 19.06.2022
3011 Clouds 26 1004 61 10000 2.66 123 17:48 19.06.2022
3012 Clouds 27 1004 59 10000 3.07 134 17:22 19.06.2022
3013 Clouds 28 1004 59 10000 3.07 134 16:35 19.06.2022
3014 Clouds 29 1003 56 10000 3.58 137 15:41 19.06.2022
3015 Clouds 29 1002 49 10000 4.89 135 14:57 19.06.2022
3016 Clear 30 1000 44 10000 4.62 142 14:19 19.06.2022
3017 Clear 30 1000 35 10000 3.34 174 13:21 19.06.2022
3018 Clear 31 1000 32 10000 2.95 176 10:55 19.06.2022
3019 Clear 31 1001 33 10000 2.59 169 09:58 19.06.2022
3020 Clear 31 1001 34 10000 2.37 163 08:47 19.06.2022
3021 Clear 31 1002 36 10000 2.12 163 08:19 19.06.2022
3022 Clear 28 1004 40 10000 2.14 145 05:37 19.06.2022
3023 Clear 25 1006 59 10000 2.1 93 02:26 19.06.2022
3024 Clear 23 1006 67 10000 1.75 70 00:25 19.06.2022
3025 Clear 22 1006 67 10000 1.75 70 23:36 18.06.2022
3026 Clear 22 1006 67 10000 1.75 70 23:36 18.06.2022
3027 Clear 21 1006 68 10000 1.59 74 22:44 18.06.2022
3028 Clear 22 1006 67 10000 1.37 79 21:38 18.06.2022
3029 Clear 24 1005 67 10000 1.54 105 20:42 18.06.2022
3030 Clouds 25 1005 63 10000 1.91 105 19:40 18.06.2022
3031 Clouds 25 1005 62 10000 3.03 103 18:53 18.06.2022
3032 Clouds 26 1005 61 10000 3.39 114 17:35 18.06.2022
3033 Clouds 26 1005 58 10000 3.03 117 16:59 18.06.2022
3034 Clouds 28 1004 54 10000 3.93 120 15:37 18.06.2022
3035 Clouds 29 1004 51 10000 3.61 144 14:46 18.06.2022
3036 Clouds 30 1001 43 10000 4.14 133 13:30 18.06.2022
3037 Clouds 31 999 32 10000 2.47 122 11:56 18.06.2022
3038 Clouds 32 999 32 10000 2.81 123 10:56 18.06.2022
3039 Clouds 32 999 32 10000 2.81 123 10:56 18.06.2022
3040 Clouds 32 1000 33 10000 2.55 117 09:28 18.06.2022
3041 Clouds 31 1000 33 10000 2.55 117 08:32 18.06.2022
3042 Clouds 30 1001 36 10000 1.77 127 07:23 18.06.2022
3043 Clouds 28 1002 48 10000 1.51 114 03:58 18.06.2022
3044 Clouds 24 1002 64 10000 1.86 37 01:26 18.06.2022
3045 Clouds 24 1002 64 10000 1.86 37 00:49 18.06.2022
3046 Clouds 21 1002 69 10000 1.7 42 23:59 17.06.2022
3047 Clouds 22 1002 72 10000 1.68 60 23:29 17.06.2022
3048 Clouds 23 1001 71 10000 1.79 70 21:33 17.06.2022
3049 Clouds 23 1001 67 10000 1.89 78 20:26 17.06.2022
3050 Clouds 24 1002 66 10000 2.95 85 18:52 17.06.2022
3051 Clouds 25 1002 62 10000 3.63 93 17:46 17.06.2022
3052 Clouds 26 1001 58 10000 3.89 103 16:43 17.06.2022
3053 Clouds 27 1000 53 10000 4.16 111 16:19 17.06.2022
3054 Clouds 28 1000 53 10000 4.16 111 15:37 17.06.2022
3055 Clouds 28 998 43 10000 3.29 143 14:21 17.06.2022
3056 Clouds 29 999 42 10000 3.36 116 13:51 17.06.2022
3057 Clouds 29 999 42 10000 3.36 116 13:31 17.06.2022
3058 Clouds 30 997 31 10000 2.92 182 11:59 17.06.2022
3059 Clouds 30 997 31 10000 2.92 182 11:39 17.06.2022
3060 Clouds 30 997 30 10000 3.23 188 11:21 17.06.2022
3061 Clouds 30 999 32 10000 2.61 185 08:38 17.06.2022
3062 Clouds 30 1000 32 10000 2.18 181 07:53 17.06.2022
3063 Clouds 29 1001 34 10000 2.64 164 06:34 17.06.2022
3064 Clear 25 1003 47 10000 2.59 71 03:24 17.06.2022
3065 Clear 22 1003 60 10000 2 34 00:46 17.06.2022
3066 Clear 20 1003 66 10000 1.85 30 23:30 16.06.2022
3067 Clear 20 1002 68 10000 1.9 56 22:38 16.06.2022
3068 Clear 20 1002 68 10000 1.9 56 22:38 16.06.2022
3069 Clear 20 1003 63 10000 1.98 48 21:19 16.06.2022
3070 Clear 20 1003 63 10000 1.98 48 20:50 16.06.2022
3071 Clear 20 1002 48 10000 1.92 71 20:21 16.06.2022
3072 Clear 23 1003 48 10000 1.33 92 18:51 16.06.2022
3073 Clear 23 1002 48 10000 1.54 118 17:50 16.06.2022
3074 Clear 23 1002 48 10000 1.54 118 17:49 16.06.2022
3075 Clear 23 1002 50 10000 1.98 109 17:27 16.06.2022
3076 Clear 23 1002 51 10000 2.75 104 16:20 16.06.2022
3077 Clear 24 1001 47 10000 3 104 15:21 16.06.2022
3078 Clouds 27 1000 40 10000 1.81 87 14:27 16.06.2022
3079 Rain 28 999 28 10000 1.19 115 12:53 16.06.2022
3080 Clouds 28 999 28 10000 1.19 115 12:34 16.06.2022
3081 Clouds 29 998 26 10000 1.32 186 11:48 16.06.2022
3082 Clouds 29 999 26 10000 2.36 193 10:41 16.06.2022
3083 Clouds 29 1000 27 10000 3.07 211 09:43 16.06.2022
3084 Clouds 28 1000 28 10000 3.76 214 08:59 16.06.2022
3085 Clouds 29 1001 30 10000 4.2 204 07:42 16.06.2022
3086 Clouds 27 1002 33 10000 3.34 192 06:36 16.06.2022
3087 Clouds 25 1004 52 10000 1.05 143 04:24 16.06.2022
3088 Rain 22 1005 67 10000 1.4 59 01:53 16.06.2022
3089 Clouds 22 1005 74 10000 1.6 56 01:29 16.06.2022
3090 Clouds 21 1005 77 10000 1.73 39 00:29 16.06.2022
3091 Clouds 20 1005 77 10000 1.98 88 22:59 15.06.2022
3092 Rain 21 1006 76 10000 1.01 59 21:55 15.06.2022
3093 Clouds 21 1005 73 10000 2.02 91 21:20 15.06.2022
3094 Clouds 21 1005 73 10000 2.02 91 20:37 15.06.2022
3095 Clouds 21 1006 71 10000 1.93 103 20:18 15.06.2022
3096 Clouds 22 1005 65 10000 2.43 98 18:47 15.06.2022
3097 Clouds 23 1005 63 10000 2.3 116 17:54 15.06.2022
3098 Clouds 24 1005 60 10000 3.05 122 16:37 15.06.2022
3099 Clouds 24 1005 53 10000 2.83 123 15:23 15.06.2022
3100 Clouds 26 1003 42 10000 2.88 149 13:37 15.06.2022
3101 Clouds 26 1003 39 10000 3.24 170 12:51 15.06.2022
3102 Clear 27 1003 36 10000 3.07 170 11:42 15.06.2022
3103 Clear 27 1004 36 10000 3.01 167 10:23 15.06.2022
3104 Clear 27 1004 36 10000 3.01 167 09:37 15.06.2022
3105 Clouds 26 1005 39 10000 2.81 166 08:27 15.06.2022
3106 Clouds 24 1007 44 10000 2.53 174 06:33 15.06.2022
3107 Clouds 22 1009 58 10000 1.65 133 03:30 15.06.2022
3108 Clouds 20 1008 72 10000 1.9 122 01:38 15.06.2022
3109 Clouds 19 1008 77 10000 1.94 118 00:50 15.06.2022
3110 Clouds 19 1008 81 10000 1.99 105 23:39 14.06.2022
3111 Clouds 19 1007 83 10000 2.07 99 22:52 14.06.2022
3112 Clouds 19 1007 82 10000 1.74 103 21:53 14.06.2022
3113 Clouds 19 1007 81 10000 1.57 105 21:27 14.06.2022
3114 Clouds 20 1007 81 10000 1.57 105 20:48 14.06.2022
3115 Clouds 20 1007 81 10000 1.74 98 20:28 14.06.2022
3116 Clouds 20 1007 83 10000 2.26 108 18:45 14.06.2022
3117 Clouds 20 1006 74 10000 3.74 119 17:29 14.06.2022
3118 Clouds 20 1006 74 10000 3.74 119 16:43 14.06.2022
3119 Clouds 20 1006 65 10000 3.84 125 15:49 14.06.2022
3120 Clouds 20 1005 53 10000 3.28 121 14:57 14.06.2022
3121 Clouds 21 1004 45 10000 2.93 115 14:23 14.06.2022
3122 Clouds 22 1004 56 10000 4.45 120 13:39 14.06.2022
3123 Clouds 24 1003 36 10000 1.35 47 12:27 14.06.2022
3124 Clouds 26 1003 32 10000 1.11 47 11:27 14.06.2022
3125 Clouds 27 1003 32 10000 1.11 47 10:35 14.06.2022
3126 Clouds 27 1003 31 10000 0.73 108 09:45 14.06.2022
3127 Clouds 26 1003 30 10000 1.37 101 08:41 14.06.2022
3128 Clouds 26 1005 35 10000 1.55 80 07:26 14.06.2022
3129 Clouds 25 1006 47 10000 1.76 79 04:35 14.06.2022
3130 Clouds 21 1006 62 10000 1.9 68 02:43 14.06.2022
3131 Clouds 18 1005 83 10000 1.9 75 00:27 14.06.2022
3132 Clouds 18 1005 86 10000 2.02 92 23:18 13.06.2022
3133 Clouds 17 1004 83 10000 2.04 100 22:25 13.06.2022
3134 Clouds 17 1004 83 10000 2.04 100 21:43 13.06.2022
3135 Clouds 18 1004 83 10000 1.17 97 20:19 13.06.2022
3136 Clouds 18 1004 79 10000 1.59 76 19:26 13.06.2022
3137 Clouds 19 1004 73 10000 1.41 57 17:57 13.06.2022
3138 Clouds 18 1004 73 10000 1.41 57 17:36 13.06.2022
3139 Clouds 19 1004 66 10000 0.96 55 16:39 13.06.2022
3140 Clouds 20 1004 63 10000 1.52 96 15:20 13.06.2022
3141 Clouds 21 1003 54 10000 1.68 88 14:41 13.06.2022
3142 Clouds 21 1002 52 10000 2.58 105 13:41 13.06.2022
3143 Clouds 22 1001 49 10000 3.54 106 12:31 13.06.2022
3144 Clouds 22 1000 39 10000 2.11 65 11:25 13.06.2022
3145 Clouds 22 1000 41 10000 2.57 80 10:26 13.06.2022
3146 Clouds 23 1000 32 10000 1.24 149 09:23 13.06.2022
3147 Clouds 21 1001 40 10000 1.62 118 07:38 13.06.2022
3148 Clouds 20 1002 44 10000 2 87 05:42 13.06.2022
3149 Clouds 19 1004 70 10000 1.96 47 02:50 13.06.2022
3150 Clouds 18 1004 77 10000 1.77 54 01:37 13.06.2022
3151 Clouds 17 1004 86 10000 1.22 52 00:18 13.06.2022
3152 Clouds 16 1003 88 10000 1.51 57 23:24 12.06.2022
3153 Clouds 16 1003 89 10000 1.55 89 22:22 12.06.2022
3154 Clouds 17 1004 89 10000 1.73 35 21:22 12.06.2022
3155 Clouds 17 1004 88 10000 0.81 46 20:29 12.06.2022
3156 Clouds 16 1004 88 10000 0.81 46 19:30 12.06.2022
3157 Clouds 16 1004 88 10000 0.81 46 19:30 12.06.2022
3158 Rain 17 1005 89 10000 1.75 33 17:51 12.06.2022
3159 Clouds 18 1005 89 10000 4.16 80 16:24 12.06.2022
3160 Clouds 17 1004 86 10000 3.51 70 14:58 12.06.2022
3161 Clouds 25 1002 67 10000 0.28 60 14:23 12.06.2022
3162 Clouds 25 1002 67 10000 0.28 60 13:55 12.06.2022
3163 Clouds 26 1002 59 10000 2.22 155 12:40 12.06.2022
3164 Clouds 26 1002 60 10000 3.27 143 11:39 12.06.2022
3165 Clouds 27 1002 57 10000 1.82 216 10:22 12.06.2022
3166 Clouds 26 1003 55 10000 1.94 191 08:55 12.06.2022
3167 Clouds 25 1003 55 10000 1.94 191 08:36 12.06.2022
3168 Clouds 24 1004 60 10000 2.45 169 07:33 12.06.2022
3169 Rain 22 1006 79 10000 1.83 175 04:45 12.06.2022
3170 Clouds 21 1007 88 10000 2.16 153 03:24 12.06.2022
3171 Rain 20 1007 89 10000 2.17 140 01:42 12.06.2022
3172 Rain 20 1007 90 10000 2.22 137 00:58 12.06.2022
3173 Clouds 19 1007 90 10000 1.99 138 00:20 12.06.2022
3174 Rain 19 1007 90 10000 1.99 138 23:44 11.06.2022
3175 Rain 19 1007 92 10000 1.65 141 22:38 11.06.2022
3176 Clouds 19 1007 93 10000 1.72 135 21:52 11.06.2022
3177 Rain 19 1007 93 10000 2.89 128 20:37 11.06.2022
3178 Rain 19 1008 92 10000 3.08 117 19:46 11.06.2022
3179 Rain 19 1008 93 5291 3.37 95 19:25 11.06.2022
3180 Rain 19 1008 93 5291 3.37 95 18:33 11.06.2022
3181 Rain 20 1009 92 4471 2.63 78 17:51 11.06.2022
3182 Rain 20 1010 90 5334 2.51 47 17:27 11.06.2022
3183 Rain 20 1010 90 5334 2.51 47 16:56 11.06.2022
3184 Clouds 20 1010 91 5596 3.36 30 16:29 11.06.2022
3185 Rain 20 1010 91 5596 3.36 30 15:42 11.06.2022
3186 Rain 22 1009 73 7414 1.82 349 13:53 11.06.2022
3187 Clouds 23 1005 52 10000 3.49 103 12:51 11.06.2022
3188 Clouds 25 1003 37 10000 5.35 137 10:48 11.06.2022
3189 Clouds 26 1005 37 10000 5.47 143 09:55 11.06.2022
3190 Clouds 26 1006 40 10000 5.39 135 09:19 11.06.2022
3191 Clouds 25 1008 53 10000 0.96 183 07:41 11.06.2022
3192 Clouds 24 1009 47 10000 2.29 168 06:30 11.06.2022
3193 Rain 23 1011 52 10000 3.18 128 04:49 11.06.2022
3194 Clouds 21 1011 65 10000 2.68 119 01:53 11.06.2022
3195 Clouds 21 1011 65 10000 2.68 119 01:33 11.06.2022
3196 Rain 20 1011 71 10000 3.07 112 00:20 11.06.2022
3197 Clouds 20 1011 71 10000 3.58 108 22:32 10.06.2022
3198 Clouds 20 1010 69 10000 3.02 109 21:52 10.06.2022
3199 Clouds 20 1010 68 10000 2.67 99 20:42 10.06.2022
3200 Clouds 20 1010 69 10000 2.63 118 20:22 10.06.2022
3201 Clouds 20 1010 69 10000 2.63 118 19:38 10.06.2022
3202 Clouds 20 1010 68 10000 2.47 107 19:18 10.06.2022
3203 Clouds 20 1010 68 10000 2.06 114 18:18 10.06.2022
3204 Rain 24 1010 68 10000 2.06 114 17:35 10.06.2022
3205 Clouds 24 1010 66 10000 2.3 123 16:51 10.06.2022
3206 Clouds 24 1010 64 10000 3.23 113 15:45 10.06.2022
3207 Rain 25 1011 61 10000 3.45 95 14:57 10.06.2022
3208 Clouds 26 1009 60 10000 4.74 110 13:41 10.06.2022
3209 Clouds 27 1007 45 10000 6.29 137 12:24 10.06.2022
3210 Clouds 28 1007 45 10000 6.29 137 11:30 10.06.2022
3211 Clouds 29 1006 41 10000 6.21 148 10:36 10.06.2022
3212 Clouds 28 1005 39 10000 6.47 158 09:37 10.06.2022
3213 Clouds 27 1006 34 10000 2.82 173 08:23 10.06.2022
3214 Clouds 27 1007 34 10000 1.97 194 06:51 10.06.2022
3215 Clouds 27 1007 34 10000 1.97 194 06:32 10.06.2022
3216 Clouds 26 1008 37 10000 1.64 178 05:35 10.06.2022
3217 Clouds 24 1010 50 10000 1.62 106 02:54 10.06.2022
3218 Clouds 21 1010 57 10000 1.93 110 01:37 10.06.2022
3219 Clouds 17 1009 68 10000 2.04 57 23:58 09.06.2022
3220 Clouds 17 1009 71 10000 2.06 85 22:56 09.06.2022
3221 Clouds 19 1009 69 10000 2.02 94 21:46 09.06.2022
3222 Clouds 19 1009 66 10000 2.25 99 21:28 09.06.2022
3223 Clouds 20 1009 66 10000 2.25 99 20:40 09.06.2022
3224 Clouds 21 1009 68 10000 2.33 86 19:51 09.06.2022
3225 Clouds 22 1009 64 10000 2.86 100 18:43 09.06.2022
3226 Clouds 21 1008 60 10000 2.75 118 17:56 09.06.2022
3227 Clouds 21 1008 58 10000 3.36 127 16:38 09.06.2022
3228 Rain 23 1007 56 10000 4.41 122 15:42 09.06.2022
3229 Clouds 23 1006 49 10000 4.34 124 14:34 09.06.2022
3230 Clouds 24 1004 42 10000 4.67 138 13:46 09.06.2022
3231 Clouds 24 1003 36 10000 4.43 159 13:25 09.06.2022
3232 Clouds 24 1003 32 10000 4.82 172 11:53 09.06.2022
3233 Clouds 25 1003 31 10000 4.16 174 10:40 09.06.2022
3234 Clouds 24 1004 31 10000 3.67 182 09:41 09.06.2022
3235 Clouds 24 1005 32 10000 3.35 178 09:22 09.06.2022
3236 Clouds 22 1007 33 10000 3.47 179 07:29 09.06.2022
3237 Clouds 20 1009 39 10000 2.73 161 04:47 09.06.2022
3238 Clouds 18 1011 54 10000 2.17 129 01:43 09.06.2022
3239 Clouds 17 1011 68 10000 1.58 83 23:24 08.06.2022
3240 Clouds 18 1011 68 10000 1.58 83 22:50 08.06.2022
3241 Clouds 18 1010 68 10000 1.78 81 22:25 08.06.2022
3242 Clouds 18 1010 68 10000 1.78 81 21:48 08.06.2022
3243 Clear 18 1011 66 10000 2.03 95 20:33 08.06.2022
3244 Clear 19 1011 64 10000 2.03 116 19:47 08.06.2022
3245 Clear 19 1011 64 10000 1.83 121 18:56 08.06.2022
3246 Clear 19 1011 62 10000 2.09 129 18:22 08.06.2022
3247 Clear 20 1011 59 10000 2.73 135 16:30 08.06.2022
3248 Clear 20 1010 53 10000 3.85 105 14:49 08.06.2022
3249 Clouds 22 1008 40 10000 4.67 98 12:55 08.06.2022
3250 Clouds 23 1006 36 10000 5.14 106 11:50 08.06.2022
3251 Clouds 23 1006 34 10000 4.75 101 11:22 08.06.2022
3252 Clouds 23 1006 34 10000 4.72 97 09:46 08.06.2022
3253 Clouds 23 1006 34 10000 4.39 92 09:19 08.06.2022
3254 Clouds 23 1007 32 10000 2.86 90 07:30 08.06.2022
3255 Clouds 23 1009 37 10000 1.75 85 05:20 08.06.2022
3256 Clear 20 1010 52 10000 2.07 104 02:28 08.06.2022
3257 Clear 19 1009 63 10000 2.69 95 23:41 07.06.2022
3258 Clear 19 1009 66 10000 2.53 106 23:22 07.06.2022
3259 Clear 19 1009 66 10000 2.53 106 22:38 07.06.2022
3260 Clear 19 1008 65 10000 2.45 109 21:45 07.06.2022
3261 Clear 19 1008 64 10000 2.2 108 21:25 07.06.2022
3262 Clear 19 1008 64 10000 2.2 108 20:43 07.06.2022
3263 Clouds 20 1009 62 10000 2.46 116 20:23 07.06.2022
3264 Clouds 21 1009 57 10000 2.4 122 18:51 07.06.2022
3265 Clouds 22 1009 54 10000 1.21 149 17:54 07.06.2022
3266 Clouds 23 1008 47 10000 1.74 171 16:54 07.06.2022
3267 Clouds 23 1008 47 10000 1.74 171 16:32 07.06.2022
3268 Clouds 23 1007 39 10000 4.02 161 15:40 07.06.2022
3269 Clouds 23 1007 34 10000 4.49 172 15:22 07.06.2022
3270 Rain 23 1007 34 10000 4.49 172 14:46 07.06.2022
3271 Clouds 24 1005 29 10000 5.41 168 13:46 07.06.2022
3272 Clouds 24 1005 29 10000 5.41 168 13:46 07.06.2022
3273 Clouds 24 1004 25 10000 4.89 158 13:27 07.06.2022
3274 Clear 25 1003 23 10000 5.17 154 12:22 07.06.2022
3275 Clear 26 1003 23 10000 4.56 157 10:57 07.06.2022
3276 Clear 26 1004 23 10000 3.91 159 09:46 07.06.2022
3277 Clear 27 1005 23 10000 3.39 168 08:32 07.06.2022
3278 Clouds 26 1007 24 10000 3.25 197 07:21 07.06.2022
3279 Clouds 24 1008 25 10000 3.14 196 05:47 07.06.2022
3280 Clear 22 1010 34 10000 1.3 204 02:28 07.06.2022
3281 Clear 19 1010 38 10000 1.51 211 00:33 07.06.2022
3282 Clear 14 1010 41 10000 1.35 183 23:32 06.06.2022
3283 Clear 13 1010 44 10000 1.97 213 22:37 06.06.2022
3284 Clear 14 1009 43 10000 2.15 200 21:36 06.06.2022
3285 Clear 17 1009 41 10000 1.17 153 19:59 06.06.2022
3286 Clear 18 1009 40 10000 1.02 115 19:21 06.06.2022
3287 Clear 21 1009 40 10000 1.02 115 18:38 06.06.2022
3288 Clear 21 1009 38 10000 2.14 75 17:42 06.06.2022
3289 Clear 22 1009 36 10000 2.98 68 16:39 06.06.2022
3290 Clear 24 1009 34 10000 3.37 66 15:40 06.06.2022
3291 Clear 25 1007 31 10000 4.73 68 14:40 06.06.2022
3292 Clouds 27 1004 22 10000 3.37 62 13:27 06.06.2022
3293 Clouds 29 1004 22 10000 3.37 62 12:39 06.06.2022
3294 Clouds 29 1003 20 10000 2.73 107 12:20 06.06.2022
3295 Clouds 29 1003 20 10000 2.73 107 11:42 06.06.2022
3296 Clear 28 1003 20 10000 4.72 71 09:41 06.06.2022
3297 Clouds 29 1003 18 10000 5.37 52 08:35 06.06.2022
3298 Clouds 28 1003 16 10000 3.92 8 07:40 06.06.2022
3299 Clouds 26 1005 21 10000 4.47 8 05:34 06.06.2022
3300 Clouds 26 1005 26 10000 5.07 343 03:47 06.06.2022
3301 Clear 23 1004 35 10000 5.83 0 01:30 06.06.2022
3302 Clear 21 1004 35 10000 5.83 0 00:43 06.06.2022
3303 Clear 21 1004 37 10000 5.44 6 00:19 06.06.2022
3304 Clear 19 1003 36 10000 4.6 1 22:57 05.06.2022
3305 Clear 19 1002 35 10000 3.21 357 21:56 05.06.2022
3306 Clouds 22 1001 31 10000 4.34 352 20:23 05.06.2022
3307 Clouds 23 1001 29 10000 4.46 340 18:47 05.06.2022
3308 Clouds 24 1000 29 10000 5.54 330 17:58 05.06.2022
3309 Clouds 24 1000 29 10000 5.54 330 17:38 05.06.2022
3310 Clouds 24 1000 29 10000 6.31 326 17:19 05.06.2022
3311 Clouds 25 1000 29 10000 6.31 326 16:46 05.06.2022
3312 Clouds 27 999 23 10000 5.66 340 14:59 05.06.2022
3313 Clouds 28 998 21 10000 6.07 357 13:55 05.06.2022
3314 Clouds 33 996 14 10000 7.16 348 11:58 05.06.2022
3315 Clouds 34 996 11 10000 7.49 320 10:45 05.06.2022
3316 Clouds 35 996 9 10000 7.81 317 10:24 05.06.2022
3317 Clear 34 996 8 10000 7.34 314 09:21 05.06.2022
3318 Clear 35 997 7 10000 6.92 312 08:22 05.06.2022
3319 Clear 33 1001 9 10000 6.19 310 05:24 05.06.2022
3320 Clear 31 1001 9 10000 6.19 310 04:36 05.06.2022
3321 Clouds 27 1003 12 10000 5.38 315 02:23 05.06.2022
3322 Clear 24 1003 12 10000 4.34 309 01:23 05.06.2022
3323 Clear 24 1003 12 10000 4.34 309 01:23 05.06.2022
3324 Clouds 20 1003 13 10000 2.17 297 22:48 04.06.2022
3325 Clouds 19 1002 17 10000 1.63 325 21:25 04.06.2022
3326 Clouds 21 1002 21 10000 2.78 343 19:26 04.06.2022
3327 Clouds 21 1001 36 10000 0.99 319 16:48 04.06.2022
3328 Clouds 21 1001 38 10000 0.97 235 16:20 04.06.2022
3329 Clouds 22 1001 38 10000 0.97 235 15:35 04.06.2022
3330 Clouds 29 999 34 10000 2.88 111 13:59 04.06.2022
3331 Clouds 32 997 24 10000 2.9 128 11:38 04.06.2022
3332 Clouds 34 997 22 10000 2.62 142 10:52 04.06.2022
3333 Clouds 33 998 23 10000 2.45 153 09:56 04.06.2022
3334 Clouds 34 998 23 10000 2.45 153 09:38 04.06.2022
3335 Clouds 32 999 26 10000 2 150 08:38 04.06.2022
3336 Clouds 28 1002 35 10000 1.37 347 06:32 04.06.2022
3337 Clouds 23 1003 46 10000 3.63 333 03:52 04.06.2022
3338 Clouds 24 1002 46 10000 2.3 36 00:22 04.06.2022
3339 Clouds 24 1001 44 10000 1.53 49 22:57 03.06.2022
3340 Rain 24 1001 42 10000 1.25 80 21:53 03.06.2022
3341 Clouds 26 1000 40 10000 1.69 59 20:40 03.06.2022
3342 Clouds 27 1000 39 10000 2.78 56 19:37 03.06.2022
3343 Rain 28 1001 30 10000 2.75 1 16:58 03.06.2022
3344 Rain 29 1001 28 10000 3.04 343 15:55 03.06.2022
3345 Clouds 30 1000 25 10000 1.61 321 14:42 03.06.2022
3346 Clouds 32 996 13 10000 3.72 190 12:21 03.06.2022
3347 Clouds 34 997 12 10000 4.84 202 09:57 03.06.2022
3348 Clouds 33 998 11 10000 4.36 205 09:29 03.06.2022
3349 Clouds 34 998 11 10000 3.47 216 07:47 03.06.2022
3350 Clouds 32 999 12 10000 3.24 217 06:59 03.06.2022
3351 Clouds 31 1001 13 10000 2.8 222 06:28 03.06.2022
3352 Clouds 27 1002 18 10000 1.53 194 03:52 03.06.2022
3353 Clouds 19 1003 30 10000 1.95 43 23:53 02.06.2022
3354 Clouds 20 1003 31 10000 1.7 48 22:33 02.06.2022
3355 Clouds 20 1002 29 10000 1.95 104 20:57 02.06.2022
3356 Clouds 22 1002 27 10000 2.24 118 19:58 02.06.2022
3357 Clouds 21 1002 27 10000 2.24 118 19:39 02.06.2022
3358 Clouds 22 1002 23 10000 2.42 125 18:51 02.06.2022
3359 Clouds 27 1001 20 10000 2.9 183 16:30 02.06.2022
3360 Clouds 29 1001 18 10000 4.09 176 15:47 02.06.2022
3361 Clouds 33 999 17 10000 6.23 159 13:32 02.06.2022
3362 Clouds 34 998 14 10000 6.86 160 12:51 02.06.2022
3363 Clouds 37 998 8 10000 5.45 182 10:48 02.06.2022
3364 Clouds 37 998 8 10000 5.3 194 09:45 02.06.2022
3365 Clouds 36 998 9 10000 4.77 200 09:26 02.06.2022
3366 Clouds 35 999 10 10000 3.94 206 08:23 02.06.2022
3367 Clouds 33 1001 11 10000 2.04 206 06:21 02.06.2022
3368 Clear 28 1003 14 10000 1.18 72 03:51 02.06.2022
3369 Clear 24 1003 17 10000 2.4 36 01:33 02.06.2022
3370 Clear 15 1002 23 10000 1.48 12 23:22 01.06.2022
3371 Clear 15 1002 23 10000 1.29 344 22:18 01.06.2022
3372 Clear 16 1001 22 10000 1.26 302 21:25 01.06.2022
3373 Clear 17 1001 22 10000 1.26 302 20:39 01.06.2022
3374 Clouds 18 1001 21 10000 1.37 248 19:52 01.06.2022
3375 Clouds 19 1001 20 10000 2.41 230 18:52 01.06.2022
3376 Clouds 25 1001 19 10000 3.4 218 17:38 01.06.2022
3377 Clouds 28 1001 18 10000 5.4 217 15:56 01.06.2022
3378 Clear 30 1001 17 10000 5.79 210 14:50 01.06.2022
3379 Clear 31 1000 15 10000 5.28 206 13:39 01.06.2022
3380 Clear 34 998 7 10000 2.67 268 11:32 01.06.2022
3381 Clouds 36 999 6 10000 2.72 278 09:34 01.06.2022
3382 Clear 35 1000 7 10000 2.21 257 08:28 01.06.2022
3383 Clear 33 1002 9 10000 1.33 243 07:20 01.06.2022
3384 Clear 29 1005 16 10000 1.5 220 04:53 01.06.2022
3385 Clear 14 1006 34 10000 1.3 27 23:56 31.05.2022
3386 Clear 13 1005 36 10000 1.27 50 22:43 31.05.2022
3387 Clear 14 1004 35 10000 1.33 41 22:25 31.05.2022
3388 Clear 13 1004 35 10000 1.33 41 21:44 31.05.2022
3389 Clear 15 1004 34 10000 1.44 12 20:44 31.05.2022
3390 Clear 14 1004 34 10000 1.44 12 20:44 31.05.2022
3391 Clear 15 1004 34 10000 1.44 12 20:44 31.05.2022
3392 Clear 15 1004 34 10000 1.44 12 20:44 31.05.2022
3393 Clear 15 1004 33 10000 1.57 360 19:46 31.05.2022
3394 Clear 16 1004 28 10000 2.02 25 18:33 31.05.2022
3395 Clear 18 1003 26 10000 2.74 2 17:46 31.05.2022
3396 Clear 19 1002 23 10000 3.04 354 16:21 31.05.2022
3397 Clear 25 1002 23 10000 3.04 354 15:37 31.05.2022
3398 Clouds 26 997 17 10000 3.66 36 13:22 31.05.2022
3399 Clouds 28 996 17 10000 2.82 15 12:19 31.05.2022
3400 Clouds 28 996 15 10000 7.79 3 10:34 31.05.2022
3401 Clouds 29 994 9 10000 3.31 57 08:35 31.05.2022
3402 Clear 30 996 8 10000 2.33 209 06:38 31.05.2022
3403 Clear 27 999 10 10000 2.43 167 04:34 31.05.2022
3404 Clouds 13 1001 20 10000 1.56 67 23:46 30.05.2022
3405 Clouds 12 1001 21 10000 1.24 58 23:24 30.05.2022
3406 Clouds 11 1001 21 10000 1.24 58 22:42 30.05.2022
3407 Clouds 12 1001 20 10000 1.19 95 21:42 30.05.2022
3408 Clouds 12 1001 19 10000 1.27 81 21:21 30.05.2022
3409 Clouds 13 1002 17 10000 1.87 51 19:45 30.05.2022
3410 Clear 16 1002 13 10000 1.2 15 18:21 30.05.2022
3411 Clear 17 1002 12 10000 0.98 334 17:23 30.05.2022
3412 Clear 17 1002 12 10000 0.98 334 17:23 30.05.2022
3413 Clear 18 1002 12 10000 0.98 334 16:30 30.05.2022
3414 Clear 28 1000 9 10000 3.4 318 13:38 30.05.2022
3415 Clear 31 998 7 10000 4.82 319 11:40 30.05.2022
3416 Clear 32 999 8 10000 5.35 308 10:20 30.05.2022
3417 Clear 32 1000 8 10000 5.46 307 09:18 30.05.2022
3418 Clear 30 1003 9 10000 7.11 308 06:28 30.05.2022
3419 Clear 26 1004 11 10000 4.08 314 04:52 30.05.2022
3420 Clear 19 1006 12 10000 1.48 248 01:23 30.05.2022
3421 Clear 10 1006 14 10000 1.23 327 22:49 29.05.2022
3422 Clear 10 1006 13 10000 1.58 324 22:28 29.05.2022
3423 Clear 11 1007 12 10000 3.19 303 20:38 29.05.2022
3424 Clear 12 1007 12 10000 3.34 304 19:30 29.05.2022
3425 Clear 16 1007 13 10000 2.45 310 18:34 29.05.2022
3426 Clear 19 1007 12 10000 3.94 338 16:40 29.05.2022
3427 Clear 21 1006 12 10000 3.78 334 15:47 29.05.2022
3428 Clear 23 1005 11 10000 3.71 348 14:55 29.05.2022
3429 Clear 26 1002 10 10000 5.98 342 13:19 29.05.2022
3430 Clear 29 1000 9 10000 6.77 331 11:31 29.05.2022
3431 Clear 29 999 9 10000 6.92 330 10:37 29.05.2022
3432 Clear 28 998 12 10000 6.17 337 08:36 29.05.2022
3433 Clouds 25 1000 41 10000 7.5 332 04:59 29.05.2022
3434 Clouds 26 1000 41 10000 7.5 332 04:41 29.05.2022
3435 Clouds 27 995 29 10000 5.67 328 02:24 29.05.2022
3436 Clouds 24 993 28 10000 0.85 242 23:48 28.05.2022
3437 Clouds 25 992 29 10000 1.81 212 23:25 28.05.2022
3438 Clouds 26 991 28 10000 3.19 195 22:21 28.05.2022
3439 Clouds 26 991 27 10000 4.59 190 21:19 28.05.2022
3440 Clouds 28 990 20 10000 6.85 205 19:21 28.05.2022
3441 Clouds 28 990 20 10000 6.85 205 18:45 28.05.2022
3442 Clouds 30 990 18 10000 6.67 207 17:34 28.05.2022
3443 Clouds 30 990 16 10000 6.44 208 16:35 28.05.2022
3444 Clouds 31 990 14 10000 6.56 204 15:38 28.05.2022
3445 Clouds 33 988 12 10000 6.88 188 13:57 28.05.2022
3446 Clouds 34 988 9 10000 7.23 184 12:43 28.05.2022
3447 Clear 35 987 8 10000 6.63 184 11:54 28.05.2022
3448 Clear 36 988 7 10000 6.02 193 10:49 28.05.2022
3449 Clear 36 989 8 10000 4.49 207 09:56 28.05.2022
3450 Clear 34 990 8 10000 3.86 213 08:43 28.05.2022
3451 Clear 34 992 9 10000 3.44 175 07:23 28.05.2022
3452 Clear 31 994 9 10000 1.1 127 05:24 28.05.2022
3453 Clouds 26 995 10 10000 1.85 49 02:33 28.05.2022
3454 Clouds 18 995 13 10000 2.03 11 00:31 28.05.2022
3455 Clouds 18 994 15 10000 1.11 311 22:50 27.05.2022
3456 Clouds 19 994 14 10000 0.9 223 21:37 27.05.2022
3457 Clear 20 994 13 10000 1.99 236 20:48 27.05.2022
3458 Clouds 21 994 12 10000 3.62 217 20:21 27.05.2022
3459 Clouds 27 994 12 10000 3.62 217 19:41 27.05.2022
3460 Clouds 27 993 11 10000 3.43 214 19:21 27.05.2022
3461 Clouds 29 994 11 10000 3.89 218 17:34 27.05.2022
3462 Clouds 29 994 10 10000 4.82 209 16:36 27.05.2022
3463 Clouds 30 995 9 10000 4.84 194 15:20 27.05.2022
3464 Clouds 32 995 9 10000 5.18 178 13:44 27.05.2022
3465 Clouds 33 994 7 10000 2.59 187 12:35 27.05.2022
3466 Clouds 35 994 5 10000 3.02 223 11:33 27.05.2022
3467 Clouds 35 994 5 10000 3.02 223 10:52 27.05.2022
3468 Clouds 36 995 5 10000 3.56 212 10:22 27.05.2022
3469 Clouds 36 995 5 10000 3.56 212 09:31 27.05.2022
3470 Clear 35 997 6 10000 2.3 237 07:42 27.05.2022
3471 Clear 31 1000 8 10000 2.22 294 05:27 27.05.2022
3472 Clear 24 1002 13 10000 1.66 338 02:25 27.05.2022
3473 Clear 16 1002 20 10000 1.45 16 00:19 27.05.2022
3474 Clear 14 1002 22 10000 1.4 12 22:30 26.05.2022
3475 Clear 14 1001 22 10000 1.4 14 21:34 26.05.2022
3476 Clear 15 1001 21 10000 1.25 51 19:51 26.05.2022
3477 Clear 17 1001 18 10000 0.4 52 19:19 26.05.2022
3478 Clear 19 1001 17 10000 1.56 252 17:37 26.05.2022
3479 Clear 18 1001 16 10000 1.26 206 16:36 26.05.2022
3480 Clear 20 1001 14 10000 0.94 120 15:42 26.05.2022
3481 Clouds 22 999 10 10000 1.68 12 14:24 26.05.2022
3482 Clouds 33 998 9 10000 2.81 32 12:36 26.05.2022
3483 Clouds 35 997 7 10000 3.6 349 11:23 26.05.2022
3484 Clouds 35 998 7 10000 4.22 348 09:40 26.05.2022
3485 Clouds 35 998 7 10000 3.75 327 09:19 26.05.2022
3486 Clear 32 999 8 10000 3.15 302 07:51 26.05.2022
3487 Clear 28 1005 11 10000 4.68 329 03:35 26.05.2022
3488 Clear 16 1007 18 10000 1.5 310 00:21 26.05.2022
3489 Clear 12 1007 18 10000 1.5 310 23:39 25.05.2022
3490 Clear 12 1007 19 10000 1.1 320 21:47 25.05.2022
3491 Clear 13 1007 19 10000 1.13 313 21:28 25.05.2022
3492 Clear 13 1007 19 10000 1.13 313 20:34 25.05.2022
3493 Clouds 14 1008 17 10000 0.4 25 19:21 25.05.2022
3494 Clouds 19 1009 16 10000 0.6 125 17:33 25.05.2022
3495 Clouds 23 1009 14 10000 0.17 173 16:36 25.05.2022
3496 Clear 25 1010 13 10000 0.77 237 15:53 25.05.2022
3497 Clear 20 1010 12 10000 0.26 59 14:51 25.05.2022
3498 Clear 20 1010 12 10000 0.26 59 14:32 25.05.2022
3499 Clouds 25 1009 12 10000 1.88 54 13:35 25.05.2022
3500 Clouds 29 1008 10 10000 3.18 34 12:36 25.05.2022
3501 Clouds 31 1008 7 10000 3.14 341 10:43 25.05.2022
3502 Clouds 31 1008 7 10000 3.08 359 09:54 25.05.2022
3503 Clouds 30 1011 8 10000 4.28 32 08:23 25.05.2022
3504 Clear 29 1012 9 10000 4.33 31 07:22 25.05.2022
3505 Clear 24 1016 20 10000 5.03 17 03:22 25.05.2022
3506 Clouds 20 1015 31 10000 7.58 357 23:56 24.05.2022
3507 Clouds 20 1013 33 10000 6.91 358 23:25 24.05.2022
3508 Clouds 20 1012 30 10000 6.76 359 22:19 24.05.2022
3509 Clouds 22 1012 30 10000 6.76 359 21:39 24.05.2022
3510 Clouds 22 1011 30 10000 4.77 5 21:20 24.05.2022
3511 Clouds 23 1011 35 10000 2.95 11 19:45 24.05.2022
3512 Clouds 25 1010 36 10000 3.79 20 18:53 24.05.2022
3513 Clouds 24 1010 40 10000 6.25 14 16:42 24.05.2022
3514 Clouds 24 1008 50 10000 6.08 357 16:22 24.05.2022
3515 Clouds 23 1007 60 10000 5.55 1 14:56 24.05.2022
3516 Clouds 24 1006 62 10000 4.34 341 14:20 24.05.2022
3517 Clouds 30 1005 62 10000 1.68 102 12:49 24.05.2022
3518 Rain 31 1002 22 10000 4.95 241 11:26 24.05.2022
3519 Clear 32 1000 17 10000 6.64 188 09:44 24.05.2022
3520 Clear 33 1001 17 10000 6.31 192 08:50 24.05.2022
3521 Clouds 32 1005 17 10000 4.77 204 06:57 24.05.2022
3522 Clouds 27 1008 21 10000 4.21 208 03:56 24.05.2022
3523 Clear 23 1009 27 10000 1.53 211 01:53 24.05.2022
3524 Clear 22 1009 27 10000 1.53 211 01:33 24.05.2022
3525 Clear 17 1008 33 10000 0.91 149 22:55 23.05.2022
3526 Clear 18 1008 32 10000 1.56 143 21:55 23.05.2022
3527 Clear 18 1008 30 10000 1.59 156 21:29 23.05.2022
3528 Clear 19 1008 30 10000 1.59 156 20:35 23.05.2022
3529 Clouds 21 1007 27 10000 1.69 151 19:32 23.05.2022
3530 Clouds 23 1007 25 10000 2.01 185 18:58 23.05.2022
3531 Clouds 24 1007 25 10000 2.01 185 18:30 23.05.2022
3532 Clouds 25 1008 23 10000 3.39 207 17:20 23.05.2022
3533 Clear 23 1006 24 10000 3.03 169 15:31 23.05.2022
3534 Clouds 29 1004 18 10000 3.5 204 13:22 23.05.2022
3535 Clouds 33 1004 16 10000 5.93 198 11:33 23.05.2022
3536 Clouds 33 1004 16 10000 5.93 198 10:31 23.05.2022
3537 Clouds 33 1004 15 10000 5.84 198 09:39 23.05.2022
3538 Clouds 34 1004 14 10000 5.94 200 08:32 23.05.2022
3539 Clouds 33 1005 15 10000 4.94 197 06:46 23.05.2022
3540 Clouds 32 1006 18 10000 4.48 200 06:22 23.05.2022
3541 Clouds 25 1007 25 10000 1.42 218 02:35 23.05.2022
3542 Clouds 24 1007 28 10000 0.44 208 01:42 23.05.2022
3543 Clouds 21 1007 30 10000 0.22 113 00:38 23.05.2022
3544 Clouds 19 1005 33 10000 0.32 11 22:42 22.05.2022
3545 Clouds 21 1005 32 10000 0.44 201 21:55 22.05.2022
3546 Clouds 20 1005 32 10000 0.44 201 21:36 22.05.2022
3547 Clouds 22 1005 30 10000 0.86 185 20:37 22.05.2022
3548 Clouds 22 1005 42 10000 2.49 44 20:18 22.05.2022
3549 Clouds 24 1006 39 10000 2.55 40 18:57 22.05.2022
3550 Clouds 26 1005 36 10000 2.54 40 18:28 22.05.2022
3551 Clouds 24 1005 36 10000 2.54 40 17:39 22.05.2022
3552 Clouds 23 1005 34 10000 2.75 33 16:50 22.05.2022
3553 Clouds 28 1004 26 10000 2.46 29 14:53 22.05.2022
3554 Clouds 29 1003 20 10000 2.43 32 13:57 22.05.2022
3555 Clouds 30 1002 17 10000 0.82 56 12:53 22.05.2022
3556 Clouds 32 1000 13 10000 1.29 207 11:52 22.05.2022
3557 Clouds 32 1000 10 10000 5.01 193 10:27 22.05.2022
3558 Clear 33 1000 10 10000 4.77 189 09:19 22.05.2022
3559 Clouds 33 1001 11 10000 3.52 185 07:34 22.05.2022
3560 Clouds 33 1003 12 10000 2.85 189 06:40 22.05.2022
3561 Clear 27 1005 20 10000 1.94 28 03:20 22.05.2022
3562 Clouds 21 1005 26 10000 1.55 19 00:48 22.05.2022
3563 Clouds 17 1004 30 10000 1.62 27 23:56 21.05.2022
3564 Clear 16 1004 31 10000 1.79 15 23:22 21.05.2022
3565 Clear 18 1004 30 10000 1.4 351 21:59 21.05.2022
3566 Clear 20 1004 30 10000 1.4 351 21:30 21.05.2022
3567 Clouds 21 1003 29 10000 0.9 301 20:29 21.05.2022
3568 Clouds 23 1003 27 10000 0.75 324 19:43 21.05.2022
3569 Clouds 25 1003 26 10000 0.17 149 18:31 21.05.2022
3570 Clouds 27 1003 24 10000 1.51 246 16:57 21.05.2022
3571 Clear 29 1003 21 10000 2.75 229 14:39 21.05.2022
3572 Clouds 30 1002 20 10000 4.03 240 13:55 21.05.2022
3573 Clouds 32 1001 22 10000 6.18 237 13:19 21.05.2022
3574 Clouds 34 1001 22 10000 6.18 237 12:38 21.05.2022
3575 Clear 35 1000 10 10000 2.96 182 11:20 21.05.2022
3576 Clear 37 1001 10 10000 2.29 199 09:57 21.05.2022
3577 Clear 36 1001 10 10000 2.53 212 08:59 21.05.2022
3578 Clear 35 1001 10 10000 2.53 212 08:37 21.05.2022
3579 Clear 34 1005 14 10000 2.41 205 06:20 21.05.2022
3580 Clear 23 1007 29 10000 1.35 19 01:41 21.05.2022
3581 Clear 16 1007 37 10000 0.59 17 23:32 20.05.2022
3582 Clear 16 1006 38 10000 0.6 11 22:30 20.05.2022
3583 Clear 16 1006 37 10000 0.23 14 21:56 20.05.2022
3584 Clear 17 1006 36 10000 0.99 304 21:19 20.05.2022
3585 Clear 17 1006 36 10000 0.99 304 20:45 20.05.2022
3586 Clear 18 1006 34 10000 1.66 280 19:45 20.05.2022
3587 Clear 19 1006 34 10000 2.36 239 18:53 20.05.2022
3588 Clear 20 1006 32 10000 2.19 225 17:53 20.05.2022
3589 Clear 24 1006 28 10000 3.22 212 16:23 20.05.2022
3590 Clear 25 1006 28 10000 3.22 212 15:53 20.05.2022
3591 Clear 28 1006 25 10000 2.98 213 14:32 20.05.2022
3592 Clear 28 1005 24 10000 3.16 219 13:59 20.05.2022
3593 Clear 33 1004 17 10000 4.49 203 11:51 20.05.2022
3594 Clear 33 1004 15 10000 3.83 199 10:45 20.05.2022
3595 Clear 33 1005 14 10000 2.51 188 09:23 20.05.2022
3596 Clear 32 1006 16 10000 2.22 187 07:43 20.05.2022
3597 Clear 30 1007 19 10000 2.21 202 06:40 20.05.2022
3598 Clear 28 1009 21 10000 1.59 208 05:39 20.05.2022
3599 Clouds 21 1010 39 10000 2.46 10 01:29 20.05.2022
3600 Clouds 16 1010 45 10000 2.13 11 23:46 19.05.2022
3601 Clouds 17 1010 46 10000 2.05 6 22:35 19.05.2022
3602 Clouds 17 1010 46 10000 2.02 7 21:50 19.05.2022
3603 Clouds 18 1009 45 10000 1.93 11 21:23 19.05.2022
3604 Clouds 20 1009 45 10000 1.93 11 20:43 19.05.2022
3605 Clouds 18 1010 49 10000 2.71 14 19:54 19.05.2022
3606 Clouds 19 1010 48 10000 2.96 24 18:59 19.05.2022
3607 Clouds 24 1011 46 10000 2.52 17 17:36 19.05.2022
3608 Clouds 26 1010 41 10000 2.25 6 15:43 19.05.2022
3609 Clouds 27 1010 39 10000 2.01 11 14:39 19.05.2022
3610 Clouds 27 1010 39 10000 3.51 351 14:19 19.05.2022
3611 Clouds 29 1006 17 10000 3.71 216 11:54 19.05.2022
3612 Clouds 32 1006 16 10000 5.3 213 10:30 19.05.2022
3613 Clouds 31 1008 17 10000 5.45 206 08:39 19.05.2022
3614 Clouds 30 1010 19 10000 4.28 214 07:18 19.05.2022
3615 Clouds 22 1013 25 10000 1.87 218 03:41 19.05.2022
3616 Clouds 17 1014 34 10000 0.23 89 00:57 19.05.2022
3617 Clouds 14 1013 37 10000 0.53 95 23:35 18.05.2022
3618 Clouds 16 1013 37 10000 0.98 68 22:43 18.05.2022
3619 Clouds 15 1013 36 10000 0.92 117 21:42 18.05.2022
3620 Clouds 15 1013 34 10000 1.12 135 21:20 18.05.2022
3621 Clouds 18 1013 32 10000 1.57 172 20:19 18.05.2022
3622 Clouds 21 1013 30 10000 2.6 202 18:53 18.05.2022
3623 Clouds 21 1013 30 10000 2.6 202 18:53 18.05.2022
3624 Clouds 23 1013 28 10000 3.64 201 17:42 18.05.2022
3625 Clouds 23 1013 27 10000 3.79 194 17:24 18.05.2022
3626 Clouds 22 1013 27 10000 3.79 194 16:53 18.05.2022
3627 Clouds 20 1013 23 10000 3.75 196 15:52 18.05.2022
3628 Clouds 21 1013 23 10000 3.75 196 15:33 18.05.2022
3629 Clouds 24 1012 20 10000 4.48 193 14:21 18.05.2022
3630 Clouds 29 1010 14 10000 3.88 186 12:54 18.05.2022
3631 Clouds 30 1010 11 10000 3.7 187 11:48 18.05.2022
3632 Clouds 30 1010 11 10000 3.7 187 11:30 18.05.2022
3633 Clouds 31 1010 9 10000 3.15 180 10:43 18.05.2022
3634 Clouds 32 1011 9 10000 2.1 155 07:59 18.05.2022
3635 Clouds 30 1012 9 10000 1.34 136 07:27 18.05.2022
3636 Clouds 25 1014 14 10000 1.85 22 03:40 18.05.2022
3637 Clouds 15 1012 22 10000 3.07 353 00:42 18.05.2022
3638 Clear 11 1011 26 10000 2.56 352 23:33 17.05.2022
3639 Clear 13 1009 36 10000 1.48 352 21:21 17.05.2022
3640 Clear 14 1009 36 10000 1.48 352 20:43 17.05.2022
3641 Clear 15 1009 30 10000 1.88 3 19:31 17.05.2022
3642 Clear 16 1008 29 10000 1.93 45 18:46 17.05.2022
3643 Clear 16 1007 25 10000 2.45 47 17:34 17.05.2022
3644 Clear 16 1006 22 10000 2.5 24 16:55 17.05.2022
3645 Clear 18 1005 19 10000 2.67 357 15:58 17.05.2022
3646 Clear 20 1004 16 10000 1.28 339 14:55 17.05.2022
3647 Clouds 21 1003 15 10000 0.5 319 14:28 17.05.2022
3648 Clouds 27 1002 14 10000 2.16 330 12:39 17.05.2022
3649 Clouds 28 1001 12 10000 2.8 274 10:39 17.05.2022
3650 Clear 30 1001 9 10000 5.99 201 08:51 17.05.2022
3651 Clouds 30 1002 9 10000 4.86 192 07:46 17.05.2022
3652 Clouds 27 1005 12 10000 1.65 108 06:23 17.05.2022
3653 Clear 18 1007 27 10000 2.41 36 01:23 17.05.2022
3654 Clear 11 1006 30 10000 2.02 48 23:43 16.05.2022
3655 Clouds 14 1006 29 10000 1.75 65 22:33 16.05.2022
3656 Clear 16 1005 24 10000 2.27 129 21:18 16.05.2022
3657 Clear 16 1005 24 10000 2.27 129 20:42 16.05.2022
3658 Clouds 21 1005 20 10000 3.99 198 18:51 16.05.2022
3659 Clouds 19 1005 18 10000 4.72 194 17:18 16.05.2022
3660 Clouds 19 1005 18 10000 4.72 194 17:18 16.05.2022
3661 Clouds 20 1005 16 10000 4.47 170 15:29 16.05.2022
3662 Clouds 24 1004 15 10000 4.19 151 13:48 16.05.2022
3663 Clouds 28 1003 13 10000 3.82 143 12:41 16.05.2022
3664 Clouds 29 1003 9 10000 0.97 152 10:36 16.05.2022
3665 Clouds 28 1005 8 10000 2.6 276 07:59 16.05.2022
3666 Clear 28 1006 9 10000 2.47 299 06:30 16.05.2022
3667 Clear 17 1008 14 10000 2.88 349 01:43 16.05.2022
3668 Clear 9 1008 19 10000 1.8 334 22:44 15.05.2022
3669 Clear 10 1008 18 10000 1.81 325 22:20 15.05.2022
3670 Clear 8 1008 18 10000 1.81 325 21:37 15.05.2022
3671 Clear 9 1008 17 10000 1.96 320 20:47 15.05.2022
3672 Clouds 11 1008 16 10000 1.97 298 18:52 15.05.2022
3673 Clouds 14 1009 17 10000 1.69 261 17:29 15.05.2022
3674 Clouds 15 1009 15 10000 2.06 223 14:58 15.05.2022
3675 Clouds 22 1008 16 10000 2.47 195 13:46 15.05.2022
3676 Clouds 27 1007 12 10000 1.51 269 12:19 15.05.2022
3677 Clouds 28 1008 11 10000 2.58 310 11:27 15.05.2022
3678 Clouds 28 1008 10 10000 2.54 328 09:57 15.05.2022
3679 Clouds 28 1012 9 10000 4.26 286 07:24 15.05.2022
3680 Clouds 27 1012 9 10000 4.26 286 06:56 15.05.2022
3681 Clear 20 1016 14 10000 1.81 304 03:40 15.05.2022
3682 Clear 11 1017 24 10000 2.05 360 00:42 15.05.2022
3683 Clear 9 1016 28 10000 1.79 2 23:38 14.05.2022
3684 Clear 8 1016 29 10000 1.48 355 22:39 14.05.2022
3685 Clear 8 1017 28 10000 1.25 8 21:26 14.05.2022
3686 Clear 8 1017 27 10000 0.81 355 20:28 14.05.2022
3687 Clear 9 1017 25 10000 0.6 310 19:21 14.05.2022
3688 Clear 11 1017 25 10000 0.6 310 18:59 14.05.2022
3689 Clear 10 1017 24 10000 0.08 270 17:53 14.05.2022
3690 Clouds 12 1017 22 10000 0.66 139 16:23 14.05.2022
3691 Clouds 19 1016 20 10000 1.22 127 14:50 14.05.2022
3692 Clouds 17 1016 18 10000 1.45 114 14:26 14.05.2022
3693 Clouds 25 1013 15 10000 1.42 16 11:51 14.05.2022
3694 Clouds 25 1013 14 10000 2.48 33 10:45 14.05.2022
3695 Clouds 25 1013 13 10000 2.74 13 10:19 14.05.2022
3696 Clouds 25 1013 13 10000 2.74 13 09:34 14.05.2022
3697 Clouds 23 1014 12 10000 4.03 337 07:43 14.05.2022
3698 Clouds 22 1016 16 10000 3.48 340 04:49 14.05.2022
3699 Clouds 18 1017 22 10000 2.9 346 01:57 14.05.2022
3700 Clouds 10 1015 29 10000 1.46 285 23:28 13.05.2022
3701 Clouds 9 1015 29 10000 1.46 285 22:56 13.05.2022
3702 Clouds 7 1015 28 10000 1.79 302 22:22 13.05.2022
3703 Clouds 7 1015 27 10000 1.07 282 21:19 13.05.2022
3704 Clouds 7 1015 27 10000 1.07 282 20:40 13.05.2022
3705 Clear 7 1014 26 10000 0.34 299 20:21 13.05.2022
3706 Clear 9 1015 25 10000 0.86 5 19:19 13.05.2022
3707 Clear 10 1015 23 10000 0.9 31 17:47 13.05.2022
3708 Clear 11 1015 22 10000 1.57 10 17:23 13.05.2022
3709 Clear 17 1014 20 10000 2.1 1 15:48 13.05.2022
3710 Clear 18 1014 19 10000 3.43 2 14:47 13.05.2022
3711 Clouds 23 1009 13 10000 4.8 354 12:54 13.05.2022
3712 Clouds 23 1008 9 10000 5.01 328 12:20 13.05.2022
3713 Clouds 25 1008 8 10000 6.04 314 10:23 13.05.2022
3714 Clouds 24 1008 9 10000 5.89 310 09:29 13.05.2022
3715 Clouds 24 1009 10 10000 5.29 309 07:59 13.05.2022
3716 Clouds 24 1009 10 10000 5.29 309 07:59 13.05.2022
3717 Clouds 23 1010 11 10000 5.27 296 07:30 13.05.2022
3718 Clear 20 1012 11 10000 4.69 295 05:46 13.05.2022
3719 Clouds 14 1015 12 10000 5.07 313 01:37 13.05.2022
3720 Clouds 7 1015 15 10000 2.37 316 23:34 12.05.2022
3721 Clouds 9 1015 15 10000 2.49 325 22:35 12.05.2022
3722 Clouds 7 1014 14 10000 3.21 343 21:35 12.05.2022
3723 Clouds 10 1015 26 10000 4.27 354 19:55 12.05.2022
3724 Clouds 10 1015 31 10000 4.63 348 18:30 12.05.2022
3725 Clouds 12 1014 58 10000 3.25 233 16:48 12.05.2022
3726 Clouds 15 1014 55 10000 5.6 210 15:22 12.05.2022
3727 Clouds 17 1013 56 10000 6.17 204 13:52 12.05.2022
3728 Clouds 18 1012 42 10000 6.2 193 12:46 12.05.2022
3729 Clouds 20 1012 32 10000 4.84 188 10:34 12.05.2022
3730 Clouds 19 1013 30 10000 3.47 177 08:58 12.05.2022
3731 Clouds 20 1013 30 10000 3.47 177 08:35 12.05.2022
3732 Rain 19 1015 16 10000 1.7 145 07:25 12.05.2022
3733 Clouds 17 1017 25 10000 0.93 81 04:45 12.05.2022
3734 Clouds 14 1018 42 10000 0.97 156 01:37 12.05.2022
3735 Rain 14 1017 63 10000 0.73 235 23:42 11.05.2022
3736 Rain 15 1017 70 10000 2.15 243 22:22 11.05.2022
3737 Clouds 15 1016 68 10000 2.11 226 21:27 11.05.2022
3738 Clouds 15 1016 68 10000 2.11 226 20:45 11.05.2022
3739 Clouds 18 1016 58 10000 3.88 222 17:43 11.05.2022
3740 Clouds 18 1016 56 10000 4.28 214 16:39 11.05.2022
3741 Clouds 19 1016 50 10000 4.34 227 14:48 11.05.2022
3742 Clouds 19 1016 48 10000 4.73 231 14:25 11.05.2022
3743 Clouds 20 1015 45 10000 4.2 227 13:37 11.05.2022
3744 Clouds 21 1014 26 10000 4.48 243 11:48 11.05.2022
3745 Clouds 22 1014 10 10000 2.97 290 09:34 11.05.2022
3746 Clouds 21 1016 12 10000 3.58 317 06:59 11.05.2022
3747 Clouds 15 1019 48 10000 2.26 358 02:27 11.05.2022
3748 Clouds 9 1017 70 10000 1.88 9 23:45 10.05.2022
3749 Clouds 9 1017 72 10000 1.64 10 22:30 10.05.2022
3750 Clouds 10 1016 71 10000 1.18 356 21:41 10.05.2022
3751 Clouds 10 1016 70 10000 0.79 343 20:48 10.05.2022
3752 Clouds 9 1015 62 10000 2.16 47 19:18 10.05.2022
3753 Clouds 10 1014 59 10000 1.82 29 17:43 10.05.2022
3754 Clouds 9 1014 55 10000 1.36 16 16:38 10.05.2022
3755 Clouds 13 1011 47 10000 1.63 346 13:37 10.05.2022
3756 Clouds 14 1009 41 10000 1.84 209 12:30 10.05.2022
3757 Clouds 14 1009 41 10000 1.84 209 11:42 10.05.2022
3758 Clouds 15 1009 39 10000 3.3 211 10:57 10.05.2022
3759 Rain 15 1008 38 10000 5.03 184 09:52 10.05.2022
3760 Clouds 15 1010 40 10000 4.33 187 08:29 10.05.2022
3761 Clouds 13 1012 42 10000 4.27 194 06:21 10.05.2022
3762 Clear 13 1014 56 10000 2.49 185 02:31 10.05.2022
3763 Clear 12 1015 75 10000 1.92 178 23:55 09.05.2022
3764 Clear 12 1015 76 10000 1.63 176 22:41 09.05.2022
3765 Clear 12 1015 74 10000 1.7 189 21:48 09.05.2022
3766 Clouds 13 1015 69 10000 2.55 189 20:22 09.05.2022
3767 Clouds 13 1017 63 10000 2.64 199 18:29 09.05.2022
3768 Clouds 13 1017 63 10000 2.64 199 17:33 09.05.2022
3769 Clear 13 1018 59 10000 2.99 192 16:21 09.05.2022
3770 Clear 14 1018 59 10000 2.99 192 15:47 09.05.2022
3771 Clear 15 1017 51 10000 2.93 182 14:41 09.05.2022
3772 Clouds 15 1017 47 10000 3.02 168 13:59 09.05.2022
3773 Clouds 16 1017 47 10000 3.02 168 13:32 09.05.2022
3774 Clouds 18 1016 37 10000 3.81 157 11:53 09.05.2022
3775 Clouds 19 1016 34 10000 3.8 153 10:50 09.05.2022
3776 Clouds 19 1016 32 10000 3.73 152 10:26 09.05.2022
3777 Clouds 19 1018 31 10000 2.71 158 07:57 09.05.2022
3778 Clouds 19 1020 37 10000 2.36 167 05:59 09.05.2022
3779 Clouds 13 1022 52 10000 1.24 156 02:37 09.05.2022
3780 Clouds 8 1022 70 10000 0.93 68 23:29 08.05.2022
3781 Clouds 8 1022 70 10000 0.93 68 22:42 08.05.2022
3782 Clouds 8 1022 69 10000 1.15 76 21:37 08.05.2022
3783 Clouds 8 1022 65 10000 0.8 143 20:25 08.05.2022
3784 Clouds 7 1022 65 10000 0.8 143 19:35 08.05.2022
3785 Clouds 7 1023 64 10000 1.27 182 18:40 08.05.2022
3786 Clouds 8 1023 62 10000 1.48 179 17:45 08.05.2022
3787 Clouds 9 1022 59 10000 1.31 179 16:23 08.05.2022
3788 Clouds 9 1022 57 10000 1.16 203 15:24 08.05.2022
3789 Clouds 12 1021 55 10000 0.63 209 14:23 08.05.2022
3790 Clouds 14 1020 51 10000 1.26 338 11:53 08.05.2022
3791 Clouds 15 1021 53 10000 1.45 34 10:27 08.05.2022
3792 Clouds 15 1021 53 10000 1.45 34 09:54 08.05.2022
3793 Clouds 13 1022 51 10000 1.5 28 08:23 08.05.2022
3794 Clouds 10 1023 60 10000 0.41 326 06:21 08.05.2022
3795 Clouds 9 1024 69 10000 2.22 199 03:22 08.05.2022
3796 Clouds 9 1023 76 10000 2.8 199 01:19 08.05.2022
3797 Clouds 9 1023 77 10000 2.7 193 00:20 08.05.2022
3798 Clouds 9 1023 77 10000 2.7 193 23:41 07.05.2022
3799 Rain 9 1023 81 10000 2.82 175 22:46 07.05.2022
3800 Rain 9 1023 84 10000 2.68 167 21:57 07.05.2022
3801 Clouds 10 1023 84 10000 2.68 167 21:31 07.05.2022
3802 Clouds 10 1023 82 10000 2.33 164 20:25 07.05.2022
3803 Clouds 10 1025 81 10000 2.26 161 18:59 07.05.2022
3804 Clouds 11 1026 79 10000 3.23 186 16:51 07.05.2022
3805 Rain 13 1026 73 10000 5.35 206 15:18 07.05.2022
3806 Clouds 15 1024 41 10000 5.59 220 11:51 07.05.2022
3807 Clouds 19 1024 27 10000 6.96 213 09:55 07.05.2022
3808 Clouds 19 1024 21 10000 7.02 211 08:34 07.05.2022
3809 Clouds 19 1025 12 10000 3.93 183 07:30 07.05.2022
3810 Clouds 20 1025 12 10000 2.59 169 06:42 07.05.2022
3811 Clouds 18 1028 11 10000 3.64 53 04:19 07.05.2022
3812 Clouds 8 1026 42 10000 2.54 29 00:45 07.05.2022
3813 Clouds 8 1025 65 10000 1.44 71 22:40 06.05.2022
3814 Clouds 8 1024 64 10000 1.34 21 22:21 06.05.2022
3815 Clouds 7 1024 64 10000 1.34 21 21:30 06.05.2022
3816 Clouds 6 1024 55 10000 2.19 345 19:48 06.05.2022
3817 Clouds 6 1024 54 10000 1.74 354 19:25 06.05.2022
3818 Clouds 6 1024 54 10000 1.74 354 18:34 06.05.2022
3819 Clouds 7 1023 54 10000 0.9 3 17:36 06.05.2022
3820 Clouds 7 1023 55 10000 0.93 124 15:53 06.05.2022
3821 Clouds 8 1022 54 10000 1.67 150 15:30 06.05.2022
3822 Clouds 9 1022 54 10000 1.9 160 13:50 06.05.2022
3823 Clouds 12 1020 46 10000 2.7 151 12:51 06.05.2022
3824 Clouds 13 1019 45 10000 3.05 154 11:58 06.05.2022
3825 Clouds 13 1019 48 10000 3.09 146 11:24 06.05.2022
3826 Clouds 12 1019 53 10000 3.34 142 09:47 06.05.2022
3827 Clouds 12 1019 51 10000 3.13 136 09:18 06.05.2022
3828 Clouds 12 1019 48 10000 2.93 122 07:49 06.05.2022
3829 Clouds 14 1020 58 10000 1.7 85 06:26 06.05.2022
3830 Clouds 12 1021 61 10000 5.51 31 03:42 06.05.2022
3831 Rain 14 1020 47 10000 7.17 33 02:38 06.05.2022
3832 Clouds 20 1012 32 10000 7.47 34 22:58 05.05.2022
3833 Clouds 21 1011 31 10000 7.09 29 21:49 05.05.2022
3834 Clouds 22 1009 31 10000 6.33 32 20:37 05.05.2022
3835 Clouds 19 1007 30 10000 4.23 4 18:56 05.05.2022
3836 Clouds 23 1006 32 10000 3.48 22 16:42 05.05.2022
3837 Clouds 25 1005 29 10000 3.37 16 15:30 05.05.2022
3838 Clouds 25 1001 20 10000 4.94 199 13:30 05.05.2022
3839 Clouds 27 1000 18 10000 5.63 193 12:56 05.05.2022
3840 Clouds 29 999 17 10000 5.6 189 11:35 05.05.2022
3841 Clouds 31 999 15 10000 5.89 199 09:41 05.05.2022
3842 Clouds 31 999 15 10000 5.89 199 09:41 05.05.2022
3843 Clouds 29 1000 15 10000 5.75 207 08:40 05.05.2022
3844 Clouds 26 1003 21 10000 6.13 203 06:24 05.05.2022
3845 Clouds 23 1005 30 10000 3.85 197 02:25 05.05.2022
3846 Clouds 22 1004 29 10000 3.53 195 01:41 05.05.2022
3847 Clouds 20 1004 29 10000 2.48 182 00:49 05.05.2022
3848 Clouds 20 1004 26 10000 2.12 162 23:18 04.05.2022
3849 Clouds 21 1003 23 10000 2.66 180 21:59 04.05.2022
3850 Clouds 21 1003 23 10000 2.66 180 21:34 04.05.2022
3851 Clouds 23 1003 19 10000 3.42 189 20:52 04.05.2022
3852 Clouds 23 1002 19 10000 4.54 187 20:18 04.05.2022
3853 Clouds 24 1002 19 10000 4.54 187 19:35 04.05.2022
3854 Clouds 25 1002 17 10000 4.98 191 18:42 04.05.2022
3855 Clouds 25 1003 15 10000 5.38 197 18:18 04.05.2022
3856 Clouds 25 1003 14 10000 6.04 200 17:22 04.05.2022
3857 Clouds 28 1003 13 10000 6.23 195 15:34 04.05.2022
3858 Clear 28 1003 12 10000 5.19 187 14:41 04.05.2022
3859 Clouds 28 1002 11 10000 5.43 183 14:19 04.05.2022
3860 Clouds 31 1001 11 10000 5.31 182 12:39 04.05.2022
3861 Clouds 32 1000 10 10000 6.42 181 11:40 04.05.2022
3862 Clouds 33 1001 7 10000 7.13 189 10:27 04.05.2022
3863 Clouds 33 1001 6 10000 6.98 197 09:21 04.05.2022
3864 Clouds 30 1002 7 10000 5.59 210 07:59 04.05.2022
3865 Clouds 25 1005 10 10000 3.86 218 05:34 04.05.2022
3866 Clouds 22 1006 16 10000 0.51 63 02:37 04.05.2022
3867 Clouds 11 1005 19 10000 0.19 329 23:20 03.05.2022
3868 Clouds 12 1004 18 10000 0.61 250 21:53 03.05.2022
3869 Clouds 12 1004 18 10000 0.61 250 21:31 03.05.2022
3870 Clouds 13 1004 17 10000 1.11 232 20:52 03.05.2022
3871 Clouds 14 1005 16 10000 2.98 224 19:33 03.05.2022
3872 Clouds 16 1005 15 10000 4.2 218 18:47 03.05.2022
3873 Clouds 26 1006 12 10000 3.72 208 17:22 03.05.2022
3874 Clouds 27 1005 11 10000 2.97 222 16:19 03.05.2022
3875 Clear 27 1004 9 10000 3.32 248 14:25 03.05.2022
3876 Clouds 31 1003 7 10000 4.57 251 12:42 03.05.2022
3877 Clear 32 1002 7 10000 2.64 211 11:39 03.05.2022
3878 Clear 31 1002 6 10000 2.51 194 10:49 03.05.2022
3879 Clear 29 1006 11 10000 2.36 181 08:29 03.05.2022
3880 Clear 26 1007 15 10000 2.27 186 06:45 03.05.2022
3881 Clear 19 1011 25 10000 1.14 39 02:48 03.05.2022
3882 Clouds 8 1011 35 10000 1.94 50 23:32 02.05.2022
3883 Clouds 9 1011 35 10000 2.02 48 22:31 02.05.2022
3884 Clouds 9 1012 35 10000 1.92 50 21:48 02.05.2022
3885 Clouds 10 1013 34 10000 1.61 82 19:59 02.05.2022
3886 Clouds 12 1014 32 10000 2.65 128 18:27 02.05.2022
3887 Clouds 15 1014 32 10000 2.65 128 17:42 02.05.2022
3888 Clouds 17 1014 31 10000 2.87 139 16:43 02.05.2022
3889 Clouds 18 1013 29 10000 2.76 146 15:44 02.05.2022
3890 Clouds 20 1012 27 10000 4.06 172 14:54 02.05.2022
3891 Clouds 22 1011 26 10000 5.19 162 13:45 02.05.2022
3892 Clouds 26 1010 20 10000 4.1 169 11:41 02.05.2022
3893 Clear 26 1011 18 10000 3.59 182 09:59 02.05.2022
3894 Clear 25 1012 18 10000 4.03 194 08:31 02.05.2022
3895 Clear 24 1014 19 10000 2.82 181 07:23 02.05.2022
3896 Clouds 13 1016 30 10000 1.85 95 00:48 02.05.2022
3897 Clouds 9 1016 33 10000 1.83 101 00:22 02.05.2022
3898 Clouds 7 1016 33 10000 1.83 101 23:40 01.05.2022
3899 Clouds 9 1015 33 10000 1.49 96 21:45 01.05.2022
3900 Clouds 12 1015 33 10000 1.58 74 20:50 01.05.2022
3901 Clouds 10 1015 32 10000 1.9 95 19:40 01.05.2022
3902 Clouds 10 1015 31 10000 1.59 76 18:53 01.05.2022
3903 Clouds 10 1014 30 10000 1.6 58 17:51 01.05.2022
3904 Clear 11 1014 29 10000 1.82 48 16:42 01.05.2022
3905 Clear 12 1014 28 10000 2.11 50 16:18 01.05.2022
3906 Clear 15 1013 27 10000 2.84 46 14:54 01.05.2022
3907 Clouds 22 1010 25 10000 3.36 34 13:23 01.05.2022
3908 Clouds 25 1008 18 10000 4.11 25 10:45 01.05.2022
3909 Clouds 25 1008 14 10000 4.37 18 08:50 01.05.2022
3910 Clouds 27 1009 15 10000 4.77 341 06:51 01.05.2022
3911 Clear 18 1013 13 10000 4.22 311 02:47 01.05.2022
3912 Clear 5 1013 13 10000 2.19 241 22:52 30.04.2022
3913 Clear 5 1014 12 10000 2.32 248 21:34 30.04.2022
3914 Clear 9 1016 12 10000 2.17 280 20:24 30.04.2022
3915 Clear 13 1016 10 10000 2.9 298 19:31 30.04.2022
3916 Clear 7 1018 10 10000 3.24 308 17:38 30.04.2022
3917 Clear 12 1019 10 10000 3.33 317 16:30 30.04.2022
3918 Clear 11 1018 8 10000 2.81 301 15:19 30.04.2022
3919 Clear 15 1018 8 10000 2.81 301 14:30 30.04.2022
3920 Clouds 22 1016 7 10000 4.59 305 12:28 30.04.2022
3921 Clouds 23 1016 7 10000 4.59 305 11:32 30.04.2022
3922 Clouds 23 1016 6 10000 5.42 302 10:30 30.04.2022
3923 Clouds 21 1019 7 10000 3.68 313 08:26 30.04.2022
3924 Clouds 19 1024 9 10000 4.17 326 04:58 30.04.2022
3925 Clouds 13 1024 14 10000 3.47 334 00:35 30.04.2022
3926 Clouds 14 1024 13 10000 3.38 349 23:29 29.04.2022
3927 Clouds 14 1024 12 10000 3.54 354 22:29 29.04.2022
3928 Clouds 14 1024 12 10000 3.54 354 22:29 29.04.2022
3929 Clouds 14 1023 11 10000 4.76 352 21:26 29.04.2022
3930 Clouds 14 1023 11 10000 4.76 352 20:36 29.04.2022
3931 Clouds 14 1022 9 10000 5.11 353 19:33 29.04.2022
3932 Clouds 16 1022 8 10000 5.74 360 17:38 29.04.2022
3933 Clouds 13 1021 10 10000 6.2 3 16:43 29.04.2022
3934 Clouds 16 1019 24 10000 5.49 335 14:38 29.04.2022
3935 Clouds 16 1019 24 10000 5.49 335 14:38 29.04.2022
3936 Clouds 16 1017 45 10000 1.37 260 14:19 29.04.2022
3937 Clouds 18 1015 38 10000 3.53 215 12:41 29.04.2022
3938 Clouds 19 1014 34 10000 4.41 220 10:57 29.04.2022
3939 Clouds 19 1015 32 10000 4.19 205 08:18 29.04.2022
3940 Clouds 19 1016 35 10000 3.57 210 07:27 29.04.2022
3941 Clouds 18 1016 35 10000 3.57 210 06:34 29.04.2022
3942 Clouds 14 1020 54 10000 2.63 206 03:28 29.04.2022
3943 Clouds 10 1020 75 10000 1.1 188 00:18 29.04.2022
3944 Clouds 10 1020 75 10000 1.31 183 23:26 28.04.2022
3945 Clouds 10 1020 75 10000 1.31 183 22:37 28.04.2022
3946 Clouds 10 1020 74 10000 1.35 175 21:45 28.04.2022
3947 Clear 10 1020 72 10000 1.07 165 20:51 28.04.2022
3948 Clear 11 1020 69 10000 1.48 172 19:59 28.04.2022
3949 Clear 11 1020 69 10000 1.48 172 19:40 28.04.2022
3950 Clear 11 1021 67 10000 1.65 193 19:20 28.04.2022
3951 Clear 11 1021 66 10000 2.03 199 17:56 28.04.2022
3952 Clear 11 1021 64 10000 2.7 201 16:59 28.04.2022
3953 Clear 11 1022 62 10000 3.22 180 16:21 28.04.2022
3954 Clear 11 1022 62 10000 3.22 180 15:56 28.04.2022
3955 Clear 11 1022 59 10000 3.69 160 15:23 28.04.2022
3956 Clouds 13 1021 54 10000 3.66 157 13:43 28.04.2022
3957 Clouds 14 1020 49 10000 3.36 156 12:34 28.04.2022
3958 Clouds 15 1019 44 10000 2.8 161 11:51 28.04.2022
3959 Clouds 16 1019 42 10000 2.63 163 10:30 28.04.2022
3960 Clouds 16 1019 41 10000 2.35 165 09:51 28.04.2022
3961 Clouds 14 1020 46 10000 1.4 148 07:45 28.04.2022
3962 Rain 14 1021 51 10000 0.9 164 06:56 28.04.2022
3963 Clouds 13 1022 54 10000 0.59 174 05:54 28.04.2022
3964 Rain 12 1023 61 10000 0.24 209 04:44 28.04.2022
3965 Rain 11 1024 67 10000 0.93 267 03:40 28.04.2022
3966 Rain 8 1023 82 10000 1.36 235 23:52 27.04.2022
3967 Rain 8 1023 83 10000 1.61 252 22:30 27.04.2022
3968 Rain 8 1023 81 10000 1.59 241 21:51 27.04.2022
3969 Rain 8 1023 80 10000 1.24 245 20:56 27.04.2022
3970 Clouds 8 1023 80 10000 1.24 245 20:34 27.04.2022
3971 Clouds 8 1023 80 10000 1.24 245 20:34 27.04.2022
3972 Rain 8 1023 81 8501 2.23 300 19:37 27.04.2022
3973 Rain 8 1023 80 9957 2.77 329 18:52 27.04.2022
3974 Clouds 8 1023 72 10000 2.56 350 18:21 27.04.2022
3975 Rain 8 1024 55 10000 2.27 24 16:23 27.04.2022
3976 Clouds 9 1022 51 10000 1.38 54 13:51 27.04.2022
3977 Clouds 11 1021 49 10000 1.43 10 11:45 27.04.2022
3978 Clouds 12 1021 48 10000 1.2 7 11:20 27.04.2022
3979 Clouds 12 1022 57 10000 2.2 351 08:58 27.04.2022
3980 Clouds 11 1023 54 10000 1.48 329 06:45 27.04.2022
3981 Clouds 11 1023 18 10000 3.06 141 03:41 27.04.2022
3982 Clouds 13 1023 18 10000 2.19 141 01:31 27.04.2022
3983 Clouds 13 1023 17 10000 2.09 112 00:36 27.04.2022
3984 Clouds 14 1021 15 10000 1.79 49 23:25 26.04.2022
3985 Clouds 13 1021 15 10000 1.79 49 22:57 26.04.2022
3986 Clouds 13 1021 15 10000 1.79 49 22:38 26.04.2022
3987 Clouds 7 1020 13 10000 2.74 42 21:26 26.04.2022
3988 Clouds 8 1020 13 10000 2.74 42 20:41 26.04.2022
3989 Clouds 10 1020 12 10000 3.03 49 19:49 26.04.2022
3990 Clouds 11 1021 13 10000 3.5 51 19:30 26.04.2022
3991 Clouds 12 1021 12 10000 2.97 52 18:44 26.04.2022
3992 Clouds 16 1020 11 10000 3.46 25 17:54 26.04.2022
3993 Clouds 15 1019 10 10000 5.93 11 16:28 26.04.2022
3994 Clouds 17 1017 8 10000 6.47 3 13:59 26.04.2022
3995 Clouds 19 1016 8 10000 6.79 357 13:31 26.04.2022
3996 Clouds 22 1013 6 10000 6.26 353 11:49 26.04.2022
3997 Clouds 24 1012 5 10000 6.51 347 10:34 26.04.2022
3998 Clouds 24 1011 4 10000 6.53 327 08:54 26.04.2022
3999 Clear 23 1012 5 10000 7.72 312 06:57 26.04.2022
4000 Clear 20 1012 7 10000 8.59 316 04:23 26.04.2022
4001 Clear 18 1009 9 10000 8.15 334 01:22 26.04.2022
4002 Clear 19 1008 10 10000 8.08 336 00:25 26.04.2022
4003 Clear 20 1005 15 10000 7.48 338 22:21 25.04.2022
4004 Clear 22 1005 15 10000 7.48 338 21:39 25.04.2022
4005 Clear 19 1005 16 10000 7.73 348 20:35 25.04.2022
4006 Clear 20 1003 63 10000 2.96 33 18:54 25.04.2022
4007 Clear 20 1002 62 10000 2.62 27 17:52 25.04.2022
4008 Clouds 20 1001 57 10000 2.04 78 16:52 25.04.2022
4009 Clear 21 999 43 10000 3.52 170 15:24 25.04.2022
4010 Clear 21 999 43 10000 3.44 151 14:38 25.04.2022
4011 Clear 21 998 32 10000 4.18 193 13:32 25.04.2022
4012 Clear 24 998 28 10000 4.27 191 11:37 25.04.2022
4013 Clear 24 999 27 10000 3.74 190 10:23 25.04.2022
4014 Clear 25 1000 28 10000 3.23 189 08:35 25.04.2022
4015 Clouds 23 1003 34 10000 2.61 184 06:38 25.04.2022
4016 Clouds 19 1006 42 10000 1.2 89 03:44 25.04.2022
4017 Clouds 17 1006 57 10000 1.46 86 00:33 25.04.2022
4018 Clouds 17 1006 59 10000 1.59 95 23:51 24.04.2022
4019 Clouds 18 1006 58 10000 1.83 111 22:41 24.04.2022
4020 Clouds 18 1005 56 10000 1.57 74 22:18 24.04.2022
4021 Clouds 18 1005 54 10000 1.78 62 21:24 24.04.2022
4022 Clouds 18 1005 54 10000 1.78 62 20:48 24.04.2022
4023 Clouds 19 1005 54 10000 1.57 77 20:22 24.04.2022
4024 Clouds 17 1005 54 10000 1.74 90 19:19 24.04.2022
4025 Clouds 18 1005 54 10000 2.45 92 18:20 24.04.2022
4026 Clouds 20 1005 52 10000 2.51 90 17:27 24.04.2022
4027 Clouds 20 1005 52 10000 2.51 90 16:58 24.04.2022
4028 Clouds 20 1005 52 10000 2.51 90 16:30 24.04.2022
4029 Clouds 20 1005 52 10000 2.51 90 16:30 24.04.2022
4030 Clouds 20 1005 48 10000 2.44 100 15:53 24.04.2022
4031 Clouds 20 1005 44 10000 2.59 127 14:57 24.04.2022
4032 Clouds 22 1003 37 10000 2.62 133 13:45 24.04.2022
4033 Clouds 23 1002 32 10000 3.4 143 13:23 24.04.2022
4034 Clouds 24 1002 27 10000 4.08 150 11:55 24.04.2022
4035 Clouds 25 1002 23 10000 5.2 154 11:22 24.04.2022
4036 Clouds 26 1002 20 10000 4.53 147 09:51 24.04.2022
4037 Clouds 26 1003 19 10000 4.42 148 08:31 24.04.2022
4038 Clouds 25 1006 17 10000 3.81 122 05:46 24.04.2022
4039 Clouds 20 1007 25 10000 3.5 90 02:59 24.04.2022
4040 Clouds 14 1005 32 10000 2.49 76 00:55 24.04.2022
4041 Clouds 12 1004 31 10000 2.33 57 23:55 23.04.2022
4042 Clouds 12 1003 32 10000 1.95 39 23:25 23.04.2022
4043 Clouds 14 1003 32 10000 1.95 39 22:42 23.04.2022
4044 Clear 13 1002 32 10000 2.37 30 21:49 23.04.2022
4045 Clear 13 1002 32 10000 2.37 30 21:30 23.04.2022
4046 Clouds 14 1001 29 10000 2.29 21 20:27 23.04.2022
4047 Clouds 16 1001 25 10000 1.32 312 19:21 23.04.2022
4048 Clouds 15 1001 25 10000 1.32 312 18:55 23.04.2022
4049 Clouds 18 1001 25 10000 1.32 312 18:32 23.04.2022
4050 Clouds 19 1001 23 10000 1.42 268 17:47 23.04.2022
4051 Clouds 19 1000 22 10000 2.69 242 16:46 23.04.2022
4052 Clear 17 1000 21 10000 4.83 231 15:54 23.04.2022
4053 Clear 22 998 17 10000 6.75 215 13:33 23.04.2022
4054 Clear 27 996 14 10000 6.67 194 11:57 23.04.2022
4055 Clear 27 997 12 10000 6.05 201 10:37 23.04.2022
4056 Clear 25 999 12 10000 5.95 213 08:30 23.04.2022
4057 Clear 18 1006 22 10000 2.56 220 05:27 23.04.2022
4058 Clear 15 1007 26 10000 1.62 208 03:32 23.04.2022
4059 Clear 10 1008 38 10000 1.61 163 23:38 22.04.2022
4060 Clear 12 1008 37 10000 2.25 172 23:20 22.04.2022
4061 Clear 13 1008 36 10000 2.63 178 21:58 22.04.2022
4062 Clear 13 1008 36 10000 2.63 178 21:40 22.04.2022
4063 Clear 14 1008 34 10000 3.32 184 20:35 22.04.2022
4064 Clear 14 1009 31 10000 3.46 186 19:39 22.04.2022
4065 Clear 14 1009 29 10000 4.24 194 19:18 22.04.2022
4066 Clear 15 1009 28 10000 4.68 198 18:28 22.04.2022
4067 Clear 15 1009 27 10000 5.02 203 17:24 22.04.2022
4068 Clear 17 1010 25 10000 5.79 201 15:59 22.04.2022
4069 Clear 17 1010 25 10000 5.79 201 15:30 22.04.2022
4070 Clear 18 1010 23 10000 6.13 197 14:38 22.04.2022
4071 Clear 18 1010 23 10000 6.13 197 14:38 22.04.2022
4072 Clear 20 1009 23 10000 6.49 198 13:41 22.04.2022
4073 Clear 20 1008 23 10000 6.18 195 12:48 22.04.2022
4074 Clear 22 1008 18 10000 6.25 191 11:23 22.04.2022
4075 Clear 22 1008 18 10000 6.25 191 10:57 22.04.2022
4076 Clear 22 1008 18 10000 6.25 191 10:34 22.04.2022
4077 Clouds 23 1009 16 10000 5.52 192 09:59 22.04.2022
4078 Clouds 22 1009 15 10000 5.01 189 09:22 22.04.2022
4079 Clouds 22 1009 15 10000 5.01 189 08:48 22.04.2022
4080 Clouds 21 1011 13 10000 1.6 213 06:54 22.04.2022
4081 Clear 14 1014 24 10000 3.43 329 01:34 22.04.2022
4082 Clear 8 1013 29 10000 3.64 339 23:35 21.04.2022
4083 Clear 12 1012 30 10000 4.6 342 22:47 21.04.2022
4084 Clear 12 1011 30 10000 4.79 345 21:42 21.04.2022
4085 Clear 13 1011 30 10000 4.73 347 20:32 21.04.2022
4086 Clear 15 1010 26 10000 5.72 338 19:24 21.04.2022
4087 Clear 17 1010 26 10000 5.72 338 18:32 21.04.2022
4088 Clear 18 1008 26 10000 6.25 340 17:20 21.04.2022
4089 Clear 20 1006 26 10000 6.83 341 16:19 21.04.2022
4090 Clear 22 1005 23 10000 7.59 344 15:19 21.04.2022
4091 Clouds 23 1002 20 10000 7.37 355 14:28 21.04.2022
4092 Clouds 25 1000 16 10000 6.72 347 13:22 21.04.2022
4093 Clouds 27 998 13 10000 7.25 335 12:29 21.04.2022
4094 Clouds 28 997 12 10000 8.55 323 09:58 21.04.2022
4095 Clouds 26 996 12 10000 8.25 322 08:47 21.04.2022
4096 Clouds 22 997 15 10000 7.37 324 06:44 21.04.2022
4097 Clouds 18 998 26 10000 1.06 321 03:42 21.04.2022
4098 Clouds 18 998 31 10000 1.07 260 03:22 21.04.2022
4099 Clouds 18 998 31 10000 1.07 260 02:44 21.04.2022
4100 Clouds 18 998 31 10000 1.07 260 02:44 21.04.2022
4101 Clouds 17 996 38 10000 2.34 193 00:35 21.04.2022
4102 Clouds 18 996 40 10000 2.59 184 23:40 20.04.2022
4103 Clouds 18 996 40 10000 3.23 173 23:18 20.04.2022
4104 Clouds 18 996 40 10000 3.23 173 22:36 20.04.2022
4105 Clouds 18 997 37 10000 3.6 181 21:47 20.04.2022
4106 Clouds 20 997 34 10000 4.21 187 20:45 20.04.2022
4107 Clouds 20 997 30 10000 5.43 199 20:21 20.04.2022
4108 Clouds 20 997 30 10000 5.43 199 19:46 20.04.2022
4109 Clouds 20 997 26 10000 5.95 194 18:48 20.04.2022
4110 Clouds 20 998 23 10000 6.08 200 17:50 20.04.2022
4111 Clouds 23 999 19 10000 6.39 201 16:39 20.04.2022
4112 Clouds 24 999 13 10000 6.34 199 15:26 20.04.2022
4113 Clouds 27 998 11 10000 6.55 189 12:22 20.04.2022
4114 Clouds 27 998 11 10000 6.55 189 11:42 20.04.2022
4115 Clouds 29 998 9 10000 6.42 189 10:44 20.04.2022
4116 Clear 27 1000 9 10000 6.8 193 09:31 20.04.2022
4117 Clear 26 1000 9 10000 6.8 193 08:40 20.04.2022
4118 Clear 26 1001 9 10000 6.02 196 08:18 20.04.2022
4119 Clear 23 1004 14 10000 3.45 200 06:18 20.04.2022
4120 Clear 17 1007 26 10000 0.63 89 02:34 20.04.2022
4121 Clear 9 1007 36 10000 0.06 145 00:22 20.04.2022
4122 Clear 10 1007 34 10000 0.69 190 22:59 19.04.2022
4123 Clear 10 1007 34 10000 0.69 190 22:59 19.04.2022
4124 Clear 10 1007 32 10000 1.39 207 22:23 19.04.2022
4125 Clear 13 1007 32 10000 1.39 207 21:53 19.04.2022
4126 Clear 17 1007 30 10000 2.27 215 20:59 19.04.2022
4127 Clear 17 1007 30 10000 2.27 215 20:37 19.04.2022
4128 Clear 20 1008 27 10000 2.3 220 19:32 19.04.2022
4129 Clear 20 1008 26 10000 3.07 217 18:31 19.04.2022
4130 Clear 22 1009 23 10000 4.63 213 16:55 19.04.2022
4131 Clear 22 1009 23 10000 4.63 213 16:33 19.04.2022
4132 Clear 23 1010 20 10000 4.82 207 15:59 19.04.2022
4133 Clear 23 1010 18 10000 4.59 202 14:46 19.04.2022
4134 Clear 25 1009 15 10000 4.29 189 12:58 19.04.2022
4135 Clear 25 1009 15 10000 4.29 189 12:36 19.04.2022
4136 Clear 27 1009 12 10000 4.43 187 11:35 19.04.2022
4137 Clear 28 1009 10 10000 4.75 199 09:52 19.04.2022
4138 Clear 27 1011 10 10000 3.96 204 08:22 19.04.2022
4139 Clear 20 1017 18 10000 0.9 233 04:26 19.04.2022
4140 Clear 15 1017 22 10000 0.52 285 02:41 19.04.2022
4141 Clear 6 1017 37 10000 0.36 26 00:23 19.04.2022
4142 Clear 6 1017 38 10000 0.58 360 22:54 18.04.2022
4143 Clear 7 1017 37 10000 1.03 295 21:28 18.04.2022
4144 Clear 9 1017 37 10000 1.03 295 20:40 18.04.2022
4145 Clear 9 1018 35 10000 0.63 297 20:22 18.04.2022
4146 Clear 11 1018 35 10000 0.63 297 19:41 18.04.2022
4147 Clear 13 1018 33 10000 0.81 231 18:52 18.04.2022
4148 Clear 14 1018 31 10000 1.26 202 17:49 18.04.2022
4149 Clear 14 1018 28 10000 1.59 193 17:20 18.04.2022
4150 Clear 13 1018 28 10000 1.59 193 16:40 18.04.2022
4151 Clear 15 1018 26 10000 2.18 194 15:43 18.04.2022
4152 Clear 19 1018 22 10000 2.56 183 14:28 18.04.2022
4153 Clear 20 1017 24 10000 2.93 191 13:31 18.04.2022
4154 Clear 21 1016 17 10000 3.05 158 12:28 18.04.2022
4155 Clear 23 1016 15 10000 2.78 140 11:20 18.04.2022
4156 Clear 23 1016 15 10000 2.39 133 10:28 18.04.2022
4157 Clear 23 1016 15 10000 2.39 133 09:30 18.04.2022
4158 Clouds 23 1018 15 10000 1.96 98 07:34 18.04.2022
4159 Clouds 19 1020 20 10000 3.31 63 03:57 18.04.2022
4160 Clouds 8 1017 32 10000 2.03 27 23:41 17.04.2022
4161 Clouds 10 1016 31 10000 2.23 30 22:39 17.04.2022
4162 Clouds 10 1015 31 10000 1.59 22 21:42 17.04.2022
4163 Clouds 10 1015 30 10000 0.51 309 21:21 17.04.2022
4164 Clouds 9 1015 30 10000 0.51 309 20:32 17.04.2022
4165 Clouds 12 1016 28 10000 0.42 290 19:21 17.04.2022
4166 Clouds 12 1016 28 10000 0.97 240 17:38 17.04.2022
4167 Clouds 13 1016 27 10000 2.39 214 15:38 17.04.2022
4168 Clouds 15 1016 26 10000 2.38 217 14:53 17.04.2022
4169 Clouds 17 1015 25 10000 2.56 221 13:44 17.04.2022
4170 Clouds 18 1014 24 10000 3 219 12:56 17.04.2022
4171 Clouds 20 1014 20 10000 3.84 215 11:24 17.04.2022
4172 Clouds 20 1014 20 10000 3.84 215 10:38 17.04.2022
4173 Clouds 20 1014 19 10000 4.27 211 10:19 17.04.2022
4174 Clouds 20 1015 18 10000 4.32 208 09:23 17.04.2022
4175 Clouds 20 1015 18 10000 4.32 208 08:41 17.04.2022
4176 Clouds 19 1016 17 10000 2.29 190 06:53 17.04.2022
4177 Clouds 14 1018 21 10000 0.95 78 03:20 17.04.2022
4178 Clouds 7 1017 24 10000 0.24 68 00:53 17.04.2022
4179 Clouds 5 1016 25 10000 0.38 41 23:49 16.04.2022
4180 Clouds 6 1016 26 10000 0.67 339 22:27 16.04.2022
4181 Clouds 6 1016 26 10000 0.93 310 21:29 16.04.2022
4182 Clear 7 1016 25 10000 0.67 279 19:54 16.04.2022
4183 Clear 10 1016 23 10000 1.06 264 18:54 16.04.2022
4184 Clear 15 1016 21 10000 1.93 242 17:40 16.04.2022
4185 Clear 18 1016 21 10000 3.42 236 16:32 16.04.2022
4186 Clear 15 1016 20 10000 5.14 226 15:40 16.04.2022
4187 Clear 19 1016 16 10000 5.4 218 14:51 16.04.2022
4188 Clear 20 1016 12 10000 5.17 215 13:56 16.04.2022
4189 Clear 20 1015 11 10000 4.91 209 13:26 16.04.2022
4190 Clear 22 1015 8 10000 4.36 221 12:18 16.04.2022
4191 Clear 24 1015 7 10000 4.08 231 10:42 16.04.2022
4192 Clear 24 1015 6 10000 2.77 240 09:41 16.04.2022
4193 Clear 24 1016 6 10000 1.67 256 08:56 16.04.2022
4194 Clear 22 1019 6 10000 1.06 274 07:31 16.04.2022
4195 Clear 20 1020 6 10000 1.56 317 06:22 16.04.2022
4196 Clear 10 1023 10 10000 3.07 329 01:59 16.04.2022
4197 Clear 1 1022 12 10000 2.26 336 00:21 16.04.2022
4198 Clear 4 1022 12 10000 2.02 336 22:54 15.04.2022
4199 Clear 6 1022 12 10000 2.02 336 22:31 15.04.2022
4200 Clear 10 1023 13 10000 1.72 326 21:44 15.04.2022
4201 Clear 6 1023 14 10000 1.62 319 20:56 15.04.2022
4202 Clear 10 1023 12 10000 1.46 318 19:59 15.04.2022
4203 Clear 8 1023 12 10000 1.46 318 19:38 15.04.2022
4204 Clear 6 1024 13 10000 1.39 320 18:46 15.04.2022
4205 Clear 6 1024 14 10000 1.59 313 18:24 15.04.2022
4206 Clear 8 1024 14 10000 1.59 313 17:30 15.04.2022
4207 Clouds 15 1024 13 10000 1.85 268 16:26 15.04.2022
4208 Clouds 16 1024 13 10000 1.85 268 15:59 15.04.2022
4209 Clouds 15 1024 11 10000 1.76 251 14:30 15.04.2022
4210 Clear 17 1022 8 10000 1.28 285 13:23 15.04.2022
4211 Clear 19 1022 8 10000 1.28 285 12:40 15.04.2022
4212 Clear 20 1022 7 10000 2.07 305 11:54 15.04.2022
4213 Clear 20 1022 6 10000 2.08 301 10:49 15.04.2022
4214 Clear 20 1023 6 10000 1.76 292 10:22 15.04.2022
4215 Clear 19 1024 6 10000 1.92 293 09:24 15.04.2022
4216 Clear 19 1024 6 10000 1.92 293 08:57 15.04.2022
4217 Clear 19 1027 7 10000 3.14 326 06:56 15.04.2022
4218 Clear 17 1028 8 10000 3.52 330 05:56 15.04.2022
4219 Clear 10 1031 13 10000 3.79 345 01:49 15.04.2022
4220 Clear 6 1030 21 10000 3 335 23:30 14.04.2022
4221 Clear 9 1030 20 10000 3.23 352 22:47 14.04.2022
4222 Clear 9 1030 22 10000 3.49 5 22:27 14.04.2022
4223 Clear 8 1030 22 10000 3.49 5 21:54 14.04.2022
4224 Clear 10 1030 29 10000 3.82 12 20:35 14.04.2022
4225 Clear 11 1029 27 10000 2.9 24 19:22 14.04.2022
4226 Clear 12 1029 26 10000 3.61 26 17:58 14.04.2022
4227 Clear 12 1029 25 10000 4.05 31 17:28 14.04.2022
4228 Clear 13 1029 25 10000 4.05 31 16:33 14.04.2022
4229 Clouds 14 1026 21 10000 4.24 32 14:23 14.04.2022
4230 Clouds 14 1024 15 10000 4.33 7 13:39 14.04.2022
4231 Clouds 17 1023 12 10000 5.18 351 12:51 14.04.2022
4232 Clouds 17 1023 12 10000 5.18 351 12:30 14.04.2022
4233 Clouds 19 1021 10 10000 5.7 346 11:23 14.04.2022
4234 Clouds 20 1021 10 10000 5.7 346 10:36 14.04.2022
4235 Clouds 20 1021 10 10000 6.02 335 09:56 14.04.2022
4236 Clouds 20 1021 10 10000 5.88 327 08:40 14.04.2022
4237 Clouds 19 1022 12 10000 5.59 311 06:50 14.04.2022
4238 Clouds 14 1024 21 10000 5.96 338 02:45 14.04.2022
4239 Clouds 3 1020 23 10000 1.61 359 22:56 13.04.2022
4240 Clouds 4 1020 24 10000 0.91 12 21:44 13.04.2022
4241 Clouds 4 1020 23 10000 0.45 340 20:55 13.04.2022
4242 Clouds 5 1019 23 10000 0.35 50 20:22 13.04.2022
4243 Clouds 7 1019 24 10000 1.02 137 19:24 13.04.2022
4244 Clouds 9 1019 23 10000 2.03 170 18:19 13.04.2022
4245 Clouds 10 1019 22 10000 2.47 181 17:23 13.04.2022
4246 Clouds 13 1019 22 10000 2.47 181 16:33 13.04.2022
4247 Clouds 14 1018 21 10000 3.41 180 15:35 13.04.2022
4248 Clouds 15 1017 20 10000 4.65 169 14:50 13.04.2022
4249 Clouds 15 1017 20 10000 5.34 165 14:18 13.04.2022
4250 Clouds 17 1015 19 10000 5.57 161 13:19 13.04.2022
4251 Clouds 18 1014 20 10000 4.78 177 12:25 13.04.2022
4252 Clouds 19 1014 19 10000 5.12 191 10:47 13.04.2022
4253 Clouds 19 1014 18 10000 6.03 200 08:58 13.04.2022
4254 Clouds 19 1014 18 10000 6.03 200 08:33 13.04.2022
4255 Clouds 18 1017 18 10000 6.23 196 06:51 13.04.2022
4256 Clouds 17 1018 19 10000 5.85 197 06:25 13.04.2022
4257 Clouds 15 1019 20 10000 5.69 188 04:55 13.04.2022
4258 Clouds 9 1019 35 10000 2.77 180 00:20 13.04.2022
4259 Clouds 10 1019 35 10000 3.06 183 23:21 12.04.2022
4260 Clouds 10 1019 34 10000 3.49 176 21:57 12.04.2022
4261 Clouds 12 1019 33 10000 3.76 176 20:51 12.04.2022
4262 Clouds 12 1019 33 10000 3.76 176 20:33 12.04.2022
4263 Clouds 13 1019 33 10000 3.4 176 19:48 12.04.2022
4264 Clouds 13 1019 32 10000 3.94 160 19:29 12.04.2022
4265 Clouds 13 1019 32 10000 3.94 160 19:29 12.04.2022
4266 Clouds 14 1019 32 10000 4.48 148 17:59 12.04.2022
4267 Clouds 15 1019 32 10000 4.2 146 16:58 12.04.2022
4268 Clouds 15 1018 33 10000 4.18 174 16:19 12.04.2022
4269 Clouds 17 1018 30 10000 3.97 195 15:26 12.04.2022
4270 Clouds 17 1017 23 10000 3.94 196 14:21 12.04.2022
4271 Clouds 19 1016 21 10000 3.52 180 13:28 12.04.2022
4272 Clouds 20 1016 21 10000 3.52 180 12:45 12.04.2022
4273 Clouds 20 1015 18 10000 3.54 166 11:42 12.04.2022
4274 Clouds 20 1015 16 10000 3.32 153 10:32 12.04.2022
4275 Clouds 20 1015 16 10000 2.36 141 08:57 12.04.2022
4276 Clouds 19 1016 13 10000 2.56 92 07:51 12.04.2022
4277 Clouds 19 1018 16 10000 2.69 60 05:49 12.04.2022
4278 Clouds 17 1019 18 10000 3.37 48 04:46 12.04.2022
4279 Clouds 13 1017 20 10000 4.37 28 23:49 11.04.2022
4280 Clouds 15 1017 19 10000 4.52 30 22:44 11.04.2022
4281 Clouds 17 1016 19 10000 5.08 22 21:37 11.04.2022
4282 Clouds 17 1015 20 10000 3.95 335 20:55 11.04.2022
4283 Clouds 17 1014 19 10000 2.72 334 20:28 11.04.2022
4284 Clouds 18 1014 20 10000 4.05 322 19:37 11.04.2022
4285 Clouds 18 1014 19 10000 3.78 316 19:18 11.04.2022
4286 Clouds 18 1014 19 10000 3.78 316 18:40 11.04.2022
4287 Clouds 19 1013 19 10000 4 311 17:56 11.04.2022
4288 Clouds 20 1012 17 10000 5.7 328 16:54 11.04.2022
4289 Rain 18 1012 15 10000 5.36 332 15:45 11.04.2022
4290 Clouds 19 1010 12 10000 6.57 335 13:53 11.04.2022
4291 Clouds 22 1009 15 10000 7.44 342 12:44 11.04.2022
4292 Clouds 23 1007 11 10000 7.67 344 12:25 11.04.2022
4293 Clouds 25 1006 9 10000 7.45 330 10:58 11.04.2022
4294 Clouds 25 1006 9 10000 8.75 322 09:58 11.04.2022
4295 Clouds 28 1005 11 10000 7.65 319 08:24 11.04.2022
4296 Clouds 24 1005 18 10000 4.75 332 05:26 11.04.2022
4297 Clouds 15 1003 48 10000 2.04 40 00:57 11.04.2022
4298 Clouds 14 1001 49 10000 1.66 58 22:33 10.04.2022
4299 Clouds 15 1001 48 10000 1.74 50 21:54 10.04.2022
4300 Clouds 15 1001 48 10000 1.33 77 21:26 10.04.2022
4301 Clouds 16 1001 47 10000 1.51 81 20:25 10.04.2022
4302 Clouds 16 1001 44 10000 0.92 88 19:37 10.04.2022
4303 Clouds 16 1001 42 10000 1.03 62 18:50 10.04.2022
4304 Clouds 19 1001 42 10000 1.03 62 18:30 10.04.2022
4305 Clouds 16 1002 39 10000 0.9 59 17:49 10.04.2022
4306 Clouds 18 1002 37 10000 0.54 38 16:59 10.04.2022
4307 Clouds 19 1002 36 10000 1.29 23 15:41 10.04.2022
4308 Clouds 18 1002 33 10000 2.07 37 14:42 10.04.2022
4309 Clouds 18 1002 33 10000 2.07 37 14:42 10.04.2022
4310 Clouds 22 1001 32 10000 1.63 25 13:45 10.04.2022
4311 Clouds 24 1000 30 10000 1.1 17 12:32 10.04.2022
4312 Clouds 25 1000 27 10000 0.06 200 11:44 10.04.2022
4313 Clouds 25 1001 26 10000 1.36 237 11:20 10.04.2022
4314 Clouds 25 1001 26 10000 1.36 237 10:34 10.04.2022
4315 Clouds 25 1001 26 10000 1.45 230 09:41 10.04.2022
4316 Clouds 24 1003 29 10000 1.08 231 08:28 10.04.2022
4317 Clouds 23 1003 29 10000 1.08 231 07:57 10.04.2022
4318 Clouds 22 1003 32 10000 1.21 216 06:59 10.04.2022
4319 Clouds 15 1005 45 10000 1.13 63 03:40 10.04.2022
4320 Clouds 14 1004 56 10000 1.87 45 02:19 10.04.2022
4321 Clouds 10 1004 67 10000 1.67 44 23:53 09.04.2022
4322 Clear 11 1003 64 10000 1.48 51 22:56 09.04.2022
4323 Clear 11 1003 64 10000 1.48 51 22:38 09.04.2022
4324 Clear 12 1004 58 10000 1.43 77 21:23 09.04.2022
4325 Clear 13 1004 58 10000 1.43 77 20:30 09.04.2022
4326 Clouds 15 1004 55 10000 1.6 96 19:57 09.04.2022
4327 Clouds 15 1004 62 10000 1.78 95 19:39 09.04.2022
4328 Clouds 15 1004 55 10000 2.04 123 18:23 09.04.2022
4329 Clouds 17 1004 55 10000 2.04 123 17:49 09.04.2022
4330 Clouds 18 1004 51 10000 2.02 134 16:57 09.04.2022
4331 Clouds 18 1004 51 10000 2.02 134 16:38 09.04.2022
4332 Clouds 18 1004 51 10000 2.02 134 16:38 09.04.2022
4333 Clouds 18 1004 51 10000 2.02 134 16:38 09.04.2022
4334 Clouds 18 1004 51 10000 2.02 134 16:38 09.04.2022
4335 Clouds 18 1004 51 10000 2.02 134 16:38 09.04.2022
4336 Clouds 20 1004 47 10000 2.23 148 15:50 09.04.2022
4337 Clouds 20 1004 44 10000 2.61 154 15:25 09.04.2022
4338 Clouds 20 1004 42 10000 2.73 150 14:25 09.04.2022
4339 Clouds 20 1003 41 10000 2.71 156 13:33 09.04.2022
4340 Clouds 23 1002 37 10000 3.43 146 12:56 09.04.2022
4341 Clouds 24 1002 31 10000 3.2 154 11:50 09.04.2022
4342 Clouds 25 1002 27 10000 3.23 151 10:52 09.04.2022
4343 Clouds 25 1002 26 10000 2.98 133 10:18 09.04.2022
4344 Clouds 24 1003 26 10000 2.78 128 09:22 09.04.2022
4345 Clear 24 1004 27 10000 2.86 113 08:18 09.04.2022
4346 Clear 22 1006 25 10000 3.28 87 04:38 09.04.2022
4347 Clouds 10 1004 43 10000 2.55 39 00:35 09.04.2022
4348 Clouds 11 1003 47 10000 2.27 14 23:23 08.04.2022
4349 Clouds 11 1003 45 10000 2.33 18 21:49 08.04.2022
4350 Clouds 11 1003 44 10000 2.09 18 20:43 08.04.2022
4351 Clouds 12 1002 39 10000 1.75 18 19:47 08.04.2022
4352 Clouds 13 1003 37 10000 1.59 1 18:56 08.04.2022
4353 Clear 14 1003 37 10000 1.42 314 18:22 08.04.2022
4354 Clear 14 1003 35 10000 0.52 266 17:29 08.04.2022
4355 Clear 13 1003 35 10000 0.52 266 16:58 08.04.2022
4356 Clear 14 1004 32 10000 0.65 256 16:27 08.04.2022
4357 Clear 16 1004 32 10000 0.65 256 15:36 08.04.2022
4358 Clear 17 1004 29 10000 0.98 210 14:52 08.04.2022
4359 Clear 16 1003 27 10000 1.31 190 14:19 08.04.2022
4360 Clear 19 1003 25 10000 1.31 186 13:31 08.04.2022
4361 Clear 22 1003 23 10000 1.12 216 12:55 08.04.2022
4362 Clear 24 1003 20 10000 2.31 214 11:35 08.04.2022
4363 Clear 22 1004 19 10000 2.65 222 09:59 08.04.2022
4364 Clear 22 1005 21 10000 2.56 225 09:19 08.04.2022
4365 Clouds 20 1006 21 10000 2.32 218 07:44 08.04.2022
4366 Clouds 18 1008 24 10000 1.96 218 06:45 08.04.2022
4367 Clear 12 1012 36 10000 1.14 49 02:55 08.04.2022
4368 Clear 6 1013 46 10000 1.75 47 00:31 08.04.2022
4369 Clear 6 1013 48 10000 1.76 45 23:47 07.04.2022
4370 Clear 6 1013 47 10000 1.69 56 22:55 07.04.2022
4371 Clear 9 1013 47 10000 1.69 56 22:36 07.04.2022
4372 Clear 8 1013 45 10000 1.66 74 22:18 07.04.2022
4373 Clear 8 1013 45 10000 1.66 74 21:30 07.04.2022
4374 Clear 10 1013 43 10000 2.01 77 20:55 07.04.2022
4375 Clear 10 1013 41 10000 2.31 92 20:21 07.04.2022
4376 Clear 15 1014 33 10000 1.75 141 17:43 07.04.2022
4377 Clear 15 1014 31 10000 1.67 166 17:23 07.04.2022
4378 Clear 15 1014 31 10000 1.67 166 16:35 07.04.2022
4379 Clear 15 1014 29 10000 1.35 165 15:52 07.04.2022
4380 Clouds 19 1013 25 10000 0.82 106 13:59 07.04.2022
4381 Clouds 20 1012 23 10000 0.84 114 13:26 07.04.2022
4382 Clouds 22 1012 19 10000 0.88 121 11:54 07.04.2022
4383 Clouds 22 1013 16 10000 1.72 186 10:55 07.04.2022
4384 Clouds 20 1014 15 10000 1.11 160 09:28 07.04.2022
4385 Clouds 18 1015 15 10000 1.6 186 07:38 07.04.2022
4386 Clear 14 1017 17 10000 1.11 183 05:32 07.04.2022
4387 Clear 8 1020 24 10000 0.96 25 02:37 07.04.2022
4388 Clear 1 1019 31 10000 0.31 23 00:44 07.04.2022
4389 Clear 0 1019 33 10000 0.37 196 23:39 06.04.2022
4390 Clear 1 1019 32 10000 1.21 214 22:45 06.04.2022
4391 Clear 1 1019 32 10000 1.47 204 22:21 06.04.2022
4392 Clear 5 1020 32 10000 1.82 200 20:53 06.04.2022
4393 Clear 4 1020 31 10000 2.3 201 20:26 06.04.2022
4394 Clear 5 1020 31 10000 2.3 201 19:48 06.04.2022
4395 Clear 5 1021 30 10000 2.62 200 18:48 06.04.2022
4396 Clear 5 1021 29 10000 2.92 202 17:38 06.04.2022
4397 Clear 7 1022 27 10000 3.12 197 17:20 06.04.2022
4398 Clear 7 1022 27 10000 3.12 197 16:34 06.04.2022
4399 Clear 8 1022 26 10000 3.66 194 15:45 06.04.2022
4400 Clouds 10 1022 23 10000 4.14 184 13:57 06.04.2022
4401 Clouds 11 1020 21 10000 4.62 174 12:37 06.04.2022
4402 Clouds 12 1020 20 10000 4.78 175 11:48 06.04.2022
4403 Clouds 13 1020 19 10000 4.57 179 10:42 06.04.2022
4404 Clouds 13 1021 17 10000 4.31 181 10:18 06.04.2022
4405 Clear 13 1022 16 10000 3.85 179 09:25 06.04.2022
4406 Clouds 13 1023 15 10000 3.78 181 08:26 06.04.2022
4407 Clouds 10 1025 16 10000 3.83 181 06:45 06.04.2022
4408 Clouds 9 1028 18 10000 3.48 153 02:19 06.04.2022
4409 Clouds 9 1027 20 10000 2.91 131 23:50 05.04.2022
4410 Clouds 10 1026 22 10000 2.72 133 22:20 05.04.2022
4411 Clouds 9 1026 26 10000 2.69 149 21:18 05.04.2022
4412 Clouds 9 1026 26 10000 2.69 149 21:18 05.04.2022
4413 Clouds 9 1026 26 10000 2.69 149 21:18 05.04.2022
4414 Clouds 9 1026 26 10000 2.69 149 21:18 05.04.2022
4415 Clouds 10 1025 28 10000 2.43 166 20:25 05.04.2022
4416 Clouds 10 1026 28 10000 2.69 171 18:53 05.04.2022
4417 Clouds 12 1026 29 10000 2.71 156 17:31 05.04.2022
4418 Clouds 14 1025 29 10000 2.68 148 16:47 05.04.2022
4419 Clouds 14 1024 29 10000 3.08 162 15:52 05.04.2022
4420 Clouds 14 1024 29 10000 3.08 162 15:33 05.04.2022
4421 Clouds 17 1021 25 10000 4.64 142 14:18 05.04.2022
4422 Clouds 22 1019 18 10000 3.55 120 12:55 05.04.2022
4423 Clear 24 1018 13 10000 3.3 67 11:49 05.04.2022
4424 Clear 24 1018 13 10000 3.3 67 11:31 05.04.2022
4425 Clear 24 1017 12 10000 4.4 47 09:42 05.04.2022
4426 Clear 23 1017 12 10000 4.45 39 08:52 05.04.2022
4427 Clear 23 1019 13 10000 4.51 34 06:43 05.04.2022
4428 Clear 7 1016 47 10000 2.41 4 00:39 05.04.2022
4429 Clear 8 1015 57 10000 2.27 9 22:41 04.04.2022
4430 Clear 8 1015 56 10000 1.79 8 21:57 04.04.2022
4431 Clear 8 1014 56 10000 1.46 346 21:21 04.04.2022
4432 Clear 9 1014 56 10000 1.46 346 20:49 04.04.2022
4433 Clear 12 1014 53 10000 0.74 311 19:44 04.04.2022
4434 Clear 14 1014 47 10000 1.33 265 19:25 04.04.2022
4435 Clear 15 1015 45 10000 2.53 232 17:55 04.04.2022
4436 Clear 12 1015 43 10000 3.12 221 16:36 04.04.2022
4437 Clear 12 1015 43 10000 3.12 221 16:36 04.04.2022
4438 Clear 15 1015 40 10000 3.34 208 15:43 04.04.2022
4439 Clear 15 1015 38 10000 3.08 199 15:25 04.04.2022
4440 Clear 15 1015 38 10000 3.08 199 14:45 04.04.2022
4441 Clouds 19 1014 31 10000 3.15 211 13:22 04.04.2022
4442 Clouds 20 1014 27 10000 3.66 221 11:49 04.04.2022
4443 Clouds 20 1014 25 10000 4.53 215 11:28 04.04.2022
4444 Clouds 20 1017 25 10000 4.16 208 08:29 04.04.2022
4445 Clouds 14 1022 34 10000 1.72 200 03:52 04.04.2022
4446 Clear 6 1022 40 10000 0.27 204 00:41 04.04.2022
4447 Clear 7 1021 37 10000 0.63 155 22:36 03.04.2022
4448 Clear 10 1021 35 10000 1.04 188 21:44 03.04.2022
4449 Clear 13 1021 32 10000 1.66 194 20:54 03.04.2022
4450 Clear 12 1021 30 10000 2.18 196 19:49 03.04.2022
4451 Clear 14 1022 28 10000 3.1 197 18:32 03.04.2022
4452 Clear 13 1022 25 10000 3.59 196 17:47 03.04.2022
4453 Clear 14 1022 24 10000 3.84 199 16:57 03.04.2022
4454 Clear 14 1022 24 10000 3.84 199 16:39 03.04.2022
4455 Clear 15 1022 21 10000 4.02 197 14:48 03.04.2022
4456 Clear 15 1021 19 10000 3.88 193 13:51 03.04.2022
4457 Clear 19 1020 18 10000 4.05 195 12:42 03.04.2022
4458 Clear 20 1020 14 10000 5.44 204 10:58 03.04.2022
4459 Clear 22 1020 13 10000 6.07 207 09:38 03.04.2022
4460 Clear 20 1021 12 10000 6.32 208 08:33 03.04.2022
4461 Clouds 17 1024 14 10000 3.93 222 05:38 03.04.2022
4462 Clouds 8 1025 24 10000 0.23 350 01:54 03.04.2022
4463 Clouds 2 1025 26 10000 0.53 257 23:21 02.04.2022
4464 Clear 3 1025 24 10000 0.85 223 22:18 02.04.2022
4465 Clear 4 1025 24 10000 0.85 223 21:46 02.04.2022
4466 Clear 4 1025 23 10000 1.54 221 21:18 02.04.2022
4467 Clear 9 1025 22 10000 2.21 216 19:54 02.04.2022
4468 Clear 13 1026 20 10000 2.91 217 18:23 02.04.2022
4469 Clear 14 1026 20 10000 2.91 217 17:53 02.04.2022
4470 Clear 15 1026 17 10000 3.63 211 16:30 02.04.2022
4471 Clear 14 1026 16 10000 3.59 205 15:22 02.04.2022
4472 Clear 15 1026 16 10000 3.59 205 14:51 02.04.2022
4473 Clear 15 1026 15 10000 3 193 13:56 02.04.2022
4474 Clear 15 1025 12 10000 1.54 224 13:19 02.04.2022
4475 Clear 19 1025 11 10000 1.51 283 11:39 02.04.2022
4476 Clear 19 1025 9 10000 1.97 320 09:31 02.04.2022
4477 Clear 18 1028 11 10000 2.43 349 06:58 02.04.2022
4478 Clear 13 1030 21 10000 3.21 348 03:55 02.04.2022
4479 Clear 3 1029 35 10000 1.69 2 00:25 02.04.2022
4480 Clear 1 1029 35 10000 1.69 2 23:45 01.04.2022
4481 Clear 4 1028 35 10000 1.83 24 22:24 01.04.2022
4482 Clear 5 1028 35 10000 2.21 34 20:54 01.04.2022
4483 Clear 4 1028 35 10000 2.21 34 20:31 01.04.2022
4484 Clouds 5 1029 33 10000 2.13 56 19:39 01.04.2022
4485 Clouds 8 1029 31 10000 1.95 52 18:54 01.04.2022
4486 Clouds 9 1028 30 10000 1.96 90 18:23 01.04.2022
4487 Clouds 6 1028 30 10000 1.96 90 17:35 01.04.2022
4488 Clouds 10 1028 28 10000 2.14 145 15:44 01.04.2022
4489 Clouds 9 1028 27 10000 1.76 166 14:39 01.04.2022
4490 Clouds 11 1027 24 10000 2.01 202 13:36 01.04.2022
4491 Clouds 13 1026 20 10000 2.77 194 12:33 01.04.2022
4492 Clouds 14 1026 18 10000 3.71 200 11:45 01.04.2022
4493 Clouds 14 1026 15 10000 3.79 203 10:34 01.04.2022
4494 Clouds 15 1027 15 10000 3.63 207 09:34 01.04.2022
4495 Clouds 14 1031 15 10000 4.14 207 07:19 01.04.2022
4496 Clear 10 1034 20 10000 3.31 207 04:56 01.04.2022
4497 Clear 10 1034 20 10000 3.31 207 04:37 01.04.2022
4498 Clear 7 1037 22 10000 0.54 200 02:19 01.04.2022
4499 Clear 1 1036 22 10000 0.7 190 01:31 01.04.2022
4500 Clear -1 1036 21 10000 0.61 203 22:23 31.03.2022
4501 Clear 0 1036 21 10000 0.61 203 21:37 31.03.2022
4502 Clear -1 1037 20 10000 0.57 130 20:50 31.03.2022
4503 Clear 4 1037 19 10000 0.71 92 20:28 31.03.2022
4504 Clear 8 1037 19 10000 1.29 122 19:18 31.03.2022
4505 Clear 7 1037 19 10000 1.29 122 18:31 31.03.2022
4506 Clear 7 1037 17 10000 2.29 64 16:46 31.03.2022
4507 Clear 5 1037 16 10000 2.5 53 15:54 31.03.2022
4508 Clear 7 1037 15 10000 2.12 62 15:24 31.03.2022
4509 Clear 6 1037 15 10000 2.12 62 14:44 31.03.2022
4510 Clear 10 1034 12 10000 3.11 48 13:28 31.03.2022
4511 Clear 14 1034 9 10000 4.19 37 11:30 31.03.2022
4512 Clear 14 1033 9 10000 5.24 9 10:22 31.03.2022
4513 Clear 15 1033 10 10000 5.67 0 09:19 31.03.2022
4514 Clear 15 1033 13 10000 6.71 350 07:31 31.03.2022
4515 Clouds 4 1032 64 10000 1.31 257 01:37 31.03.2022
4516 Clouds 3 1031 72 10000 0.44 252 23:23 30.03.2022
4517 Clouds 2 1031 70 10000 1.17 244 21:54 30.03.2022
4518 Clear 3 1031 68 10000 0.76 234 21:27 30.03.2022
4519 Clouds 2 1031 67 10000 0.34 193 20:32 30.03.2022
4520 Clouds 3 1031 67 10000 0.34 193 19:43 30.03.2022
4521 Clouds 3 1031 67 10000 1.27 24 18:41 30.03.2022
4522 Clouds 3 1031 65 10000 1.35 28 17:50 30.03.2022
4523 Clouds 5 1031 63 10000 1.77 32 16:58 30.03.2022
4524 Clouds 5 1031 63 10000 1.77 32 16:39 30.03.2022
4525 Clouds 7 1030 58 10000 2.32 28 15:38 30.03.2022
4526 Clouds 7 1027 58 10000 1.81 32 14:18 30.03.2022
4527 Clouds 8 1025 54 10000 1.96 55 13:20 30.03.2022
4528 Clouds 8 1024 37 10000 1.45 90 11:55 30.03.2022
4529 Clouds 9 1024 33 10000 1.88 134 10:38 30.03.2022
4530 Clouds 10 1024 32 10000 2.25 151 09:30 30.03.2022
4531 Clouds 9 1024 39 10000 2.44 173 07:59 30.03.2022
4532 Clouds 8 1026 50 10000 1.68 184 05:41 30.03.2022
4533 Clouds 8 1026 58 10000 1.28 160 05:23 30.03.2022
4534 Clouds 8 1024 75 10000 0.91 178 00:43 30.03.2022
4535 Clouds 8 1022 78 10000 1.12 158 22:35 29.03.2022
4536 Clouds 9 1022 76 10000 0.42 147 21:46 29.03.2022
4537 Rain 8 1022 76 10000 0.53 116 20:55 29.03.2022
4538 Clouds 8 1021 67 10000 2.13 117 20:25 29.03.2022
4539 Clouds 7 1020 74 10000 2.03 114 19:20 29.03.2022
4540 Clouds 7 1020 74 10000 2.03 114 18:48 29.03.2022
4541 Clouds 6 1020 81 10000 1.68 99 17:39 29.03.2022
4542 Clouds 6 1020 82 10000 1.84 74 16:59 29.03.2022
4543 Clouds 5 1019 82 10000 1.93 95 16:20 29.03.2022
4544 Clouds 8 1018 81 10000 2.23 68 14:53 29.03.2022
4545 Clouds 9 1017 81 10000 2.21 44 14:24 29.03.2022
4546 Rain 10 1016 79 10000 1.41 49 12:57 29.03.2022
4547 Rain 10 1016 78 10000 2.08 47 11:46 29.03.2022
4548 Clouds 10 1015 72 10000 2.39 15 10:59 29.03.2022
4549 Clouds 10 1014 71 10000 2.97 31 09:50 29.03.2022
4550 Rain 10 1015 71 10000 2.48 350 08:20 29.03.2022
4551 Rain 10 1015 63 10000 0.49 6 05:38 29.03.2022
4552 Clouds 12 1015 55 10000 2.98 171 01:25 29.03.2022
4553 Clouds 12 1014 48 10000 3.8 174 23:25 28.03.2022
4554 Clouds 12 1014 48 10000 3.8 174 22:54 28.03.2022
4555 Clouds 12 1014 44 10000 4.21 178 22:28 28.03.2022
4556 Clouds 12 1015 41 10000 4.42 178 20:59 28.03.2022
4557 Rain 12 1015 41 10000 4.74 179 20:31 28.03.2022
4558 Clouds 13 1015 38 10000 5.06 183 19:46 28.03.2022
4559 Clouds 13 1015 36 10000 5 187 19:28 28.03.2022
4560 Clouds 13 1015 36 10000 5 187 18:40 28.03.2022
4561 Clouds 13 1016 35 10000 4.84 189 17:39 28.03.2022
4562 Clouds 14 1016 34 10000 5.29 183 16:38 28.03.2022
4563 Clouds 14 1017 33 10000 5.23 187 14:49 28.03.2022
4564 Clouds 13 1016 28 10000 5.05 179 14:22 28.03.2022
4565 Clouds 15 1015 22 10000 4.62 182 12:41 28.03.2022
4566 Clear 17 1016 18 10000 5.13 192 11:32 28.03.2022
4567 Clear 18 1015 15 10000 6.11 199 09:43 28.03.2022
4568 Clear 18 1016 15 10000 6.23 203 09:19 28.03.2022
4569 Clear 18 1017 15 10000 5.89 205 08:22 28.03.2022
4570 Clear 17 1017 15 10000 5.89 205 07:40 28.03.2022
4571 Clear 12 1021 19 10000 3.96 209 04:18 28.03.2022
4572 Clear 3 1020 24 10000 1.69 212 23:33 27.03.2022
4573 Clear 7 1020 22 10000 2.7 211 22:25 27.03.2022
4574 Clear 5 1020 22 10000 2.7 211 21:42 27.03.2022
4575 Clear 7 1020 21 10000 3.4 217 20:58 27.03.2022
4576 Clear 8 1020 21 10000 3.64 219 19:49 27.03.2022
4577 Clear 7 1020 22 10000 3.86 212 19:26 27.03.2022
4578 Clear 8 1020 19 10000 4.18 208 18:28 27.03.2022
4579 Clear 8 1020 19 10000 4.18 208 17:39 27.03.2022
4580 Clear 10 1021 16 10000 4.16 205 16:31 27.03.2022
4581 Clear 12 1021 12 10000 3.75 196 15:25 27.03.2022
4582 Clear 13 1020 11 10000 3.65 192 13:56 27.03.2022
4583 Clear 15 1019 10 10000 3.3 185 12:37 27.03.2022
4584 Clear 15 1019 7 10000 1.68 307 11:20 27.03.2022
4585 Clear 15 1020 7 10000 3.42 324 08:53 27.03.2022
4586 Clear 13 1024 9 10000 4.61 316 05:54 27.03.2022
4587 Clear 8 1026 13 10000 3.5 299 00:48 27.03.2022
4588 Clear 4 1025 14 10000 2.67 298 23:46 26.03.2022
4589 Clear 5 1024 14 10000 2.7 305 22:38 26.03.2022
4590 Clear 7 1024 12 10000 2.93 318 21:38 26.03.2022
4591 Clear 7 1024 12 10000 2.93 318 21:38 26.03.2022
4592 Clear 7 1023 11 10000 3.55 330 20:57 26.03.2022
4593 Clear 7 1022 11 10000 4.99 338 19:29 26.03.2022
4594 Clear 9 1022 11 10000 5.65 340 17:54 26.03.2022
4595 Clear 9 1022 11 10000 5.65 340 17:54 26.03.2022
4596 Clear 9 1022 11 10000 5.65 340 17:33 26.03.2022
4597 Clear 9 1022 11 10000 5.65 340 17:33 26.03.2022
4598 Clear 10 1020 12 10000 7.25 332 16:27 26.03.2022
4599 Clear 12 1019 16 10000 7.53 337 15:20 26.03.2022
4600 Clear 14 1017 17 10000 8.89 335 13:53 26.03.2022
4601 Clouds 15 1014 14 10000 8.78 332 12:59 26.03.2022
4602 Clouds 15 1011 16 10000 6.46 318 11:41 26.03.2022
4603 Clouds 15 1011 16 10000 6.46 318 11:41 26.03.2022
4604 Clouds 19 1009 13 10000 7.63 308 10:28 26.03.2022
4605 Clouds 19 1009 9 10000 7.4 288 08:35 26.03.2022
4606 Clear 18 1012 9 10000 2.98 207 05:54 26.03.2022
4607 Clear 17 1014 11 10000 1.24 278 04:23 26.03.2022
4608 Clouds 1 1015 29 10000 1.87 325 00:28 26.03.2022
4609 Clear 2 1015 32 10000 2.39 315 21:49 25.03.2022
4610 Clear 1 1014 32 10000 2.32 322 20:46 25.03.2022
4611 Clear 3 1014 31 10000 2.47 319 19:38 25.03.2022
4612 Clouds 7 1014 29 10000 2.97 318 18:47 25.03.2022
4613 Clouds 4 1014 28 10000 2.9 326 17:47 25.03.2022
4614 Clouds 4 1014 26 10000 2.84 319 17:26 25.03.2022
4615 Clouds 4 1014 26 10000 2.11 316 16:18 25.03.2022
4616 Clouds 7 1014 26 10000 2.19 334 14:26 25.03.2022
4617 Clouds 9 1014 24 10000 2.16 337 12:57 25.03.2022
4618 Clouds 15 1013 16 10000 2.95 330 10:22 25.03.2022
4619 Clouds 15 1012 13 10000 3 348 09:28 25.03.2022
4620 Clouds 14 1012 12 10000 2.88 12 07:54 25.03.2022
4621 Clouds 14 1013 12 10000 3.55 359 07:27 25.03.2022
4622 Clouds 14 1013 13 10000 4.04 2 05:55 25.03.2022
4623 Clouds 7 1014 49 10000 3.85 7 00:46 25.03.2022
4624 Rain 5 1012 65 10000 3.14 2 22:39 24.03.2022
4625 Clouds 5 1011 67 10000 2.74 357 21:42 24.03.2022
4626 Clouds 7 1010 66 10000 1.67 10 19:51 24.03.2022
4627 Clouds 7 1010 66 10000 1.67 10 19:33 24.03.2022
4628 Clouds 7 1011 66 10000 1.96 356 17:47 24.03.2022
4629 Clouds 7 1011 66 10000 2.17 356 17:19 24.03.2022
4630 Clouds 7 1010 64 10000 1.61 355 15:21 24.03.2022
4631 Clouds 7 1010 64 10000 1.61 355 14:48 24.03.2022
4632 Rain 7 1009 61 10000 1.51 335 14:18 24.03.2022
4633 Clouds 7 1009 60 10000 0.98 288 12:52 24.03.2022
4634 Clouds 7 1008 59 10000 1.06 299 11:45 24.03.2022
4635 Clouds 8 1007 55 10000 1.97 217 09:53 24.03.2022
4636 Clouds 8 1007 54 10000 3.19 221 08:41 24.03.2022
4637 Clouds 9 1008 47 10000 2.89 206 06:49 24.03.2022
4638 Clear 7 1011 54 10000 1.41 122 02:24 24.03.2022
4639 Clouds 0 1011 62 10000 1.55 28 23:20 23.03.2022
4640 Clouds 0 1010 59 10000 1.85 42 21:27 23.03.2022
4641 Clouds 0 1010 59 10000 1.85 42 20:59 23.03.2022
4642 Clear 0 1011 56 10000 1.91 39 19:45 23.03.2022
4643 Clear 0 1011 55 10000 1.97 36 18:45 23.03.2022
4644 Clear 1 1012 53 10000 1.55 20 17:36 23.03.2022
4645 Clear 2 1012 51 10000 0.87 65 16:33 23.03.2022
4646 Clear 5 1011 46 10000 1.71 39 14:51 23.03.2022
4647 Clear 4 1011 42 10000 2.1 29 14:26 23.03.2022
4648 Clouds 5 1011 45 10000 2.71 24 12:50 23.03.2022
4649 Clouds 10 1010 30 10000 2.09 58 09:42 23.03.2022
4650 Clouds 8 1010 28 10000 2.66 238 06:41 23.03.2022
4651 Clouds 6 1013 31 10000 2.09 203 04:41 23.03.2022
4652 Clear -1 1016 49 10000 1 20 00:29 23.03.2022
4653 Clear -2 1016 48 10000 1.36 43 22:46 22.03.2022
4654 Clear 0 1016 42 10000 1.28 5 21:30 22.03.2022
4655 Clear 0 1016 42 10000 1.28 5 20:45 22.03.2022
4656 Clear -2 1017 40 10000 0.54 30 19:43 22.03.2022
4657 Clear -2 1018 43 10000 1.15 256 19:18 22.03.2022
4658 Clear -1 1018 43 10000 1.15 256 18:31 22.03.2022
4659 Clear -2 1020 36 10000 1.68 214 17:29 22.03.2022
4660 Clouds 0 1020 33 10000 2.32 210 16:27 22.03.2022
4661 Clouds 0 1021 30 10000 2.78 202 15:23 22.03.2022
4662 Clouds 1 1021 30 10000 2.78 202 14:47 22.03.2022
4663 Clouds 2 1021 27 10000 3.48 196 14:27 22.03.2022
4664 Clouds 3 1021 27 10000 3.48 196 13:35 22.03.2022
4665 Clouds 7 1020 28 10000 4.02 192 11:52 22.03.2022
4666 Rain 8 1021 25 10000 3.71 188 10:40 22.03.2022
4667 Clouds 10 1022 17 10000 3.59 204 08:29 22.03.2022
4668 Clouds 8 1026 17 10000 3.5 188 05:25 22.03.2022
4669 Clouds 5 1028 21 10000 3.35 195 03:47 22.03.2022
4670 Clouds 0 1029 35 10000 0.47 359 00:22 22.03.2022
4671 Clouds -2 1028 35 10000 1.12 19 22:42 21.03.2022
4672 Clouds -1 1029 32 10000 0.87 319 20:57 21.03.2022
4673 Clouds -2 1029 32 10000 0.87 319 20:38 21.03.2022
4674 Clear -3 1028 31 10000 1.27 13 19:58 21.03.2022
4675 Clear -1 1028 31 10000 1.27 13 19:33 21.03.2022
4676 Clouds 2 1029 28 10000 0.73 319 18:31 21.03.2022
4677 Clear -2 1029 27 10000 0.19 107 17:19 21.03.2022
4678 Clear 1 1029 27 10000 0.19 107 16:44 21.03.2022
4679 Clear 4 1028 26 10000 1.42 82 15:55 21.03.2022
4680 Clear 5 1029 25 10000 1.75 63 15:20 21.03.2022
4681 Clear 5 1028 24 10000 2.53 53 14:25 21.03.2022
4682 Clouds 8 1027 22 10000 3.27 45 12:42 21.03.2022
4683 Clouds 9 1026 19 10000 3.69 34 11:53 21.03.2022
4684 Clouds 12 1025 16 10000 3.74 7 10:44 21.03.2022
4685 Clouds 13 1024 15 10000 4.67 344 08:56 21.03.2022
4686 Clouds 12 1024 13 10000 4.71 349 06:57 21.03.2022
4687 Clouds 8 1027 27 10000 3.97 7 02:55 21.03.2022
4688 Clouds 0 1025 40 10000 3.46 3 00:35 21.03.2022
4689 Clouds 0 1024 43 10000 3.25 1 22:55 20.03.2022
4690 Clouds 3 1024 43 10000 3.04 1 21:57 20.03.2022
4691 Clouds 5 1023 42 10000 2.45 359 21:29 20.03.2022
4692 Clouds 5 1023 42 10000 2.45 359 20:45 20.03.2022
4693 Clouds 5 1023 42 10000 2.09 350 20:00 20.03.2022
4694 Clouds 5 1023 42 10000 2.09 350 19:38 20.03.2022
4695 Clouds 5 1024 42 10000 1.94 333 18:40 20.03.2022
4696 Clouds 5 1023 42 10000 1.73 323 17:37 20.03.2022
4697 Clouds 5 1023 40 10000 1.72 305 16:58 20.03.2022
4698 Clouds 5 1022 39 10000 1.44 294 15:52 20.03.2022
4699 Clouds 7 1022 37 10000 1.63 272 14:36 20.03.2022
4700 Clear 9 1020 32 10000 1.83 255 13:18 20.03.2022
4701 Clouds 10 1020 29 10000 1.51 273 11:32 20.03.2022
4702 Clouds 10 1019 25 10000 2.4 303 09:57 20.03.2022
4703 Clouds 9 1018 29 10000 1.08 284 07:51 20.03.2022
4704 Clouds 7 1020 36 10000 1.76 238 05:49 20.03.2022
4705 Clouds 2 1021 47 10000 0.56 291 02:53 20.03.2022
4706 Clouds -1 1021 58 10000 0.59 6 00:48 20.03.2022
4707 Clouds -2 1020 61 10000 0.55 44 23:21 19.03.2022
4708 Snow -2 1020 58 10000 0.4 56 21:41 19.03.2022
4709 Clouds -1 1020 55 10000 0.28 170 21:18 19.03.2022
4710 Clouds -1 1020 50 10000 0.94 179 19:21 19.03.2022
4711 Clouds 0 1021 50 10000 1.16 162 18:25 19.03.2022
4712 Clouds 0 1021 50 10000 1.16 162 17:41 19.03.2022
4713 Clouds 0 1021 47 10000 1.61 173 16:40 19.03.2022
4714 Clouds 0 1021 39 10000 1.82 179 15:21 19.03.2022
4715 Clouds 2 1021 37 10000 1.73 165 13:39 19.03.2022
4716 Clouds 3 1021 34 10000 1.86 175 12:42 19.03.2022
4717 Clouds 4 1020 31 10000 1.66 170 12:19 19.03.2022
4718 Clouds 5 1020 31 10000 1.66 170 11:42 19.03.2022
4719 Clouds 5 1019 24 10000 0.48 209 08:34 19.03.2022
4720 Clouds 3 1023 41 10000 2.59 344 04:24 19.03.2022
4721 Clouds 0 1023 49 10000 2.84 353 02:31 19.03.2022
4722 Clouds -2 1021 81 10000 1.56 310 23:50 18.03.2022
4723 Clouds -1 1020 86 10000 0.98 286 22:43 18.03.2022
4724 Clouds -1 1019 89 10000 0.81 271 22:20 18.03.2022
4725 Clouds -2 1018 91 10000 1.38 30 20:25 18.03.2022
4726 Clouds -1 1018 91 9662 2.74 41 19:23 18.03.2022
4727 Clouds -3 1018 86 10000 2.16 32 18:35 18.03.2022
4728 Clouds -2 1017 84 10000 1.54 25 16:53 18.03.2022
4729 Clouds -2 1016 86 10000 1.68 11 16:18 18.03.2022
4730 Clouds -3 1015 86 10000 1.56 29 14:26 18.03.2022
4731 Clouds -4 1015 86 10000 1.56 29 13:36 18.03.2022
4732 Snow -1 1013 88 4601 1.53 62 11:29 18.03.2022
4733 Snow 0 1012 77 4429 2.37 148 09:52 18.03.2022
4734 Snow 0 1013 52 7746 0.87 275 08:45 18.03.2022
4735 Clouds 0 1012 30 10000 2.98 160 06:45 18.03.2022
4736 Clouds 0 1012 30 10000 2.98 160 06:45 18.03.2022
4737 Clouds 0 1015 42 10000 2.52 171 04:39 18.03.2022
4738 Clouds -1 1017 69 10000 1.75 126 00:55 18.03.2022
4739 Clouds -1 1019 71 10000 1.34 149 23:52 17.03.2022
4740 Clouds -1 1019 71 10000 1.34 149 23:52 17.03.2022
4741 Clouds -1 1019 71 10000 1.34 149 23:52 17.03.2022
4742 Clouds -1 1019 71 10000 1.35 157 22:44 17.03.2022
4743 Clouds -1 1019 71 10000 1.39 160 22:18 17.03.2022
4744 Clouds -1 1019 70 10000 1.11 172 21:27 17.03.2022
4745 Clouds -1 1019 70 10000 1.11 172 20:53 17.03.2022
4746 Clouds -1 1020 71 10000 1.6 186 20:19 17.03.2022
4747 Clouds -1 1020 71 10000 1.6 186 19:37 17.03.2022
4748 Clouds -1 1021 78 10000 1.44 139 18:51 17.03.2022
4749 Clouds -1 1023 78 10000 1.45 156 17:29 17.03.2022
4750 Clouds -1 1023 78 10000 1.61 116 16:20 17.03.2022
4751 Clouds -1 1023 78 10000 1.61 116 15:43 17.03.2022
4752 Clouds -1 1024 77 10000 1.8 113 14:59 17.03.2022
4753 Clouds -1 1025 75 10000 1.52 117 13:35 17.03.2022
4754 Clouds -1 1024 74 10000 2.55 101 12:44 17.03.2022
4755 Clouds -1 1025 72 10000 2.28 106 11:32 17.03.2022
4756 Clouds -1 1025 70 10000 2.66 106 10:41 17.03.2022
4757 Snow -1 1025 71 10000 2.53 102 09:36 17.03.2022
4758 Snow -1 1026 72 8037 2.43 127 08:19 17.03.2022
4759 Snow 2 1027 30 6915 2.77 152 05:49 17.03.2022
4760 Clouds 3 1028 25 10000 2.89 153 04:30 17.03.2022
4761 Clouds 3 1030 22 10000 3.75 157 00:25 17.03.2022
4762 Clouds 3 1030 22 10000 3.94 145 22:52 16.03.2022
4763 Clouds 3 1030 22 10000 3.94 145 22:34 16.03.2022
4764 Clouds 3 1030 21 10000 3.44 140 21:55 16.03.2022
4765 Clouds 4 1029 22 10000 3.67 142 20:40 16.03.2022
4766 Clouds 4 1029 21 10000 3.47 132 19:23 16.03.2022
4767 Clouds 4 1029 23 10000 3.64 139 18:42 16.03.2022
4768 Clouds 5 1030 27 10000 3.53 144 17:46 16.03.2022
4769 Clouds 5 1030 33 10000 3.31 153 17:28 16.03.2022
4770 Clouds 7 1029 37 10000 3.61 156 15:56 16.03.2022
4771 Clouds 8 1029 35 10000 3.21 146 14:38 16.03.2022
4772 Clouds 9 1028 32 10000 4.36 154 13:35 16.03.2022
4773 Clouds 10 1026 34 10000 4.67 161 12:43 16.03.2022
4774 Clouds 10 1023 33 10000 3.77 132 11:23 16.03.2022
4775 Clouds 12 1023 33 10000 3.77 132 10:30 16.03.2022
4776 Clouds 13 1022 31 10000 3.1 121 09:56 16.03.2022
4777 Clouds 13 1021 34 10000 1.97 103 07:23 16.03.2022
4778 Clouds 9 1022 47 10000 2.25 128 02:44 16.03.2022
4779 Clouds 9 1017 47 10000 1.3 109 22:55 15.03.2022
4780 Clouds 9 1017 47 10000 1.3 109 22:35 15.03.2022
4781 Clouds 10 1014 43 10000 3.59 111 20:55 15.03.2022
4782 Clouds 9 1013 35 10000 2.89 87 19:37 15.03.2022
4783 Clouds 9 1012 30 10000 1.72 47 17:42 15.03.2022
4784 Clouds 10 1012 29 10000 1.68 40 16:35 15.03.2022
4785 Clouds 12 1011 29 10000 1.71 48 15:38 15.03.2022
4786 Clouds 11 1011 29 10000 1.85 42 14:52 15.03.2022
4787 Clouds 13 1009 28 10000 1.33 108 13:55 15.03.2022
4788 Clouds 13 1009 28 10000 1.33 108 13:55 15.03.2022
4789 Clouds 13 1008 27 10000 1.96 197 13:21 15.03.2022
4790 Clouds 15 1006 25 10000 3.51 188 11:32 15.03.2022
4791 Clear 16 1006 18 10000 3.22 191 10:22 15.03.2022
4792 Clear 16 1006 18 10000 2.28 184 08:53 15.03.2022
4793 Clear 15 1006 18 10000 1.19 203 07:53 15.03.2022
4794 Clear 15 1006 18 10000 1.19 203 07:35 15.03.2022
4795 Clear 10 1008 29 10000 0.86 190 05:55 15.03.2022
4796 Clouds 3 1011 61 10000 2.47 61 00:25 15.03.2022
4797 Clouds 2 1011 61 10000 2.99 70 23:27 14.03.2022
4798 Clouds 3 1011 61 10000 2.99 70 22:44 14.03.2022
4799 Clouds 3 1011 61 10000 3.42 67 21:51 14.03.2022
4800 Clouds 4 1011 61 10000 3.47 92 20:55 14.03.2022
4801 Clouds 4 1011 60 10000 3.96 101 20:24 14.03.2022
4802 Clouds 4 1011 54 10000 4.64 113 19:22 14.03.2022
4803 Clouds 5 1012 42 10000 4.95 121 17:55 14.03.2022
4804 Clouds 6 1012 42 10000 4.95 121 17:33 14.03.2022
4805 Clouds 10 1012 24 10000 3.38 142 16:27 14.03.2022
4806 Clouds 13 1012 23 10000 2.79 164 14:42 14.03.2022
4807 Clouds 15 1011 17 10000 3.13 159 12:55 14.03.2022
4808 Clouds 20 1011 13 10000 2.98 144 10:59 14.03.2022
4809 Clouds 20 1012 11 10000 2.39 142 09:56 14.03.2022
4810 Clear 21 1012 11 10000 1.42 28 09:24 14.03.2022
4811 Clear 20 1012 11 10000 1.42 28 08:57 14.03.2022
4812 Clear 20 1012 11 10000 3.29 339 08:24 14.03.2022
4813 Clear 17 1014 13 10000 5.59 316 05:51 14.03.2022
4814 Clear 9 1016 23 10000 4.96 329 02:57 14.03.2022
4815 Clear 7 1016 41 10000 3.64 340 01:36 14.03.2022
4816 Clouds 1 1013 55 10000 1.04 216 23:29 13.03.2022
4817 Clouds 3 1013 51 10000 0.85 210 21:41 13.03.2022
4818 Clouds 5 1013 49 10000 0.44 196 21:19 13.03.2022
4819 Clouds 5 1013 49 10000 0.44 196 20:46 13.03.2022
4820 Clouds 5 1013 47 10000 0.71 127 20:21 13.03.2022
4821 Clouds 5 1013 47 10000 0.71 127 19:41 13.03.2022
4822 Clouds 5 1013 48 10000 0.72 45 19:20 13.03.2022
4823 Clouds 7 1013 48 10000 0.72 45 18:41 13.03.2022
4824 Rain 7 1012 53 10000 1.29 132 17:52 13.03.2022
4825 Clouds 7 1012 53 10000 1.29 132 17:33 13.03.2022
4826 Clouds 8 1012 53 10000 1.82 161 16:44 13.03.2022
4827 Clouds 8 1013 52 10000 2.03 179 16:20 13.03.2022
4828 Clouds 8 1013 52 10000 2.03 179 15:34 13.03.2022
4829 Clouds 9 1013 53 10000 3.31 156 14:20 13.03.2022
4830 Clouds 9 1013 53 10000 3.97 162 13:27 13.03.2022
4831 Clouds 10 1014 52 10000 4.34 159 12:20 13.03.2022
4832 Clouds 10 1014 52 10000 4.34 159 11:36 13.03.2022
4833 Clouds 10 1014 52 10000 4.34 159 11:36 13.03.2022
4834 Clouds 10 1013 50 10000 4.76 165 10:49 13.03.2022
4835 Clouds 11 1012 48 10000 5.37 165 10:25 13.03.2022
4836 Clouds 11 1012 48 10000 5.37 165 09:41 13.03.2022
4837 Clouds 11 1012 46 10000 4.94 166 08:49 13.03.2022
4838 Clouds 11 1012 44 10000 4.09 169 08:21 13.03.2022
4839 Clouds 10 1014 44 10000 3.63 151 05:59 13.03.2022
4840 Clouds 10 1015 52 10000 3.88 143 03:33 13.03.2022
4841 Clouds 2 1014 63 10000 1.94 84 00:48 13.03.2022
4842 Clouds 1 1011 66 10000 1.64 41 22:48 12.03.2022
4843 Clouds 3 1011 61 10000 1 336 20:59 12.03.2022
4844 Clouds 3 1011 59 10000 1.1 301 19:57 12.03.2022
4845 Clouds 3 1011 59 10000 1.1 301 19:39 12.03.2022
4846 Clouds 5 1012 54 10000 1.38 309 18:31 12.03.2022
4847 Clouds 4 1012 52 10000 0.82 322 17:43 12.03.2022
4848 Rain 6 1012 51 10000 0.75 265 16:25 12.03.2022
4849 Clouds 5 1011 49 10000 1.32 207 15:24 12.03.2022
4850 Clouds 6 1011 49 10000 1.32 207 14:52 12.03.2022
4851 Clouds 7 1011 46 10000 1.78 206 13:53 12.03.2022
4852 Clouds 7 1011 46 10000 1.78 206 13:53 12.03.2022
4853 Clouds 9 1008 42 10000 0.79 142 12:25 12.03.2022
4854 Clouds 11 1008 42 10000 0.79 142 11:51 12.03.2022
4855 Clouds 12 1008 39 10000 1.15 192 11:19 12.03.2022
4856 Clouds 13 1008 38 10000 0.69 198 09:58 12.03.2022
4857 Clouds 13 1008 38 10000 0.69 198 09:39 12.03.2022
4858 Clouds 12 1008 40 10000 1.01 200 07:51 12.03.2022
4859 Clouds 10 1011 46 10000 1.36 11 05:20 12.03.2022
4860 Rain 5 1014 41 10000 2.28 338 00:24 12.03.2022
4861 Rain 7 1013 28 10000 1.14 70 23:28 11.03.2022
4862 Rain 7 1014 26 10000 1.48 75 21:48 11.03.2022
4863 Clouds 8 1015 25 10000 1.21 104 20:58 11.03.2022
4864 Rain 8 1015 25 10000 1.21 104 20:37 11.03.2022
4865 Rain 8 1015 24 10000 1.51 122 19:54 11.03.2022
4866 Clouds 8 1017 23 10000 1.59 125 19:27 11.03.2022
4867 Clouds 7 1019 23 10000 1.95 133 17:37 11.03.2022
4868 Clouds 7 1019 22 10000 2.11 136 17:18 11.03.2022
4869 Clouds 8 1020 20 10000 2.06 131 15:57 11.03.2022
4870 Clouds 10 1020 20 10000 2.43 132 14:22 11.03.2022
4871 Clouds 9 1020 20 10000 2.2 133 13:21 11.03.2022
4872 Clouds 10 1020 22 10000 2.91 136 12:22 11.03.2022
4873 Clouds 10 1020 22 10000 2.91 136 11:56 11.03.2022
4874 Clouds 12 1020 23 10000 3.07 144 10:24 11.03.2022
4875 Clouds 12 1019 26 10000 3.42 152 09:27 11.03.2022
4876 Clouds 12 1020 31 10000 3.48 154 08:24 11.03.2022
4877 Rain 12 1020 31 10000 3.48 154 07:46 11.03.2022
4878 Clouds 12 1021 34 10000 3.56 143 06:22 11.03.2022
4879 Clouds 12 1022 37 10000 3.66 123 04:24 11.03.2022
4880 Clouds 9 1020 58 10000 1.26 81 00:21 11.03.2022
4881 Clouds 7 1019 58 10000 1.6 96 22:31 10.03.2022
4882 Rain 7 1018 57 10000 2.26 52 21:50 10.03.2022
4883 Clouds 8 1016 56 10000 1.7 40 21:23 10.03.2022
4884 Clouds 5 1015 55 10000 1.68 40 19:51 10.03.2022
4885 Clouds 6 1015 53 10000 2.23 30 18:56 10.03.2022
4886 Clouds 7 1015 49 10000 2.04 62 17:36 10.03.2022
4887 Clouds 6 1014 45 10000 2.04 60 16:37 10.03.2022
4888 Clouds 7 1014 38 10000 1.67 35 15:26 10.03.2022
4889 Clear 10 1013 36 10000 1.77 26 13:30 10.03.2022
4890 Clear 13 1013 36 10000 1.94 359 12:34 10.03.2022
4891 Clear 16 1011 33 10000 1.43 349 11:23 10.03.2022
4892 Clear 19 1011 29 10000 0.15 43 09:27 10.03.2022
4893 Clear 19 1011 29 10000 0.12 121 07:46 10.03.2022
4894 Clear 13 1014 31 10000 1.08 66 04:59 10.03.2022
4895 Clear 7 1015 43 10000 1.38 13 01:53 10.03.2022
4896 Clouds 1 1013 54 10000 1.61 21 23:29 09.03.2022
4897 Clouds 2 1013 53 10000 1.79 20 21:56 09.03.2022
4898 Clouds 3 1013 53 10000 1.79 20 21:36 09.03.2022
4899 Clouds 4 1013 48 10000 1.47 19 19:56 09.03.2022
4900 Clouds 6 1014 43 10000 1.62 10 18:34 09.03.2022
4901 Clouds 7 1014 37 10000 0.98 331 17:27 09.03.2022
4902 Clouds 10 1014 37 10000 0.98 331 16:35 09.03.2022
4903 Clouds 9 1015 35 10000 0.34 353 15:31 09.03.2022
4904 Clouds 11 1015 31 10000 1.03 15 13:54 09.03.2022
4905 Clouds 11 1015 29 10000 1.2 353 12:56 09.03.2022
4906 Clouds 10 1015 28 10000 1.11 316 12:18 09.03.2022
4907 Clouds 14 1015 28 10000 1.11 316 11:36 09.03.2022
4908 Clouds 16 1015 26 10000 1.31 286 10:38 09.03.2022
4909 Clouds 17 1015 23 10000 1.59 223 08:59 09.03.2022
4910 Clouds 17 1016 22 10000 1.15 211 08:23 09.03.2022
4911 Clouds 12 1021 26 10000 1.14 102 03:50 09.03.2022
4912 Clouds 5 1022 33 10000 1.27 70 00:47 09.03.2022
4913 Clouds 1 1020 32 10000 1.5 75 22:48 08.03.2022
4914 Clouds 1 1020 30 10000 1.34 91 22:29 08.03.2022
4915 Clouds 2 1020 28 10000 0.99 74 21:24 08.03.2022
4916 Clouds 1 1020 28 10000 0.99 74 20:49 08.03.2022
4917 Clouds 3 1019 26 10000 1.56 59 19:53 08.03.2022
4918 Clear 2 1020 25 10000 1.34 21 18:44 08.03.2022
4919 Clear 1 1020 23 10000 1.45 3 17:40 08.03.2022
4920 Clear 4 1019 21 10000 1.31 20 16:29 08.03.2022
4921 Clear 4 1018 18 10000 1.19 313 14:20 08.03.2022
4922 Clear 10 1017 17 10000 1.19 312 12:44 08.03.2022
4923 Clear 15 1016 16 10000 0.6 288 11:45 08.03.2022
4924 Clear 16 1015 15 10000 0.3 18 10:55 08.03.2022
4925 Clear 17 1014 14 10000 0.68 47 10:19 08.03.2022
4926 Clear 15 1014 14 10000 0.59 40 07:34 08.03.2022
4927 Clear 12 1015 16 10000 0.57 52 05:44 08.03.2022
4928 Clear -2 1016 29 10000 1.11 19 23:58 07.03.2022
4929 Clear 3 1016 27 10000 0.34 114 22:23 07.03.2022
4930 Clear 3 1016 27 10000 0.34 114 21:34 07.03.2022
4931 Clear 4 1016 26 10000 0.78 171 20:49 07.03.2022
4932 Clear 4 1017 25 10000 1.31 179 20:20 07.03.2022
4933 Clear 4 1017 25 10000 1.31 179 19:34 07.03.2022
4934 Clear 3 1017 25 10000 1.4 172 18:46 07.03.2022
4935 Clouds 2 1018 23 10000 1.44 180 17:52 07.03.2022
4936 Clouds 8 1018 22 10000 1.92 192 16:56 07.03.2022
4937 Clouds 7 1018 21 10000 2.17 199 16:20 07.03.2022
4938 Clouds 7 1018 18 10000 2.11 180 14:18 07.03.2022
4939 Clouds 14 1018 17 10000 2.12 158 12:33 07.03.2022
4940 Clear 19 1017 14 10000 2.27 154 10:39 07.03.2022
4941 Clear 18 1017 11 10000 1.69 88 09:25 07.03.2022
4942 Clear 15 1019 13 10000 2.51 11 06:20 07.03.2022
4943 Clear -3 1018 31 10000 1.81 352 00:23 07.03.2022
4944 Clear -2 1018 31 10000 1.81 352 23:35 06.03.2022
4945 Clear -2 1018 29 10000 1.85 352 22:57 06.03.2022
4946 Clear -4 1017 28 10000 2.03 335 22:19 06.03.2022
4947 Clear -4 1017 29 10000 1.43 339 20:51 06.03.2022
4948 Clear -3 1017 29 10000 1.31 355 20:26 06.03.2022
4949 Clouds 0 1018 29 10000 1.51 16 19:23 06.03.2022
4950 Clouds 0 1018 30 10000 1.8 19 18:25 06.03.2022
4951 Clouds 1 1018 29 10000 1.58 56 17:21 06.03.2022
4952 Clouds 2 1018 29 10000 1.58 56 16:43 06.03.2022
4953 Clouds 3 1019 28 10000 1.8 61 16:18 06.03.2022
4954 Clouds 5 1018 25 10000 2.25 113 14:57 06.03.2022
4955 Clouds 6 1018 25 10000 2.25 113 14:33 06.03.2022
4956 Clouds 6 1018 23 10000 2.5 113 13:30 06.03.2022
4957 Clouds 8 1018 20 10000 1.66 161 12:35 06.03.2022
4958 Clear 10 1018 16 10000 2.93 194 11:21 06.03.2022
4959 Clear 11 1018 14 10000 4.02 199 10:28 06.03.2022
4960 Clear 11 1018 13 10000 4.32 200 08:30 06.03.2022
4961 Clouds 11 1019 13 10000 4.19 199 07:45 06.03.2022
4962 Clouds 10 1022 14 10000 2.69 197 06:19 06.03.2022
4963 Clear -3 1026 24 10000 1 114 00:53 06.03.2022
4964 Clear -6 1026 24 10000 1 114 00:31 06.03.2022
4965 Clear -6 1025 22 10000 0.99 118 23:23 05.03.2022
4966 Clear -6 1025 22 10000 0.99 118 22:53 05.03.2022
4967 Clear -6 1025 20 10000 1.06 125 21:56 05.03.2022
4968 Clear -5 1025 18 10000 1.03 106 21:23 05.03.2022
4969 Clear -6 1025 17 10000 1.25 108 19:44 05.03.2022
4970 Clear -5 1026 16 10000 1 115 18:56 05.03.2022
4971 Clear -2 1026 16 10000 0.72 117 18:27 05.03.2022
4972 Clear -4 1026 15 10000 0.52 157 16:49 05.03.2022
4973 Clear -3 1026 14 10000 0.82 133 15:31 05.03.2022
4974 Clear 3 1025 14 10000 1.3 131 14:47 05.03.2022
4975 Clear 2 1025 14 10000 1.89 109 14:29 05.03.2022
4976 Clear 1 1024 12 10000 2.3 79 13:22 05.03.2022
4977 Clear 8 1023 10 10000 1.57 11 11:48 05.03.2022
4978 Clear 8 1023 9 10000 2.6 338 11:19 05.03.2022
4979 Clear 9 1023 8 10000 4.06 328 10:20 05.03.2022
4980 Clear 9 1023 8 10000 4.64 323 09:22 05.03.2022
4981 Clear 9 1023 8 10000 4.88 322 07:38 05.03.2022
4982 Clear 8 1025 9 10000 5.4 320 05:43 05.03.2022
4983 Clear 5 1026 11 10000 5.52 325 03:49 05.03.2022
4984 Clear 0 1023 17 10000 4.34 343 23:38 04.03.2022
4985 Clear -3 1022 18 10000 4.36 345 22:42 04.03.2022
4986 Clear 3 1021 17 10000 3.9 345 22:19 04.03.2022
4987 Clear 4 1020 15 10000 3.96 321 20:56 04.03.2022
4988 Clear 4 1019 15 10000 3.85 304 20:27 04.03.2022
4989 Clear -4 1019 15 10000 3.85 304 19:36 04.03.2022
4990 Clear -3 1020 16 10000 4.02 304 18:45 04.03.2022
4991 Clear -4 1020 15 10000 4.09 306 17:48 04.03.2022
4992 Clear -2 1020 15 10000 4.77 309 17:28 04.03.2022
4993 Clear -1 1020 15 10000 5.34 314 15:30 04.03.2022
4994 Clear 1 1020 15 10000 5.51 319 14:33 04.03.2022
4995 Clear 5 1019 15 10000 5.12 328 13:26 04.03.2022
4996 Clear 5 1018 14 10000 5.67 327 11:46 04.03.2022
4997 Clear 8 1016 13 10000 4.81 337 10:54 04.03.2022
4998 Clear 10 1016 11 10000 5.59 338 09:58 04.03.2022
4999 Clear 10 1016 10 10000 6.61 332 08:40 04.03.2022
5000 Clear 10 1015 10 10000 7.37 328 07:38 04.03.2022
5001 Clear 10 1015 15 10000 7.91 330 04:31 04.03.2022
5002 Clear 1 1011 23 10000 8.39 310 00:38 04.03.2022
5003 Clear 0 1007 39 10000 1.53 335 22:28 03.03.2022
5004 Clear -1 1007 39 10000 1.53 335 21:50 03.03.2022
5005 Clear -1 1007 42 10000 2.03 334 21:29 03.03.2022
5006 Clear 0 1007 40 10000 1.25 353 20:18 03.03.2022
5007 Clear -1 1008 34 10000 0.76 332 18:55 03.03.2022
5008 Clear -1 1009 34 10000 0.97 347 18:24 03.03.2022
5009 Clear 2 1009 34 10000 0.97 347 17:31 03.03.2022
5010 Clear -1 1010 30 10000 0.44 314 16:25 03.03.2022
5011 Clear 1 1010 29 10000 0.24 264 15:24 03.03.2022
5012 Clear 1 1010 29 10000 0.24 264 14:43 03.03.2022
5013 Clear 1 1011 27 10000 0.41 242 14:24 03.03.2022
5014 Clear 5 1011 25 10000 0.4 270 12:27 03.03.2022
5015 Clear 10 1011 24 10000 0.7 198 10:49 03.03.2022
5016 Clear 10 1011 22 10000 1.22 176 09:45 03.03.2022
5017 Clear 10 1012 22 10000 0.6 141 08:19 03.03.2022
5018 Clouds 9 1013 23 10000 0.42 112 06:37 03.03.2022
5019 Clouds 8 1016 27 10000 1.51 86 04:46 03.03.2022
5020 Clear -3 1019 43 10000 1.99 53 23:41 02.03.2022
5021 Clear 0 1018 41 10000 2.14 53 22:53 02.03.2022
5022 Clear 0 1018 41 10000 2.14 53 22:53 02.03.2022
5023 Clear 3 1018 37 10000 2.22 58 21:36 02.03.2022
5024 Clear 4 1017 34 10000 2.1 61 20:57 02.03.2022
5025 Clear 4 1017 31 10000 1.81 68 20:25 02.03.2022
5026 Clear -2 1017 31 10000 1.81 68 19:37 02.03.2022
5027 Clear 0 1017 29 10000 2.03 58 18:58 02.03.2022
5028 Clear 1 1018 27 10000 1.89 58 18:26 02.03.2022
5029 Clear 5 1018 27 10000 1.89 58 17:37 02.03.2022
5030 Clear 2 1018 25 10000 1.99 32 16:52 02.03.2022
5031 Clear 5 1018 22 10000 2.19 12 15:46 02.03.2022
5032 Clear 10 1018 18 10000 1.9 20 13:52 02.03.2022
5033 Clear 12 1017 16 10000 0.59 353 12:46 02.03.2022
5034 Clear 12 1016 15 10000 0.87 280 12:24 02.03.2022
5035 Clear 14 1015 13 10000 1.86 305 11:26 02.03.2022
5036 Clear 15 1015 13 10000 1.86 305 10:31 02.03.2022
5037 Clear 15 1014 11 10000 2.94 308 09:36 02.03.2022
5038 Clear 15 1014 11 10000 3.99 307 08:34 02.03.2022
5039 Clear 15 1015 11 10000 4.67 311 07:23 02.03.2022
5040 Clear 13 1016 14 10000 4.26 308 04:51 02.03.2022
5041 Clear -4 1017 27 10000 1.66 279 00:40 02.03.2022
5042 Clear -4 1017 27 10000 1.63 279 00:40 02.03.2022
5043 Clear -2 1016 29 10000 1.4 278 23:27 01.03.2022
5044 Clear -5 1016 29 10000 1.4 278 22:38 01.03.2022
5045 Clear -4 1017 29 10000 1.17 292 21:44 01.03.2022
5046 Clear -3 1017 28 10000 1.22 300 20:40 01.03.2022
5047 Clear -3 1017 28 10000 1.43 293 20:19 01.03.2022
5048 Clear 3 1018 27 10000 1.45 297 18:53 01.03.2022
5049 Clear 5 1019 28 10000 1.54 259 18:24 01.03.2022
5050 Clear 3 1019 28 10000 1.54 259 17:54 01.03.2022
5051 Clear 5 1019 28 10000 1.92 234 16:37 01.03.2022
5052 Clear 7 1020 27 10000 2.26 225 15:48 01.03.2022
5053 Clear 8 1020 23 10000 2.88 218 14:54 01.03.2022
5054 Clear 8 1020 23 10000 2.88 218 14:31 01.03.2022
5055 Clear 9 1020 18 10000 3.11 212 13:26 01.03.2022
5056 Clear 9 1020 17 10000 2.94 212 12:37 01.03.2022
5057 Clear 9 1020 16 10000 3.02 205 11:38 01.03.2022
5058 Clear 12 1019 12 10000 3.09 228 09:53 01.03.2022
5059 Clear 12 1020 12 10000 3.12 260 08:30 01.03.2022
5060 Clear 10 1021 12 10000 3.46 275 07:32 01.03.2022
5061 Clear 5 1026 19 10000 3.99 309 03:27 01.03.2022
5062 Clear -1 1027 24 10000 3.47 321 00:49 01.03.2022
5063 Clear -1 1026 25 10000 2.98 325 23:47 28.02.2022
5064 Clear 2 1026 24 10000 3.5 334 22:50 28.02.2022
5065 Clear 2 1025 25 10000 4.52 337 21:48 28.02.2022
5066 Clear 3 1025 25 10000 5.33 336 20:55 28.02.2022
5067 Clear 4 1024 26 10000 6.1 339 19:51 28.02.2022
5068 Clear 4 1024 26 10000 6.79 340 19:22 28.02.2022
5069 Clouds 4 1024 25 10000 6.86 340 18:35 28.02.2022
5070 Clouds 5 1023 28 10000 6.54 345 17:23 28.02.2022
5071 Clouds 5 1023 28 10000 6.54 345 16:32 28.02.2022
5072 Clear 7 1022 28 10000 6.84 340 15:21 28.02.2022
5073 Clear 8 1020 28 10000 7.18 339 14:29 28.02.2022
5074 Clear 8 1020 28 10000 7.18 339 13:34 28.02.2022
5075 Clouds 10 1018 29 10000 7.47 332 12:31 28.02.2022
5076 Clouds 12 1016 28 10000 7.99 332 11:37 28.02.2022
5077 Clouds 12 1013 22 10000 4.83 303 10:24 28.02.2022
5078 Clouds 12 1013 22 10000 4.83 303 09:59 28.02.2022
5079 Clouds 12 1012 25 10000 2.85 284 09:27 28.02.2022
5080 Clouds 12 1012 26 10000 0.7 287 08:26 28.02.2022
5081 Clouds 12 1012 26 10000 0.7 287 08:26 28.02.2022
5082 Clouds 12 1013 24 10000 0.83 50 06:53 28.02.2022
5083 Clouds 9 1014 29 10000 1.26 17 04:31 28.02.2022
5084 Clouds 7 1015 34 10000 1.96 62 02:41 28.02.2022
5085 Clouds 3 1015 39 10000 1.79 23 23:26 27.02.2022
5086 Clouds 2 1015 39 10000 1.79 23 22:33 27.02.2022
5087 Clouds 2 1015 39 10000 1.86 28 21:47 27.02.2022
5088 Clouds 1 1015 38 10000 2.05 38 20:54 27.02.2022
5089 Clouds 0 1016 36 10000 2.03 36 20:27 27.02.2022
5090 Clouds 1 1016 36 10000 2.03 36 19:56 27.02.2022
5091 Clouds 1 1016 33 10000 1.79 43 19:26 27.02.2022
5092 Clouds 1 1016 35 10000 2.02 38 18:39 27.02.2022
5093 Clouds 3 1017 32 10000 1.69 41 17:54 27.02.2022
5094 Clouds 7 1017 30 10000 1.41 49 16:37 27.02.2022
5095 Clouds 7 1017 28 10000 1.5 41 15:55 27.02.2022
5096 Clouds 5 1017 24 10000 0.92 52 12:53 27.02.2022
5097 Clouds 9 1017 21 10000 0.69 86 12:29 27.02.2022
5098 Clouds 12 1016 18 10000 0.68 68 10:54 27.02.2022
5099 Clouds 15 1016 16 10000 0.69 149 09:58 27.02.2022
5100 Clouds 16 1016 16 10000 0.69 149 09:37 27.02.2022
5101 Clouds 16 1016 15 10000 1.47 161 09:18 27.02.2022
5102 Clouds 16 1016 14 10000 1.55 166 07:34 27.02.2022
5103 Clear 10 1018 17 10000 0.45 78 05:38 27.02.2022
5104 Clear -5 1020 29 10000 1.01 346 00:53 27.02.2022
5105 Clear -6 1019 28 10000 1.23 353 22:58 26.02.2022
5106 Clear -4 1019 27 10000 1.16 351 21:44 26.02.2022
5107 Clear -4 1018 26 10000 0.97 345 20:58 26.02.2022
5108 Clear -4 1018 25 10000 0.89 319 20:19 26.02.2022
5109 Clear -4 1018 25 10000 0.89 319 19:46 26.02.2022
5110 Clear -4 1019 25 10000 1.16 320 19:22 26.02.2022
5111 Clear -2 1020 26 10000 1.45 308 17:46 26.02.2022
5112 Clear -2 1020 25 10000 1.23 301 16:52 26.02.2022
5113 Clear 2 1020 24 10000 1.01 254 15:57 26.02.2022
5114 Clear 2 1020 22 10000 1.37 224 15:23 26.02.2022
5115 Clear 4 1020 22 10000 1.37 224 14:54 26.02.2022
5116 Clear 4 1020 22 10000 1.37 224 14:36 26.02.2022
5117 Clear 8 1020 17 10000 1.71 218 13:19 26.02.2022
5118 Clear 9 1021 17 10000 1.5 244 12:29 26.02.2022
5119 Clear 10 1020 15 10000 2.23 295 11:28 26.02.2022
5120 Clear 10 1020 15 10000 2.23 295 10:51 26.02.2022
5121 Clear 10 1021 12 10000 4.93 305 08:59 26.02.2022
5122 Clear 10 1021 13 10000 5.22 304 07:37 26.02.2022
5123 Clear 4 1025 25 10000 4.44 322 01:53 26.02.2022
5124 Clear 4 1022 34 10000 5.19 329 22:57 25.02.2022
5125 Clear 5 1021 35 10000 5.66 330 21:46 25.02.2022
5126 Clear 5 1020 35 10000 6.43 327 21:26 25.02.2022
5127 Clear 5 1020 35 10000 6.43 327 20:33 25.02.2022
5128 Clear 7 1018 32 10000 6.65 327 19:22 25.02.2022
5129 Clear -1 1017 30 10000 6.03 314 17:30 25.02.2022
5130 Clear 1 1017 30 10000 6.03 314 16:44 25.02.2022
5131 Clear 2 1017 36 10000 2.86 328 15:48 25.02.2022
5132 Clear 2 1017 37 10000 2.23 347 15:22 25.02.2022
5133 Clear 5 1017 37 10000 2.23 347 14:42 25.02.2022
5134 Clouds 9 1017 36 10000 1.57 337 13:58 25.02.2022
5135 Clouds 8 1016 35 10000 0.74 317 13:20 25.02.2022
5136 Clouds 9 1017 28 10000 1.35 227 11:28 25.02.2022
5137 Clouds 13 1017 28 10000 1.35 227 10:48 25.02.2022
5138 Clouds 13 1016 24 10000 1.82 226 10:22 25.02.2022
5139 Clouds 14 1016 24 10000 1.82 226 09:31 25.02.2022
5140 Clouds 12 1017 23 10000 2.23 207 07:44 25.02.2022
5141 Clear 10 1020 28 10000 1.19 217 06:19 25.02.2022
5142 Clear 9 1020 28 10000 1.19 217 05:36 25.02.2022
5143 Clear -6 1024 43 10000 1.73 6 00:30 25.02.2022
5144 Clear -6 1023 41 10000 1.25 5 22:20 24.02.2022
5145 Clear -6 1023 41 10000 1.25 5 21:42 24.02.2022
5146 Clear -6 1023 41 10000 1.03 1 21:20 24.02.2022
5147 Clear -6 1023 41 10000 1.03 1 20:42 24.02.2022
5148 Clear -5 1025 39 10000 1.38 349 19:19 24.02.2022
5149 Clear -4 1025 37 10000 1.08 328 18:20 24.02.2022
5150 Clear -5 1025 37 10000 1.08 328 17:46 24.02.2022
5151 Clear -2 1025 34 10000 1.02 312 16:57 24.02.2022
5152 Clear -4 1026 32 10000 1.08 284 16:25 24.02.2022
5153 Clear -3 1026 32 10000 1.08 284 15:31 24.02.2022
5154 Clear -2 1026 30 10000 1.1 254 14:43 24.02.2022
5155 Clear -2 1026 28 10000 1.11 243 13:45 24.02.2022
5156 Clear -2 1026 25 10000 1.33 240 13:27 24.02.2022
5157 Clear 8 1026 22 10000 1.16 211 10:50 24.02.2022
5158 Clear 10 1026 19 10000 1.61 206 09:42 24.02.2022
5159 Clear 9 1026 18 10000 1.88 205 08:43 24.02.2022
5160 Clear 9 1026 18 10000 1.88 205 08:43 24.02.2022
5161 Clear 7 1029 24 10000 1.15 225 06:28 24.02.2022
5162 Clear 5 1029 24 10000 1.15 225 05:37 24.02.2022
5163 Clear -5 1031 43 10000 1.72 354 00:30 24.02.2022
5164 Clear -6 1031 41 10000 1.69 359 21:56 23.02.2022
5165 Clear -5 1031 39 10000 1.47 0 20:43 23.02.2022
5166 Clear -5 1031 38 10000 1.38 354 20:20 23.02.2022
5167 Clear -6 1031 38 10000 1.38 354 19:34 23.02.2022
5168 Clear -3 1032 36 10000 1.45 330 18:22 23.02.2022
5169 Clear -5 1033 33 10000 1.32 292 16:27 23.02.2022
5170 Clear 0 1033 29 10000 1.38 236 13:45 23.02.2022
5171 Clear 0 1032 28 10000 1.39 231 12:31 23.02.2022
5172 Clear 5 1032 25 10000 1.1 196 10:56 23.02.2022
5173 Clear 7 1032 23 10000 1.34 196 09:38 23.02.2022
5174 Clear 7 1032 22 10000 1.22 199 08:54 23.02.2022
5175 Clear 7 1033 23 10000 0.99 201 07:53 23.02.2022
5176 Clear -1 1037 39 10000 1.74 344 02:31 23.02.2022
5177 Clear -10 1037 52 10000 1.69 346 23:50 22.02.2022
5178 Clear -10 1037 52 10000 1.69 346 23:32 22.02.2022
5179 Clear -9 1036 51 10000 1.85 352 22:28 22.02.2022
5180 Clear -9 1036 51 10000 1.85 352 21:44 22.02.2022
5181 Clear -8 1036 50 10000 1.77 349 21:21 22.02.2022
5182 Clear -8 1036 50 10000 1.77 349 20:41 22.02.2022
5183 Clear -8 1037 48 10000 1.54 346 20:22 22.02.2022
5184 Clear -10 1037 48 10000 1.54 346 19:34 22.02.2022
5185 Clear -9 1037 47 10000 1.36 336 18:35 22.02.2022
5186 Clear -8 1037 45 10000 1.14 328 17:34 22.02.2022
5187 Clear -9 1037 44 10000 1.04 312 16:56 22.02.2022
5188 Clear -6 1037 42 10000 1.09 299 16:21 22.02.2022
5189 Clear -6 1037 42 10000 1.09 299 15:31 22.02.2022
5190 Clear -5 1037 40 10000 1.29 292 14:33 22.02.2022
5191 Clear 0 1036 33 10000 1.4 291 11:39 22.02.2022
5192 Clear 0 1036 33 10000 1.4 291 11:39 22.02.2022
5193 Clear 4 1035 26 10000 2.57 315 09:48 22.02.2022
5194 Clear 3 1035 23 10000 2.72 316 07:38 22.02.2022
5195 Clear 2 1036 24 10000 2.85 321 07:19 22.02.2022
5196 Clear 2 1036 24 10000 2.85 321 07:19 22.02.2022
5197 Clear -1 1039 28 10000 4 345 02:51 22.02.2022
5198 Clear -10 1037 38 10000 3.79 345 23:42 21.02.2022
5199 Clear -8 1037 38 10000 3.57 345 22:37 21.02.2022
5200 Clear -8 1037 38 10000 3.27 343 21:23 21.02.2022
5201 Clear -3 1037 35 10000 3.88 340 18:58 21.02.2022
5202 Clear -3 1038 35 10000 4.11 337 18:39 21.02.2022
5203 Clear -3 1037 35 10000 4.55 337 16:30 21.02.2022
5204 Clear -1 1035 34 10000 4.6 335 14:24 21.02.2022
5205 Clear -1 1035 34 10000 4.6 335 13:40 21.02.2022
5206 Clouds 0 1033 34 10000 4.7 326 12:57 21.02.2022
5207 Clouds 0 1032 33 10000 4.62 303 12:21 21.02.2022
5208 Clouds 3 1031 32 10000 4.45 299 10:31 21.02.2022
5209 Clouds 4 1031 26 10000 4.19 296 07:51 21.02.2022
5210 Clear -11 1033 42 10000 2.94 345 00:36 21.02.2022
5211 Clear -9 1031 40 10000 3.18 333 22:37 20.02.2022
5212 Clear -5 1031 39 10000 3.75 334 21:51 20.02.2022
5213 Clear -5 1031 39 10000 3.71 339 21:25 20.02.2022
5214 Clear -5 1031 39 10000 3.71 339 20:45 20.02.2022
5215 Clear -5 1031 41 10000 3.43 343 19:51 20.02.2022
5216 Clear -5 1032 39 10000 3.71 345 18:57 20.02.2022
5217 Clear -5 1032 37 10000 3.39 335 18:37 20.02.2022
5218 Clear -3 1032 35 10000 3.41 336 17:56 20.02.2022
5219 Clear -3 1032 34 10000 3.77 337 17:24 20.02.2022
5220 Clear -2 1031 31 10000 4.64 338 15:28 20.02.2022
5221 Clear 0 1030 31 10000 4.79 337 13:59 20.02.2022
5222 Clear 2 1029 29 10000 4.58 332 12:49 20.02.2022
5223 Clear 3 1028 28 10000 4.81 307 11:56 20.02.2022
5224 Clear 4 1026 28 10000 2.64 278 10:21 20.02.2022
5225 Clear 5 1026 28 10000 2.64 278 09:51 20.02.2022
5226 Clear 3 1027 26 10000 1.6 253 06:30 20.02.2022
5227 Clear -13 1032 57 10000 1.96 350 00:33 20.02.2022
5228 Clear -13 1032 54 10000 1.74 345 00:33 20.02.2022
5229 Clear -12 1032 57 10000 1.96 350 23:39 19.02.2022
5230 Clear -10 1032 53 10000 2.15 349 22:24 19.02.2022
5231 Clear -10 1032 53 10000 2.15 349 21:50 19.02.2022
5232 Clear -8 1032 50 10000 2.21 338 20:45 19.02.2022
5233 Clear -7 1033 45 10000 2.87 323 19:36 19.02.2022
5234 Clear -5 1033 46 10000 2.87 326 18:41 19.02.2022
5235 Clear -5 1033 45 10000 2.84 327 17:58 19.02.2022
5236 Clear -5 1033 45 10000 2.84 327 17:32 19.02.2022
5237 Clear -5 1033 46 10000 2.56 333 15:59 19.02.2022
5238 Clear -3 1034 46 10000 2.18 324 14:55 19.02.2022
5239 Clear -6 1033 45 10000 1.78 321 13:58 19.02.2022
5240 Clear -3 1032 39 10000 2.25 297 11:58 19.02.2022
5241 Clear -1 1032 36 10000 2.56 307 11:24 19.02.2022
5242 Clear 0 1032 27 10000 4.43 314 09:21 19.02.2022
5243 Clear 0 1033 23 10000 5.22 311 06:49 19.02.2022
5244 Clouds -7 1038 35 10000 4.07 330 00:50 19.02.2022
5245 Clouds -6 1036 35 10000 4.79 332 22:33 18.02.2022
5246 Clouds -6 1036 34 10000 4.84 332 21:27 18.02.2022
5247 Clouds -6 1036 34 10000 5.29 328 20:25 18.02.2022
5248 Clouds -6 1036 34 10000 5.29 328 19:51 18.02.2022
5249 Clouds -6 1036 34 10000 5.64 332 18:38 18.02.2022
5250 Clouds -5 1037 35 10000 5.3 332 18:18 18.02.2022
5251 Clouds -5 1036 34 10000 5.26 334 17:18 18.02.2022
5252 Clouds -1 1035 34 10000 5.56 331 14:31 18.02.2022
5253 Clouds -1 1035 34 10000 5.56 331 13:47 18.02.2022
5254 Clouds 0 1033 37 10000 4.75 334 12:50 18.02.2022
5255 Clouds 2 1032 37 10000 4.45 331 11:57 18.02.2022
5256 Clouds 3 1031 37 10000 4.29 326 10:47 18.02.2022
5257 Clouds 4 1030 34 10000 3.96 307 09:20 18.02.2022
5258 Clouds 0 1030 35 10000 3.6 318 06:48 18.02.2022
5259 Clouds -1 1030 42 10000 1.86 327 05:34 18.02.2022
5260 Clouds -8 1030 80 10000 1.55 15 22:43 17.02.2022
5261 Clouds -10 1030 81 10000 1.45 3 21:42 17.02.2022
5262 Clouds -7 1030 81 10000 1.3 347 20:52 17.02.2022
5263 Snow -7 1030 81 10000 1.3 347 20:33 17.02.2022
5264 Snow -8 1030 81 10000 0.45 305 19:42 17.02.2022
5265 Clouds -5 1031 74 10000 0.47 154 18:29 17.02.2022
5266 Clouds -5 1031 74 10000 0.47 154 17:45 17.02.2022
5267 Clouds -6 1031 71 10000 1.51 165 16:19 17.02.2022
5268 Clouds -5 1031 69 10000 1.47 177 14:30 17.02.2022
5269 Clouds -3 1031 67 10000 1.69 181 13:47 17.02.2022
5270 Clouds -2 1031 59 10000 2.16 195 11:55 17.02.2022
5271 Clouds -2 1030 56 10000 2.44 197 10:57 17.02.2022
5272 Clouds -2 1031 43 10000 3.6 199 07:56 17.02.2022
5273 Clouds -12 1034 63 10000 1.49 53 00:20 17.02.2022
5274 Clouds -12 1034 65 10000 1.57 49 22:38 16.02.2022
5275 Clouds -10 1034 64 10000 1.82 35 20:24 16.02.2022
5276 Clouds -8 1034 65 10000 1.69 34 19:23 16.02.2022
5277 Clouds -8 1034 65 10000 1.48 36 18:34 16.02.2022
5278 Clouds -10 1034 64 10000 1.28 24 17:24 16.02.2022
5279 Clouds -10 1034 59 10000 1.34 5 15:24 16.02.2022
5280 Clear -6 1033 55 10000 0.74 36 13:47 16.02.2022
5281 Clear -5 1032 51 10000 1.56 118 12:27 16.02.2022
5282 Clear -4 1032 51 10000 1.56 118 11:46 16.02.2022
5283 Clear -2 1031 49 10000 1.92 127 10:35 16.02.2022
5284 Clear -2 1030 40 10000 1.87 120 09:54 16.02.2022
5285 Clear -3 1030 35 10000 1.72 44 06:44 16.02.2022
5286 Clear -8 1033 45 10000 2.45 16 02:48 16.02.2022
5287 Clear -10 1031 62 10000 2.29 13 22:34 15.02.2022
5288 Clear -10 1031 61 10000 2.3 11 21:51 15.02.2022
5289 Clear -10 1031 61 10000 2.3 11 21:31 15.02.2022
5290 Clear -10 1031 61 10000 2.25 13 20:58 15.02.2022
5291 Clear -9 1031 60 10000 1.99 13 20:27 15.02.2022
5292 Clear -10 1031 60 10000 1.99 13 19:48 15.02.2022
5293 Clouds -8 1030 65 10000 1.8 9 18:28 15.02.2022
5294 Clouds -8 1030 65 10000 1.8 9 17:57 15.02.2022
5295 Clouds -8 1030 65 10000 1.8 9 17:38 15.02.2022
5296 Clouds -10 1030 66 10000 1.36 359 15:44 15.02.2022
5297 Clouds -6 1029 61 10000 0.44 339 14:31 15.02.2022
5298 Clouds -5 1029 58 10000 0.46 53 13:26 15.02.2022
5299 Clouds -7 1028 56 10000 1.19 86 11:43 15.02.2022
5300 Clouds -5 1027 52 10000 1.37 102 10:32 15.02.2022
5301 Clouds -3 1027 40 10000 0.49 80 08:56 15.02.2022
5302 Clouds -6 1028 41 10000 0.99 40 06:47 15.02.2022
5303 Clouds -11 1030 54 10000 2.5 15 00:26 15.02.2022
5304 Clouds -10 1030 54 10000 2.4 14 21:59 14.02.2022
5305 Clouds -10 1030 53 10000 2.32 15 20:57 14.02.2022
5306 Clouds -10 1031 52 10000 2.19 13 19:52 14.02.2022
5307 Clouds -9 1031 52 10000 2.19 13 19:30 14.02.2022
5308 Clear -9 1031 50 10000 2.5 13 18:24 14.02.2022
5309 Clear -9 1031 50 10000 2.5 13 18:24 14.02.2022
5310 Clear -10 1031 50 10000 2.5 13 17:31 14.02.2022
5311 Clear -8 1031 50 10000 2.73 16 16:49 14.02.2022
5312 Clear -7 1031 49 10000 2.88 17 15:52 14.02.2022
5313 Clear -5 1031 47 10000 2.79 20 13:36 14.02.2022
5314 Clear -5 1031 45 10000 3.11 6 12:59 14.02.2022
5315 Clear -5 1031 45 10000 3.11 6 12:32 14.02.2022
5316 Clear -5 1030 41 10000 3.21 355 11:39 14.02.2022
5317 Clouds -3 1029 34 10000 3.34 346 10:22 14.02.2022
5318 Clouds -3 1029 29 10000 4.56 340 08:26 14.02.2022
5319 Clear -3 1029 30 10000 5 340 07:26 14.02.2022
5320 Clear -7 1029 50 10000 3.86 336 23:19 13.02.2022
5321 Clear -7 1029 50 10000 3.86 336 22:41 13.02.2022
5322 Clear -7 1028 54 10000 3.72 335 22:22 13.02.2022
5323 Clear -7 1028 60 10000 3.24 327 21:24 13.02.2022
5324 Clear -8 1028 60 10000 3.24 327 20:30 13.02.2022
5325 Clouds -7 1027 77 10000 1.67 310 19:23 13.02.2022
5326 Clouds -12 1027 77 10000 1.67 310 18:41 13.02.2022
5327 Clouds -10 1027 87 10000 0.18 336 17:41 13.02.2022
5328 Clouds -6 1027 86 10000 0.93 155 15:53 13.02.2022
5329 Clouds -6 1027 87 3336 1.43 148 14:52 13.02.2022
5330 Snow -6 1027 90 459 1.97 141 13:42 13.02.2022
5331 Snow -6 1026 88 2247 2.45 139 12:49 13.02.2022
5332 Snow -5 1025 87 1279 2.79 129 10:50 13.02.2022
5333 Snow -5 1025 82 3734 3.18 126 10:27 13.02.2022
5334 Snow -5 1025 83 1906 3.34 125 08:59 13.02.2022
5335 Snow -5 1027 78 1825 2.83 146 06:21 13.02.2022
5336 Snow -5 1028 70 10000 2.14 148 00:35 13.02.2022
5337 Clouds -5 1028 77 10000 1.58 126 22:59 12.02.2022
5338 Clouds -5 1028 77 10000 1.58 126 22:33 12.02.2022
5339 Clouds -4 1028 79 10000 1.47 104 21:19 12.02.2022
5340 Clouds -5 1028 76 10000 1.76 121 20:25 12.02.2022
5341 Clouds -5 1029 70 10000 1.99 114 19:18 12.02.2022
5342 Clouds -6 1028 67 10000 1.95 118 18:41 12.02.2022
5343 Clouds -6 1028 59 10000 1.73 101 18:23 12.02.2022
5344 Clouds -6 1028 55 10000 1.45 93 16:55 12.02.2022
5345 Clouds -5 1028 52 10000 1.36 82 16:25 12.02.2022
5346 Clouds -3 1028 52 10000 1.36 82 15:49 12.02.2022
5347 Clouds -3 1029 51 10000 1.37 63 14:30 12.02.2022
5348 Clouds -1 1028 52 10000 1.36 57 12:55 12.02.2022
5349 Clouds 0 1027 51 10000 1.38 61 10:36 12.02.2022
5350 Clouds 0 1027 51 10000 1.44 60 09:39 12.02.2022
5351 Clouds 0 1026 51 10000 1.44 61 08:48 12.02.2022
5352 Clouds 0 1026 53 10000 1.49 65 07:53 12.02.2022
5353 Clouds 0 1028 51 10000 1.37 61 05:33 12.02.2022
5354 Clouds -1 1030 56 10000 1.63 67 03:32 12.02.2022
5355 Clouds -1 1030 51 10000 1.7 84 02:18 12.02.2022
5356 Clouds -2 1029 55 10000 1.59 95 22:28 11.02.2022
5357 Clouds -5 1029 55 10000 1.59 95 21:47 11.02.2022
5358 Clouds -5 1029 57 10000 1.45 90 20:39 11.02.2022
5359 Clouds -3 1029 57 10000 1.79 94 19:40 11.02.2022
5360 Clouds -3 1029 57 10000 2.33 100 19:20 11.02.2022
5361 Clouds 0 1030 56 10000 2.16 107 17:48 11.02.2022
5362 Clouds 0 1030 56 10000 2.24 109 17:22 11.02.2022
5363 Clouds 2 1030 55 10000 2.87 118 15:56 11.02.2022
5364 Clouds 3 1029 54 10000 3.3 123 14:43 11.02.2022
5365 Clouds 4 1029 50 10000 3.44 126 14:20 11.02.2022
5366 Clouds 5 1029 50 10000 3.44 126 13:52 11.02.2022
5367 Rain 5 1029 50 10000 3.44 126 13:34 11.02.2022
5368 Clouds 6 1028 29 10000 1.6 98 11:32 11.02.2022
5369 Clouds 8 1027 23 10000 1 63 09:57 11.02.2022
5370 Clouds 9 1027 21 10000 1.8 75 08:42 11.02.2022
5371 Clouds 9 1027 21 10000 1.8 75 08:42 11.02.2022
5372 Clouds 9 1027 21 10000 2.18 71 08:22 11.02.2022
5373 Clouds 9 1026 24 10000 1.84 70 06:33 11.02.2022
5374 Clouds 3 1028 40 10000 2.03 14 02:26 11.02.2022
5375 Clouds -5 1027 42 10000 2.11 9 00:51 11.02.2022
5376 Clouds -5 1025 41 10000 2.13 11 22:49 10.02.2022
5377 Clouds -5 1025 41 10000 2.12 8 21:45 10.02.2022
5378 Clouds -4 1024 40 10000 2.35 5 20:57 10.02.2022
5379 Clouds -5 1024 40 10000 2.35 5 20:35 10.02.2022
5380 Clouds -5 1024 40 10000 2.02 5 19:25 10.02.2022
5381 Clouds -5 1024 40 10000 2.02 5 18:45 10.02.2022
5382 Clouds -5 1023 40 10000 1.44 335 17:26 10.02.2022
5383 Clouds -4 1023 40 10000 1.44 335 16:50 10.02.2022
5384 Clouds -3 1023 40 10000 1.24 290 15:49 10.02.2022
5385 Clouds -3 1023 39 10000 1.37 253 15:29 10.02.2022
5386 Clouds -2 1023 39 10000 1.37 253 14:47 10.02.2022
5387 Clouds 0 1023 37 10000 1.65 233 14:23 10.02.2022
5388 Clouds 1 1022 34 10000 2.16 208 13:26 10.02.2022
5389 Clouds 4 1022 28 10000 2.04 198 12:27 10.02.2022
5390 Clouds 5 1022 28 10000 2.04 198 11:33 10.02.2022
5391 Clouds 9 1021 26 10000 1.97 202 10:44 10.02.2022
5392 Clouds 10 1021 22 10000 2.2 206 09:50 10.02.2022
5393 Clouds 10 1021 21 10000 3.18 204 09:18 10.02.2022
5394 Clear 9 1021 21 10000 2.31 198 07:19 10.02.2022
5395 Clear 4 1024 27 10000 0.27 229 04:23 10.02.2022
5396 Clear -4 1024 31 10000 0.99 342 01:48 10.02.2022
5397 Snow -7 1024 33 10000 1.09 346 00:44 10.02.2022
5398 Clear -5 1023 33 10000 1.34 354 00:25 10.02.2022
5399 Clear -9 1023 32 10000 1.41 355 22:58 09.02.2022
5400 Clear -8 1023 32 10000 1.51 357 22:34 09.02.2022
5401 Clear -9 1023 32 10000 1.51 357 21:49 09.02.2022
5402 Clear -8 1023 31 10000 1.45 357 21:28 09.02.2022
5403 Clear -7 1023 31 10000 1.45 357 20:47 09.02.2022
5404 Clear -7 1023 31 10000 1.44 358 20:24 09.02.2022
5405 Clear -7 1023 31 10000 1.44 358 19:44 09.02.2022
5406 Clear -7 1023 31 10000 1.52 358 18:58 09.02.2022
5407 Clear -5 1023 31 10000 1.32 356 17:32 09.02.2022
5408 Clear -5 1023 31 10000 1.2 8 16:26 09.02.2022
5409 Clear -4 1023 31 10000 1.2 8 15:33 09.02.2022
5410 Clear -4 1023 30 10000 1.13 350 13:57 09.02.2022
5411 Clear -2 1022 27 10000 0.5 248 12:27 09.02.2022
5412 Clear 5 1022 25 10000 0.69 215 10:37 09.02.2022
5413 Clear 7 1022 23 10000 0.93 212 09:59 09.02.2022
5414 Clear 7 1022 20 10000 1.42 196 09:23 09.02.2022
5415 Clear 7 1022 20 10000 1.42 196 08:58 09.02.2022
5416 Clear 7 1022 19 10000 1.18 191 07:34 09.02.2022
5417 Clear 4 1023 18 10000 0.26 46 05:30 09.02.2022
5418 Clear 4 1023 18 10000 0.26 46 05:30 09.02.2022
5419 Clouds 0 1026 21 10000 1.15 23 03:50 09.02.2022
5420 Snow -8 1026 29 10000 1.53 13 00:21 09.02.2022
5421 Clouds -7 1026 29 10000 1.53 13 23:30 08.02.2022
5422 Clouds -9 1026 29 10000 1.4 12 22:43 08.02.2022
5423 Clouds -9 1026 28 10000 1.48 14 22:21 08.02.2022
5424 Clouds -9 1026 28 10000 1.48 14 21:38 08.02.2022
5425 Clouds -9 1026 28 10000 1.41 18 21:19 08.02.2022
5426 Clouds -8 1026 28 10000 1.41 18 20:41 08.02.2022
5427 Clouds -8 1026 28 10000 1.41 18 20:41 08.02.2022
5428 Clouds -8 1026 28 10000 1.36 16 19:45 08.02.2022
5429 Clear -7 1027 26 10000 1.31 7 18:34 08.02.2022
5430 Clear -5 1027 26 10000 1.09 358 17:36 08.02.2022
5431 Clear -5 1028 25 10000 0.69 339 15:55 08.02.2022
5432 Clear -4 1028 24 10000 0.51 302 15:29 08.02.2022
5433 Clear -3 1027 23 10000 0.69 232 13:59 08.02.2022
5434 Clear 3 1027 21 10000 0.9 217 12:40 08.02.2022
5435 Clear 4 1027 18 10000 1.13 189 11:28 08.02.2022
5436 Clear 8 1027 16 10000 1.47 194 09:59 08.02.2022
5437 Clear 8 1027 15 10000 1.39 194 08:56 08.02.2022
5438 Clear 7 1027 15 10000 0.61 207 07:37 08.02.2022
5439 Clear 4 1030 19 10000 1.41 343 04:40 08.02.2022
5440 Clear 3 1031 22 10000 1.55 342 04:22 08.02.2022
5441 Clear 2 1031 22 10000 1.55 342 03:37 08.02.2022
5442 Clear 2 1031 24 10000 1.84 344 03:18 08.02.2022
5443 Clear 0 1031 24 10000 1.84 344 02:59 08.02.2022
5444 Clear 0 1031 24 10000 1.84 344 02:37 08.02.2022
5445 Clear -1 1031 28 10000 1.94 349 02:19 08.02.2022
5446 Clear -1 1031 28 10000 1.94 349 01:55 08.02.2022
5447 Clear -7 1031 28 10000 1.94 349 01:37 08.02.2022
5448 Clear -7 1030 31 10000 1.93 353 01:19 08.02.2022
5449 Clear -7 1030 31 10000 1.93 353 00:44 08.02.2022
5450 Clear -7 1029 31 10000 1.95 356 23:45 07.02.2022
5451 Clear -9 1029 31 10000 1.82 352 23:19 07.02.2022
5452 Clear -8 1029 31 10000 1.82 352 23:00 07.02.2022
5453 Clear -6 1029 30 10000 1.55 345 22:19 07.02.2022
5454 Clear -8 1029 30 10000 1.55 345 21:52 07.02.2022
5455 Clear -8 1029 30 10000 1.41 341 21:29 07.02.2022
5456 Clear -8 1029 30 10000 1.41 341 21:29 07.02.2022
5457 Clear -7 1029 30 10000 1.41 341 20:56 07.02.2022
5458 Clear -7 1029 30 10000 1.41 341 20:38 07.02.2022
5459 Clear -5 1029 30 10000 1.45 342 19:47 07.02.2022
5460 Clouds -5 1029 29 10000 1.55 346 19:20 07.02.2022
5461 Clouds -6 1029 29 10000 1.55 336 17:41 07.02.2022
5462 Clouds -7 1030 29 10000 1.61 328 16:52 07.02.2022
5463 Clouds -7 1030 29 10000 1.62 319 15:49 07.02.2022
5464 Clouds -4 1030 29 10000 1.42 290 14:44 07.02.2022
5465 Clouds -4 1030 27 10000 1.82 224 13:27 07.02.2022
5466 Clouds -4 1030 27 10000 1.82 224 12:38 07.02.2022
5467 Clouds 0 1029 26 10000 1.64 219 11:55 07.02.2022
5468 Clouds 0 1029 26 10000 1.64 219 11:33 07.02.2022
5469 Clouds 3 1029 25 10000 1.41 212 10:47 07.02.2022
5470 Clouds 4 1028 23 10000 1.13 200 10:28 07.02.2022
5471 Clouds 4 1028 23 10000 1.13 200 09:52 07.02.2022
5472 Clouds 4 1028 21 10000 0.42 192 09:18 07.02.2022
5473 Clouds 5 1028 21 10000 0.49 15 08:20 07.02.2022
5474 Clouds 4 1029 22 10000 0.96 3 06:52 07.02.2022
5475 Clouds 5 1029 22 10000 0.96 3 06:33 07.02.2022
5476 Clouds -1 1032 31 10000 2.33 5 02:56 07.02.2022
5477 Clouds -8 1031 37 10000 2.02 360 00:42 07.02.2022
5478 Clouds -7 1030 37 10000 2.09 360 23:42 06.02.2022
5479 Clouds -6 1030 36 10000 2.4 5 22:47 06.02.2022
5480 Clouds -7 1030 34 10000 2 6 21:51 06.02.2022
5481 Clouds -8 1030 34 10000 2 6 21:30 06.02.2022
5482 Clouds -7 1030 32 10000 1.76 360 20:52 06.02.2022
5483 Clouds -7 1030 31 10000 1.16 353 20:28 06.02.2022
5484 Clouds -5 1030 31 10000 1.16 353 19:32 06.02.2022
5485 Clouds -5 1031 29 10000 1.64 4 18:38 06.02.2022
5486 Clouds -3 1030 28 10000 2.02 6 17:55 06.02.2022
5487 Clouds -5 1031 28 10000 1.76 3 16:56 06.02.2022
5488 Clouds -5 1031 28 10000 1.76 3 16:38 06.02.2022
5489 Clouds -6 1031 29 10000 1.18 331 15:47 06.02.2022
5490 Clouds -6 1031 28 10000 1.06 314 15:26 06.02.2022
5491 Clouds -5 1031 28 10000 1.06 314 14:33 06.02.2022
5492 Clouds -3 1030 28 10000 1.92 238 13:25 06.02.2022
5493 Clouds -1 1030 28 10000 1.92 238 12:51 06.02.2022
5494 Clouds 2 1030 22 10000 1.83 219 11:27 06.02.2022
5495 Clouds 5 1030 20 10000 1.38 227 10:29 06.02.2022
5496 Clouds 5 1030 17 10000 1.01 286 08:49 06.02.2022
5497 Clouds 5 1030 17 10000 1.68 321 07:37 06.02.2022
5498 Clouds 4 1032 20 10000 3.24 347 05:30 06.02.2022
5499 Clouds 4 1032 20 10000 3.24 347 05:30 06.02.2022
5500 Clouds 4 1032 20 10000 3.24 347 05:30 06.02.2022
5501 Clouds 0 1035 34 10000 3.03 360 02:26 06.02.2022
5502 Clouds -3 1035 34 10000 3.03 360 01:47 06.02.2022
5503 Clouds -3 1034 38 10000 2.45 358 00:26 06.02.2022
5504 Clouds -1 1033 36 10000 2.44 354 22:20 05.02.2022
5505 Clouds 0 1033 35 10000 2.55 353 20:59 05.02.2022
5506 Clouds 0 1033 33 10000 2.33 350 20:24 05.02.2022
5507 Clouds 1 1033 33 10000 2.33 350 19:45 05.02.2022
5508 Clouds 0 1033 32 10000 1.95 344 18:52 05.02.2022
5509 Clouds 0 1033 31 10000 1.91 330 17:39 05.02.2022
5510 Clouds -1 1033 29 10000 1.96 324 16:48 05.02.2022
5511 Clouds 0 1033 27 10000 2.58 322 15:34 05.02.2022
5512 Clouds 0 1032 25 10000 3.16 316 14:53 05.02.2022
5513 Clear 2 1032 22 10000 2.76 289 12:47 05.02.2022
5514 Clear 2 1032 19 10000 2.53 273 12:22 05.02.2022
5515 Clouds 3 1032 18 10000 2.88 280 10:48 05.02.2022
5516 Clouds 4 1031 16 10000 3.22 292 09:53 05.02.2022
5517 Clouds 4 1031 16 10000 3.22 292 09:30 05.02.2022
5518 Clouds 3 1032 14 10000 3.49 300 07:51 05.02.2022
5519 Clouds 2 1032 15 10000 3.4 306 06:57 05.02.2022
5520 Clear -1 1036 21 10000 2.77 320 04:29 05.02.2022
5521 Clear -6 1035 34 10000 2.39 338 01:19 05.02.2022
5522 Clear -6 1035 34 10000 2.39 338 00:52 05.02.2022
5523 Clear -6 1035 35 10000 2.82 337 23:39 04.02.2022
5524 Clear -6 1034 34 10000 3.07 337 23:21 04.02.2022
5525 Clear -5 1034 34 10000 3.11 335 21:54 04.02.2022
5526 Clear -5 1034 34 10000 3.11 335 21:36 04.02.2022
5527 Clear -5 1034 33 10000 3.16 331 21:18 04.02.2022
5528 Clear -5 1034 31 10000 3.56 331 19:39 04.02.2022
5529 Clear -5 1034 30 10000 4.05 323 17:40 04.02.2022
5530 Clear -6 1034 29 10000 4.39 322 15:39 04.02.2022
5531 Clear -6 1034 28 10000 4.19 328 14:54 04.02.2022
5532 Clear -4 1033 26 10000 3.72 331 13:31 04.02.2022
5533 Clear -2 1033 24 10000 3.33 331 12:43 04.02.2022
5534 Clear -2 1032 22 10000 3.46 326 11:41 04.02.2022
5535 Clear 0 1032 20 10000 3.75 321 10:36 04.02.2022
5536 Clear 0 1032 16 10000 5.15 310 08:34 04.02.2022
5537 Clear -2 1033 17 10000 5.38 326 06:18 04.02.2022
5538 Clear -5 1035 23 10000 5.03 334 02:44 04.02.2022
5539 Clear -7 1035 27 10000 4.68 334 01:48 04.02.2022
5540 Clear -6 1033 29 10000 4.85 333 23:29 03.02.2022
5541 Clear -6 1033 29 10000 4.85 333 22:33 03.02.2022
5542 Clear -5 1033 28 10000 4.92 336 21:49 03.02.2022
5543 Clear -5 1033 28 10000 4.78 340 20:38 03.02.2022
5544 Clear -5 1033 28 10000 4.49 340 20:18 03.02.2022
5545 Clear -8 1033 28 10000 4.49 340 19:30 03.02.2022
5546 Clouds -6 1033 28 10000 3.83 349 18:35 03.02.2022
5547 Clouds -6 1032 28 10000 3.68 355 17:32 03.02.2022
5548 Clouds -3 1032 26 10000 3.36 1 16:25 03.02.2022
5549 Clouds -3 1031 25 10000 2.74 7 14:45 03.02.2022
5550 Clouds -1 1031 22 10000 2.83 9 12:52 03.02.2022
5551 Clouds 0 1029 21 10000 3.16 325 10:58 03.02.2022
5552 Clouds 2 1029 18 10000 3.77 342 08:36 03.02.2022
5553 Clear 0 1031 21 10000 4.12 352 05:26 03.02.2022
5554 Clear -10 1030 34 10000 2.59 10 00:32 03.02.2022
5555 Clear -8 1030 34 10000 2.59 9 23:39 02.02.2022
5556 Clear -7 1030 31 10000 2.32 9 21:55 02.02.2022
5557 Clear -7 1030 31 10000 2.32 9 21:31 02.02.2022
5558 Clear -9 1030 29 10000 2.07 11 20:40 02.02.2022
5559 Clear -8 1030 28 10000 1.88 14 19:58 02.02.2022
5560 Clear -7 1030 28 10000 1.6 9 19:27 02.02.2022
5561 Clear -5 1030 29 10000 1.59 8 18:45 02.02.2022
5562 Clear -7 1030 29 10000 1.31 1 17:56 02.02.2022
5563 Clear -9 1030 29 10000 1.08 349 17:19 02.02.2022
5564 Clear -8 1030 29 10000 1.08 349 16:41 02.02.2022
5565 Clear -3 1030 29 10000 1.75 202 12:57 02.02.2022
5566 Clear -3 1029 25 10000 1.97 196 12:20 02.02.2022
5567 Clear 0 1029 25 10000 1.97 196 11:33 02.02.2022
5568 Clear 4 1029 18 10000 1.83 192 10:22 02.02.2022
5569 Clear 3 1029 15 10000 0.62 234 07:35 02.02.2022
5570 Clear -8 1032 28 10000 1.38 355 22:52 01.02.2022
5571 Clear -11 1032 27 10000 1.43 353 21:50 01.02.2022
5572 Clear -8 1032 26 10000 1.37 343 19:58 01.02.2022
5573 Clear -6 1032 26 10000 1.24 324 17:44 01.02.2022
5574 Clear -9 1033 26 10000 1.27 313 16:39 01.02.2022
5575 Clear -9 1033 26 10000 1.27 313 16:39 01.02.2022
5576 Clear -9 1032 28 10000 1.49 239 14:24 01.02.2022
5577 Clear -5 1032 27 10000 1.53 231 12:43 01.02.2022
5578 Clear -2 1032 26 10000 1.76 218 11:30 01.02.2022
5579 Clear -2 1034 21 10000 2.5 336 04:53 01.02.2022
5580 Clear -8 1033 37 10000 3.05 355 23:41 31.01.2022
5581 Clear -8 1032 36 10000 2.92 354 22:58 31.01.2022
5582 Clear -7 1032 35 10000 2.81 354 21:40 31.01.2022
5583 Clear -7 1032 35 10000 2.98 353 21:19 31.01.2022
5584 Clear -6 1032 34 10000 3.26 352 20:29 31.01.2022
5585 Clear -6 1032 34 10000 3.26 352 19:35 31.01.2022
5586 Clear -5 1031 33 10000 3.78 334 18:26 31.01.2022
5587 Clear -5 1031 33 10000 3.78 334 17:33 31.01.2022
5588 Clear -5 1031 33 10000 3.86 331 16:38 31.01.2022
5589 Clear -5 1030 32 10000 3.96 329 15:41 31.01.2022
5590 Clear -5 1029 29 10000 4.56 328 14:22 31.01.2022
5591 Clear -2 1028 28 10000 5.03 335 12:39 31.01.2022
5592 Clear -2 1027 26 10000 5.5 336 11:55 31.01.2022
5593 Clear -1 1026 24 10000 5.62 331 10:50 31.01.2022
5594 Clear -1 1026 24 10000 5.62 331 10:50 31.01.2022
5595 Clear -1 1026 24 10000 5.62 331 10:30 31.01.2022
5596 Clear 0 1025 19 10000 5.62 328 09:26 31.01.2022
5597 Clear 0 1025 19 10000 5.62 328 08:50 31.01.2022
5598 Clear -1 1024 18 10000 6.16 326 08:20 31.01.2022
5599 Clear 0 1024 20 10000 6.37 312 06:18 31.01.2022
5600 Clear -6 1024 33 10000 5.06 315 00:55 31.01.2022
5601 Clouds -5 1023 33 10000 4.61 323 22:55 30.01.2022
5602 Clouds -5 1024 32 10000 4.5 321 22:25 30.01.2022
5603 Clouds -3 1024 32 10000 4.5 321 21:40 30.01.2022
5604 Clouds -3 1024 31 10000 5.16 318 21:19 30.01.2022
5605 Clouds -3 1023 33 10000 5.89 308 20:46 30.01.2022
5606 Clouds -2 1023 32 10000 6.57 306 20:27 30.01.2022
5607 Clouds -2 1023 32 10000 6.57 306 19:52 30.01.2022
5608 Clouds -1 1023 31 10000 6.36 310 18:43 30.01.2022
5609 Clouds -1 1023 33 10000 6.32 311 18:20 30.01.2022
5610 Clouds -2 1023 35 10000 6.12 312 17:22 30.01.2022
5611 Clouds -2 1023 35 10000 6.12 312 16:40 30.01.2022
5612 Snow -1 1023 53 10000 3.75 301 16:22 30.01.2022
5613 Snow -1 1023 53 10000 3.75 301 15:50 30.01.2022
5614 Snow -1 1023 53 10000 3.75 301 15:31 30.01.2022
5615 Snow -1 1024 61 4325 1.89 316 14:46 30.01.2022
5616 Snow 0 1023 50 10000 1.5 8 12:47 30.01.2022
5617 Clouds 1 1023 52 10000 1.29 348 12:25 30.01.2022
5618 Clouds 2 1023 54 10000 0.92 350 10:36 30.01.2022
5619 Clouds 3 1022 51 10000 0.41 359 09:56 30.01.2022
5620 Clouds 2 1023 47 10000 0.84 213 08:56 30.01.2022
5621 Clear 0 1023 43 10000 1.68 203 07:29 30.01.2022
5622 Clear -9 1027 38 10000 1 26 01:56 30.01.2022
5623 Clear -10 1026 42 10000 1.17 6 00:41 30.01.2022
5624 Clear -9 1025 42 10000 1.02 20 23:20 29.01.2022
5625 Clear -10 1025 42 10000 1.08 24 21:58 29.01.2022
5626 Clear -9 1025 42 10000 1.08 22 21:25 29.01.2022
5627 Clear -9 1025 42 10000 1.08 22 20:35 29.01.2022
5628 Clear -9 1026 41 10000 0.9 32 19:35 29.01.2022
5629 Clear -9 1026 38 10000 1.04 30 18:58 29.01.2022
5630 Clear -9 1026 35 10000 0.48 30 18:26 29.01.2022
5631 Clear -8 1026 35 10000 0.48 30 17:35 29.01.2022
5632 Clear -8 1027 35 10000 0.28 9 16:37 29.01.2022
5633 Clear -5 1026 30 10000 0.28 236 14:24 29.01.2022
5634 Clear -4 1026 30 10000 0.28 236 13:45 29.01.2022
5635 Clear -5 1026 29 10000 0.34 194 13:24 29.01.2022
5636 Clear -4 1026 29 10000 0.34 194 12:35 29.01.2022
5637 Clear 0 1025 26 10000 0.54 144 11:27 29.01.2022
5638 Clear 4 1025 22 10000 0.99 190 09:29 29.01.2022
5639 Clear 3 1026 22 10000 0.69 199 06:55 29.01.2022
5640 Clear -8 1028 35 10000 1.6 2 00:49 29.01.2022
5641 Clear -8 1028 35 10000 1.6 2 00:31 29.01.2022
5642 Clear -5 1028 33 10000 1.65 2 22:51 28.01.2022
5643 Clear -3 1028 32 10000 1.68 2 22:26 28.01.2022
5644 Clear -3 1028 32 10000 1.68 2 21:50 28.01.2022
5645 Clear -4 1028 31 10000 1.72 6 20:30 28.01.2022
5646 Clear -4 1028 31 10000 1.72 6 20:30 28.01.2022
5647 Clear -5 1029 30 10000 1.72 4 19:33 28.01.2022
5648 Clouds -6 1029 30 10000 1.83 5 18:46 28.01.2022
5649 Clouds -8 1030 33 10000 1.45 342 17:31 28.01.2022
5650 Clouds -7 1030 30 10000 0.65 314 15:20 28.01.2022
5651 Clouds -5 1030 27 10000 0.68 274 13:57 28.01.2022
5652 Clouds -3 1030 25 10000 1.5 243 12:31 28.01.2022
5653 Clouds -1 1029 22 10000 1.29 214 11:25 28.01.2022
5654 Clouds 2 1029 21 10000 0.76 178 09:52 28.01.2022
5655 Clouds 3 1030 19 10000 0.94 22 08:26 28.01.2022
5656 Clouds 3 1030 19 10000 0.94 22 07:34 28.01.2022
5657 Clouds 0 1033 37 10000 1.44 337 05:23 28.01.2022
5658 Clouds -2 1034 40 10000 1.27 335 03:44 28.01.2022
5659 Clear -3 1034 53 10000 1.88 350 02:22 28.01.2022
5660 Clear -5 1034 53 10000 1.88 350 01:32 28.01.2022
5661 Clouds -5 1033 64 10000 2.06 359 23:25 27.01.2022
5662 Clouds -7 1033 64 10000 1.77 358 21:49 27.01.2022
5663 Clouds -7 1033 63 10000 1.7 359 21:29 27.01.2022
5664 Clouds -5 1034 64 10000 1.52 359 20:26 27.01.2022
5665 Clouds -5 1034 61 10000 1.86 1 18:40 27.01.2022
5666 Clouds -5 1034 62 10000 1.95 358 17:55 27.01.2022
5667 Clouds -8 1035 64 10000 1.54 345 14:42 27.01.2022
5668 Clear -7 1034 63 10000 1.48 337 13:35 27.01.2022
5669 Clouds -5 1034 59 10000 1.79 340 12:39 27.01.2022
5670 Clear 0 1032 49 10000 0.15 229 10:23 27.01.2022
5671 Clear 2 1032 36 10000 0.91 3 08:56 27.01.2022
5672 Clear 2 1032 36 10000 0.91 3 08:31 27.01.2022
5673 Clear 0 1033 34 10000 2.44 5 05:59 27.01.2022
5674 Clouds -3 1035 50 10000 2.54 2 02:36 27.01.2022
5675 Clouds -4 1033 71 10000 1.97 359 23:32 26.01.2022
5676 Clouds -5 1033 71 10000 1.99 358 21:57 26.01.2022
5677 Clouds -5 1033 71 10000 1.99 358 21:33 26.01.2022
5678 Clouds -5 1033 72 10000 1.87 355 20:36 26.01.2022
5679 Clear -3 1033 72 10000 1.92 354 19:55 26.01.2022
5680 Clouds -3 1033 73 10000 1.66 351 19:20 26.01.2022
5681 Clouds -2 1033 73 10000 1.66 351 18:40 26.01.2022
5682 Clouds -2 1033 73 10000 1.52 350 17:49 26.01.2022
5683 Clouds -3 1033 73 10000 1.63 354 17:21 26.01.2022
5684 Clouds -5 1033 73 10000 1.53 343 16:27 26.01.2022
5685 Clouds -5 1033 73 10000 1.53 343 15:47 26.01.2022
5686 Clouds -3 1032 67 10000 1.27 289 13:24 26.01.2022
5687 Clouds -1 1032 65 10000 0.87 267 11:40 26.01.2022
5688 Clouds 0 1030 54 10000 0.41 72 10:20 26.01.2022
5689 Clouds 0 1030 54 10000 0.41 72 09:43 26.01.2022
5690 Clouds 0 1030 39 10000 1.4 38 07:32 26.01.2022
5691 Clouds -5 1032 50 10000 2.48 14 01:53 26.01.2022
5692 Clouds -5 1030 52 10000 2.96 15 23:54 25.01.2022
5693 Clouds -5 1030 52 10000 3.19 11 22:50 25.01.2022
5694 Clouds -6 1029 51 10000 3.23 8 22:21 25.01.2022
5695 Clouds -3 1029 51 10000 3.22 8 21:41 25.01.2022
5696 Clouds -3 1029 50 10000 3.27 7 20:46 25.01.2022
5697 Clouds -3 1030 48 10000 3.36 2 20:22 25.01.2022
5698 Clouds -3 1030 48 10000 3.36 2 19:46 25.01.2022
5699 Clear -5 1029 47 10000 3.51 355 18:24 25.01.2022
5700 Clear -2 1029 47 10000 3.51 355 17:42 25.01.2022
5701 Clear -1 1029 46 10000 3.51 344 16:35 25.01.2022
5702 Clear 0 1029 46 10000 3.33 331 15:47 25.01.2022
5703 Clear -1 1028 45 10000 3.12 322 15:28 25.01.2022
5704 Clear 0 1028 45 10000 3.12 322 14:57 25.01.2022
5705 Clear 0 1028 45 10000 3.12 322 14:57 25.01.2022
5706 Clear 0 1027 42 10000 3.44 316 13:28 25.01.2022
5707 Clear 4 1026 39 10000 3.81 321 10:35 25.01.2022
5708 Clear 5 1025 36 10000 4.74 319 08:33 25.01.2022
5709 Clouds 5 1024 36 10000 4.96 325 07:28 25.01.2022
5710 Clouds 5 1025 35 10000 5.12 323 06:29 25.01.2022
5711 Clouds -1 1026 85 10000 1.37 339 01:36 25.01.2022
5712 Clouds -3 1025 95 10000 1.09 319 23:37 24.01.2022
5713 Clouds -3 1024 95 10000 1.11 330 23:18 24.01.2022
5714 Clouds -3 1024 95 10000 1.11 330 22:59 24.01.2022
5715 Clouds -3 1024 95 10000 1.11 330 22:41 24.01.2022
5716 Clouds -2 1024 95 10000 1.06 344 21:49 24.01.2022
5717 Clouds -2 1024 96 10000 1.08 344 21:27 24.01.2022
5718 Clouds -1 1024 96 10000 1.12 350 20:29 24.01.2022
5719 Clouds 0 1024 96 10000 1.12 350 19:39 24.01.2022
5720 Snow 0 1025 97 10000 0.98 353 19:19 24.01.2022
5721 Clouds 0 1025 95 10000 0.99 0 17:44 24.01.2022
5722 Clouds 0 1025 94 10000 0.76 1 17:23 24.01.2022
5723 Clouds 0 1025 93 10000 0.49 352 16:33 24.01.2022
5724 Clouds 0 1025 93 10000 0.49 352 15:52 24.01.2022
5725 Clouds 0 1025 92 10000 0.34 324 14:28 24.01.2022
5726 Clouds 0 1025 90 10000 0.38 18 12:38 24.01.2022
5727 Clouds 1 1025 88 10000 0.09 345 11:59 24.01.2022
5728 Clouds 0 1025 80 10000 0.38 210 10:25 24.01.2022
5729 Clouds 0 1025 80 10000 0.38 210 09:47 24.01.2022
5730 Clear 0 1025 67 10000 1.52 209 08:24 24.01.2022
5731 Clouds -2 1028 69 10000 0.45 289 02:51 24.01.2022
5732 Clouds -3 1028 80 10000 0.59 296 01:29 24.01.2022
5733 Clouds -3 1028 79 10000 0.58 295 00:34 24.01.2022
5734 Clouds -3 1027 80 10000 0.5 309 23:49 23.01.2022
5735 Clouds -3 1028 79 10000 0.51 273 22:21 23.01.2022
5736 Clouds -3 1028 79 10000 0.51 273 21:44 23.01.2022
5737 Clouds -3 1028 78 10000 0.55 284 21:24 23.01.2022
5738 Clouds -3 1028 78 10000 0.55 284 20:30 23.01.2022
5739 Clouds -3 1029 75 10000 0.52 260 19:21 23.01.2022
5740 Clouds -3 1029 72 10000 0.46 267 18:44 23.01.2022
5741 Clouds -3 1030 70 10000 0.59 257 17:28 23.01.2022
5742 Clouds -2 1030 70 10000 0.59 257 16:45 23.01.2022
5743 Clouds -2 1030 67 10000 0.35 287 14:59 23.01.2022
5744 Clouds -2 1030 67 10000 0.38 287 14:21 23.01.2022
5745 Clouds -3 1030 65 10000 0.24 269 12:51 23.01.2022
5746 Clouds -2 1029 53 10000 0.51 111 12:22 23.01.2022
5747 Clouds -2 1029 53 10000 0.51 111 11:51 23.01.2022
5748 Clouds -1 1029 51 10000 0.45 155 11:18 23.01.2022
5749 Clouds -1 1029 49 10000 0.71 176 10:27 23.01.2022
5750 Clouds 0 1029 49 10000 0.71 176 09:40 23.01.2022
5751 Clouds 0 1029 47 10000 0.74 143 08:51 23.01.2022
5752 Clouds 0 1030 59 10000 0.74 151 05:55 23.01.2022
5753 Clouds -3 1032 77 10000 1.11 23 01:49 23.01.2022
5754 Clouds -5 1031 84 10000 1.02 20 01:25 23.01.2022
5755 Clouds -3 1031 86 10000 1.11 19 00:23 23.01.2022
5756 Clouds -5 1031 86 10000 1.11 19 23:44 22.01.2022
5757 Clouds -5 1030 86 10000 1.28 12 22:40 22.01.2022
5758 Clouds -3 1030 85 10000 0.95 354 21:28 22.01.2022
5759 Clouds -5 1030 85 10000 1.06 359 19:51 22.01.2022
5760 Clouds -5 1031 83 10000 1.09 2 18:49 22.01.2022
5761 Clouds -6 1030 83 10000 1.17 3 17:59 22.01.2022
5762 Clouds -6 1030 83 10000 1.17 3 17:35 22.01.2022
5763 Clouds -6 1031 82 10000 1.08 7 16:56 22.01.2022
5764 Clouds -5 1030 81 10000 0.94 17 15:50 22.01.2022
5765 Clouds -6 1030 80 10000 0.85 32 14:58 22.01.2022
5766 Clouds -6 1030 79 10000 0.94 48 13:42 22.01.2022
5767 Clouds -5 1030 77 10000 0.69 54 12:50 22.01.2022
5768 Clouds -3 1029 76 10000 0.79 60 12:28 22.01.2022
5769 Clouds -2 1028 73 10000 0.81 72 11:31 22.01.2022
5770 Clouds -1 1028 67 10000 0.81 80 10:29 22.01.2022
5771 Clouds -1 1028 67 10000 0.81 80 09:59 22.01.2022
5772 Clouds -1 1027 65 10000 0.85 73 08:52 22.01.2022
5773 Clouds -1 1027 65 10000 0.92 60 07:38 22.01.2022
5774 Clouds -2 1029 71 10000 0.69 51 04:53 22.01.2022
5775 Clouds -5 1029 86 8726 1.25 46 01:35 22.01.2022
5776 Snow -5 1028 91 3314 1.15 67 23:45 21.01.2022
5777 Snow -5 1028 93 248 0.86 78 22:28 21.01.2022
5778 Snow -5 1028 92 196 0.68 126 20:28 21.01.2022
5779 Snow -5 1029 92 179 0.86 117 18:40 21.01.2022
5780 Snow -5 1029 91 185 0.8 125 17:31 21.01.2022
5781 Clouds -5 1029 86 954 0.38 171 15:44 21.01.2022
5782 Snow -5 1029 66 10000 1.05 216 13:51 21.01.2022
5783 Snow -5 1029 66 10000 1.05 216 13:51 21.01.2022
5784 Snow -5 1029 56 10000 1.09 215 12:38 21.01.2022
5785 Clouds -4 1029 48 10000 0.78 207 11:28 21.01.2022
5786 Clouds -3 1029 47 10000 0.9 205 10:19 21.01.2022
5787 Snow -3 1029 46 10000 1.41 197 08:25 21.01.2022
5788 Clouds -3 1030 47 10000 1.56 200 06:57 21.01.2022
5789 Clouds -4 1033 66 10000 0.94 157 23:40 20.01.2022
5790 Clouds -4 1032 65 10000 0.92 156 22:44 20.01.2022
5791 Clouds -4 1033 64 10000 1.13 169 21:47 20.01.2022
5792 Clouds -4 1033 63 10000 1.27 174 20:56 20.01.2022
5793 Clouds -3 1033 60 10000 1.46 172 19:20 20.01.2022
5794 Clouds -3 1034 60 10000 1.33 169 18:51 20.01.2022
5795 Clouds -3 1033 58 10000 1.64 174 17:30 20.01.2022
5796 Clouds -3 1034 54 10000 1.71 167 15:44 20.01.2022
5797 Clouds -3 1034 52 10000 1.57 164 15:24 20.01.2022
5798 Clouds -3 1034 51 10000 1.6 160 13:42 20.01.2022
5799 Clouds -3 1033 50 10000 1.54 150 12:35 20.01.2022
5800 Clouds -3 1033 49 10000 1.66 157 11:57 20.01.2022
5801 Clouds -3 1033 48 10000 1.82 170 10:40 20.01.2022
5802 Clouds -3 1033 47 10000 1.98 183 09:42 20.01.2022
5803 Clouds -3 1032 47 10000 2.3 195 08:34 20.01.2022
5804 Snow -3 1034 49 10000 2.42 202 05:34 20.01.2022
5805 Snow -6 1034 64 10000 1.58 154 23:35 19.01.2022
5806 Snow -6 1034 64 10000 1.65 159 22:32 19.01.2022
5807 Clouds -6 1034 62 10000 1.93 175 21:24 19.01.2022
5808 Clouds -6 1034 62 10000 1.93 175 20:50 19.01.2022
5809 Clouds -5 1035 61 10000 2.11 180 19:54 19.01.2022
5810 Clouds -4 1035 61 10000 2.29 179 18:43 19.01.2022
5811 Clouds -4 1035 58 10000 2.45 185 17:49 19.01.2022
5812 Clouds -3 1035 56 10000 2.63 191 16:57 19.01.2022
5813 Clouds -2 1035 47 10000 2.91 186 14:42 19.01.2022
5814 Clouds -2 1034 35 10000 2.96 151 12:43 19.01.2022
5815 Clouds -2 1034 33 10000 2.68 141 11:42 19.01.2022
5816 Clouds -2 1033 33 10000 2.31 142 10:37 19.01.2022
5817 Clouds -2 1033 33 10000 2.05 153 09:34 19.01.2022
5818 Clouds -2 1032 37 10000 2.17 162 07:18 19.01.2022
5819 Clouds -3 1034 43 10000 2.4 156 05:18 19.01.2022
5820 Clouds -7 1030 72 10000 1.7 122 23:24 18.01.2022
5821 Clouds -8 1030 72 10000 1.7 122 22:44 18.01.2022
5822 Clear -6 1029 64 10000 1.9 126 21:20 18.01.2022
5823 Clear -4 1030 50 10000 1.74 99 19:55 18.01.2022
5824 Clear -4 1030 56 10000 1.72 105 19:55 18.01.2022
5825 Clear -5 1030 50 10000 1.74 99 19:37 18.01.2022
5826 Clear -2 1029 43 10000 1.73 107 18:57 18.01.2022
5827 Clear -8 1029 39 10000 1.35 89 17:58 18.01.2022
5828 Clear -7 1028 38 10000 1.39 56 16:59 18.01.2022
5829 Clear -5 1028 37 10000 1.4 63 15:48 18.01.2022
5830 Clear -6 1027 35 10000 1.48 62 15:22 18.01.2022
5831 Clouds -7 1026 32 10000 1.59 28 13:26 18.01.2022
5832 Clouds -2 1025 32 10000 1.34 27 10:48 18.01.2022
5833 Clouds 3 1024 28 10000 1.11 35 09:29 18.01.2022
5834 Clouds 2 1024 28 10000 0.93 49 07:56 18.01.2022
5835 Clouds 0 1026 31 10000 1.33 41 05:31 18.01.2022
5836 Clear -12 1027 41 10000 0.62 43 23:55 17.01.2022
5837 Clear -10 1027 39 10000 0.29 138 22:29 17.01.2022
5838 Clear -8 1027 39 10000 0.29 138 21:35 17.01.2022
5839 Clear -6 1027 36 10000 0.52 147 20:29 17.01.2022
5840 Clear -6 1029 35 10000 0.44 161 18:31 17.01.2022
5841 Clear -8 1028 35 10000 0.85 186 17:51 17.01.2022
5842 Clear -6 1029 34 10000 1.01 190 16:45 17.01.2022
5843 Clear -6 1030 33 10000 1.05 178 15:24 17.01.2022
5844 Clear -3 1030 33 10000 1.05 178 14:57 17.01.2022
5845 Clear 0 1030 33 10000 1.28 181 13:30 17.01.2022
5846 Clear -1 1030 31 10000 1.51 179 12:57 17.01.2022
5847 Clear 2 1030 29 10000 1.51 180 11:49 17.01.2022
5848 Clear 3 1030 25 10000 1.53 187 10:25 17.01.2022
5849 Clear 5 1030 25 10000 1.53 187 09:35 17.01.2022
5850 Clear 5 1031 20 10000 1.29 194 07:43 17.01.2022
5851 Clear 5 1031 19 10000 0.31 225 07:18 17.01.2022
5852 Clear -3 1033 33 10000 2.34 348 00:57 17.01.2022
5853 Clear -11 1031 34 10000 2.45 343 22:31 16.01.2022
5854 Clear -11 1031 33 10000 2.29 341 20:38 16.01.2022
5855 Clear -9 1030 31 10000 1.04 351 18:53 16.01.2022
5856 Clear -10 1030 31 10000 0.66 337 17:59 16.01.2022
5857 Clear -9 1031 29 10000 0.59 328 17:23 16.01.2022
5858 Clear -11 1031 29 10000 0.59 328 16:45 16.01.2022
5859 Clear -9 1031 28 10000 0.45 320 14:50 16.01.2022
5860 Clear -6 1030 27 10000 0.19 177 14:27 16.01.2022
5861 Clouds -6 1030 27 10000 0.24 41 12:49 16.01.2022
5862 Clouds -2 1030 26 10000 0.17 186 11:43 16.01.2022
5863 Clouds -2 1029 25 10000 0.67 218 10:55 16.01.2022
5864 Clouds -1 1029 24 10000 1.11 227 10:19 16.01.2022
5865 Clouds 0 1029 24 10000 1.11 227 09:51 16.01.2022
5866 Clouds 0 1029 23 10000 1.43 236 09:22 16.01.2022
5867 Clouds 0 1029 23 10000 1.43 236 09:22 16.01.2022
5868 Clouds 1 1029 23 10000 1.43 236 08:37 16.01.2022
5869 Clear -5 1033 28 10000 0.56 231 02:36 16.01.2022
5870 Clear -7 1032 32 10000 0.69 20 23:49 15.01.2022
5871 Clear -9 1031 31 10000 1.55 13 21:46 15.01.2022
5872 Clear -9 1031 30 10000 2.12 13 21:19 15.01.2022
5873 Clear -9 1031 30 10000 2.12 13 20:40 15.01.2022
5874 Clear -6 1032 28 10000 2.93 20 19:29 15.01.2022
5875 Clear -5 1032 29 10000 2.74 16 18:44 15.01.2022
5876 Clear -7 1032 27 10000 3.25 26 17:29 15.01.2022
5877 Clear -4 1032 26 10000 3.35 27 15:50 15.01.2022
5878 Clear -2 1031 24 10000 3.34 21 13:55 15.01.2022
5879 Clear -1 1029 23 10000 3.57 356 11:46 15.01.2022
5880 Clear 0 1029 22 10000 3.84 351 10:36 15.01.2022
5881 Clear 4 1027 19 10000 5.21 338 08:31 15.01.2022
5882 Clear -7 1020 33 10000 3.78 330 00:28 15.01.2022
5883 Clear -8 1019 39 10000 1.87 359 21:52 14.01.2022
5884 Clear -8 1018 40 10000 1.55 357 20:40 14.01.2022
5885 Clear -8 1019 40 10000 1.42 356 20:20 14.01.2022
5886 Clouds -7 1019 39 10000 1.3 8 18:49 14.01.2022
5887 Clouds -7 1019 39 10000 1.34 360 17:57 14.01.2022
5888 Clouds -7 1019 39 10000 1.29 4 16:48 14.01.2022
5889 Clouds -6 1019 38 10000 1.17 17 15:37 14.01.2022
5890 Clouds -5 1019 37 10000 1.07 21 14:42 14.01.2022
5891 Clouds -4 1019 36 10000 1.23 13 13:35 14.01.2022
5892 Clouds -3 1019 35 10000 1.46 356 12:24 14.01.2022
5893 Clouds -1 1019 36 10000 1.46 350 10:50 14.01.2022
5894 Clear 2 1019 34 10000 1.01 271 08:54 14.01.2022
5895 Clear 1 1019 34 10000 0.79 230 08:20 14.01.2022
5896 Clouds 0 1023 33 10000 0.67 63 05:29 14.01.2022
5897 Clouds -12 1024 43 10000 0.56 44 00:59 14.01.2022
5898 Clear -11 1024 41 10000 0.51 37 22:46 13.01.2022
5899 Clear -10 1024 40 10000 0.26 8 21:31 13.01.2022
5900 Clear -10 1025 39 10000 0.1 272 20:56 13.01.2022
5901 Clear -9 1025 37 10000 0.44 209 19:40 13.01.2022
5902 Clear -6 1026 33 10000 0.43 204 19:21 13.01.2022
5903 Clear -8 1026 31 10000 0.56 205 17:48 13.01.2022
5904 Clear -7 1027 28 10000 0.84 193 16:20 13.01.2022
5905 Clear -6 1027 28 10000 0.84 193 15:37 13.01.2022
5906 Clear -3 1027 27 10000 1.02 206 14:40 13.01.2022
5907 Clear -1 1026 24 10000 1.36 211 12:37 13.01.2022
5908 Clear 1 1026 21 10000 1.7 202 10:23 13.01.2022
5909 Clear 4 1027 19 10000 1.87 207 08:58 13.01.2022
5910 Clear 3 1027 19 10000 1.99 213 08:26 13.01.2022
5911 Clear 3 1027 19 10000 1.96 222 07:23 13.01.2022
5912 Clear 2 1029 20 10000 1.94 239 05:59 13.01.2022
5913 Clear 0 1030 21 10000 1.81 250 05:19 13.01.2022
5914 Clear -5 1031 30 10000 1.33 305 01:56 13.01.2022
5915 Clear -5 1031 31 10000 1.65 308 00:49 13.01.2022
5916 Clear -5 1030 31 10000 2.33 318 23:46 12.01.2022
5917 Clear -5 1030 30 10000 3.1 323 23:19 12.01.2022
5918 Clear -5 1030 30 10000 3.71 322 21:57 12.01.2022
5919 Clear -3 1030 29 10000 4.2 318 21:22 12.01.2022
5920 Clear -3 1030 29 10000 4.2 318 20:56 12.01.2022
5921 Clear -3 1030 29 10000 4.2 318 20:56 12.01.2022
5922 Clear -4 1031 27 10000 4.69 318 19:43 12.01.2022
5923 Clear -3 1031 24 10000 4.69 320 18:30 12.01.2022
5924 Clear -3 1030 22 10000 4.54 326 17:20 12.01.2022
5925 Clear -3 1031 22 10000 4.51 331 16:28 12.01.2022
5926 Clear -2 1031 20 10000 5.04 332 14:48 12.01.2022
5927 Clear -1 1030 19 10000 5.43 336 13:19 12.01.2022
5928 Clear 1 1028 23 10000 4.88 331 10:48 12.01.2022
5929 Clouds 2 1027 22 10000 5.24 335 08:38 12.01.2022
5930 Clouds 1 1026 22 10000 5.54 332 07:50 12.01.2022
5931 Clouds 0 1026 22 10000 5.54 332 07:31 12.01.2022
5932 Clouds -7 1025 24 10000 1.53 34 23:53 11.01.2022
5933 Snow -9 1024 24 10000 1.53 42 22:54 11.01.2022
5934 Clouds -8 1025 24 10000 1.43 42 22:22 11.01.2022
5935 Clouds -9 1025 24 10000 1.12 55 20:56 11.01.2022
5936 Clouds -9 1026 24 10000 1.28 77 20:20 11.01.2022
5937 Clouds -10 1027 24 10000 1.09 74 18:32 11.01.2022
5938 Clouds -9 1027 23 10000 1.07 76 17:26 11.01.2022
5939 Clouds -9 1027 23 10000 1.07 76 16:38 11.01.2022
5940 Clouds -9 1028 22 10000 0.94 85 15:47 11.01.2022
5941 Clouds -6 1028 22 10000 0.93 93 14:42 11.01.2022
5942 Clouds -6 1028 21 10000 1.15 96 13:56 11.01.2022
5943 Clouds -4 1028 21 10000 1.15 96 13:36 11.01.2022
5944 Clouds -4 1027 21 10000 1.18 94 12:48 11.01.2022
5945 Clouds -5 1028 21 10000 1.11 100 12:20 11.01.2022
5946 Clouds -1 1027 20 10000 0.9 120 09:58 11.01.2022
5947 Clouds 0 1026 17 10000 0.73 184 07:18 11.01.2022
5948 Clear -10 1030 21 10000 0.5 68 00:34 11.01.2022
5949 Clouds -10 1030 21 10000 0.56 69 23:44 10.01.2022
5950 Clear -10 1029 21 10000 0.49 81 23:24 10.01.2022
5951 Clear -8 1029 21 10000 0.46 74 22:19 10.01.2022
5952 Clear -7 1029 21 10000 0.46 74 21:54 10.01.2022
5953 Clear -7 1030 20 10000 0.98 46 21:21 10.01.2022
5954 Clear -7 1030 20 10000 0.98 46 20:57 10.01.2022
5955 Clear -8 1030 20 10000 1.52 40 20:28 10.01.2022
5956 Clear -7 1030 20 10000 1.52 40 19:44 10.01.2022
5957 Clear -7 1030 20 10000 2.59 34 19:21 10.01.2022
5958 Clear -7 1030 20 10000 2.59 34 18:50 10.01.2022
5959 Clear -6 1030 20 10000 2.59 34 18:31 10.01.2022
5960 Clear -5 1030 18 10000 3.27 37 16:42 10.01.2022
5961 Clear -5 1031 18 10000 3.19 29 15:50 10.01.2022
5962 Clear -3 1031 17 10000 3.21 18 14:34 10.01.2022
5963 Clear -2 1030 18 10000 3.65 8 12:22 10.01.2022
5964 Clear -1 1029 19 10000 4.06 352 11:25 10.01.2022
5965 Clear 0 1028 18 10000 4.34 344 10:21 10.01.2022
5966 Clear 2 1027 19 10000 4.79 332 08:22 10.01.2022
5967 Clear 2 1027 22 10000 4.29 341 05:50 10.01.2022
5968 Clear -4 1028 30 10000 3.44 13 01:33 10.01.2022
5969 Clouds -3 1027 35 10000 3.25 12 00:33 10.01.2022
5970 Clouds -5 1026 38 10000 3.37 7 23:43 09.01.2022
5971 Clouds -5 1026 48 10000 3.18 5 22:42 09.01.2022
5972 Clouds -5 1026 60 10000 2.4 6 21:47 09.01.2022
5973 Clouds -5 1026 71 10000 2 7 21:24 09.01.2022
5974 Clouds -4 1026 71 10000 2 7 20:55 09.01.2022
5975 Clouds -5 1026 71 10000 2 7 20:37 09.01.2022
5976 Clouds -5 1026 74 10000 1.71 9 20:18 09.01.2022
5977 Clouds -5 1026 74 10000 1.71 9 19:37 09.01.2022
5978 Clouds -5 1025 74 10000 1.18 16 19:18 09.01.2022
5979 Clouds -3 1026 72 10000 1.33 17 18:37 09.01.2022
5980 Clouds -2 1025 72 10000 1.35 22 17:48 09.01.2022
5981 Clouds -1 1025 72 10000 1.5 36 17:26 09.01.2022
5982 Clouds -1 1025 72 10000 1.5 36 16:38 09.01.2022
5983 Clouds -2 1026 72 10000 1.33 35 15:38 09.01.2022
5984 Clouds -1 1026 71 10000 1.36 38 14:41 09.01.2022
5985 Clouds -1 1025 70 10000 1.51 35 14:21 09.01.2022
5986 Clouds -1 1025 70 10000 1.51 35 13:41 09.01.2022
5987 Clouds -1 1025 66 10000 1.47 25 11:56 09.01.2022
5988 Clouds -1 1024 64 10000 1.51 17 11:25 09.01.2022
5989 Clouds 1 1024 61 10000 0.95 4 09:55 09.01.2022
5990 Clouds 1 1024 58 10000 0.24 16 08:56 09.01.2022
5991 Clouds -1 1025 63 10000 0.48 156 06:21 09.01.2022
5992 Clouds -1 1027 76 10000 1.29 71 01:28 09.01.2022
5993 Clouds 0 1027 74 10000 1.41 68 00:37 09.01.2022
5994 Clouds 0 1027 74 10000 1.42 67 23:31 08.01.2022
5995 Clouds -1 1026 73 10000 1.45 73 22:48 08.01.2022
5996 Clouds -1 1027 66 10000 1.52 71 21:28 08.01.2022
5997 Clouds -1 1027 66 10000 1.52 71 20:43 08.01.2022
5998 Clouds -1 1027 59 10000 1.58 68 20:22 08.01.2022
5999 Clouds -1 1027 51 10000 1.64 70 19:22 08.01.2022
6000 Clouds 0 1027 44 10000 1.67 60 17:31 08.01.2022
6001 Clouds 1 1027 39 10000 1.48 62 16:42 08.01.2022
6002 Clouds 0 1027 34 10000 1.62 48 15:33 08.01.2022
6003 Clouds -2 1027 33 10000 1.69 37 13:58 08.01.2022
6004 Clouds 2 1026 32 10000 1.53 35 11:41 08.01.2022
6005 Clouds 6 1026 28 10000 2.17 14 10:33 08.01.2022
6006 Clouds 7 1026 28 10000 2.17 14 09:57 08.01.2022
6007 Clouds 8 1026 28 10000 2.17 14 09:34 08.01.2022
6008 Clouds 6 1026 27 10000 3.13 1 06:18 08.01.2022
6009 Clouds -5 1027 50 10000 2.63 354 01:41 08.01.2022
6010 Clear -4 1025 57 10000 1.8 332 23:36 07.01.2022
6011 Clear -7 1025 56 10000 1.43 329 21:49 07.01.2022
6012 Clear -6 1025 54 10000 1.35 322 20:34 07.01.2022
6013 Clear -8 1026 46 10000 0.84 276 19:27 07.01.2022
6014 Clear -8 1026 50 10000 0.91 272 18:49 07.01.2022
6015 Clear -8 1026 45 10000 0.69 274 18:21 07.01.2022
6016 Clear -7 1027 44 10000 0.8 283 17:24 07.01.2022
6017 Clear -6 1027 43 10000 0.65 300 14:56 07.01.2022
6018 Clear -5 1027 43 10000 0.84 296 13:52 07.01.2022
6019 Clear -5 1027 43 10000 0.84 296 13:52 07.01.2022
6020 Clear -4 1027 43 10000 0.93 275 12:51 07.01.2022
6021 Clear -2 1028 40 10000 0.93 280 11:28 07.01.2022
6022 Clouds 1 1030 30 10000 0.57 231 04:56 07.01.2022
6023 Clouds -2 1032 33 10000 0.41 327 02:53 07.01.2022
6024 Clouds -6 1032 36 10000 0.57 348 01:50 07.01.2022
6025 Clouds -7 1032 39 10000 0.66 352 01:26 07.01.2022
6026 Clouds -8 1032 39 10000 0.65 352 00:31 07.01.2022
6027 Clear -7 1032 38 10000 0.8 17 22:34 06.01.2022
6028 Clear -9 1033 37 10000 0.53 0 20:54 06.01.2022
6029 Clear -8 1033 37 10000 0.54 12 20:18 06.01.2022
6030 Clear -8 1033 37 10000 0.54 12 19:39 06.01.2022
6031 Clear -7 1033 34 10000 0.7 9 17:52 06.01.2022
6032 Clear -7 1034 34 10000 0.83 358 17:28 06.01.2022
6033 Clear -6 1034 34 10000 0.83 358 16:38 06.01.2022
6034 Clear -5 1035 33 10000 0.82 1 15:44 06.01.2022
6035 Clear -6 1035 32 10000 0.54 349 15:23 06.01.2022
6036 Clear -5 1035 30 10000 0.51 342 14:20 06.01.2022
6037 Clear -4 1035 30 10000 0.51 342 13:44 06.01.2022
6038 Clear -2 1034 30 10000 0.49 337 12:32 06.01.2022
6039 Clear 2 1034 29 10000 0.45 338 11:41 06.01.2022
6040 Clear 2 1034 28 10000 0.5 320 11:19 06.01.2022
6041 Clear 5 1033 24 10000 0.53 87 06:59 06.01.2022
6042 Clear -7 1035 35 10000 1.65 14 00:39 06.01.2022
6043 Clear -7 1034 36 10000 1.59 15 23:35 05.01.2022
6044 Clear -7 1034 36 10000 1.59 15 23:35 05.01.2022
6045 Clear -7 1034 36 10000 1.37 8 22:50 05.01.2022
6046 Clear -8 1033 36 10000 1.26 355 22:29 05.01.2022
6047 Clear -7 1033 36 10000 1.26 355 21:45 05.01.2022
6048 Clear -7 1033 36 10000 1.21 344 20:45 05.01.2022
6049 Clear -6 1033 36 10000 1.24 341 19:58 05.01.2022
6050 Clear -6 1032 38 10000 1.17 319 18:33 05.01.2022
6051 Clear -5 1031 39 10000 1.42 316 17:23 05.01.2022
6052 Clear -6 1032 40 10000 1.43 323 16:24 05.01.2022
6053 Clear -6 1031 40 10000 1.22 329 15:20 05.01.2022
6054 Clear -5 1031 41 10000 0.93 325 13:38 05.01.2022
6055 Clear -6 1031 41 10000 0.98 319 12:51 05.01.2022
6056 Clear 2 1029 39 10000 0.35 289 08:58 05.01.2022
6057 Clear 2 1029 39 10000 0.68 337 07:34 05.01.2022
6058 Clouds -2 1031 48 10000 1.25 12 03:33 05.01.2022
6059 Clear -9 1030 63 10000 1.24 38 00:33 05.01.2022
6060 Clear -9 1030 64 10000 1.44 19 23:26 04.01.2022
6061 Clear -8 1030 64 10000 1.35 20 22:27 04.01.2022
6062 Clear -8 1030 62 10000 1.16 26 20:50 04.01.2022
6063 Clear -7 1031 57 10000 1.15 37 19:19 04.01.2022
6064 Clear -3 1031 48 10000 1.24 26 17:39 04.01.2022
6065 Clear -5 1031 46 10000 1.23 19 16:41 04.01.2022
6066 Clear -4 1032 43 10000 1.2 35 16:22 04.01.2022
6067 Clear -6 1032 39 10000 1.17 48 14:52 04.01.2022
6068 Clear -6 1032 39 10000 1.17 48 14:34 04.01.2022
6069 Clear -4 1031 34 10000 1.45 12 13:26 04.01.2022
6070 Clear 0 1030 34 10000 1.65 350 10:41 04.01.2022
6071 Clear 3 1030 31 10000 0.89 357 09:20 04.01.2022
6072 Clear 3 1030 30 10000 0.35 34 08:25 04.01.2022
6073 Clear -7 1033 34 10000 1.02 66 01:51 04.01.2022
6074 Clear -9 1032 35 10000 1.2 66 00:40 04.01.2022
6075 Clear -10 1032 32 10000 1.64 54 23:18 03.01.2022
6076 Clear -10 1031 30 10000 1.63 50 21:50 03.01.2022
6077 Clear -10 1032 29 10000 1.44 43 21:24 03.01.2022
6078 Clear -8 1032 28 10000 1.41 39 19:47 03.01.2022
6079 Clear -9 1031 27 10000 1.36 41 18:47 03.01.2022
6080 Clear -9 1031 27 10000 1.52 37 18:24 03.01.2022
6081 Clear -6 1031 27 10000 1.61 32 16:58 03.01.2022
6082 Clear -6 1030 27 10000 1.31 1 14:56 03.01.2022
6083 Clear -3 1030 27 10000 1.31 1 14:30 03.01.2022
6084 Clear -2 1029 26 10000 1.1 358 12:39 03.01.2022
6085 Clear -3 1029 26 10000 1.35 22 11:34 03.01.2022
6086 Clear 2 1027 23 10000 1.69 40 10:26 03.01.2022
6087 Clear 5 1027 19 10000 2.35 25 08:47 03.01.2022
6088 Clear 5 1026 18 10000 2.88 10 07:34 03.01.2022
6089 Clouds -10 1026 35 10000 1.29 1 23:55 02.01.2022
6090 Clouds -10 1026 35 10000 1.29 6 23:20 02.01.2022
6091 Clouds -9 1026 35 10000 1.29 6 22:43 02.01.2022
6092 Clouds -10 1025 34 10000 1.47 10 21:39 02.01.2022
6093 Clouds -10 1025 33 10000 1.46 7 20:33 02.01.2022
6094 Clouds -8 1026 32 10000 1.41 2 19:54 02.01.2022
6095 Clouds -8 1026 31 10000 1.08 355 19:29 02.01.2022
6096 Clouds -7 1026 31 10000 1.13 360 18:44 02.01.2022
6097 Clouds -5 1027 30 10000 0.8 334 17:43 02.01.2022
6098 Clouds -4 1027 30 10000 0.51 306 17:22 02.01.2022
6099 Clouds -6 1027 30 10000 0.51 306 16:59 02.01.2022
6100 Clouds -6 1028 29 10000 0.49 277 16:24 02.01.2022
6101 Clouds -5 1028 28 10000 1.07 214 14:22 02.01.2022
6102 Clouds -2 1028 28 10000 1.43 204 12:49 02.01.2022
6103 Clouds 0 1028 29 10000 1.67 193 11:57 02.01.2022
6104 Clouds 0 1028 28 10000 1.61 188 11:26 02.01.2022
6105 Clouds 0 1028 28 10000 1.6 188 10:45 02.01.2022
6106 Clouds 2 1028 26 10000 2.53 211 08:46 02.01.2022
6107 Clear -2 1034 28 10000 2.34 206 03:49 02.01.2022
6108 Clear -11 1034 34 10000 0.2 192 00:58 02.01.2022
6109 Clear -8 1034 33 10000 0.35 27 23:39 01.01.2022
6110 Clear -8 1034 33 10000 0.35 27 23:39 01.01.2022
6111 Clear -11 1033 33 10000 1.13 22 22:57 01.01.2022
6112 Clear -11 1033 32 10000 1.96 25 22:21 01.01.2022
6113 Clear -8 1033 32 10000 1.96 25 21:43 01.01.2022
6114 Clear -9 1033 31 10000 2.44 33 20:53 01.01.2022
6115 Clear -9 1033 30 10000 2.63 41 19:57 01.01.2022
6116 Clear -5 1033 30 10000 2.72 40 18:58 01.01.2022
6117 Clear -3 1033 29 10000 2.95 30 17:58 01.01.2022
6118 Clear -5 1033 28 10000 3.03 25 16:37 01.01.2022
6119 Clear -5 1034 27 10000 3.19 18 16:19 01.01.2022
6120 Clear -1 1033 27 10000 3.62 8 15:26 01.01.2022
6121 Clear 0 1033 26 10000 4.38 356 13:46 01.01.2022
6122 Clear 0 1033 26 10000 4.38 356 13:46 01.01.2022
6123 Clear 0 1032 26 10000 5.11 347 12:49 01.01.2022
6124 Clear 2 1031 26 10000 5.49 340 11:56 01.01.2022
6125 Clear 3 1030 26 10000 5.95 333 11:22 01.01.2022
6126 Clear 4 1029 25 10000 6.05 324 10:27 01.01.2022
6127 Clear 5 1029 25 10000 6.05 324 09:45 01.01.2022
6128 Clear 8 1026 23 10000 7.2 307 08:25 01.01.2022
6129 Clear 7 1026 23 10000 7.2 307 07:44 01.01.2022
6130 Clouds 4 1025 22 10000 7.26 311 06:47 01.01.2022
6131 Clouds 2 1026 22 10000 3.7 315 05:26 01.01.2022
6132 Clouds 0 1026 22 10000 3.7 315 04:37 01.01.2022
6133 Clouds -8 1026 36 10000 1.08 18 01:28 01.01.2022
6134 Clear -10 1026 36 10000 1.34 22 23:36 31.12.2021
6135 Clear -8 1026 35 10000 1.24 30 21:53 31.12.2021
6136 Clear -9 1027 34 10000 1.16 35 20:37 31.12.2021
6137 Clear -9 1027 33 10000 1.16 24 19:30 31.12.2021
6138 Clear -8 1028 34 10000 1.19 27 18:35 31.12.2021
6139 Clear -7 1028 33 10000 1.28 33 17:40 31.12.2021
6140 Clouds -7 1029 32 10000 1.06 42 17:18 31.12.2021
6141 Clouds -7 1030 31 10000 1.22 51 16:25 31.12.2021
6142 Clouds -7 1030 31 10000 1.22 51 15:57 31.12.2021
6143 Clouds -7 1030 30 10000 1.42 37 15:28 31.12.2021
6144 Clouds -6 1030 30 10000 1.42 37 14:56 31.12.2021
6145 Clear -6 1030 30 10000 1.28 35 14:30 31.12.2021
6146 Clear -5 1030 30 10000 1.28 35 13:36 31.12.2021
6147 Clouds -4 1030 29 10000 1.19 24 12:45 31.12.2021
6148 Clouds -4 1030 27 10000 0.73 18 11:47 31.12.2021
6149 Clouds -2 1030 27 10000 0.85 5 11:29 31.12.2021
6150 Clouds 0 1030 27 10000 0.85 5 10:35 31.12.2021
6151 Clouds 3 1030 26 10000 0.7 356 09:55 31.12.2021
6152 Clouds 4 1030 26 10000 0.7 356 09:32 31.12.2021
6153 Clouds 3 1030 25 10000 0.13 295 08:39 31.12.2021
6154 Clouds 3 1030 24 10000 0.59 212 07:31 31.12.2021
6155 Clear -10 1034 31 10000 0.72 72 23:32 30.12.2021
6156 Clear -10 1034 30 10000 0.69 73 22:33 30.12.2021
6157 Clear -10 1033 30 10000 0.38 122 21:56 30.12.2021
6158 Clear -9 1033 30 10000 0.38 122 21:37 30.12.2021
6159 Clear -9 1034 29 10000 0.67 181 20:47 30.12.2021
6160 Clear -9 1034 29 10000 0.56 180 20:27 30.12.2021
6161 Clear -9 1034 29 10000 0.56 180 19:47 30.12.2021
6162 Clear -8 1034 27 10000 0.53 159 18:48 30.12.2021
6163 Clear -9 1034 27 10000 0.54 135 18:19 30.12.2021
6164 Clear -7 1034 27 10000 1.15 47 16:20 30.12.2021
6165 Clear -6 1034 27 10000 1.15 47 15:52 30.12.2021
6166 Clear -5 1034 26 10000 1.58 38 14:40 30.12.2021
6167 Clear -3 1033 26 10000 1.82 47 13:55 30.12.2021
6168 Clear -3 1033 26 10000 1.82 47 13:55 30.12.2021
6169 Clear 0 1033 25 10000 1.72 5 12:44 30.12.2021
6170 Clear 2 1032 22 10000 2.72 344 10:59 30.12.2021
6171 Clear 5 1032 21 10000 2.78 326 09:59 30.12.2021
6172 Clear 5 1032 21 10000 2.78 326 09:59 30.12.2021
6173 Clear 5 1031 19 10000 3.93 328 09:21 30.12.2021
6174 Clear 5 1030 17 10000 5.39 318 06:54 30.12.2021
6175 Clear 4 1032 19 10000 4.88 315 04:20 30.12.2021
6176 Clear 4 1032 19 10000 4.88 315 03:38 30.12.2021
6177 Clear -6 1029 25 10000 3.71 298 23:57 29.12.2021
6178 Clear -5 1028 24 10000 4.01 312 23:23 29.12.2021
6179 Clear -5 1028 24 10000 3.74 324 22:22 29.12.2021
6180 Clear -7 1028 24 10000 3.74 324 21:45 29.12.2021
6181 Clear -8 1028 24 10000 3.97 321 20:39 29.12.2021
6182 Clear -7 1029 24 10000 4.42 310 19:50 29.12.2021
6183 Clear -8 1029 24 10000 4.49 302 18:57 29.12.2021
6184 Clear -7 1028 25 10000 4.12 298 18:19 29.12.2021
6185 Clear -6 1029 25 10000 3.53 292 17:28 29.12.2021
6186 Clear -4 1029 25 10000 3.53 292 16:49 29.12.2021
6187 Clear -3 1029 24 10000 2.8 286 16:19 29.12.2021
6188 Clear -4 1029 24 10000 1.89 249 14:40 29.12.2021
6189 Clear 0 1029 22 10000 1.93 261 12:48 29.12.2021
6190 Clear 3 1029 23 10000 2.05 248 12:20 29.12.2021
6191 Clear 3 1028 21 10000 2.76 279 10:36 29.12.2021
6192 Clear 4 1028 19 10000 5.21 317 08:24 29.12.2021
6193 Clear 4 1029 20 10000 5.24 320 06:45 29.12.2021
6194 Clear 5 1029 20 10000 5.42 325 06:24 29.12.2021
6195 Clear 4 1029 20 10000 5.42 325 05:43 29.12.2021
6196 Clear 0 1030 21 10000 5.16 333 03:20 29.12.2021
6197 Clear -1 1027 21 10000 5.28 328 00:25 29.12.2021
6198 Clear -1 1027 21 10000 5.28 328 23:49 28.12.2021
6199 Clear -1 1026 20 10000 4.96 329 22:50 28.12.2021
6200 Clear -1 1025 18 10000 4.85 335 22:24 28.12.2021
6201 Clear 0 1025 18 10000 4.85 335 21:53 28.12.2021
6202 Clear 0 1025 17 10000 5.13 331 20:49 28.12.2021
6203 Clear 0 1025 16 10000 6.18 323 19:44 28.12.2021
6204 Clear 0 1024 17 10000 7.26 321 18:50 28.12.2021
6205 Clear 1 1024 18 10000 7.13 323 18:23 28.12.2021
6206 Clear -5 1024 16 10000 6.21 320 16:35 28.12.2021
6207 Clear -6 1024 17 10000 5.24 315 15:52 28.12.2021
6208 Clear -5 1023 20 10000 3.69 309 15:27 28.12.2021
6209 Clear -2 1023 20 10000 3.69 309 14:53 28.12.2021
6210 Clear -2 1023 23 10000 2.06 304 14:21 28.12.2021
6211 Clear -2 1023 23 10000 2.06 304 13:54 28.12.2021
6212 Clear -2 1023 23 10000 2.06 304 13:33 28.12.2021
6213 Clear 1 1023 24 10000 1.63 288 12:55 28.12.2021
6214 Clear 3 1023 24 10000 1.55 273 12:18 28.12.2021
6215 Clear 6 1022 21 10000 1.52 239 09:30 28.12.2021
6216 Clear 6 1022 17 10000 1.05 212 07:33 28.12.2021
6217 Clear -3 1027 21 10000 0.62 358 03:28 28.12.2021
6218 Clear -12 1027 27 10000 0.55 356 23:37 27.12.2021
6219 Clear -11 1028 26 10000 0.28 339 22:20 27.12.2021
6220 Clear -11 1028 26 10000 0.28 339 21:30 27.12.2021
6221 Clear -10 1029 25 10000 0.63 350 20:27 27.12.2021
6222 Clear -10 1029 25 10000 0.63 350 19:47 27.12.2021
6223 Clear -10 1029 25 10000 0.58 338 18:57 27.12.2021
6224 Clear -10 1029 24 10000 0.52 317 17:51 27.12.2021
6225 Clear -9 1030 23 10000 0.56 306 17:28 27.12.2021
6226 Clear -8 1030 22 10000 0.64 311 15:54 27.12.2021
6227 Clear -7 1031 21 10000 0.74 308 14:56 27.12.2021
6228 Clear -6 1031 20 10000 0.77 305 14:21 27.12.2021
6229 Clear -3 1031 19 10000 0.82 275 12:49 27.12.2021
6230 Clear 2 1031 18 10000 1.08 260 10:37 27.12.2021
6231 Clear 2 1031 17 10000 0.97 246 10:18 27.12.2021
6232 Clear 7 1031 15 10000 0.73 226 08:43 27.12.2021
6233 Clear 6 1031 14 10000 0.33 277 07:34 27.12.2021
6234 Clear 4 1031 13 10000 1.8 326 06:27 27.12.2021
6235 Clear -10 1034 19 10000 1.63 336 01:51 27.12.2021
6236 Clear -14 1033 21 10000 1.43 336 23:49 26.12.2021
6237 Clear -13 1033 20 10000 1.36 329 23:19 26.12.2021
6238 Clear -13 1033 20 10000 1.45 325 21:33 26.12.2021
6239 Clear -12 1035 20 10000 1.21 319 19:55 26.12.2021
6240 Clear -12 1035 20 10000 1.09 318 18:45 26.12.2021
6241 Clear -12 1036 20 10000 1.05 274 18:21 26.12.2021
6242 Clear -5 1037 20 10000 1.25 245 15:38 26.12.2021
6243 Clear -5 1037 17 10000 1.68 235 13:49 26.12.2021
6244 Clear -5 1037 17 10000 1.68 235 13:31 26.12.2021
6245 Clear -5 1038 16 10000 1.81 230 12:36 26.12.2021
6246 Clear -2 1037 13 10000 1.85 220 11:20 26.12.2021
6247 Clear -1 1037 12 10000 1.56 221 09:31 26.12.2021
6248 Clear 0 1038 11 10000 1.58 242 08:45 26.12.2021
6249 Clear 0 1038 11 10000 1.82 272 08:27 26.12.2021
6250 Clear -8 1042 14 10000 2.86 307 02:19 26.12.2021
6251 Clear -10 1042 15 10000 2.95 308 00:40 26.12.2021
6252 Clear -10 1042 16 10000 3.21 311 23:48 25.12.2021
6253 Clear -10 1042 16 10000 3.33 314 22:39 25.12.2021
6254 Clear -10 1043 16 10000 3.48 316 22:20 25.12.2021
6255 Clear -10 1044 16 10000 4.16 320 20:27 25.12.2021
6256 Clear -10 1045 15 10000 4.11 326 19:19 25.12.2021
6257 Clear -10 1045 16 10000 3.81 326 18:39 25.12.2021
6258 Clear -8 1045 16 10000 3.63 325 16:50 25.12.2021
6259 Clear -8 1045 15 10000 3.58 322 15:38 25.12.2021
6260 Clear -7 1046 15 10000 3.92 323 14:23 25.12.2021
6261 Clear -7 1045 15 10000 4.09 323 12:40 25.12.2021
6262 Clear -6 1045 13 10000 4.03 325 10:49 25.12.2021
6263 Clear -6 1045 12 10000 3.94 325 09:49 25.12.2021
6264 Clear -6 1045 12 10000 4.59 332 07:28 25.12.2021
6265 Clear -11 1046 21 10000 4.59 340 01:45 25.12.2021
6266 Clear -11 1045 20 10000 4.48 339 00:23 25.12.2021
6267 Clear -10 1045 18 10000 4.7 343 22:26 24.12.2021
6268 Clear -10 1044 16 10000 4.47 348 19:29 24.12.2021
6269 Clear -10 1044 16 10000 4.47 348 18:57 24.12.2021
6270 Clear -10 1044 17 10000 3.74 8 16:49 24.12.2021
6271 Clear -10 1044 17 10000 3.63 18 15:53 24.12.2021
6272 Clear -10 1044 17 10000 3.63 18 15:34 24.12.2021
6273 Clear -8 1044 16 10000 3.75 25 14:36 24.12.2021
6274 Clear -8 1043 15 10000 3.9 29 14:18 24.12.2021
6275 Clear -7 1043 15 10000 3.9 29 13:33 24.12.2021
6276 Clear -7 1042 14 10000 4.09 29 12:47 24.12.2021
6277 Clear -7 1042 13 10000 4.23 31 11:47 24.12.2021
6278 Clear -7 1041 12 10000 4.1 30 11:24 24.12.2021
6279 Clear -6 1041 12 10000 4.1 30 10:45 24.12.2021
6280 Clear -5 1039 12 10000 3.94 13 09:25 24.12.2021
6281 Clear -5 1039 12 10000 4.37 6 08:23 24.12.2021
6282 Clear -5 1039 12 10000 4.37 6 07:46 24.12.2021
6283 Clear -8 1040 22 10000 4.61 53 01:30 24.12.2021
6284 Clouds -8 1038 24 10000 4.55 60 23:55 23.12.2021
6285 Clouds -7 1037 26 10000 4.62 63 22:54 23.12.2021
6286 Clouds -6 1036 24 10000 4.62 61 22:27 23.12.2021
6287 Clouds -6 1036 24 10000 4.62 61 21:59 23.12.2021
6288 Clouds -5 1036 23 10000 4.34 61 20:56 23.12.2021
6289 Clouds -5 1035 28 10000 3.72 69 19:39 23.12.2021
6290 Clouds -2 1035 36 10000 3.14 90 18:34 23.12.2021
6291 Clouds -2 1035 38 10000 3.54 94 17:55 23.12.2021
6292 Clouds -2 1034 36 10000 3.92 90 16:43 23.12.2021
6293 Clouds -3 1034 44 10000 3.32 72 16:23 23.12.2021
6294 Snow -3 1034 44 10000 3.32 72 15:31 23.12.2021
6295 Clouds -3 1033 55 10000 1.85 61 14:49 23.12.2021
6296 Clouds -4 1033 55 10000 1.85 61 14:30 23.12.2021
6297 Clouds -3 1030 54 10000 1.27 78 12:53 23.12.2021
6298 Clouds -2 1028 55 10000 1.52 72 10:44 23.12.2021
6299 Clouds -1 1028 56 10000 1.47 67 09:35 23.12.2021
6300 Clouds -2 1027 56 10000 1.36 72 08:59 23.12.2021
6301 Clouds -2 1027 57 10000 1.07 94 06:51 23.12.2021
6302 Clouds -2 1028 59 10000 1.3 83 04:30 23.12.2021
6303 Clouds -3 1027 75 10000 1.67 108 22:57 22.12.2021
6304 Clouds -3 1027 75 10000 1.67 108 22:39 22.12.2021
6305 Clouds -3 1027 77 10000 1.74 117 21:54 22.12.2021
6306 Clouds -3 1027 77 10000 1.81 122 21:29 22.12.2021
6307 Clouds -3 1027 77 10000 1.81 122 20:44 22.12.2021
6308 Clouds -3 1027 75 10000 1.89 121 20:25 22.12.2021
6309 Clouds -3 1027 71 10000 1.92 118 19:21 22.12.2021
6310 Clouds -2 1027 66 10000 1.79 123 17:42 22.12.2021
6311 Clouds -1 1027 62 10000 1.55 125 16:38 22.12.2021
6312 Clouds 0 1027 58 10000 1.43 130 15:39 22.12.2021
6313 Clear 0 1027 54 10000 1.26 157 13:32 22.12.2021
6314 Clear -1 1027 56 10000 1.57 160 12:39 22.12.2021
6315 Clear 4 1025 50 10000 1.01 149 10:18 22.12.2021
6316 Clear 5 1025 50 10000 1.01 149 09:38 22.12.2021
6317 Clear 5 1025 47 10000 1.11 175 07:25 22.12.2021
6318 Clear 5 1026 48 10000 0.72 146 05:43 22.12.2021
6319 Clear 4 1027 50 10000 0.68 120 05:24 22.12.2021
6320 Clear 3 1027 50 10000 0.68 120 04:49 22.12.2021
6321 Clouds 3 1028 52 10000 1.06 97 04:26 22.12.2021
6322 Clouds 3 1028 52 10000 1.06 97 03:32 22.12.2021
6323 Clouds 0 1026 60 10000 1.3 96 00:47 22.12.2021
6324 Clouds 0 1025 58 10000 1.5 102 22:52 21.12.2021
6325 Clouds 0 1025 59 10000 1.75 92 22:28 21.12.2021
6326 Clouds 0 1025 59 10000 1.75 92 21:44 21.12.2021
6327 Clouds 0 1025 60 10000 1.91 79 20:55 21.12.2021
6328 Clouds 0 1025 61 10000 1.93 86 20:21 21.12.2021
6329 Clouds 0 1025 61 10000 1.93 86 19:42 21.12.2021
6330 Clouds 0 1026 61 10000 2.12 101 18:46 21.12.2021
6331 Clouds 0 1026 61 10000 2.17 101 18:21 21.12.2021
6332 Clouds 0 1026 61 10000 2.17 101 17:41 21.12.2021
6333 Clouds 2 1025 62 10000 2.83 112 15:59 21.12.2021
6334 Clouds 2 1025 63 10000 2.89 108 15:24 21.12.2021
6335 Clouds 3 1024 66 10000 2.61 118 13:50 21.12.2021
6336 Clouds 4 1024 66 10000 2.61 118 13:30 21.12.2021
6337 Clouds 4 1023 58 10000 2.43 131 11:49 21.12.2021
6338 Clouds 5 1022 51 10000 0.88 86 10:24 21.12.2021
6339 Clear 7 1021 47 10000 0.63 119 09:23 21.12.2021
6340 Clear 7 1021 45 10000 1.49 161 07:58 21.12.2021
6341 Clear 7 1021 44 10000 1.69 154 07:27 21.12.2021
6342 Clear 5 1022 43 10000 1.86 150 05:31 21.12.2021
6343 Clear 0 1024 38 10000 1.87 79 02:51 21.12.2021
6344 Clear -4 1021 44 10000 1.8 24 23:59 20.12.2021
6345 Clear -2 1020 43 10000 1.81 11 23:29 20.12.2021
6346 Clear -2 1019 42 10000 1.69 5 22:28 20.12.2021
6347 Clear -2 1019 42 10000 1.69 5 21:47 20.12.2021
6348 Clear -1 1019 41 10000 1.66 358 21:23 20.12.2021
6349 Clear 2 1019 41 10000 1.66 358 20:44 20.12.2021
6350 Clear -2 1019 40 10000 1.7 359 19:53 20.12.2021
6351 Clear -3 1019 40 10000 1.7 359 19:31 20.12.2021
6352 Clear -2 1018 38 10000 1.48 1 18:54 20.12.2021
6353 Clear -2 1018 37 10000 1.41 350 17:52 20.12.2021
6354 Clear -3 1018 36 10000 1.43 343 17:25 20.12.2021
6355 Clear -3 1018 36 10000 1.43 343 17:25 20.12.2021
6356 Clear -1 1018 36 10000 1.43 343 16:40 20.12.2021
6357 Clear 3 1018 35 10000 1.3 349 15:50 20.12.2021
6358 Clear 4 1017 34 10000 1.55 1 14:43 20.12.2021
6359 Clear 8 1016 33 10000 1.12 331 12:53 20.12.2021
6360 Clear 7 1015 29 10000 1.1 298 11:19 20.12.2021
6361 Clear 10 1014 28 10000 0.89 262 09:47 20.12.2021
6362 Clear 13 1014 24 10000 0.75 284 09:28 20.12.2021
6363 Clear 14 1014 24 10000 0.75 284 08:41 20.12.2021
6364 Clear 14 1013 22 10000 1.08 316 07:49 20.12.2021
6365 Clear 13 1013 21 10000 1.63 315 07:29 20.12.2021
6366 Clear 8 1016 25 10000 3.21 313 03:59 20.12.2021
6367 Clear -5 1014 38 10000 1.31 331 23:58 19.12.2021
6368 Clear -7 1014 38 10000 1.3 356 22:45 19.12.2021
6369 Clear -7 1015 38 10000 1.28 6 21:50 19.12.2021
6370 Clear -6 1015 38 10000 1.03 357 21:29 19.12.2021
6371 Clear -7 1015 38 10000 0.65 334 20:31 19.12.2021
6372 Clear -6 1015 38 10000 0.65 334 19:49 19.12.2021
6373 Clouds -6 1016 35 10000 0.79 271 18:59 19.12.2021
6374 Clouds -6 1016 35 10000 0.44 299 18:29 19.12.2021
6375 Clouds -5 1016 35 10000 0.44 299 17:51 19.12.2021
6376 Clouds -4 1017 34 10000 0.72 299 17:18 19.12.2021
6377 Clouds -3 1017 33 10000 0.86 290 16:26 19.12.2021
6378 Clouds -4 1017 33 10000 0.7 265 15:31 19.12.2021
6379 Clear -2 1017 32 10000 1.34 253 14:59 19.12.2021
6380 Clear -2 1017 32 10000 1.34 253 14:36 19.12.2021
6381 Clear 1 1018 29 10000 1.65 227 13:22 19.12.2021
6382 Clear 4 1018 29 10000 1.65 227 12:34 19.12.2021
6383 Clear 0 1018 28 10000 1.51 220 11:44 19.12.2021
6384 Clear 0 1018 28 10000 0.85 200 11:18 19.12.2021
6385 Clear 4 1018 27 10000 0.89 197 10:25 19.12.2021
6386 Clear 8 1018 27 10000 0.89 197 09:37 19.12.2021
6387 Clear 9 1018 24 10000 0.65 175 07:50 19.12.2021
6388 Clear 2 1021 27 10000 0.41 238 04:45 19.12.2021
6389 Clear -9 1022 31 10000 0.56 295 01:19 19.12.2021
6390 Clear -9 1022 31 10000 0.56 295 00:52 19.12.2021
6391 Clear -10 1021 30 10000 0.82 235 22:36 18.12.2021
6392 Clear -9 1021 30 10000 0.8 247 21:57 18.12.2021
6393 Clear -8 1021 30 10000 0.8 247 21:35 18.12.2021
6394 Clear -8 1022 30 10000 0.87 246 20:44 18.12.2021
6395 Clear -8 1023 30 10000 1.28 229 19:59 18.12.2021
6396 Clear -8 1023 29 10000 1.69 215 19:20 18.12.2021
6397 Clear -7 1024 29 10000 2.35 211 18:21 18.12.2021
6398 Clear -8 1024 29 10000 2.35 211 17:48 18.12.2021
6399 Clear -7 1025 28 10000 2.19 216 16:26 18.12.2021
6400 Clear -6 1025 27 10000 2 226 15:26 18.12.2021
6401 Clear -5 1025 27 10000 2 226 14:38 18.12.2021
6402 Clear -3 1025 24 10000 1.25 262 13:21 18.12.2021
6403 Clear 3 1025 21 10000 1.88 291 11:22 18.12.2021
6404 Clear 5 1024 19 10000 3.24 311 09:40 18.12.2021
6405 Clear 5 1024 17 10000 4.47 316 08:47 18.12.2021
6406 Clear 5 1024 16 10000 5.73 314 08:19 18.12.2021
6407 Clear -4 1026 19 10000 3.88 287 02:51 18.12.2021
6408 Clear -11 1026 20 10000 1.36 211 00:28 18.12.2021
6409 Clear -11 1026 20 10000 1.36 211 23:44 17.12.2021
6410 Clear -11 1026 21 10000 1.69 202 21:56 17.12.2021
6411 Clear -10 1027 21 10000 1.8 203 21:18 17.12.2021
6412 Clear -10 1027 21 10000 1.8 203 20:38 17.12.2021
6413 Clear -10 1029 20 10000 2 203 19:19 17.12.2021
6414 Clouds -9 1029 19 10000 1.61 201 18:38 17.12.2021
6415 Clear -9 1030 18 10000 1.8 202 17:31 17.12.2021
6416 Clouds -8 1031 17 10000 2.07 196 16:46 17.12.2021
6417 Clouds -3 1031 15 10000 2.05 193 16:22 17.12.2021
6418 Clear -3 1032 14 10000 2.14 199 15:21 17.12.2021
6419 Clear -3 1032 14 10000 2.14 199 15:21 17.12.2021
6420 Clear -3 1032 14 10000 2.14 199 14:39 17.12.2021
6421 Clear -3 1034 13 10000 1.62 203 12:46 17.12.2021
6422 Clear -4 1034 13 10000 1.68 201 11:34 17.12.2021
6423 Clear -2 1034 13 10000 1.71 195 10:37 17.12.2021
6424 Clear -1 1034 12 10000 1.79 201 09:31 17.12.2021
6425 Clear -1 1035 11 10000 1.6 255 08:30 17.12.2021
6426 Clear -3 1036 11 10000 4.01 300 05:58 17.12.2021
6427 Clear -6 1038 14 10000 4.88 313 02:53 17.12.2021
6428 Clear -7 1037 16 10000 6.18 332 23:23 16.12.2021
6429 Clear -7 1036 15 10000 6.75 331 22:24 16.12.2021
6430 Clear -7 1036 15 10000 6.75 331 22:24 16.12.2021
6431 Clear -6 1036 15 10000 6.75 331 21:50 16.12.2021
6432 Clear -5 1036 16 10000 6.52 330 21:25 16.12.2021
6433 Clear -5 1035 19 10000 6.61 322 20:28 16.12.2021
6434 Clear -5 1035 19 10000 6.62 322 19:42 16.12.2021
6435 Clear -5 1035 22 10000 7.05 316 18:38 16.12.2021
6436 Clear -4 1033 22 10000 4.82 318 17:55 16.12.2021
6437 Clear -3 1033 23 10000 3.91 325 17:28 16.12.2021
6438 Clear -3 1033 23 10000 3.75 337 16:21 16.12.2021
6439 Clear -2 1033 23 10000 3.89 351 14:50 16.12.2021
6440 Clear -1 1032 23 10000 4.51 4 12:57 16.12.2021
6441 Clear 0 1030 21 10000 4.56 9 11:20 16.12.2021
6442 Clear 0 1030 21 10000 4.56 9 10:58 16.12.2021
6443 Clear 2 1030 20 10000 5.05 354 10:20 16.12.2021
6444 Clear 4 1028 19 10000 5.9 318 07:31 16.12.2021
6445 Clear 4 1028 19 10000 6.32 318 06:19 16.12.2021
6446 Clouds 4 1025 27 10000 5.19 325 00:54 16.12.2021
6447 Clouds 4 1023 24 10000 6.16 318 23:25 15.12.2021
6448 Clouds 4 1023 24 10000 6.16 318 22:41 15.12.2021
6449 Clouds 4 1022 26 10000 6.07 315 21:55 15.12.2021
6450 Clear -2 1022 30 10000 4.57 324 21:26 15.12.2021
6451 Clouds -2 1022 40 10000 2 349 20:18 15.12.2021
6452 Clouds -3 1022 40 10000 2 349 19:45 15.12.2021
6453 Clouds -5 1021 40 10000 1.87 14 18:37 15.12.2021
6454 Clouds -6 1021 39 10000 1.65 11 17:53 15.12.2021
6455 Clouds -5 1021 39 10000 1.65 11 17:34 15.12.2021
6456 Clouds -6 1021 38 10000 0.69 327 16:28 15.12.2021
6457 Clouds -6 1021 38 10000 0.69 327 15:46 15.12.2021
6458 Clouds -4 1021 38 10000 0.35 246 15:27 15.12.2021
6459 Clouds -5 1021 37 10000 0.7 231 14:18 15.12.2021
6460 Clouds -4 1020 36 10000 0.76 195 12:37 15.12.2021
6461 Clouds -1 1020 30 10000 1.6 181 10:27 15.12.2021
6462 Clouds 3 1019 28 10000 1.14 163 08:55 15.12.2021
6463 Clouds 3 1020 26 10000 1.35 154 06:54 15.12.2021
6464 Clear -6 1021 36 10000 1.18 15 01:20 15.12.2021
6465 Clear -7 1021 36 10000 1.13 23 23:42 14.12.2021
6466 Clear -7 1020 36 10000 0.99 16 22:49 14.12.2021
6467 Clear -7 1020 36 10000 1.13 12 22:19 14.12.2021
6468 Clear -6 1020 35 10000 1.11 16 20:28 14.12.2021
6469 Clear -4 1020 35 10000 1.11 16 19:40 14.12.2021
6470 Clear -3 1020 35 10000 1.34 15 18:53 14.12.2021
6471 Clear -5 1020 34 10000 1.29 14 18:22 14.12.2021
6472 Clear -5 1020 33 10000 1.08 2 17:28 14.12.2021
6473 Clear -4 1020 33 10000 1.08 2 16:38 14.12.2021
6474 Clear -4 1020 31 10000 0.92 331 15:35 14.12.2021
6475 Clear -2 1019 29 10000 1.16 283 13:31 14.12.2021
6476 Clear 0 1018 26 10000 1.72 234 11:59 14.12.2021
6477 Clear 5 1017 25 10000 1.85 226 11:24 14.12.2021
6478 Clear 7 1016 24 10000 1.66 215 09:57 14.12.2021
6479 Clear 7 1016 24 10000 1.66 215 09:35 14.12.2021
6480 Clear 8 1015 20 10000 1.2 249 08:25 14.12.2021
6481 Clear 7 1015 20 10000 1.2 249 07:43 14.12.2021
6482 Clear -2 1018 26 10000 0.98 26 02:27 14.12.2021
6483 Clear -7 1018 30 10000 1.04 34 22:56 13.12.2021
6484 Clear -8 1018 30 10000 1.16 32 21:53 13.12.2021
6485 Clear -8 1018 30 10000 1.03 38 21:18 13.12.2021
6486 Clear -8 1018 30 10000 1.03 38 20:42 13.12.2021
6487 Clear -7 1019 31 10000 1.09 31 19:52 13.12.2021
6488 Clear -6 1020 29 10000 0.86 14 18:24 13.12.2021
6489 Clear -7 1021 30 10000 0.66 355 17:26 13.12.2021
6490 Clear -6 1021 30 10000 0.25 320 15:51 13.12.2021
6491 Clear -5 1022 30 10000 0.25 271 15:25 13.12.2021
6492 Clear -3 1022 30 10000 0.45 258 13:39 13.12.2021
6493 Clear 2 1022 32 10000 0.89 224 12:46 13.12.2021
6494 Clear 2 1022 30 10000 1.2 213 11:56 13.12.2021
6495 Clear 2 1022 30 10000 1.2 213 11:35 13.12.2021
6496 Clear 0 1023 27 10000 1.4 205 10:44 13.12.2021
6497 Clear 3 1023 24 10000 1.52 208 09:32 13.12.2021
6498 Clear 4 1024 19 10000 1.94 211 07:48 13.12.2021
6499 Clear 2 1026 17 10000 1.31 215 05:35 13.12.2021
6500 Clear -1 1029 23 10000 0.1 266 03:28 13.12.2021
6501 Clear -9 1031 29 10000 0.28 311 23:22 12.12.2021
6502 Clear -7 1031 29 10000 0.38 290 21:40 12.12.2021
6503 Clear -8 1032 28 10000 0.5 249 19:57 12.12.2021
6504 Clear -7 1033 27 10000 0.46 255 18:36 12.12.2021
6505 Clear -6 1034 26 10000 0.66 254 17:38 12.12.2021
6506 Clear -3 1034 24 10000 1.29 245 16:28 12.12.2021
6507 Clear -1 1034 24 10000 1.29 245 15:46 12.12.2021
6508 Clear 0 1035 23 10000 1.54 238 15:25 12.12.2021
6509 Clear 0 1035 23 10000 1.54 238 14:36 12.12.2021
6510 Clear 2 1035 18 10000 1.66 253 13:26 12.12.2021
6511 Clear 2 1035 18 10000 1.66 253 12:30 12.12.2021
6512 Clear 2 1035 17 10000 2.03 280 11:44 12.12.2021
6513 Clear 2 1035 16 10000 2.64 290 11:22 12.12.2021
6514 Clear 2 1035 15 10000 3.29 295 10:28 12.12.2021
6515 Clear 3 1035 15 10000 3.29 295 09:38 12.12.2021
6516 Clear 3 1036 13 10000 3.68 305 08:33 12.12.2021
6517 Clear 2 1037 14 10000 5.22 327 06:19 12.12.2021
6518 Clear 2 1039 16 10000 5.57 329 04:56 12.12.2021
6519 Clear 0 1040 17 10000 5.61 331 03:57 12.12.2021
6520 Clear -1 1039 22 10000 4.72 343 23:47 11.12.2021
6521 Clear -1 1038 21 10000 5.53 341 22:23 11.12.2021
6522 Clear -1 1038 21 10000 5.53 341 21:52 11.12.2021
6523 Clear 0 1038 20 10000 5.72 338 20:52 11.12.2021
6524 Clear 1 1037 20 10000 5.68 337 19:30 11.12.2021
6525 Clouds 2 1037 22 10000 5.67 334 18:52 11.12.2021
6526 Clouds 2 1036 24 10000 5.36 331 18:25 11.12.2021
6527 Clouds 3 1036 23 10000 5.29 334 17:24 11.12.2021
6528 Clouds 2 1036 23 10000 5.5 335 15:55 11.12.2021
6529 Clouds 2 1036 23 10000 5.5 335 15:30 11.12.2021
6530 Clouds 5 1033 24 10000 5.44 336 12:59 11.12.2021
6531 Clouds 7 1031 21 10000 6.32 326 11:26 11.12.2021
6532 Clouds 9 1030 20 10000 6.62 319 09:47 11.12.2021
6533 Clouds 10 1029 20 10000 6.53 313 09:18 11.12.2021
6534 Clouds 2 1031 38 10000 1.21 342 02:40 11.12.2021
6535 Clouds -2 1030 47 10000 1.4 351 00:40 11.12.2021
6536 Clouds -2 1029 48 10000 0.62 357 23:24 10.12.2021
6537 Clouds -2 1029 48 10000 1.05 359 21:57 10.12.2021
6538 Clouds -2 1029 48 10000 1.05 359 21:37 10.12.2021
6539 Clouds -1 1030 43 10000 0.38 17 19:22 10.12.2021
6540 Clouds -1 1030 43 10000 0.44 21 18:39 10.12.2021
6541 Clouds -1 1031 40 10000 0.91 2 17:21 10.12.2021
6542 Clouds 0 1031 40 10000 0.91 2 16:30 10.12.2021
6543 Clouds 0 1031 39 10000 0.95 358 15:42 10.12.2021
6544 Clouds 0 1030 38 10000 0.74 20 15:22 10.12.2021
6545 Clouds 1 1030 36 10000 0.93 18 13:52 10.12.2021
6546 Clouds 0 1030 36 10000 0.96 8 13:27 10.12.2021
6547 Clouds 1 1030 36 10000 0.96 8 12:47 10.12.2021
6548 Clouds 3 1030 34 10000 0.81 356 11:34 10.12.2021
6549 Clouds 5 1030 33 10000 0.34 284 10:38 10.12.2021
6550 Clouds 8 1029 31 10000 0.66 99 09:30 10.12.2021
6551 Clouds 8 1028 26 10000 2.29 3 07:21 10.12.2021
6552 Clouds 0 1030 39 10000 2.23 351 02:53 10.12.2021
6553 Clouds 0 1029 51 10000 2.25 343 01:32 10.12.2021
6554 Clouds -2 1028 55 10000 2.03 351 23:38 09.12.2021
6555 Clouds -2 1028 62 10000 1.62 352 22:41 09.12.2021
6556 Clouds -1 1027 70 10000 1.39 355 22:20 09.12.2021
6557 Clouds -1 1027 70 10000 1.39 355 21:38 09.12.2021
6558 Clouds -2 1027 77 10000 1.27 349 20:34 09.12.2021
6559 Clear 0 1027 82 10000 0.66 302 19:22 09.12.2021
6560 Clear 0 1027 82 10000 0.66 302 18:59 09.12.2021
6561 Clouds 0 1027 84 10000 0.5 307 17:58 09.12.2021
6562 Clear 0 1028 84 10000 0.72 263 17:29 09.12.2021
6563 Clear 2 1028 84 10000 0.72 263 16:57 09.12.2021
6564 Clear 2 1028 84 10000 0.69 248 16:20 09.12.2021
6565 Clear 2 1027 84 10000 0.18 245 14:59 09.12.2021
6566 Clear 0 1027 87 10000 0.29 0 13:52 09.12.2021
6567 Clouds 2 1027 85 10000 0.42 55 12:47 09.12.2021
6568 Clouds 3 1027 83 10000 0.48 74 11:33 09.12.2021
6569 Clouds 3 1026 77 10000 0.98 125 10:20 09.12.2021
6570 Clouds 3 1025 84 10000 0.46 168 06:59 09.12.2021
6571 Rain 3 1028 94 3022 0.6 88 03:55 09.12.2021
6572 Snow 2 1027 96 51 0.99 78 00:25 09.12.2021
6573 Clouds 2 1027 96 51 0.99 78 23:37 08.12.2021
6574 Clouds 2 1027 96 44 0.69 61 22:57 08.12.2021
6575 Rain 2 1027 96 53 0.54 49 22:25 08.12.2021
6576 Clouds 2 1027 96 53 0.54 49 21:33 08.12.2021
6577 Snow 2 1027 95 95 0.62 40 20:48 08.12.2021
6578 Snow 2 1028 95 715 0.32 68 19:56 08.12.2021
6579 Snow 2 1028 68 10000 0.81 304 18:58 08.12.2021
6580 Snow 2 1028 59 10000 0.36 278 18:22 08.12.2021
6581 Snow 2 1028 59 10000 0.36 278 18:22 08.12.2021
6582 Rain 3 1029 55 10000 0.28 274 16:53 08.12.2021
6583 Snow 2 1030 54 10000 0.5 197 15:41 08.12.2021
6584 Clouds 2 1030 52 10000 0.94 162 15:22 08.12.2021
6585 Snow 2 1030 47 10000 1.12 136 13:21 08.12.2021
6586 Clouds 4 1029 45 10000 1.27 139 10:44 08.12.2021
6587 Clouds 5 1029 43 10000 1.4 147 09:58 08.12.2021
6588 Clouds 6 1029 40 10000 1.57 177 08:34 08.12.2021
6589 Clouds 4 1031 40 10000 1.63 196 06:22 08.12.2021
6590 Clouds -3 1032 46 10000 0.18 320 00:41 08.12.2021
6591 Clouds -5 1032 47 10000 0.48 26 23:22 07.12.2021
6592 Clouds -4 1032 47 10000 0.22 29 21:25 07.12.2021
6593 Clouds -4 1032 47 10000 0.24 346 20:25 07.12.2021
6594 Clouds -5 1033 44 10000 0.13 63 19:21 07.12.2021
6595 Clouds -4 1033 43 10000 0.39 271 18:23 07.12.2021
6596 Clouds -4 1033 42 10000 0.15 315 17:27 07.12.2021
6597 Clouds -3 1033 42 10000 0.15 315 16:53 07.12.2021
6598 Clouds -3 1033 42 10000 0.04 24 16:25 07.12.2021
6599 Clouds -2 1033 41 10000 0.18 307 14:38 07.12.2021
6600 Clouds -2 1033 39 10000 0.15 252 13:41 07.12.2021
6601 Clouds 0 1033 35 10000 0.16 178 12:22 07.12.2021
6602 Clouds 1 1033 33 10000 0.33 222 11:19 07.12.2021
6603 Clouds 9 1033 32 10000 0.73 225 09:36 07.12.2021
6604 Clouds 9 1032 28 10000 1.46 211 07:50 07.12.2021
6605 Clear 8 1033 27 10000 0.52 246 05:52 07.12.2021
6606 Clear 7 1034 29 10000 0.58 268 05:26 07.12.2021
6607 Clear -5 1034 41 10000 0.84 359 23:36 06.12.2021
6608 Clear -5 1034 41 10000 0.84 4 22:41 06.12.2021
6609 Clear -3 1034 40 10000 0.98 359 21:59 06.12.2021
6610 Clear -3 1034 40 10000 0.98 359 21:31 06.12.2021
6611 Clear -5 1034 39 10000 1.25 5 20:32 06.12.2021
6612 Clear -3 1035 36 10000 1.25 343 19:24 06.12.2021
6613 Clear -3 1035 37 10000 1.17 337 18:42 06.12.2021
6614 Clear -2 1035 36 10000 1.43 339 17:54 06.12.2021
6615 Clear -2 1035 36 10000 1.43 339 17:33 06.12.2021
6616 Clear 3 1035 33 10000 1.51 339 15:52 06.12.2021
6617 Clear 0 1035 32 10000 1.56 347 14:40 06.12.2021
6618 Clear 1 1034 31 10000 1.71 359 13:35 06.12.2021
6619 Clear 2 1034 29 10000 1.96 5 12:38 06.12.2021
6620 Clear 10 1033 23 10000 2.19 5 10:28 06.12.2021
6621 Clear 12 1032 20 10000 3.8 353 07:41 06.12.2021
6622 Clear 5 1031 28 10000 4.19 349 02:28 06.12.2021
6623 Clouds 2 1026 26 10000 4.81 338 22:28 05.12.2021
6624 Clouds 4 1025 25 10000 5.14 340 21:25 05.12.2021
6625 Clouds 3 1025 25 10000 5.14 340 20:54 05.12.2021
6626 Clouds 3 1025 25 10000 4.66 347 20:18 05.12.2021
6627 Clouds 3 1024 25 10000 4.1 340 19:26 05.12.2021
6628 Clouds 2 1024 25 10000 4.63 339 18:31 05.12.2021
6629 Clouds 2 1023 28 10000 3.62 338 17:52 05.12.2021
6630 Clouds 2 1023 28 10000 3.62 338 17:34 05.12.2021
6631 Clouds 1 1023 33 10000 2.02 1 16:38 05.12.2021
6632 Clouds 1 1023 34 10000 1.74 2 16:19 05.12.2021
6633 Clouds 2 1023 35 10000 1.24 350 14:48 05.12.2021
6634 Clouds 1 1023 35 10000 1.24 350 14:30 05.12.2021
6635 Clouds 3 1022 36 10000 0.9 334 13:36 05.12.2021
6636 Clouds 3 1022 37 10000 0.59 320 12:47 05.12.2021
6637 Clouds 1 1022 39 10000 0.53 270 12:27 05.12.2021
6638 Clouds 3 1022 39 10000 0.53 270 11:46 05.12.2021
6639 Clouds 7 1022 38 10000 0.77 243 10:44 05.12.2021
6640 Clouds 9 1021 36 10000 1.06 218 09:51 05.12.2021
6641 Clear 9 1022 29 10000 1.65 201 06:31 05.12.2021
6642 Clear -3 1025 35 10000 0.24 21 01:38 05.12.2021
6643 Clear -5 1025 39 10000 1.07 15 23:25 04.12.2021
6644 Clear -4 1025 39 10000 1.16 14